<?xml version="1.0" encoding="UTF-8" standalone="no" ?>
<gpx xmlns="http://www.topografix.com/GPX/1/1" xmlns:xsi="http://www.w3.org/2001/XMLSchema-instance" xsi:schemaLocation="http://www.topografix.com/GPX/1/1 http://www.topografix.com/GPX/1/1/gpx.xsd" version="1.1" creator="VisuGPX - https://www.visugpx.com">
  <metadata>
    <name>Balade du 08 mai 2014</name>
    <desc><![CDATA[Balade tout seul, super temps, peu de circulation, pause glace à Laroque.]]></desc>
  </metadata>
  <trk>
    <name><![CDATA[2014-05-08 14:43]]></name>
    <trkseg>
      <trkpt lat="43.6322" lon="3.83796">
        <ele>69.83</ele>
        <time>2014-05-08T12:43:35Z</time>
      </trkpt>
      <trkpt lat="43.63222" lon="3.83797">
        <ele>75.12</ele>
        <time>2014-05-08T12:43:57Z</time>
      </trkpt>
      <trkpt lat="43.63223" lon="3.83797">
        <ele>74.16</ele>
        <time>2014-05-08T12:44:30Z</time>
      </trkpt>
      <trkpt lat="43.63222" lon="3.83796">
        <ele>73.2</ele>
        <time>2014-05-08T12:45:31Z</time>
      </trkpt>
      <trkpt lat="43.63225" lon="3.83781">
        <ele>73.2</ele>
        <time>2014-05-08T12:45:35Z</time>
      </trkpt>
      <trkpt lat="43.63228" lon="3.83774">
        <ele>73.2</ele>
        <time>2014-05-08T12:45:36Z</time>
      </trkpt>
      <trkpt lat="43.63234" lon="3.83767">
        <ele>72.72</ele>
        <time>2014-05-08T12:45:37Z</time>
      </trkpt>
      <trkpt lat="43.63241" lon="3.83758">
        <ele>72.24</ele>
        <time>2014-05-08T12:45:38Z</time>
      </trkpt>
      <trkpt lat="43.63249" lon="3.83749">
        <ele>71.27</ele>
        <time>2014-05-08T12:45:39Z</time>
      </trkpt>
      <trkpt lat="43.6333" lon="3.83647">
        <ele>72.24</ele>
        <time>2014-05-08T12:45:47Z</time>
      </trkpt>
      <trkpt lat="43.63408" lon="3.83498">
        <ele>75.6</ele>
        <time>2014-05-08T12:45:57Z</time>
      </trkpt>
      <trkpt lat="43.63472" lon="3.83362">
        <ele>80.89</ele>
        <time>2014-05-08T12:46:07Z</time>
      </trkpt>
      <trkpt lat="43.63545" lon="3.83266">
        <ele>81.85</ele>
        <time>2014-05-08T12:46:16Z</time>
      </trkpt>
      <trkpt lat="43.63643" lon="3.83176">
        <ele>83.77</ele>
        <time>2014-05-08T12:46:26Z</time>
      </trkpt>
      <trkpt lat="43.63648" lon="3.83173">
        <ele>84.25</ele>
        <time>2014-05-08T12:46:27Z</time>
      </trkpt>
      <trkpt lat="43.63654" lon="3.83171">
        <ele>84.25</ele>
        <time>2014-05-08T12:46:28Z</time>
      </trkpt>
      <trkpt lat="43.6366" lon="3.83172">
        <ele>84.25</ele>
        <time>2014-05-08T12:46:29Z</time>
      </trkpt>
      <trkpt lat="43.63665" lon="3.83175">
        <ele>84.73</ele>
        <time>2014-05-08T12:46:30Z</time>
      </trkpt>
      <trkpt lat="43.63672" lon="3.8318">
        <ele>84.73</ele>
        <time>2014-05-08T12:46:31Z</time>
      </trkpt>
      <trkpt lat="43.6368" lon="3.83184">
        <ele>85.21</ele>
        <time>2014-05-08T12:46:32Z</time>
      </trkpt>
      <trkpt lat="43.63691" lon="3.83186">
        <ele>85.69</ele>
        <time>2014-05-08T12:46:33Z</time>
      </trkpt>
      <trkpt lat="43.63703" lon="3.83186">
        <ele>86.18</ele>
        <time>2014-05-08T12:46:34Z</time>
      </trkpt>
      <trkpt lat="43.63714" lon="3.83184">
        <ele>87.14</ele>
        <time>2014-05-08T12:46:35Z</time>
      </trkpt>
      <trkpt lat="43.63725" lon="3.83176">
        <ele>86.66</ele>
        <time>2014-05-08T12:46:36Z</time>
      </trkpt>
      <trkpt lat="43.63735" lon="3.83165">
        <ele>87.14</ele>
        <time>2014-05-08T12:46:37Z</time>
      </trkpt>
      <trkpt lat="43.63741" lon="3.83152">
        <ele>87.14</ele>
        <time>2014-05-08T12:46:38Z</time>
      </trkpt>
      <trkpt lat="43.63745" lon="3.83134">
        <ele>87.14</ele>
        <time>2014-05-08T12:46:39Z</time>
      </trkpt>
      <trkpt lat="43.63749" lon="3.83119">
        <ele>86.18</ele>
        <time>2014-05-08T12:46:40Z</time>
      </trkpt>
      <trkpt lat="43.63756" lon="3.83104">
        <ele>86.18</ele>
        <time>2014-05-08T12:46:41Z</time>
      </trkpt>
      <trkpt lat="43.63765" lon="3.83093">
        <ele>85.69</ele>
        <time>2014-05-08T12:46:42Z</time>
      </trkpt>
      <trkpt lat="43.63776" lon="3.83083">
        <ele>85.21</ele>
        <time>2014-05-08T12:46:43Z</time>
      </trkpt>
      <trkpt lat="43.63788" lon="3.83073">
        <ele>85.21</ele>
        <time>2014-05-08T12:46:44Z</time>
      </trkpt>
      <trkpt lat="43.63872" lon="3.82977">
        <ele>85.21</ele>
        <time>2014-05-08T12:46:51Z</time>
      </trkpt>
      <trkpt lat="43.63936" lon="3.82872">
        <ele>87.62</ele>
        <time>2014-05-08T12:47:00Z</time>
      </trkpt>
      <trkpt lat="43.63936" lon="3.82871">
        <ele>88.1</ele>
        <time>2014-05-08T12:47:08Z</time>
      </trkpt>
      <trkpt lat="43.63935" lon="3.82872">
        <ele>87.62</ele>
        <time>2014-05-08T12:47:35Z</time>
      </trkpt>
      <trkpt lat="43.63954" lon="3.82844">
        <ele>88.58</ele>
        <time>2014-05-08T12:48:06Z</time>
      </trkpt>
      <trkpt lat="43.63977" lon="3.82814">
        <ele>90.02</ele>
        <time>2014-05-08T12:48:09Z</time>
      </trkpt>
      <trkpt lat="43.63987" lon="3.82807">
        <ele>90.5</ele>
        <time>2014-05-08T12:48:10Z</time>
      </trkpt>
      <trkpt lat="43.63998" lon="3.82805">
        <ele>90.98</ele>
        <time>2014-05-08T12:48:11Z</time>
      </trkpt>
      <trkpt lat="43.64023" lon="3.82802">
        <ele>91.94</ele>
        <time>2014-05-08T12:48:13Z</time>
      </trkpt>
      <trkpt lat="43.64037" lon="3.82795">
        <ele>92.42</ele>
        <time>2014-05-08T12:48:14Z</time>
      </trkpt>
      <trkpt lat="43.64051" lon="3.82785">
        <ele>92.9</ele>
        <time>2014-05-08T12:48:15Z</time>
      </trkpt>
      <trkpt lat="43.64064" lon="3.82774">
        <ele>93.39</ele>
        <time>2014-05-08T12:48:16Z</time>
      </trkpt>
      <trkpt lat="43.64078" lon="3.82761">
        <ele>93.87</ele>
        <time>2014-05-08T12:48:17Z</time>
      </trkpt>
      <trkpt lat="43.64209" lon="3.82612">
        <ele>99.15</ele>
        <time>2014-05-08T12:48:26Z</time>
      </trkpt>
      <trkpt lat="43.64285" lon="3.82457">
        <ele>103.48</ele>
        <time>2014-05-08T12:48:33Z</time>
      </trkpt>
      <trkpt lat="43.64306" lon="3.82414">
        <ele>104.92</ele>
        <time>2014-05-08T12:48:35Z</time>
      </trkpt>
      <trkpt lat="43.64318" lon="3.82396">
        <ele>105.4</ele>
        <time>2014-05-08T12:48:36Z</time>
      </trkpt>
      <trkpt lat="43.64331" lon="3.8238">
        <ele>105.88</ele>
        <time>2014-05-08T12:48:37Z</time>
      </trkpt>
      <trkpt lat="43.64343" lon="3.82367">
        <ele>106.36</ele>
        <time>2014-05-08T12:48:38Z</time>
      </trkpt>
      <trkpt lat="43.64354" lon="3.82357">
        <ele>106.84</ele>
        <time>2014-05-08T12:48:39Z</time>
      </trkpt>
      <trkpt lat="43.64364" lon="3.82353">
        <ele>107.32</ele>
        <time>2014-05-08T12:48:40Z</time>
      </trkpt>
      <trkpt lat="43.64372" lon="3.82352">
        <ele>107.81</ele>
        <time>2014-05-08T12:48:41Z</time>
      </trkpt>
      <trkpt lat="43.6438" lon="3.82355">
        <ele>108.29</ele>
        <time>2014-05-08T12:48:42Z</time>
      </trkpt>
      <trkpt lat="43.6439" lon="3.82363">
        <ele>108.29</ele>
        <time>2014-05-08T12:48:43Z</time>
      </trkpt>
      <trkpt lat="43.644" lon="3.8237">
        <ele>108.29</ele>
        <time>2014-05-08T12:48:44Z</time>
      </trkpt>
      <trkpt lat="43.64412" lon="3.82374">
        <ele>108.29</ele>
        <time>2014-05-08T12:48:45Z</time>
      </trkpt>
      <trkpt lat="43.64425" lon="3.82373">
        <ele>108.77</ele>
        <time>2014-05-08T12:48:46Z</time>
      </trkpt>
      <trkpt lat="43.64439" lon="3.82368">
        <ele>108.77</ele>
        <time>2014-05-08T12:48:47Z</time>
      </trkpt>
      <trkpt lat="43.64448" lon="3.82353">
        <ele>108.77</ele>
        <time>2014-05-08T12:48:48Z</time>
      </trkpt>
      <trkpt lat="43.64455" lon="3.82338">
        <ele>109.25</ele>
        <time>2014-05-08T12:48:49Z</time>
      </trkpt>
      <trkpt lat="43.64459" lon="3.82322">
        <ele>109.25</ele>
        <time>2014-05-08T12:48:50Z</time>
      </trkpt>
      <trkpt lat="43.64463" lon="3.82305">
        <ele>108.77</ele>
        <time>2014-05-08T12:48:51Z</time>
      </trkpt>
      <trkpt lat="43.64468" lon="3.82289">
        <ele>109.25</ele>
        <time>2014-05-08T12:48:52Z</time>
      </trkpt>
      <trkpt lat="43.64478" lon="3.82277">
        <ele>109.25</ele>
        <time>2014-05-08T12:48:53Z</time>
      </trkpt>
      <trkpt lat="43.6449" lon="3.82267">
        <ele>109.25</ele>
        <time>2014-05-08T12:48:54Z</time>
      </trkpt>
      <trkpt lat="43.64504" lon="3.82256">
        <ele>108.77</ele>
        <time>2014-05-08T12:48:55Z</time>
      </trkpt>
      <trkpt lat="43.64585" lon="3.82147">
        <ele>104.44</ele>
        <time>2014-05-08T12:49:02Z</time>
      </trkpt>
      <trkpt lat="43.6462" lon="3.8201">
        <ele>99.15</ele>
        <time>2014-05-08T12:49:09Z</time>
      </trkpt>
      <trkpt lat="43.6462" lon="3.81987">
        <ele>98.67</ele>
        <time>2014-05-08T12:49:10Z</time>
      </trkpt>
      <trkpt lat="43.64613" lon="3.81756">
        <ele>91.94</ele>
        <time>2014-05-08T12:49:19Z</time>
      </trkpt>
      <trkpt lat="43.64605" lon="3.8153">
        <ele>85.69</ele>
        <time>2014-05-08T12:49:30Z</time>
      </trkpt>
      <trkpt lat="43.64606" lon="3.81514">
        <ele>85.21</ele>
        <time>2014-05-08T12:49:31Z</time>
      </trkpt>
      <trkpt lat="43.64607" lon="3.81499">
        <ele>84.73</ele>
        <time>2014-05-08T12:49:32Z</time>
      </trkpt>
      <trkpt lat="43.64608" lon="3.81485">
        <ele>84.25</ele>
        <time>2014-05-08T12:49:33Z</time>
      </trkpt>
      <trkpt lat="43.64607" lon="3.81472">
        <ele>84.25</ele>
        <time>2014-05-08T12:49:34Z</time>
      </trkpt>
      <trkpt lat="43.64605" lon="3.81458">
        <ele>83.77</ele>
        <time>2014-05-08T12:49:35Z</time>
      </trkpt>
      <trkpt lat="43.64603" lon="3.81444">
        <ele>83.29</ele>
        <time>2014-05-08T12:49:36Z</time>
      </trkpt>
      <trkpt lat="43.64601" lon="3.81428">
        <ele>82.81</ele>
        <time>2014-05-08T12:49:37Z</time>
      </trkpt>
      <trkpt lat="43.646" lon="3.81412">
        <ele>82.33</ele>
        <time>2014-05-08T12:49:38Z</time>
      </trkpt>
      <trkpt lat="43.64595" lon="3.81154">
        <ele>76.56</ele>
        <time>2014-05-08T12:49:54Z</time>
      </trkpt>
      <trkpt lat="43.646" lon="3.81109">
        <ele>75.6</ele>
        <time>2014-05-08T12:49:57Z</time>
      </trkpt>
      <trkpt lat="43.64603" lon="3.81096">
        <ele>75.6</ele>
        <time>2014-05-08T12:49:58Z</time>
      </trkpt>
      <trkpt lat="43.6461" lon="3.81072">
        <ele>75.12</ele>
        <time>2014-05-08T12:50:00Z</time>
      </trkpt>
      <trkpt lat="43.6461" lon="3.81061">
        <ele>74.64</ele>
        <time>2014-05-08T12:50:01Z</time>
      </trkpt>
      <trkpt lat="43.64609" lon="3.81049">
        <ele>74.64</ele>
        <time>2014-05-08T12:50:02Z</time>
      </trkpt>
      <trkpt lat="43.64608" lon="3.81036">
        <ele>74.64</ele>
        <time>2014-05-08T12:50:03Z</time>
      </trkpt>
      <trkpt lat="43.64608" lon="3.81023">
        <ele>74.64</ele>
        <time>2014-05-08T12:50:04Z</time>
      </trkpt>
      <trkpt lat="43.64608" lon="3.81009">
        <ele>74.64</ele>
        <time>2014-05-08T12:50:05Z</time>
      </trkpt>
      <trkpt lat="43.6461" lon="3.80995">
        <ele>74.64</ele>
        <time>2014-05-08T12:50:06Z</time>
      </trkpt>
      <trkpt lat="43.64612" lon="3.80981">
        <ele>74.64</ele>
        <time>2014-05-08T12:50:07Z</time>
      </trkpt>
      <trkpt lat="43.64653" lon="3.80809">
        <ele>73.68</ele>
        <time>2014-05-08T12:50:20Z</time>
      </trkpt>
      <trkpt lat="43.64687" lon="3.80664">
        <ele>72.24</ele>
        <time>2014-05-08T12:50:31Z</time>
      </trkpt>
      <trkpt lat="43.64689" lon="3.80631">
        <ele>71.27</ele>
        <time>2014-05-08T12:50:37Z</time>
      </trkpt>
      <trkpt lat="43.6469" lon="3.80613">
        <ele>70.79</ele>
        <time>2014-05-08T12:50:51Z</time>
      </trkpt>
      <trkpt lat="43.64689" lon="3.80602">
        <ele>70.79</ele>
        <time>2014-05-08T12:50:52Z</time>
      </trkpt>
      <trkpt lat="43.64675" lon="3.80471">
        <ele>70.79</ele>
        <time>2014-05-08T12:51:02Z</time>
      </trkpt>
      <trkpt lat="43.64677" lon="3.80311">
        <ele>71.27</ele>
        <time>2014-05-08T12:51:13Z</time>
      </trkpt>
      <trkpt lat="43.64686" lon="3.80215">
        <ele>71.76</ele>
        <time>2014-05-08T12:51:22Z</time>
      </trkpt>
      <trkpt lat="43.64728" lon="3.8008">
        <ele>73.68</ele>
        <time>2014-05-08T12:51:32Z</time>
      </trkpt>
      <trkpt lat="43.64757" lon="3.79977">
        <ele>74.16</ele>
        <time>2014-05-08T12:51:42Z</time>
      </trkpt>
      <trkpt lat="43.64766" lon="3.79849">
        <ele>73.68</ele>
        <time>2014-05-08T12:51:56Z</time>
      </trkpt>
      <trkpt lat="43.64772" lon="3.79792">
        <ele>73.2</ele>
        <time>2014-05-08T12:52:02Z</time>
      </trkpt>
      <trkpt lat="43.64789" lon="3.7975">
        <ele>74.16</ele>
        <time>2014-05-08T12:52:08Z</time>
      </trkpt>
      <trkpt lat="43.64793" lon="3.79743">
        <ele>74.16</ele>
        <time>2014-05-08T12:52:09Z</time>
      </trkpt>
      <trkpt lat="43.64841" lon="3.79652">
        <ele>74.64</ele>
        <time>2014-05-08T12:52:20Z</time>
      </trkpt>
      <trkpt lat="43.64903" lon="3.7953">
        <ele>74.64</ele>
        <time>2014-05-08T12:52:30Z</time>
      </trkpt>
      <trkpt lat="43.64958" lon="3.79405">
        <ele>74.16</ele>
        <time>2014-05-08T12:52:40Z</time>
      </trkpt>
      <trkpt lat="43.64983" lon="3.79292">
        <ele>74.16</ele>
        <time>2014-05-08T12:52:48Z</time>
      </trkpt>
      <trkpt lat="43.65005" lon="3.792">
        <ele>74.16</ele>
        <time>2014-05-08T12:52:56Z</time>
      </trkpt>
      <trkpt lat="43.65011" lon="3.79188">
        <ele>74.64</ele>
        <time>2014-05-08T12:52:57Z</time>
      </trkpt>
      <trkpt lat="43.65018" lon="3.79177">
        <ele>74.64</ele>
        <time>2014-05-08T12:52:58Z</time>
      </trkpt>
      <trkpt lat="43.65026" lon="3.79167">
        <ele>74.64</ele>
        <time>2014-05-08T12:52:59Z</time>
      </trkpt>
      <trkpt lat="43.65034" lon="3.79157">
        <ele>74.64</ele>
        <time>2014-05-08T12:53:00Z</time>
      </trkpt>
      <trkpt lat="43.65041" lon="3.79148">
        <ele>74.64</ele>
        <time>2014-05-08T12:53:01Z</time>
      </trkpt>
      <trkpt lat="43.65046" lon="3.79136">
        <ele>74.64</ele>
        <time>2014-05-08T12:53:02Z</time>
      </trkpt>
      <trkpt lat="43.65055" lon="3.79114">
        <ele>74.64</ele>
        <time>2014-05-08T12:53:04Z</time>
      </trkpt>
      <trkpt lat="43.65061" lon="3.79104">
        <ele>75.12</ele>
        <time>2014-05-08T12:53:05Z</time>
      </trkpt>
      <trkpt lat="43.65068" lon="3.79096">
        <ele>75.12</ele>
        <time>2014-05-08T12:53:06Z</time>
      </trkpt>
      <trkpt lat="43.65073" lon="3.7909">
        <ele>75.12</ele>
        <time>2014-05-08T12:53:07Z</time>
      </trkpt>
      <trkpt lat="43.65076" lon="3.79083">
        <ele>75.12</ele>
        <time>2014-05-08T12:53:08Z</time>
      </trkpt>
      <trkpt lat="43.65078" lon="3.79075">
        <ele>74.64</ele>
        <time>2014-05-08T12:53:09Z</time>
      </trkpt>
      <trkpt lat="43.6508" lon="3.79066">
        <ele>74.16</ele>
        <time>2014-05-08T12:53:10Z</time>
      </trkpt>
      <trkpt lat="43.65083" lon="3.79056">
        <ele>73.68</ele>
        <time>2014-05-08T12:53:11Z</time>
      </trkpt>
      <trkpt lat="43.65089" lon="3.79046">
        <ele>73.68</ele>
        <time>2014-05-08T12:53:12Z</time>
      </trkpt>
      <trkpt lat="43.65095" lon="3.79035">
        <ele>73.2</ele>
        <time>2014-05-08T12:53:13Z</time>
      </trkpt>
      <trkpt lat="43.651" lon="3.79022">
        <ele>73.2</ele>
        <time>2014-05-08T12:53:14Z</time>
      </trkpt>
      <trkpt lat="43.65102" lon="3.79009">
        <ele>72.72</ele>
        <time>2014-05-08T12:53:15Z</time>
      </trkpt>
      <trkpt lat="43.65102" lon="3.78997">
        <ele>72.72</ele>
        <time>2014-05-08T12:53:16Z</time>
      </trkpt>
      <trkpt lat="43.65101" lon="3.78988">
        <ele>71.76</ele>
        <time>2014-05-08T12:53:17Z</time>
      </trkpt>
      <trkpt lat="43.651" lon="3.78983">
        <ele>71.76</ele>
        <time>2014-05-08T12:53:18Z</time>
      </trkpt>
      <trkpt lat="43.65098" lon="3.78981">
        <ele>72.24</ele>
        <time>2014-05-08T12:53:19Z</time>
      </trkpt>
      <trkpt lat="43.65094" lon="3.78974">
        <ele>74.16</ele>
        <time>2014-05-08T12:53:30Z</time>
      </trkpt>
      <trkpt lat="43.65074" lon="3.78909">
        <ele>73.68</ele>
        <time>2014-05-08T12:53:36Z</time>
      </trkpt>
      <trkpt lat="43.65073" lon="3.78897">
        <ele>73.68</ele>
        <time>2014-05-08T12:53:37Z</time>
      </trkpt>
      <trkpt lat="43.65074" lon="3.78885">
        <ele>74.16</ele>
        <time>2014-05-08T12:53:38Z</time>
      </trkpt>
      <trkpt lat="43.65077" lon="3.78873">
        <ele>74.16</ele>
        <time>2014-05-08T12:53:39Z</time>
      </trkpt>
      <trkpt lat="43.65083" lon="3.78861">
        <ele>74.64</ele>
        <time>2014-05-08T12:53:40Z</time>
      </trkpt>
      <trkpt lat="43.65091" lon="3.7885">
        <ele>75.12</ele>
        <time>2014-05-08T12:53:41Z</time>
      </trkpt>
      <trkpt lat="43.65103" lon="3.78841">
        <ele>75.6</ele>
        <time>2014-05-08T12:53:42Z</time>
      </trkpt>
      <trkpt lat="43.65117" lon="3.78832">
        <ele>75.6</ele>
        <time>2014-05-08T12:53:43Z</time>
      </trkpt>
      <trkpt lat="43.65131" lon="3.78823">
        <ele>76.08</ele>
        <time>2014-05-08T12:53:44Z</time>
      </trkpt>
      <trkpt lat="43.65204" lon="3.78772">
        <ele>76.08</ele>
        <time>2014-05-08T12:53:50Z</time>
      </trkpt>
      <trkpt lat="43.65212" lon="3.78761">
        <ele>76.08</ele>
        <time>2014-05-08T12:53:51Z</time>
      </trkpt>
      <trkpt lat="43.65217" lon="3.78748">
        <ele>76.08</ele>
        <time>2014-05-08T12:53:52Z</time>
      </trkpt>
      <trkpt lat="43.65218" lon="3.78733">
        <ele>76.08</ele>
        <time>2014-05-08T12:53:53Z</time>
      </trkpt>
      <trkpt lat="43.65217" lon="3.78717">
        <ele>76.08</ele>
        <time>2014-05-08T12:53:54Z</time>
      </trkpt>
      <trkpt lat="43.65215" lon="3.78699">
        <ele>76.56</ele>
        <time>2014-05-08T12:53:55Z</time>
      </trkpt>
      <trkpt lat="43.65203" lon="3.78574">
        <ele>80.41</ele>
        <time>2014-05-08T12:54:03Z</time>
      </trkpt>
      <trkpt lat="43.65198" lon="3.78538">
        <ele>81.37</ele>
        <time>2014-05-08T12:54:05Z</time>
      </trkpt>
      <trkpt lat="43.65197" lon="3.78521">
        <ele>82.33</ele>
        <time>2014-05-08T12:54:06Z</time>
      </trkpt>
      <trkpt lat="43.65198" lon="3.78504">
        <ele>83.29</ele>
        <time>2014-05-08T12:54:07Z</time>
      </trkpt>
      <trkpt lat="43.65202" lon="3.78445">
        <ele>84.73</ele>
        <time>2014-05-08T12:54:11Z</time>
      </trkpt>
      <trkpt lat="43.652" lon="3.78427">
        <ele>85.21</ele>
        <time>2014-05-08T12:54:12Z</time>
      </trkpt>
      <trkpt lat="43.65171" lon="3.78249">
        <ele>88.1</ele>
        <time>2014-05-08T12:54:23Z</time>
      </trkpt>
      <trkpt lat="43.65171" lon="3.78206">
        <ele>88.58</ele>
        <time>2014-05-08T12:54:26Z</time>
      </trkpt>
      <trkpt lat="43.65173" lon="3.78189">
        <ele>89.06</ele>
        <time>2014-05-08T12:54:27Z</time>
      </trkpt>
      <trkpt lat="43.65176" lon="3.78171">
        <ele>89.54</ele>
        <time>2014-05-08T12:54:28Z</time>
      </trkpt>
      <trkpt lat="43.65184" lon="3.78116">
        <ele>90.5</ele>
        <time>2014-05-08T12:54:31Z</time>
      </trkpt>
      <trkpt lat="43.65183" lon="3.78097">
        <ele>90.98</ele>
        <time>2014-05-08T12:54:32Z</time>
      </trkpt>
      <trkpt lat="43.6518" lon="3.78079">
        <ele>90.98</ele>
        <time>2014-05-08T12:54:33Z</time>
      </trkpt>
      <trkpt lat="43.65177" lon="3.78062">
        <ele>91.46</ele>
        <time>2014-05-08T12:54:34Z</time>
      </trkpt>
      <trkpt lat="43.65172" lon="3.78047">
        <ele>91.94</ele>
        <time>2014-05-08T12:54:35Z</time>
      </trkpt>
      <trkpt lat="43.65164" lon="3.78038">
        <ele>91.94</ele>
        <time>2014-05-08T12:54:36Z</time>
      </trkpt>
      <trkpt lat="43.65154" lon="3.78037">
        <ele>92.42</ele>
        <time>2014-05-08T12:54:37Z</time>
      </trkpt>
      <trkpt lat="43.65144" lon="3.78038">
        <ele>92.42</ele>
        <time>2014-05-08T12:54:38Z</time>
      </trkpt>
      <trkpt lat="43.65134" lon="3.78036">
        <ele>92.42</ele>
        <time>2014-05-08T12:54:39Z</time>
      </trkpt>
      <trkpt lat="43.65127" lon="3.78029">
        <ele>92.9</ele>
        <time>2014-05-08T12:54:40Z</time>
      </trkpt>
      <trkpt lat="43.65122" lon="3.78018">
        <ele>92.9</ele>
        <time>2014-05-08T12:54:41Z</time>
      </trkpt>
      <trkpt lat="43.6512" lon="3.78002">
        <ele>92.9</ele>
        <time>2014-05-08T12:54:42Z</time>
      </trkpt>
      <trkpt lat="43.65118" lon="3.77982">
        <ele>92.9</ele>
        <time>2014-05-08T12:54:43Z</time>
      </trkpt>
      <trkpt lat="43.65088" lon="3.77842">
        <ele>96.27</ele>
        <time>2014-05-08T12:54:49Z</time>
      </trkpt>
      <trkpt lat="43.6508" lon="3.7782">
        <ele>96.75</ele>
        <time>2014-05-08T12:54:50Z</time>
      </trkpt>
      <trkpt lat="43.6507" lon="3.77798">
        <ele>97.71</ele>
        <time>2014-05-08T12:54:51Z</time>
      </trkpt>
      <trkpt lat="43.65041" lon="3.77753">
        <ele>99.63</ele>
        <time>2014-05-08T12:54:54Z</time>
      </trkpt>
      <trkpt lat="43.65028" lon="3.77747">
        <ele>100.11</ele>
        <time>2014-05-08T12:54:55Z</time>
      </trkpt>
      <trkpt lat="43.65012" lon="3.77745">
        <ele>100.6</ele>
        <time>2014-05-08T12:54:56Z</time>
      </trkpt>
      <trkpt lat="43.64869" lon="3.77729">
        <ele>106.84</ele>
        <time>2014-05-08T12:55:05Z</time>
      </trkpt>
      <trkpt lat="43.64855" lon="3.77731">
        <ele>107.32</ele>
        <time>2014-05-08T12:55:06Z</time>
      </trkpt>
      <trkpt lat="43.64824" lon="3.77737">
        <ele>108.77</ele>
        <time>2014-05-08T12:55:08Z</time>
      </trkpt>
      <trkpt lat="43.64807" lon="3.77735">
        <ele>109.25</ele>
        <time>2014-05-08T12:55:09Z</time>
      </trkpt>
      <trkpt lat="43.64746" lon="3.77714">
        <ele>112.13</ele>
        <time>2014-05-08T12:55:13Z</time>
      </trkpt>
      <trkpt lat="43.64733" lon="3.77701">
        <ele>112.61</ele>
        <time>2014-05-08T12:55:14Z</time>
      </trkpt>
      <trkpt lat="43.64722" lon="3.77683">
        <ele>113.09</ele>
        <time>2014-05-08T12:55:15Z</time>
      </trkpt>
      <trkpt lat="43.64712" lon="3.77663">
        <ele>114.05</ele>
        <time>2014-05-08T12:55:16Z</time>
      </trkpt>
      <trkpt lat="43.64702" lon="3.77644">
        <ele>115.01</ele>
        <time>2014-05-08T12:55:17Z</time>
      </trkpt>
      <trkpt lat="43.64691" lon="3.77626">
        <ele>115.5</ele>
        <time>2014-05-08T12:55:18Z</time>
      </trkpt>
      <trkpt lat="43.64678" lon="3.77613">
        <ele>116.46</ele>
        <time>2014-05-08T12:55:19Z</time>
      </trkpt>
      <trkpt lat="43.64665" lon="3.77606">
        <ele>116.94</ele>
        <time>2014-05-08T12:55:20Z</time>
      </trkpt>
      <trkpt lat="43.64651" lon="3.77602">
        <ele>117.9</ele>
        <time>2014-05-08T12:55:21Z</time>
      </trkpt>
      <trkpt lat="43.64639" lon="3.77599">
        <ele>117.9</ele>
        <time>2014-05-08T12:55:22Z</time>
      </trkpt>
      <trkpt lat="43.64627" lon="3.77595">
        <ele>118.86</ele>
        <time>2014-05-08T12:55:23Z</time>
      </trkpt>
      <trkpt lat="43.64619" lon="3.77587">
        <ele>119.34</ele>
        <time>2014-05-08T12:55:24Z</time>
      </trkpt>
      <trkpt lat="43.64612" lon="3.77575">
        <ele>119.82</ele>
        <time>2014-05-08T12:55:25Z</time>
      </trkpt>
      <trkpt lat="43.64609" lon="3.77555">
        <ele>120.3</ele>
        <time>2014-05-08T12:55:26Z</time>
      </trkpt>
      <trkpt lat="43.64611" lon="3.77534">
        <ele>121.74</ele>
        <time>2014-05-08T12:55:27Z</time>
      </trkpt>
      <trkpt lat="43.64615" lon="3.77514">
        <ele>122.71</ele>
        <time>2014-05-08T12:55:28Z</time>
      </trkpt>
      <trkpt lat="43.64619" lon="3.77497">
        <ele>123.19</ele>
        <time>2014-05-08T12:55:29Z</time>
      </trkpt>
      <trkpt lat="43.64625" lon="3.77482">
        <ele>124.15</ele>
        <time>2014-05-08T12:55:30Z</time>
      </trkpt>
      <trkpt lat="43.64632" lon="3.77469">
        <ele>124.63</ele>
        <time>2014-05-08T12:55:31Z</time>
      </trkpt>
      <trkpt lat="43.64638" lon="3.77455">
        <ele>125.11</ele>
        <time>2014-05-08T12:55:32Z</time>
      </trkpt>
      <trkpt lat="43.64643" lon="3.7744">
        <ele>125.59</ele>
        <time>2014-05-08T12:55:33Z</time>
      </trkpt>
      <trkpt lat="43.64645" lon="3.77423">
        <ele>126.07</ele>
        <time>2014-05-08T12:55:34Z</time>
      </trkpt>
      <trkpt lat="43.64645" lon="3.77404">
        <ele>126.55</ele>
        <time>2014-05-08T12:55:35Z</time>
      </trkpt>
      <trkpt lat="43.64643" lon="3.7738">
        <ele>127.03</ele>
        <time>2014-05-08T12:55:36Z</time>
      </trkpt>
      <trkpt lat="43.64637" lon="3.77279">
        <ele>128.95</ele>
        <time>2014-05-08T12:55:40Z</time>
      </trkpt>
      <trkpt lat="43.64633" lon="3.77257">
        <ele>129.43</ele>
        <time>2014-05-08T12:55:41Z</time>
      </trkpt>
      <trkpt lat="43.64627" lon="3.77236">
        <ele>130.4</ele>
        <time>2014-05-08T12:55:42Z</time>
      </trkpt>
      <trkpt lat="43.64621" lon="3.77217">
        <ele>130.4</ele>
        <time>2014-05-08T12:55:43Z</time>
      </trkpt>
      <trkpt lat="43.64619" lon="3.77198">
        <ele>130.88</ele>
        <time>2014-05-08T12:55:44Z</time>
      </trkpt>
      <trkpt lat="43.6462" lon="3.77179">
        <ele>131.36</ele>
        <time>2014-05-08T12:55:45Z</time>
      </trkpt>
      <trkpt lat="43.64625" lon="3.77157">
        <ele>131.84</ele>
        <time>2014-05-08T12:55:46Z</time>
      </trkpt>
      <trkpt lat="43.64632" lon="3.77137">
        <ele>132.8</ele>
        <time>2014-05-08T12:55:47Z</time>
      </trkpt>
      <trkpt lat="43.64638" lon="3.77117">
        <ele>133.28</ele>
        <time>2014-05-08T12:55:48Z</time>
      </trkpt>
      <trkpt lat="43.64657" lon="3.77047">
        <ele>135.68</ele>
        <time>2014-05-08T12:55:52Z</time>
      </trkpt>
      <trkpt lat="43.64659" lon="3.77027">
        <ele>135.68</ele>
        <time>2014-05-08T12:55:53Z</time>
      </trkpt>
      <trkpt lat="43.64659" lon="3.77006">
        <ele>135.68</ele>
        <time>2014-05-08T12:55:54Z</time>
      </trkpt>
      <trkpt lat="43.6466" lon="3.76822">
        <ele>135.68</ele>
        <time>2014-05-08T12:56:04Z</time>
      </trkpt>
      <trkpt lat="43.64655" lon="3.76809">
        <ele>135.68</ele>
        <time>2014-05-08T12:56:05Z</time>
      </trkpt>
      <trkpt lat="43.64646" lon="3.76799">
        <ele>135.2</ele>
        <time>2014-05-08T12:56:06Z</time>
      </trkpt>
      <trkpt lat="43.64634" lon="3.76792">
        <ele>135.2</ele>
        <time>2014-05-08T12:56:07Z</time>
      </trkpt>
      <trkpt lat="43.6462" lon="3.76786">
        <ele>135.2</ele>
        <time>2014-05-08T12:56:08Z</time>
      </trkpt>
      <trkpt lat="43.64606" lon="3.76779">
        <ele>135.2</ele>
        <time>2014-05-08T12:56:09Z</time>
      </trkpt>
      <trkpt lat="43.64591" lon="3.76767">
        <ele>135.68</ele>
        <time>2014-05-08T12:56:10Z</time>
      </trkpt>
      <trkpt lat="43.64579" lon="3.7675">
        <ele>136.16</ele>
        <time>2014-05-08T12:56:11Z</time>
      </trkpt>
      <trkpt lat="43.6457" lon="3.76731">
        <ele>137.13</ele>
        <time>2014-05-08T12:56:12Z</time>
      </trkpt>
      <trkpt lat="43.64561" lon="3.76712">
        <ele>137.61</ele>
        <time>2014-05-08T12:56:13Z</time>
      </trkpt>
      <trkpt lat="43.64552" lon="3.76695">
        <ele>138.09</ele>
        <time>2014-05-08T12:56:14Z</time>
      </trkpt>
      <trkpt lat="43.6454" lon="3.76679">
        <ele>138.09</ele>
        <time>2014-05-08T12:56:15Z</time>
      </trkpt>
      <trkpt lat="43.64507" lon="3.76631">
        <ele>137.61</ele>
        <time>2014-05-08T12:56:18Z</time>
      </trkpt>
      <trkpt lat="43.64499" lon="3.76611">
        <ele>137.61</ele>
        <time>2014-05-08T12:56:19Z</time>
      </trkpt>
      <trkpt lat="43.64493" lon="3.76588">
        <ele>137.61</ele>
        <time>2014-05-08T12:56:20Z</time>
      </trkpt>
      <trkpt lat="43.64488" lon="3.76563">
        <ele>137.13</ele>
        <time>2014-05-08T12:56:21Z</time>
      </trkpt>
      <trkpt lat="43.64484" lon="3.76536">
        <ele>137.13</ele>
        <time>2014-05-08T12:56:22Z</time>
      </trkpt>
      <trkpt lat="43.64481" lon="3.76508">
        <ele>137.13</ele>
        <time>2014-05-08T12:56:23Z</time>
      </trkpt>
      <trkpt lat="43.64479" lon="3.76479">
        <ele>137.13</ele>
        <time>2014-05-08T12:56:24Z</time>
      </trkpt>
      <trkpt lat="43.64449" lon="3.76312">
        <ele>137.61</ele>
        <time>2014-05-08T12:56:30Z</time>
      </trkpt>
      <trkpt lat="43.64402" lon="3.76133">
        <ele>140.49</ele>
        <time>2014-05-08T12:56:38Z</time>
      </trkpt>
      <trkpt lat="43.64362" lon="3.75953">
        <ele>140.01</ele>
        <time>2014-05-08T12:56:45Z</time>
      </trkpt>
      <trkpt lat="43.64306" lon="3.75685">
        <ele>138.57</ele>
        <time>2014-05-08T12:56:53Z</time>
      </trkpt>
      <trkpt lat="43.64233" lon="3.75449">
        <ele>139.53</ele>
        <time>2014-05-08T12:57:01Z</time>
      </trkpt>
      <trkpt lat="43.64151" lon="3.7523">
        <ele>146.26</ele>
        <time>2014-05-08T12:57:09Z</time>
      </trkpt>
      <trkpt lat="43.64035" lon="3.75007">
        <ele>153.47</ele>
        <time>2014-05-08T12:57:19Z</time>
      </trkpt>
      <trkpt lat="43.64023" lon="3.74993">
        <ele>153.95</ele>
        <time>2014-05-08T12:57:20Z</time>
      </trkpt>
      <trkpt lat="43.64008" lon="3.74982">
        <ele>154.43</ele>
        <time>2014-05-08T12:57:21Z</time>
      </trkpt>
      <trkpt lat="43.63952" lon="3.7495">
        <ele>155.87</ele>
        <time>2014-05-08T12:57:25Z</time>
      </trkpt>
      <trkpt lat="43.6394" lon="3.74948">
        <ele>156.35</ele>
        <time>2014-05-08T12:57:26Z</time>
      </trkpt>
      <trkpt lat="43.63929" lon="3.74948">
        <ele>156.35</ele>
        <time>2014-05-08T12:57:27Z</time>
      </trkpt>
      <trkpt lat="43.63909" lon="3.74949">
        <ele>157.31</ele>
        <time>2014-05-08T12:57:30Z</time>
      </trkpt>
      <trkpt lat="43.63906" lon="3.74948">
        <ele>157.79</ele>
        <time>2014-05-08T12:57:31Z</time>
      </trkpt>
      <trkpt lat="43.63904" lon="3.74946">
        <ele>157.79</ele>
        <time>2014-05-08T12:57:32Z</time>
      </trkpt>
      <trkpt lat="43.63905" lon="3.74942">
        <ele>158.75</ele>
        <time>2014-05-08T12:57:38Z</time>
      </trkpt>
      <trkpt lat="43.63909" lon="3.74938">
        <ele>158.75</ele>
        <time>2014-05-08T12:57:39Z</time>
      </trkpt>
      <trkpt lat="43.63916" lon="3.74928">
        <ele>158.75</ele>
        <time>2014-05-08T12:57:40Z</time>
      </trkpt>
      <trkpt lat="43.63962" lon="3.7484">
        <ele>155.87</ele>
        <time>2014-05-08T12:57:45Z</time>
      </trkpt>
      <trkpt lat="43.64044" lon="3.74593">
        <ele>152.99</ele>
        <time>2014-05-08T12:57:54Z</time>
      </trkpt>
      <trkpt lat="43.64115" lon="3.74372">
        <ele>152.51</ele>
        <time>2014-05-08T12:58:03Z</time>
      </trkpt>
      <trkpt lat="43.64151" lon="3.74244">
        <ele>152.51</ele>
        <time>2014-05-08T12:58:11Z</time>
      </trkpt>
      <trkpt lat="43.64156" lon="3.74233">
        <ele>152.51</ele>
        <time>2014-05-08T12:58:12Z</time>
      </trkpt>
      <trkpt lat="43.64165" lon="3.74215">
        <ele>152.51</ele>
        <time>2014-05-08T12:58:14Z</time>
      </trkpt>
      <trkpt lat="43.64163" lon="3.74209">
        <ele>152.51</ele>
        <time>2014-05-08T12:58:15Z</time>
      </trkpt>
      <trkpt lat="43.64157" lon="3.74204">
        <ele>152.51</ele>
        <time>2014-05-08T12:58:16Z</time>
      </trkpt>
      <trkpt lat="43.64133" lon="3.74197">
        <ele>152.03</ele>
        <time>2014-05-08T12:58:19Z</time>
      </trkpt>
      <trkpt lat="43.64124" lon="3.74188">
        <ele>152.03</ele>
        <time>2014-05-08T12:58:20Z</time>
      </trkpt>
      <trkpt lat="43.64117" lon="3.74175">
        <ele>151.54</ele>
        <time>2014-05-08T12:58:21Z</time>
      </trkpt>
      <trkpt lat="43.64113" lon="3.74158">
        <ele>151.06</ele>
        <time>2014-05-08T12:58:22Z</time>
      </trkpt>
      <trkpt lat="43.64113" lon="3.74138">
        <ele>151.06</ele>
        <time>2014-05-08T12:58:23Z</time>
      </trkpt>
      <trkpt lat="43.64116" lon="3.74116">
        <ele>151.06</ele>
        <time>2014-05-08T12:58:24Z</time>
      </trkpt>
      <trkpt lat="43.6412" lon="3.74093">
        <ele>150.58</ele>
        <time>2014-05-08T12:58:25Z</time>
      </trkpt>
      <trkpt lat="43.64122" lon="3.74068">
        <ele>150.1</ele>
        <time>2014-05-08T12:58:26Z</time>
      </trkpt>
      <trkpt lat="43.6412" lon="3.74043">
        <ele>150.1</ele>
        <time>2014-05-08T12:58:27Z</time>
      </trkpt>
      <trkpt lat="43.64116" lon="3.74015">
        <ele>149.62</ele>
        <time>2014-05-08T12:58:28Z</time>
      </trkpt>
      <trkpt lat="43.6411" lon="3.73984">
        <ele>149.62</ele>
        <time>2014-05-08T12:58:29Z</time>
      </trkpt>
      <trkpt lat="43.64103" lon="3.73951">
        <ele>149.14</ele>
        <time>2014-05-08T12:58:30Z</time>
      </trkpt>
      <trkpt lat="43.64045" lon="3.73716">
        <ele>146.74</ele>
        <time>2014-05-08T12:58:37Z</time>
      </trkpt>
      <trkpt lat="43.64026" lon="3.73432">
        <ele>143.85</ele>
        <time>2014-05-08T12:58:45Z</time>
      </trkpt>
      <trkpt lat="43.64032" lon="3.73395">
        <ele>143.37</ele>
        <time>2014-05-08T12:58:46Z</time>
      </trkpt>
      <trkpt lat="43.64035" lon="3.73358">
        <ele>142.89</ele>
        <time>2014-05-08T12:58:47Z</time>
      </trkpt>
      <trkpt lat="43.64036" lon="3.73321">
        <ele>142.41</ele>
        <time>2014-05-08T12:58:48Z</time>
      </trkpt>
      <trkpt lat="43.64034" lon="3.73284">
        <ele>141.93</ele>
        <time>2014-05-08T12:58:49Z</time>
      </trkpt>
      <trkpt lat="43.64032" lon="3.73247">
        <ele>141.45</ele>
        <time>2014-05-08T12:58:50Z</time>
      </trkpt>
      <trkpt lat="43.64033" lon="3.73173">
        <ele>140.49</ele>
        <time>2014-05-08T12:58:52Z</time>
      </trkpt>
      <trkpt lat="43.64039" lon="3.73135">
        <ele>140.01</ele>
        <time>2014-05-08T12:58:53Z</time>
      </trkpt>
      <trkpt lat="43.64054" lon="3.7292">
        <ele>137.61</ele>
        <time>2014-05-08T12:58:59Z</time>
      </trkpt>
      <trkpt lat="43.64059" lon="3.72886">
        <ele>137.13</ele>
        <time>2014-05-08T12:59:00Z</time>
      </trkpt>
      <trkpt lat="43.64067" lon="3.72852">
        <ele>136.64</ele>
        <time>2014-05-08T12:59:01Z</time>
      </trkpt>
      <trkpt lat="43.64099" lon="3.7264">
        <ele>134.24</ele>
        <time>2014-05-08T12:59:07Z</time>
      </trkpt>
      <trkpt lat="43.64166" lon="3.72393">
        <ele>131.84</ele>
        <time>2014-05-08T12:59:14Z</time>
      </trkpt>
      <trkpt lat="43.64242" lon="3.72027">
        <ele>132.32</ele>
        <time>2014-05-08T12:59:23Z</time>
      </trkpt>
      <trkpt lat="43.64318" lon="3.71669">
        <ele>135.2</ele>
        <time>2014-05-08T12:59:33Z</time>
      </trkpt>
      <trkpt lat="43.64331" lon="3.71641">
        <ele>135.2</ele>
        <time>2014-05-08T12:59:34Z</time>
      </trkpt>
      <trkpt lat="43.64348" lon="3.71616">
        <ele>135.2</ele>
        <time>2014-05-08T12:59:35Z</time>
      </trkpt>
      <trkpt lat="43.64366" lon="3.71595">
        <ele>135.2</ele>
        <time>2014-05-08T12:59:36Z</time>
      </trkpt>
      <trkpt lat="43.64383" lon="3.71576">
        <ele>135.2</ele>
        <time>2014-05-08T12:59:37Z</time>
      </trkpt>
      <trkpt lat="43.64412" lon="3.71536">
        <ele>135.2</ele>
        <time>2014-05-08T12:59:39Z</time>
      </trkpt>
      <trkpt lat="43.64421" lon="3.71512">
        <ele>134.72</ele>
        <time>2014-05-08T12:59:40Z</time>
      </trkpt>
      <trkpt lat="43.64427" lon="3.71488">
        <ele>133.76</ele>
        <time>2014-05-08T12:59:41Z</time>
      </trkpt>
      <trkpt lat="43.64428" lon="3.71462">
        <ele>133.28</ele>
        <time>2014-05-08T12:59:42Z</time>
      </trkpt>
      <trkpt lat="43.64425" lon="3.71436">
        <ele>133.28</ele>
        <time>2014-05-08T12:59:43Z</time>
      </trkpt>
      <trkpt lat="43.64417" lon="3.7141">
        <ele>132.8</ele>
        <time>2014-05-08T12:59:44Z</time>
      </trkpt>
      <trkpt lat="43.64407" lon="3.71384">
        <ele>132.32</ele>
        <time>2014-05-08T12:59:45Z</time>
      </trkpt>
      <trkpt lat="43.64396" lon="3.71357">
        <ele>132.32</ele>
        <time>2014-05-08T12:59:46Z</time>
      </trkpt>
      <trkpt lat="43.64387" lon="3.71331">
        <ele>132.32</ele>
        <time>2014-05-08T12:59:47Z</time>
      </trkpt>
      <trkpt lat="43.64381" lon="3.71304">
        <ele>132.32</ele>
        <time>2014-05-08T12:59:48Z</time>
      </trkpt>
      <trkpt lat="43.64378" lon="3.71277">
        <ele>132.32</ele>
        <time>2014-05-08T12:59:49Z</time>
      </trkpt>
      <trkpt lat="43.6438" lon="3.71245">
        <ele>132.32</ele>
        <time>2014-05-08T12:59:50Z</time>
      </trkpt>
      <trkpt lat="43.64383" lon="3.71214">
        <ele>131.36</ele>
        <time>2014-05-08T12:59:51Z</time>
      </trkpt>
      <trkpt lat="43.64386" lon="3.71182">
        <ele>130.4</ele>
        <time>2014-05-08T12:59:52Z</time>
      </trkpt>
      <trkpt lat="43.64407" lon="3.71013">
        <ele>125.59</ele>
        <time>2014-05-08T12:59:58Z</time>
      </trkpt>
      <trkpt lat="43.64418" lon="3.7099">
        <ele>125.11</ele>
        <time>2014-05-08T12:59:59Z</time>
      </trkpt>
      <trkpt lat="43.64432" lon="3.70967">
        <ele>124.63</ele>
        <time>2014-05-08T13:00:00Z</time>
      </trkpt>
      <trkpt lat="43.64447" lon="3.70944">
        <ele>123.67</ele>
        <time>2014-05-08T13:00:01Z</time>
      </trkpt>
      <trkpt lat="43.64463" lon="3.70923">
        <ele>122.71</ele>
        <time>2014-05-08T13:00:02Z</time>
      </trkpt>
      <trkpt lat="43.64492" lon="3.70881">
        <ele>120.78</ele>
        <time>2014-05-08T13:00:04Z</time>
      </trkpt>
      <trkpt lat="43.64503" lon="3.70858">
        <ele>119.82</ele>
        <time>2014-05-08T13:00:05Z</time>
      </trkpt>
      <trkpt lat="43.64575" lon="3.70655">
        <ele>111.17</ele>
        <time>2014-05-08T13:00:14Z</time>
      </trkpt>
      <trkpt lat="43.64636" lon="3.70494">
        <ele>110.21</ele>
        <time>2014-05-08T13:00:23Z</time>
      </trkpt>
      <trkpt lat="43.64673" lon="3.70417">
        <ele>110.69</ele>
        <time>2014-05-08T13:00:31Z</time>
      </trkpt>
      <trkpt lat="43.64676" lon="3.70411">
        <ele>110.69</ele>
        <time>2014-05-08T13:00:32Z</time>
      </trkpt>
      <trkpt lat="43.64683" lon="3.70398">
        <ele>111.17</ele>
        <time>2014-05-08T13:00:34Z</time>
      </trkpt>
      <trkpt lat="43.64724" lon="3.7031">
        <ele>114.05</ele>
        <time>2014-05-08T13:00:44Z</time>
      </trkpt>
      <trkpt lat="43.64756" lon="3.70244">
        <ele>115.98</ele>
        <time>2014-05-08T13:00:53Z</time>
      </trkpt>
      <trkpt lat="43.64803" lon="3.70158">
        <ele>119.34</ele>
        <time>2014-05-08T13:01:04Z</time>
      </trkpt>
      <trkpt lat="43.64841" lon="3.70098">
        <ele>120.78</ele>
        <time>2014-05-08T13:01:14Z</time>
      </trkpt>
      <trkpt lat="43.64878" lon="3.70036">
        <ele>122.22</ele>
        <time>2014-05-08T13:01:24Z</time>
      </trkpt>
      <trkpt lat="43.64916" lon="3.69974">
        <ele>122.71</ele>
        <time>2014-05-08T13:01:35Z</time>
      </trkpt>
      <trkpt lat="43.64923" lon="3.69952">
        <ele>121.74</ele>
        <time>2014-05-08T13:01:45Z</time>
      </trkpt>
      <trkpt lat="43.64944" lon="3.69881">
        <ele>123.19</ele>
        <time>2014-05-08T13:01:53Z</time>
      </trkpt>
      <trkpt lat="43.64946" lon="3.69865">
        <ele>123.19</ele>
        <time>2014-05-08T13:01:55Z</time>
      </trkpt>
      <trkpt lat="43.64946" lon="3.69857">
        <ele>123.67</ele>
        <time>2014-05-08T13:01:56Z</time>
      </trkpt>
      <trkpt lat="43.64945" lon="3.6985">
        <ele>124.15</ele>
        <time>2014-05-08T13:01:57Z</time>
      </trkpt>
      <trkpt lat="43.64944" lon="3.69845">
        <ele>124.15</ele>
        <time>2014-05-08T13:01:58Z</time>
      </trkpt>
      <trkpt lat="43.64943" lon="3.69841">
        <ele>124.63</ele>
        <time>2014-05-08T13:01:59Z</time>
      </trkpt>
      <trkpt lat="43.6494" lon="3.69836">
        <ele>125.59</ele>
        <time>2014-05-08T13:02:03Z</time>
      </trkpt>
      <trkpt lat="43.64937" lon="3.69833">
        <ele>125.59</ele>
        <time>2014-05-08T13:02:04Z</time>
      </trkpt>
      <trkpt lat="43.64932" lon="3.69831">
        <ele>125.59</ele>
        <time>2014-05-08T13:02:05Z</time>
      </trkpt>
      <trkpt lat="43.64926" lon="3.6983">
        <ele>126.07</ele>
        <time>2014-05-08T13:02:06Z</time>
      </trkpt>
      <trkpt lat="43.64919" lon="3.6983">
        <ele>127.03</ele>
        <time>2014-05-08T13:02:07Z</time>
      </trkpt>
      <trkpt lat="43.64913" lon="3.6983">
        <ele>127.51</ele>
        <time>2014-05-08T13:02:08Z</time>
      </trkpt>
      <trkpt lat="43.64858" lon="3.6983">
        <ele>131.84</ele>
        <time>2014-05-08T13:02:20Z</time>
      </trkpt>
      <trkpt lat="43.64848" lon="3.69825">
        <ele>132.32</ele>
        <time>2014-05-08T13:02:22Z</time>
      </trkpt>
      <trkpt lat="43.6478" lon="3.69773">
        <ele>131.84</ele>
        <time>2014-05-08T13:02:32Z</time>
      </trkpt>
      <trkpt lat="43.64727" lon="3.69733">
        <ele>125.59</ele>
        <time>2014-05-08T13:02:43Z</time>
      </trkpt>
      <trkpt lat="43.64727" lon="3.69729">
        <ele>125.59</ele>
        <time>2014-05-08T13:02:44Z</time>
      </trkpt>
      <trkpt lat="43.64729" lon="3.69724">
        <ele>125.11</ele>
        <time>2014-05-08T13:02:45Z</time>
      </trkpt>
      <trkpt lat="43.64733" lon="3.69718">
        <ele>125.11</ele>
        <time>2014-05-08T13:02:46Z</time>
      </trkpt>
      <trkpt lat="43.64738" lon="3.69712">
        <ele>125.11</ele>
        <time>2014-05-08T13:02:47Z</time>
      </trkpt>
      <trkpt lat="43.64745" lon="3.69706">
        <ele>125.11</ele>
        <time>2014-05-08T13:02:48Z</time>
      </trkpt>
      <trkpt lat="43.6478" lon="3.69673">
        <ele>126.55</ele>
        <time>2014-05-08T13:02:53Z</time>
      </trkpt>
      <trkpt lat="43.64789" lon="3.69671">
        <ele>126.55</ele>
        <time>2014-05-08T13:02:54Z</time>
      </trkpt>
      <trkpt lat="43.64798" lon="3.69674">
        <ele>127.51</ele>
        <time>2014-05-08T13:02:55Z</time>
      </trkpt>
      <trkpt lat="43.64805" lon="3.6968">
        <ele>127.99</ele>
        <time>2014-05-08T13:02:56Z</time>
      </trkpt>
      <trkpt lat="43.64811" lon="3.69688">
        <ele>128.95</ele>
        <time>2014-05-08T13:02:57Z</time>
      </trkpt>
      <trkpt lat="43.64817" lon="3.69695">
        <ele>129.43</ele>
        <time>2014-05-08T13:02:58Z</time>
      </trkpt>
      <trkpt lat="43.64823" lon="3.69698">
        <ele>130.4</ele>
        <time>2014-05-08T13:02:59Z</time>
      </trkpt>
      <trkpt lat="43.64829" lon="3.69698">
        <ele>130.88</ele>
        <time>2014-05-08T13:03:00Z</time>
      </trkpt>
      <trkpt lat="43.64834" lon="3.69696">
        <ele>130.88</ele>
        <time>2014-05-08T13:03:01Z</time>
      </trkpt>
      <trkpt lat="43.64837" lon="3.69691">
        <ele>131.36</ele>
        <time>2014-05-08T13:03:02Z</time>
      </trkpt>
      <trkpt lat="43.64838" lon="3.69685">
        <ele>131.36</ele>
        <time>2014-05-08T13:03:03Z</time>
      </trkpt>
      <trkpt lat="43.64838" lon="3.69679">
        <ele>131.36</ele>
        <time>2014-05-08T13:03:04Z</time>
      </trkpt>
      <trkpt lat="43.64835" lon="3.69669">
        <ele>130.88</ele>
        <time>2014-05-08T13:03:05Z</time>
      </trkpt>
      <trkpt lat="43.64828" lon="3.69654">
        <ele>131.84</ele>
        <time>2014-05-08T13:03:06Z</time>
      </trkpt>
      <trkpt lat="43.64823" lon="3.69639">
        <ele>131.84</ele>
        <time>2014-05-08T13:03:07Z</time>
      </trkpt>
      <trkpt lat="43.64771" lon="3.69501">
        <ele>138.57</ele>
        <time>2014-05-08T13:03:14Z</time>
      </trkpt>
      <trkpt lat="43.6476" lon="3.69481">
        <ele>140.49</ele>
        <time>2014-05-08T13:03:15Z</time>
      </trkpt>
      <trkpt lat="43.64748" lon="3.69463">
        <ele>141.93</ele>
        <time>2014-05-08T13:03:16Z</time>
      </trkpt>
      <trkpt lat="43.64733" lon="3.69445">
        <ele>143.85</ele>
        <time>2014-05-08T13:03:17Z</time>
      </trkpt>
      <trkpt lat="43.64589" lon="3.693">
        <ele>155.39</ele>
        <time>2014-05-08T13:03:26Z</time>
      </trkpt>
      <trkpt lat="43.64562" lon="3.69266">
        <ele>158.27</ele>
        <time>2014-05-08T13:03:28Z</time>
      </trkpt>
      <trkpt lat="43.64552" lon="3.69246">
        <ele>159.72</ele>
        <time>2014-05-08T13:03:29Z</time>
      </trkpt>
      <trkpt lat="43.64544" lon="3.69227">
        <ele>161.16</ele>
        <time>2014-05-08T13:03:30Z</time>
      </trkpt>
      <trkpt lat="43.64538" lon="3.69206">
        <ele>162.12</ele>
        <time>2014-05-08T13:03:31Z</time>
      </trkpt>
      <trkpt lat="43.64532" lon="3.69186">
        <ele>163.56</ele>
        <time>2014-05-08T13:03:32Z</time>
      </trkpt>
      <trkpt lat="43.64523" lon="3.69165">
        <ele>164.52</ele>
        <time>2014-05-08T13:03:33Z</time>
      </trkpt>
      <trkpt lat="43.6451" lon="3.69145">
        <ele>165</ele>
        <time>2014-05-08T13:03:34Z</time>
      </trkpt>
      <trkpt lat="43.64495" lon="3.69123">
        <ele>165.48</ele>
        <time>2014-05-08T13:03:35Z</time>
      </trkpt>
      <trkpt lat="43.64443" lon="3.69036">
        <ele>169.81</ele>
        <time>2014-05-08T13:03:39Z</time>
      </trkpt>
      <trkpt lat="43.64433" lon="3.69013">
        <ele>170.77</ele>
        <time>2014-05-08T13:03:40Z</time>
      </trkpt>
      <trkpt lat="43.64362" lon="3.68823">
        <ele>178.94</ele>
        <time>2014-05-08T13:03:48Z</time>
      </trkpt>
      <trkpt lat="43.6436" lon="3.68799">
        <ele>179.9</ele>
        <time>2014-05-08T13:03:49Z</time>
      </trkpt>
      <trkpt lat="43.64361" lon="3.68773">
        <ele>180.87</ele>
        <time>2014-05-08T13:03:50Z</time>
      </trkpt>
      <trkpt lat="43.64364" lon="3.68659">
        <ele>186.15</ele>
        <time>2014-05-08T13:03:54Z</time>
      </trkpt>
      <trkpt lat="43.64369" lon="3.68633">
        <ele>187.11</ele>
        <time>2014-05-08T13:03:55Z</time>
      </trkpt>
      <trkpt lat="43.64378" lon="3.68608">
        <ele>188.56</ele>
        <time>2014-05-08T13:03:56Z</time>
      </trkpt>
      <trkpt lat="43.64388" lon="3.68584">
        <ele>189.52</ele>
        <time>2014-05-08T13:03:57Z</time>
      </trkpt>
      <trkpt lat="43.64401" lon="3.6856">
        <ele>190.96</ele>
        <time>2014-05-08T13:03:58Z</time>
      </trkpt>
      <trkpt lat="43.64413" lon="3.68536">
        <ele>191.92</ele>
        <time>2014-05-08T13:03:59Z</time>
      </trkpt>
      <trkpt lat="43.6446" lon="3.68441">
        <ele>195.28</ele>
        <time>2014-05-08T13:04:03Z</time>
      </trkpt>
      <trkpt lat="43.64476" lon="3.68421">
        <ele>196.25</ele>
        <time>2014-05-08T13:04:04Z</time>
      </trkpt>
      <trkpt lat="43.64494" lon="3.68403">
        <ele>196.73</ele>
        <time>2014-05-08T13:04:05Z</time>
      </trkpt>
      <trkpt lat="43.64637" lon="3.68261">
        <ele>204.9</ele>
        <time>2014-05-08T13:04:13Z</time>
      </trkpt>
      <trkpt lat="43.6466" lon="3.68231">
        <ele>206.82</ele>
        <time>2014-05-08T13:04:15Z</time>
      </trkpt>
      <trkpt lat="43.64665" lon="3.68213">
        <ele>207.78</ele>
        <time>2014-05-08T13:04:16Z</time>
      </trkpt>
      <trkpt lat="43.64667" lon="3.68194">
        <ele>209.7</ele>
        <time>2014-05-08T13:04:17Z</time>
      </trkpt>
      <trkpt lat="43.64668" lon="3.68174">
        <ele>210.67</ele>
        <time>2014-05-08T13:04:18Z</time>
      </trkpt>
      <trkpt lat="43.6467" lon="3.68154">
        <ele>212.11</ele>
        <time>2014-05-08T13:04:19Z</time>
      </trkpt>
      <trkpt lat="43.64677" lon="3.68136">
        <ele>213.55</ele>
        <time>2014-05-08T13:04:20Z</time>
      </trkpt>
      <trkpt lat="43.64688" lon="3.68122">
        <ele>214.99</ele>
        <time>2014-05-08T13:04:21Z</time>
      </trkpt>
      <trkpt lat="43.64702" lon="3.68108">
        <ele>216.91</ele>
        <time>2014-05-08T13:04:22Z</time>
      </trkpt>
      <trkpt lat="43.64719" lon="3.68096">
        <ele>218.36</ele>
        <time>2014-05-08T13:04:23Z</time>
      </trkpt>
      <trkpt lat="43.64739" lon="3.68086">
        <ele>219.8</ele>
        <time>2014-05-08T13:04:24Z</time>
      </trkpt>
      <trkpt lat="43.64761" lon="3.68077">
        <ele>221.24</ele>
        <time>2014-05-08T13:04:25Z</time>
      </trkpt>
      <trkpt lat="43.64782" lon="3.68067">
        <ele>223.16</ele>
        <time>2014-05-08T13:04:26Z</time>
      </trkpt>
      <trkpt lat="43.6482" lon="3.68049">
        <ele>226.05</ele>
        <time>2014-05-08T13:04:28Z</time>
      </trkpt>
      <trkpt lat="43.64842" lon="3.68047">
        <ele>227.49</ele>
        <time>2014-05-08T13:04:29Z</time>
      </trkpt>
      <trkpt lat="43.64864" lon="3.6805">
        <ele>229.89</ele>
        <time>2014-05-08T13:04:30Z</time>
      </trkpt>
      <trkpt lat="43.64887" lon="3.68054">
        <ele>231.33</ele>
        <time>2014-05-08T13:04:31Z</time>
      </trkpt>
      <trkpt lat="43.64911" lon="3.68063">
        <ele>232.78</ele>
        <time>2014-05-08T13:04:32Z</time>
      </trkpt>
      <trkpt lat="43.64934" lon="3.68073">
        <ele>233.74</ele>
        <time>2014-05-08T13:04:33Z</time>
      </trkpt>
      <trkpt lat="43.64957" lon="3.68083">
        <ele>235.18</ele>
        <time>2014-05-08T13:04:34Z</time>
      </trkpt>
      <trkpt lat="43.65028" lon="3.68106">
        <ele>239.51</ele>
        <time>2014-05-08T13:04:38Z</time>
      </trkpt>
      <trkpt lat="43.65045" lon="3.68101">
        <ele>240.95</ele>
        <time>2014-05-08T13:04:39Z</time>
      </trkpt>
      <trkpt lat="43.65062" lon="3.68091">
        <ele>242.39</ele>
        <time>2014-05-08T13:04:40Z</time>
      </trkpt>
      <trkpt lat="43.65081" lon="3.68079">
        <ele>243.83</ele>
        <time>2014-05-08T13:04:41Z</time>
      </trkpt>
      <trkpt lat="43.65101" lon="3.68064">
        <ele>245.27</ele>
        <time>2014-05-08T13:04:42Z</time>
      </trkpt>
      <trkpt lat="43.65121" lon="3.68049">
        <ele>246.72</ele>
        <time>2014-05-08T13:04:43Z</time>
      </trkpt>
      <trkpt lat="43.65215" lon="3.67941">
        <ele>251.04</ele>
        <time>2014-05-08T13:04:48Z</time>
      </trkpt>
      <trkpt lat="43.65331" lon="3.67806">
        <ele>261.62</ele>
        <time>2014-05-08T13:04:55Z</time>
      </trkpt>
      <trkpt lat="43.65354" lon="3.67775">
        <ele>263.06</ele>
        <time>2014-05-08T13:04:57Z</time>
      </trkpt>
      <trkpt lat="43.65363" lon="3.67756">
        <ele>263.54</ele>
        <time>2014-05-08T13:04:58Z</time>
      </trkpt>
      <trkpt lat="43.65372" lon="3.67735">
        <ele>263.54</ele>
        <time>2014-05-08T13:04:59Z</time>
      </trkpt>
      <trkpt lat="43.65379" lon="3.67711">
        <ele>262.58</ele>
        <time>2014-05-08T13:05:00Z</time>
      </trkpt>
      <trkpt lat="43.65384" lon="3.67684">
        <ele>261.62</ele>
        <time>2014-05-08T13:05:01Z</time>
      </trkpt>
      <trkpt lat="43.65388" lon="3.67652">
        <ele>260.17</ele>
        <time>2014-05-08T13:05:02Z</time>
      </trkpt>
      <trkpt lat="43.65393" lon="3.67617">
        <ele>259.69</ele>
        <time>2014-05-08T13:05:03Z</time>
      </trkpt>
      <trkpt lat="43.65448" lon="3.67244">
        <ele>256.33</ele>
        <time>2014-05-08T13:05:14Z</time>
      </trkpt>
      <trkpt lat="43.65466" lon="3.67168">
        <ele>254.89</ele>
        <time>2014-05-08T13:05:17Z</time>
      </trkpt>
      <trkpt lat="43.65479" lon="3.67153">
        <ele>253.93</ele>
        <time>2014-05-08T13:05:18Z</time>
      </trkpt>
      <trkpt lat="43.65493" lon="3.67138">
        <ele>252.48</ele>
        <time>2014-05-08T13:05:19Z</time>
      </trkpt>
      <trkpt lat="43.65522" lon="3.67103">
        <ele>249.6</ele>
        <time>2014-05-08T13:05:21Z</time>
      </trkpt>
      <trkpt lat="43.65534" lon="3.6708">
        <ele>248.16</ele>
        <time>2014-05-08T13:05:22Z</time>
      </trkpt>
      <trkpt lat="43.65547" lon="3.67056">
        <ele>245.75</ele>
        <time>2014-05-08T13:05:23Z</time>
      </trkpt>
      <trkpt lat="43.65558" lon="3.6703">
        <ele>244.31</ele>
        <time>2014-05-08T13:05:24Z</time>
      </trkpt>
      <trkpt lat="43.65569" lon="3.67005">
        <ele>242.87</ele>
        <time>2014-05-08T13:05:25Z</time>
      </trkpt>
      <trkpt lat="43.65578" lon="3.66978">
        <ele>240.95</ele>
        <time>2014-05-08T13:05:26Z</time>
      </trkpt>
      <trkpt lat="43.65586" lon="3.66949">
        <ele>239.51</ele>
        <time>2014-05-08T13:05:27Z</time>
      </trkpt>
      <trkpt lat="43.65591" lon="3.6692">
        <ele>238.06</ele>
        <time>2014-05-08T13:05:28Z</time>
      </trkpt>
      <trkpt lat="43.6564" lon="3.66717">
        <ele>237.58</ele>
        <time>2014-05-08T13:05:35Z</time>
      </trkpt>
      <trkpt lat="43.65663" lon="3.66669">
        <ele>238.54</ele>
        <time>2014-05-08T13:05:37Z</time>
      </trkpt>
      <trkpt lat="43.65677" lon="3.66649">
        <ele>240.47</ele>
        <time>2014-05-08T13:05:38Z</time>
      </trkpt>
      <trkpt lat="43.65689" lon="3.66627">
        <ele>241.43</ele>
        <time>2014-05-08T13:05:39Z</time>
      </trkpt>
      <trkpt lat="43.657" lon="3.66605">
        <ele>242.39</ele>
        <time>2014-05-08T13:05:40Z</time>
      </trkpt>
      <trkpt lat="43.65709" lon="3.66582">
        <ele>242.87</ele>
        <time>2014-05-08T13:05:41Z</time>
      </trkpt>
      <trkpt lat="43.65716" lon="3.66559">
        <ele>242.87</ele>
        <time>2014-05-08T13:05:42Z</time>
      </trkpt>
      <trkpt lat="43.65721" lon="3.66535">
        <ele>241.91</ele>
        <time>2014-05-08T13:05:43Z</time>
      </trkpt>
      <trkpt lat="43.65725" lon="3.66512">
        <ele>240.95</ele>
        <time>2014-05-08T13:05:44Z</time>
      </trkpt>
      <trkpt lat="43.65727" lon="3.66489">
        <ele>239.99</ele>
        <time>2014-05-08T13:05:45Z</time>
      </trkpt>
      <trkpt lat="43.6576" lon="3.66334">
        <ele>235.66</ele>
        <time>2014-05-08T13:05:52Z</time>
      </trkpt>
      <trkpt lat="43.65766" lon="3.66315">
        <ele>233.74</ele>
        <time>2014-05-08T13:05:53Z</time>
      </trkpt>
      <trkpt lat="43.65773" lon="3.66297">
        <ele>232.3</ele>
        <time>2014-05-08T13:05:54Z</time>
      </trkpt>
      <trkpt lat="43.65782" lon="3.66281">
        <ele>229.89</ele>
        <time>2014-05-08T13:05:55Z</time>
      </trkpt>
      <trkpt lat="43.6582" lon="3.66221">
        <ele>223.16</ele>
        <time>2014-05-08T13:05:59Z</time>
      </trkpt>
      <trkpt lat="43.65833" lon="3.6621">
        <ele>221.24</ele>
        <time>2014-05-08T13:06:00Z</time>
      </trkpt>
      <trkpt lat="43.65849" lon="3.66201">
        <ele>219.8</ele>
        <time>2014-05-08T13:06:01Z</time>
      </trkpt>
      <trkpt lat="43.65868" lon="3.66193">
        <ele>218.84</ele>
        <time>2014-05-08T13:06:02Z</time>
      </trkpt>
      <trkpt lat="43.65887" lon="3.66184">
        <ele>217.88</ele>
        <time>2014-05-08T13:06:03Z</time>
      </trkpt>
      <trkpt lat="43.66009" lon="3.6611">
        <ele>214.03</ele>
        <time>2014-05-08T13:06:11Z</time>
      </trkpt>
      <trkpt lat="43.66022" lon="3.66099">
        <ele>214.03</ele>
        <time>2014-05-08T13:06:12Z</time>
      </trkpt>
      <trkpt lat="43.66034" lon="3.66086">
        <ele>213.07</ele>
        <time>2014-05-08T13:06:13Z</time>
      </trkpt>
      <trkpt lat="43.66043" lon="3.66069">
        <ele>212.59</ele>
        <time>2014-05-08T13:06:14Z</time>
      </trkpt>
      <trkpt lat="43.66051" lon="3.66052">
        <ele>212.11</ele>
        <time>2014-05-08T13:06:15Z</time>
      </trkpt>
      <trkpt lat="43.66057" lon="3.66033">
        <ele>211.63</ele>
        <time>2014-05-08T13:06:16Z</time>
      </trkpt>
      <trkpt lat="43.66061" lon="3.66013">
        <ele>210.19</ele>
        <time>2014-05-08T13:06:17Z</time>
      </trkpt>
      <trkpt lat="43.66064" lon="3.65992">
        <ele>209.22</ele>
        <time>2014-05-08T13:06:18Z</time>
      </trkpt>
      <trkpt lat="43.66064" lon="3.6597">
        <ele>207.78</ele>
        <time>2014-05-08T13:06:19Z</time>
      </trkpt>
      <trkpt lat="43.66062" lon="3.65948">
        <ele>206.34</ele>
        <time>2014-05-08T13:06:20Z</time>
      </trkpt>
      <trkpt lat="43.66056" lon="3.65927">
        <ele>204.9</ele>
        <time>2014-05-08T13:06:21Z</time>
      </trkpt>
      <trkpt lat="43.66049" lon="3.65905">
        <ele>202.98</ele>
        <time>2014-05-08T13:06:22Z</time>
      </trkpt>
      <trkpt lat="43.66041" lon="3.65881">
        <ele>200.57</ele>
        <time>2014-05-08T13:06:23Z</time>
      </trkpt>
      <trkpt lat="43.66033" lon="3.65854">
        <ele>198.65</ele>
        <time>2014-05-08T13:06:24Z</time>
      </trkpt>
      <trkpt lat="43.66028" lon="3.65823">
        <ele>196.73</ele>
        <time>2014-05-08T13:06:25Z</time>
      </trkpt>
      <trkpt lat="43.66026" lon="3.65791">
        <ele>194.8</ele>
        <time>2014-05-08T13:06:26Z</time>
      </trkpt>
      <trkpt lat="43.66026" lon="3.65754">
        <ele>192.88</ele>
        <time>2014-05-08T13:06:27Z</time>
      </trkpt>
      <trkpt lat="43.66027" lon="3.65715">
        <ele>190.96</ele>
        <time>2014-05-08T13:06:28Z</time>
      </trkpt>
      <trkpt lat="43.66029" lon="3.65672">
        <ele>190</ele>
        <time>2014-05-08T13:06:29Z</time>
      </trkpt>
      <trkpt lat="43.66068" lon="3.65402">
        <ele>188.56</ele>
        <time>2014-05-08T13:06:36Z</time>
      </trkpt>
      <trkpt lat="43.66083" lon="3.65373">
        <ele>190</ele>
        <time>2014-05-08T13:06:37Z</time>
      </trkpt>
      <trkpt lat="43.66101" lon="3.65347">
        <ele>191.44</ele>
        <time>2014-05-08T13:06:38Z</time>
      </trkpt>
      <trkpt lat="43.66197" lon="3.65167">
        <ele>186.15</ele>
        <time>2014-05-08T13:06:44Z</time>
      </trkpt>
      <trkpt lat="43.66328" lon="3.64925">
        <ele>180.87</ele>
        <time>2014-05-08T13:06:53Z</time>
      </trkpt>
      <trkpt lat="43.66373" lon="3.64841">
        <ele>179.9</ele>
        <time>2014-05-08T13:06:58Z</time>
      </trkpt>
      <trkpt lat="43.66372" lon="3.64829">
        <ele>179.9</ele>
        <time>2014-05-08T13:06:59Z</time>
      </trkpt>
      <trkpt lat="43.66367" lon="3.64813">
        <ele>180.38</ele>
        <time>2014-05-08T13:07:00Z</time>
      </trkpt>
      <trkpt lat="43.66358" lon="3.64796">
        <ele>180.38</ele>
        <time>2014-05-08T13:07:01Z</time>
      </trkpt>
      <trkpt lat="43.66347" lon="3.64776">
        <ele>180.87</ele>
        <time>2014-05-08T13:07:02Z</time>
      </trkpt>
      <trkpt lat="43.66334" lon="3.64754">
        <ele>181.83</ele>
        <time>2014-05-08T13:07:03Z</time>
      </trkpt>
      <trkpt lat="43.66195" lon="3.64511">
        <ele>193.84</ele>
        <time>2014-05-08T13:07:15Z</time>
      </trkpt>
      <trkpt lat="43.66164" lon="3.64461">
        <ele>198.17</ele>
        <time>2014-05-08T13:07:19Z</time>
      </trkpt>
      <trkpt lat="43.6616" lon="3.64452">
        <ele>199.13</ele>
        <time>2014-05-08T13:07:20Z</time>
      </trkpt>
      <trkpt lat="43.6616" lon="3.64443">
        <ele>199.61</ele>
        <time>2014-05-08T13:07:21Z</time>
      </trkpt>
      <trkpt lat="43.66162" lon="3.64435">
        <ele>200.09</ele>
        <time>2014-05-08T13:07:22Z</time>
      </trkpt>
      <trkpt lat="43.66167" lon="3.64427">
        <ele>201.53</ele>
        <time>2014-05-08T13:07:23Z</time>
      </trkpt>
      <trkpt lat="43.66173" lon="3.6442">
        <ele>202.49</ele>
        <time>2014-05-08T13:07:24Z</time>
      </trkpt>
      <trkpt lat="43.66183" lon="3.64417">
        <ele>202.98</ele>
        <time>2014-05-08T13:07:25Z</time>
      </trkpt>
      <trkpt lat="43.66194" lon="3.64418">
        <ele>203.46</ele>
        <time>2014-05-08T13:07:26Z</time>
      </trkpt>
      <trkpt lat="43.66204" lon="3.64419">
        <ele>203.94</ele>
        <time>2014-05-08T13:07:27Z</time>
      </trkpt>
      <trkpt lat="43.66214" lon="3.64423">
        <ele>204.42</ele>
        <time>2014-05-08T13:07:28Z</time>
      </trkpt>
      <trkpt lat="43.66224" lon="3.64428">
        <ele>203.94</ele>
        <time>2014-05-08T13:07:29Z</time>
      </trkpt>
      <trkpt lat="43.66233" lon="3.64433">
        <ele>203.94</ele>
        <time>2014-05-08T13:07:30Z</time>
      </trkpt>
      <trkpt lat="43.66268" lon="3.6445">
        <ele>204.42</ele>
        <time>2014-05-08T13:07:34Z</time>
      </trkpt>
      <trkpt lat="43.66277" lon="3.6445">
        <ele>204.42</ele>
        <time>2014-05-08T13:07:35Z</time>
      </trkpt>
      <trkpt lat="43.66288" lon="3.64449">
        <ele>204.9</ele>
        <time>2014-05-08T13:07:36Z</time>
      </trkpt>
      <trkpt lat="43.66298" lon="3.64445">
        <ele>205.38</ele>
        <time>2014-05-08T13:07:37Z</time>
      </trkpt>
      <trkpt lat="43.66308" lon="3.64441">
        <ele>205.38</ele>
        <time>2014-05-08T13:07:38Z</time>
      </trkpt>
      <trkpt lat="43.6641" lon="3.644">
        <ele>209.7</ele>
        <time>2014-05-08T13:07:48Z</time>
      </trkpt>
      <trkpt lat="43.66439" lon="3.64388">
        <ele>211.63</ele>
        <time>2014-05-08T13:07:52Z</time>
      </trkpt>
      <trkpt lat="43.66443" lon="3.6439">
        <ele>211.63</ele>
        <time>2014-05-08T13:07:53Z</time>
      </trkpt>
      <trkpt lat="43.66448" lon="3.64395">
        <ele>211.63</ele>
        <time>2014-05-08T13:07:54Z</time>
      </trkpt>
      <trkpt lat="43.66451" lon="3.64401">
        <ele>211.63</ele>
        <time>2014-05-08T13:07:55Z</time>
      </trkpt>
      <trkpt lat="43.66454" lon="3.6441">
        <ele>212.11</ele>
        <time>2014-05-08T13:07:56Z</time>
      </trkpt>
      <trkpt lat="43.66454" lon="3.64425">
        <ele>211.63</ele>
        <time>2014-05-08T13:07:57Z</time>
      </trkpt>
      <trkpt lat="43.66454" lon="3.6444">
        <ele>212.11</ele>
        <time>2014-05-08T13:07:58Z</time>
      </trkpt>
      <trkpt lat="43.66453" lon="3.64457">
        <ele>212.11</ele>
        <time>2014-05-08T13:07:59Z</time>
      </trkpt>
      <trkpt lat="43.6645" lon="3.64543">
        <ele>215.47</ele>
        <time>2014-05-08T13:08:05Z</time>
      </trkpt>
      <trkpt lat="43.66451" lon="3.64554">
        <ele>215.47</ele>
        <time>2014-05-08T13:08:06Z</time>
      </trkpt>
      <trkpt lat="43.66454" lon="3.64565">
        <ele>215.47</ele>
        <time>2014-05-08T13:08:07Z</time>
      </trkpt>
      <trkpt lat="43.66459" lon="3.64575">
        <ele>215.47</ele>
        <time>2014-05-08T13:08:08Z</time>
      </trkpt>
      <trkpt lat="43.66468" lon="3.64583">
        <ele>215.47</ele>
        <time>2014-05-08T13:08:09Z</time>
      </trkpt>
      <trkpt lat="43.66478" lon="3.64592">
        <ele>214.99</ele>
        <time>2014-05-08T13:08:10Z</time>
      </trkpt>
      <trkpt lat="43.6649" lon="3.646">
        <ele>214.99</ele>
        <time>2014-05-08T13:08:11Z</time>
      </trkpt>
      <trkpt lat="43.66529" lon="3.64628">
        <ele>214.51</ele>
        <time>2014-05-08T13:08:14Z</time>
      </trkpt>
      <trkpt lat="43.66541" lon="3.64641">
        <ele>214.03</ele>
        <time>2014-05-08T13:08:15Z</time>
      </trkpt>
      <trkpt lat="43.66552" lon="3.64656">
        <ele>214.03</ele>
        <time>2014-05-08T13:08:16Z</time>
      </trkpt>
      <trkpt lat="43.66573" lon="3.64689">
        <ele>212.59</ele>
        <time>2014-05-08T13:08:18Z</time>
      </trkpt>
      <trkpt lat="43.66585" lon="3.64703">
        <ele>212.11</ele>
        <time>2014-05-08T13:08:19Z</time>
      </trkpt>
      <trkpt lat="43.66599" lon="3.64715">
        <ele>211.15</ele>
        <time>2014-05-08T13:08:20Z</time>
      </trkpt>
      <trkpt lat="43.66713" lon="3.64798">
        <ele>204.9</ele>
        <time>2014-05-08T13:08:27Z</time>
      </trkpt>
      <trkpt lat="43.66728" lon="3.6481">
        <ele>203.94</ele>
        <time>2014-05-08T13:08:28Z</time>
      </trkpt>
      <trkpt lat="43.66741" lon="3.64827">
        <ele>202.98</ele>
        <time>2014-05-08T13:08:29Z</time>
      </trkpt>
      <trkpt lat="43.66752" lon="3.64849">
        <ele>202.01</ele>
        <time>2014-05-08T13:08:30Z</time>
      </trkpt>
      <trkpt lat="43.66762" lon="3.64873">
        <ele>201.05</ele>
        <time>2014-05-08T13:08:31Z</time>
      </trkpt>
      <trkpt lat="43.66771" lon="3.64899">
        <ele>200.57</ele>
        <time>2014-05-08T13:08:32Z</time>
      </trkpt>
      <trkpt lat="43.66863" lon="3.65071">
        <ele>196.73</ele>
        <time>2014-05-08T13:08:39Z</time>
      </trkpt>
      <trkpt lat="43.6688" lon="3.6509">
        <ele>196.73</ele>
        <time>2014-05-08T13:08:40Z</time>
      </trkpt>
      <trkpt lat="43.66898" lon="3.65106">
        <ele>196.73</ele>
        <time>2014-05-08T13:08:41Z</time>
      </trkpt>
      <trkpt lat="43.66916" lon="3.6512">
        <ele>196.73</ele>
        <time>2014-05-08T13:08:42Z</time>
      </trkpt>
      <trkpt lat="43.66936" lon="3.65126">
        <ele>196.73</ele>
        <time>2014-05-08T13:08:43Z</time>
      </trkpt>
      <trkpt lat="43.66955" lon="3.65131">
        <ele>197.21</ele>
        <time>2014-05-08T13:08:44Z</time>
      </trkpt>
      <trkpt lat="43.66973" lon="3.65139">
        <ele>197.21</ele>
        <time>2014-05-08T13:08:45Z</time>
      </trkpt>
      <trkpt lat="43.6699" lon="3.65154">
        <ele>198.17</ele>
        <time>2014-05-08T13:08:46Z</time>
      </trkpt>
      <trkpt lat="43.6708" lon="3.65232">
        <ele>200.09</ele>
        <time>2014-05-08T13:08:51Z</time>
      </trkpt>
      <trkpt lat="43.67097" lon="3.65239">
        <ele>200.57</ele>
        <time>2014-05-08T13:08:52Z</time>
      </trkpt>
      <trkpt lat="43.67115" lon="3.65242">
        <ele>200.57</ele>
        <time>2014-05-08T13:08:53Z</time>
      </trkpt>
      <trkpt lat="43.67177" lon="3.65259">
        <ele>201.53</ele>
        <time>2014-05-08T13:08:56Z</time>
      </trkpt>
      <trkpt lat="43.67197" lon="3.65272">
        <ele>201.53</ele>
        <time>2014-05-08T13:08:57Z</time>
      </trkpt>
      <trkpt lat="43.67215" lon="3.65289">
        <ele>202.01</ele>
        <time>2014-05-08T13:08:58Z</time>
      </trkpt>
      <trkpt lat="43.67346" lon="3.65383">
        <ele>205.86</ele>
        <time>2014-05-08T13:09:04Z</time>
      </trkpt>
      <trkpt lat="43.67487" lon="3.65528">
        <ele>213.07</ele>
        <time>2014-05-08T13:09:11Z</time>
      </trkpt>
      <trkpt lat="43.67557" lon="3.65632">
        <ele>218.36</ele>
        <time>2014-05-08T13:09:16Z</time>
      </trkpt>
      <trkpt lat="43.67573" lon="3.65646">
        <ele>219.32</ele>
        <time>2014-05-08T13:09:17Z</time>
      </trkpt>
      <trkpt lat="43.67591" lon="3.6566">
        <ele>220.28</ele>
        <time>2014-05-08T13:09:18Z</time>
      </trkpt>
      <trkpt lat="43.67626" lon="3.65701">
        <ele>222.2</ele>
        <time>2014-05-08T13:09:20Z</time>
      </trkpt>
      <trkpt lat="43.67672" lon="3.65756">
        <ele>224.12</ele>
        <time>2014-05-08T13:09:23Z</time>
      </trkpt>
      <trkpt lat="43.67687" lon="3.65766">
        <ele>224.12</ele>
        <time>2014-05-08T13:09:24Z</time>
      </trkpt>
      <trkpt lat="43.67705" lon="3.65773">
        <ele>224.61</ele>
        <time>2014-05-08T13:09:25Z</time>
      </trkpt>
      <trkpt lat="43.67725" lon="3.65777">
        <ele>225.09</ele>
        <time>2014-05-08T13:09:26Z</time>
      </trkpt>
      <trkpt lat="43.67746" lon="3.65782">
        <ele>225.57</ele>
        <time>2014-05-08T13:09:27Z</time>
      </trkpt>
      <trkpt lat="43.67765" lon="3.6579">
        <ele>226.05</ele>
        <time>2014-05-08T13:09:28Z</time>
      </trkpt>
      <trkpt lat="43.67782" lon="3.65801">
        <ele>226.53</ele>
        <time>2014-05-08T13:09:29Z</time>
      </trkpt>
      <trkpt lat="43.67797" lon="3.65815">
        <ele>227.01</ele>
        <time>2014-05-08T13:09:30Z</time>
      </trkpt>
      <trkpt lat="43.67811" lon="3.65831">
        <ele>227.49</ele>
        <time>2014-05-08T13:09:31Z</time>
      </trkpt>
      <trkpt lat="43.67826" lon="3.65845">
        <ele>227.97</ele>
        <time>2014-05-08T13:09:32Z</time>
      </trkpt>
      <trkpt lat="43.67843" lon="3.65855">
        <ele>228.45</ele>
        <time>2014-05-08T13:09:33Z</time>
      </trkpt>
      <trkpt lat="43.67862" lon="3.65866">
        <ele>229.41</ele>
        <time>2014-05-08T13:09:34Z</time>
      </trkpt>
      <trkpt lat="43.6788" lon="3.6588">
        <ele>230.37</ele>
        <time>2014-05-08T13:09:35Z</time>
      </trkpt>
      <trkpt lat="43.67899" lon="3.65893">
        <ele>231.33</ele>
        <time>2014-05-08T13:09:36Z</time>
      </trkpt>
      <trkpt lat="43.67918" lon="3.65905">
        <ele>232.3</ele>
        <time>2014-05-08T13:09:37Z</time>
      </trkpt>
      <trkpt lat="43.6797" lon="3.6593">
        <ele>233.26</ele>
        <time>2014-05-08T13:09:40Z</time>
      </trkpt>
      <trkpt lat="43.67988" lon="3.65935">
        <ele>233.26</ele>
        <time>2014-05-08T13:09:41Z</time>
      </trkpt>
      <trkpt lat="43.68123" lon="3.66008">
        <ele>232.78</ele>
        <time>2014-05-08T13:09:48Z</time>
      </trkpt>
      <trkpt lat="43.682" lon="3.66032">
        <ele>230.85</ele>
        <time>2014-05-08T13:09:52Z</time>
      </trkpt>
      <trkpt lat="43.68218" lon="3.6603">
        <ele>229.89</ele>
        <time>2014-05-08T13:09:53Z</time>
      </trkpt>
      <trkpt lat="43.68235" lon="3.66026">
        <ele>228.93</ele>
        <time>2014-05-08T13:09:54Z</time>
      </trkpt>
      <trkpt lat="43.68252" lon="3.66017">
        <ele>228.45</ele>
        <time>2014-05-08T13:09:55Z</time>
      </trkpt>
      <trkpt lat="43.68269" lon="3.66006">
        <ele>228.45</ele>
        <time>2014-05-08T13:09:56Z</time>
      </trkpt>
      <trkpt lat="43.68283" lon="3.65996">
        <ele>227.97</ele>
        <time>2014-05-08T13:09:57Z</time>
      </trkpt>
      <trkpt lat="43.68308" lon="3.65986">
        <ele>226.53</ele>
        <time>2014-05-08T13:09:59Z</time>
      </trkpt>
      <trkpt lat="43.6832" lon="3.6599">
        <ele>225.57</ele>
        <time>2014-05-08T13:10:00Z</time>
      </trkpt>
      <trkpt lat="43.6833" lon="3.65999">
        <ele>224.12</ele>
        <time>2014-05-08T13:10:01Z</time>
      </trkpt>
      <trkpt lat="43.68343" lon="3.66007">
        <ele>223.64</ele>
        <time>2014-05-08T13:10:02Z</time>
      </trkpt>
      <trkpt lat="43.68356" lon="3.66015">
        <ele>222.68</ele>
        <time>2014-05-08T13:10:03Z</time>
      </trkpt>
      <trkpt lat="43.68405" lon="3.66024">
        <ele>221.72</ele>
        <time>2014-05-08T13:10:06Z</time>
      </trkpt>
      <trkpt lat="43.68425" lon="3.66023">
        <ele>221.72</ele>
        <time>2014-05-08T13:10:07Z</time>
      </trkpt>
      <trkpt lat="43.68447" lon="3.66019">
        <ele>222.2</ele>
        <time>2014-05-08T13:10:08Z</time>
      </trkpt>
      <trkpt lat="43.68603" lon="3.66012">
        <ele>221.72</ele>
        <time>2014-05-08T13:10:15Z</time>
      </trkpt>
      <trkpt lat="43.68751" lon="3.6598">
        <ele>218.36</ele>
        <time>2014-05-08T13:10:22Z</time>
      </trkpt>
      <trkpt lat="43.68849" lon="3.65939">
        <ele>214.51</ele>
        <time>2014-05-08T13:10:28Z</time>
      </trkpt>
      <trkpt lat="43.68858" lon="3.65947">
        <ele>212.59</ele>
        <time>2014-05-08T13:10:29Z</time>
      </trkpt>
      <trkpt lat="43.68866" lon="3.65958">
        <ele>212.11</ele>
        <time>2014-05-08T13:10:30Z</time>
      </trkpt>
      <trkpt lat="43.68873" lon="3.65974">
        <ele>211.15</ele>
        <time>2014-05-08T13:10:31Z</time>
      </trkpt>
      <trkpt lat="43.68879" lon="3.65994">
        <ele>210.67</ele>
        <time>2014-05-08T13:10:32Z</time>
      </trkpt>
      <trkpt lat="43.68883" lon="3.66014">
        <ele>209.7</ele>
        <time>2014-05-08T13:10:33Z</time>
      </trkpt>
      <trkpt lat="43.68888" lon="3.66034">
        <ele>208.74</ele>
        <time>2014-05-08T13:10:34Z</time>
      </trkpt>
      <trkpt lat="43.68892" lon="3.66052">
        <ele>207.78</ele>
        <time>2014-05-08T13:10:35Z</time>
      </trkpt>
      <trkpt lat="43.68898" lon="3.66067">
        <ele>207.3</ele>
        <time>2014-05-08T13:10:36Z</time>
      </trkpt>
      <trkpt lat="43.68909" lon="3.66079">
        <ele>206.82</ele>
        <time>2014-05-08T13:10:37Z</time>
      </trkpt>
      <trkpt lat="43.68923" lon="3.66086">
        <ele>205.86</ele>
        <time>2014-05-08T13:10:38Z</time>
      </trkpt>
      <trkpt lat="43.6894" lon="3.6609">
        <ele>204.9</ele>
        <time>2014-05-08T13:10:39Z</time>
      </trkpt>
      <trkpt lat="43.68959" lon="3.66089">
        <ele>203.94</ele>
        <time>2014-05-08T13:10:40Z</time>
      </trkpt>
      <trkpt lat="43.6898" lon="3.66085">
        <ele>202.98</ele>
        <time>2014-05-08T13:10:41Z</time>
      </trkpt>
      <trkpt lat="43.69002" lon="3.66078">
        <ele>202.49</ele>
        <time>2014-05-08T13:10:42Z</time>
      </trkpt>
      <trkpt lat="43.69025" lon="3.6607">
        <ele>201.05</ele>
        <time>2014-05-08T13:10:43Z</time>
      </trkpt>
      <trkpt lat="43.69184" lon="3.65993">
        <ele>193.84</ele>
        <time>2014-05-08T13:10:51Z</time>
      </trkpt>
      <trkpt lat="43.69206" lon="3.6599">
        <ele>191.44</ele>
        <time>2014-05-08T13:10:53Z</time>
      </trkpt>
      <trkpt lat="43.6921" lon="3.66004">
        <ele>190.96</ele>
        <time>2014-05-08T13:10:54Z</time>
      </trkpt>
      <trkpt lat="43.69217" lon="3.66017">
        <ele>190.48</ele>
        <time>2014-05-08T13:10:55Z</time>
      </trkpt>
      <trkpt lat="43.69224" lon="3.66035">
        <ele>190</ele>
        <time>2014-05-08T13:10:56Z</time>
      </trkpt>
      <trkpt lat="43.69231" lon="3.66055">
        <ele>189.04</ele>
        <time>2014-05-08T13:10:57Z</time>
      </trkpt>
      <trkpt lat="43.6924" lon="3.66078">
        <ele>188.56</ele>
        <time>2014-05-08T13:10:58Z</time>
      </trkpt>
      <trkpt lat="43.69306" lon="3.66244">
        <ele>190.96</ele>
        <time>2014-05-08T13:11:04Z</time>
      </trkpt>
      <trkpt lat="43.69377" lon="3.66409">
        <ele>193.36</ele>
        <time>2014-05-08T13:11:10Z</time>
      </trkpt>
      <trkpt lat="43.69392" lon="3.66432">
        <ele>193.84</ele>
        <time>2014-05-08T13:11:11Z</time>
      </trkpt>
      <trkpt lat="43.69491" lon="3.66561">
        <ele>201.05</ele>
        <time>2014-05-08T13:11:18Z</time>
      </trkpt>
      <trkpt lat="43.69569" lon="3.66671">
        <ele>206.34</ele>
        <time>2014-05-08T13:11:26Z</time>
      </trkpt>
      <trkpt lat="43.69667" lon="3.66799">
        <ele>213.07</ele>
        <time>2014-05-08T13:11:35Z</time>
      </trkpt>
      <trkpt lat="43.69716" lon="3.66839">
        <ele>216.43</ele>
        <time>2014-05-08T13:11:39Z</time>
      </trkpt>
      <trkpt lat="43.69726" lon="3.66851">
        <ele>217.4</ele>
        <time>2014-05-08T13:11:40Z</time>
      </trkpt>
      <trkpt lat="43.69734" lon="3.66863">
        <ele>217.88</ele>
        <time>2014-05-08T13:11:41Z</time>
      </trkpt>
      <trkpt lat="43.69759" lon="3.66902">
        <ele>219.8</ele>
        <time>2014-05-08T13:11:46Z</time>
      </trkpt>
      <trkpt lat="43.69801" lon="3.66979">
        <ele>223.16</ele>
        <time>2014-05-08T13:11:52Z</time>
      </trkpt>
      <trkpt lat="43.69848" lon="3.6712">
        <ele>227.49</ele>
        <time>2014-05-08T13:12:02Z</time>
      </trkpt>
      <trkpt lat="43.69889" lon="3.67283">
        <ele>233.26</ele>
        <time>2014-05-08T13:12:13Z</time>
      </trkpt>
      <trkpt lat="43.6991" lon="3.6738">
        <ele>234.7</ele>
        <time>2014-05-08T13:12:21Z</time>
      </trkpt>
      <trkpt lat="43.69911" lon="3.67385">
        <ele>234.7</ele>
        <time>2014-05-08T13:12:22Z</time>
      </trkpt>
      <trkpt lat="43.69913" lon="3.67387">
        <ele>234.7</ele>
        <time>2014-05-08T13:12:23Z</time>
      </trkpt>
      <trkpt lat="43.69916" lon="3.67389">
        <ele>235.18</ele>
        <time>2014-05-08T13:12:36Z</time>
      </trkpt>
      <trkpt lat="43.69921" lon="3.67389">
        <ele>235.18</ele>
        <time>2014-05-08T13:12:37Z</time>
      </trkpt>
      <trkpt lat="43.69929" lon="3.67387">
        <ele>235.18</ele>
        <time>2014-05-08T13:12:38Z</time>
      </trkpt>
      <trkpt lat="43.69999" lon="3.6736">
        <ele>235.18</ele>
        <time>2014-05-08T13:12:44Z</time>
      </trkpt>
      <trkpt lat="43.70072" lon="3.67333">
        <ele>236.62</ele>
        <time>2014-05-08T13:12:50Z</time>
      </trkpt>
      <trkpt lat="43.70085" lon="3.67325">
        <ele>236.62</ele>
        <time>2014-05-08T13:12:51Z</time>
      </trkpt>
      <trkpt lat="43.70167" lon="3.67263">
        <ele>239.02</ele>
        <time>2014-05-08T13:12:59Z</time>
      </trkpt>
      <trkpt lat="43.70232" lon="3.67218">
        <ele>241.43</ele>
        <time>2014-05-08T13:13:06Z</time>
      </trkpt>
      <trkpt lat="43.70303" lon="3.67165">
        <ele>244.79</ele>
        <time>2014-05-08T13:13:15Z</time>
      </trkpt>
      <trkpt lat="43.70396" lon="3.67089">
        <ele>248.16</ele>
        <time>2014-05-08T13:13:25Z</time>
      </trkpt>
      <trkpt lat="43.70409" lon="3.67082">
        <ele>248.64</ele>
        <time>2014-05-08T13:13:26Z</time>
      </trkpt>
      <trkpt lat="43.70511" lon="3.67037">
        <ele>247.2</ele>
        <time>2014-05-08T13:13:33Z</time>
      </trkpt>
      <trkpt lat="43.70529" lon="3.67034">
        <ele>246.72</ele>
        <time>2014-05-08T13:13:34Z</time>
      </trkpt>
      <trkpt lat="43.70547" lon="3.67032">
        <ele>246.23</ele>
        <time>2014-05-08T13:13:35Z</time>
      </trkpt>
      <trkpt lat="43.70565" lon="3.67034">
        <ele>245.75</ele>
        <time>2014-05-08T13:13:36Z</time>
      </trkpt>
      <trkpt lat="43.70584" lon="3.67036">
        <ele>245.27</ele>
        <time>2014-05-08T13:13:37Z</time>
      </trkpt>
      <trkpt lat="43.70799" lon="3.6705">
        <ele>243.35</ele>
        <time>2014-05-08T13:13:48Z</time>
      </trkpt>
      <trkpt lat="43.70901" lon="3.6709">
        <ele>240.47</ele>
        <time>2014-05-08T13:13:54Z</time>
      </trkpt>
      <trkpt lat="43.70912" lon="3.67101">
        <ele>239.99</ele>
        <time>2014-05-08T13:13:55Z</time>
      </trkpt>
      <trkpt lat="43.70921" lon="3.67117">
        <ele>239.51</ele>
        <time>2014-05-08T13:13:56Z</time>
      </trkpt>
      <trkpt lat="43.7093" lon="3.67134">
        <ele>239.51</ele>
        <time>2014-05-08T13:13:57Z</time>
      </trkpt>
      <trkpt lat="43.70937" lon="3.67151">
        <ele>238.54</ele>
        <time>2014-05-08T13:13:58Z</time>
      </trkpt>
      <trkpt lat="43.70942" lon="3.67168">
        <ele>238.06</ele>
        <time>2014-05-08T13:13:59Z</time>
      </trkpt>
      <trkpt lat="43.70945" lon="3.67186">
        <ele>237.58</ele>
        <time>2014-05-08T13:14:00Z</time>
      </trkpt>
      <trkpt lat="43.70945" lon="3.67206">
        <ele>237.1</ele>
        <time>2014-05-08T13:14:01Z</time>
      </trkpt>
      <trkpt lat="43.70943" lon="3.67228">
        <ele>236.14</ele>
        <time>2014-05-08T13:14:02Z</time>
      </trkpt>
      <trkpt lat="43.70939" lon="3.67252">
        <ele>235.66</ele>
        <time>2014-05-08T13:14:03Z</time>
      </trkpt>
      <trkpt lat="43.70934" lon="3.67276">
        <ele>234.7</ele>
        <time>2014-05-08T13:14:04Z</time>
      </trkpt>
      <trkpt lat="43.70928" lon="3.673">
        <ele>233.74</ele>
        <time>2014-05-08T13:14:05Z</time>
      </trkpt>
      <trkpt lat="43.70921" lon="3.67322">
        <ele>232.78</ele>
        <time>2014-05-08T13:14:06Z</time>
      </trkpt>
      <trkpt lat="43.70914" lon="3.67343">
        <ele>232.3</ele>
        <time>2014-05-08T13:14:07Z</time>
      </trkpt>
      <trkpt lat="43.70905" lon="3.67364">
        <ele>231.33</ele>
        <time>2014-05-08T13:14:08Z</time>
      </trkpt>
      <trkpt lat="43.70894" lon="3.67385">
        <ele>230.37</ele>
        <time>2014-05-08T13:14:09Z</time>
      </trkpt>
      <trkpt lat="43.70884" lon="3.67403">
        <ele>228.93</ele>
        <time>2014-05-08T13:14:10Z</time>
      </trkpt>
      <trkpt lat="43.70866" lon="3.67444">
        <ele>227.01</ele>
        <time>2014-05-08T13:14:12Z</time>
      </trkpt>
      <trkpt lat="43.7086" lon="3.67468">
        <ele>226.05</ele>
        <time>2014-05-08T13:14:13Z</time>
      </trkpt>
      <trkpt lat="43.70836" lon="3.67536">
        <ele>221.24</ele>
        <time>2014-05-08T13:14:17Z</time>
      </trkpt>
      <trkpt lat="43.70829" lon="3.67543">
        <ele>220.76</ele>
        <time>2014-05-08T13:14:18Z</time>
      </trkpt>
      <trkpt lat="43.7082" lon="3.67543">
        <ele>220.28</ele>
        <time>2014-05-08T13:14:19Z</time>
      </trkpt>
      <trkpt lat="43.70809" lon="3.67543">
        <ele>219.8</ele>
        <time>2014-05-08T13:14:20Z</time>
      </trkpt>
      <trkpt lat="43.70798" lon="3.67542">
        <ele>218.84</ele>
        <time>2014-05-08T13:14:21Z</time>
      </trkpt>
      <trkpt lat="43.70788" lon="3.6754">
        <ele>218.36</ele>
        <time>2014-05-08T13:14:22Z</time>
      </trkpt>
      <trkpt lat="43.70775" lon="3.67541">
        <ele>216.91</ele>
        <time>2014-05-08T13:14:24Z</time>
      </trkpt>
      <trkpt lat="43.70787" lon="3.67562">
        <ele>214.51</ele>
        <time>2014-05-08T13:14:28Z</time>
      </trkpt>
      <trkpt lat="43.70799" lon="3.67563">
        <ele>214.03</ele>
        <time>2014-05-08T13:14:29Z</time>
      </trkpt>
      <trkpt lat="43.70811" lon="3.67562">
        <ele>214.03</ele>
        <time>2014-05-08T13:14:30Z</time>
      </trkpt>
      <trkpt lat="43.70824" lon="3.67562">
        <ele>213.55</ele>
        <time>2014-05-08T13:14:31Z</time>
      </trkpt>
      <trkpt lat="43.70836" lon="3.6756">
        <ele>213.55</ele>
        <time>2014-05-08T13:14:32Z</time>
      </trkpt>
      <trkpt lat="43.70848" lon="3.67552">
        <ele>212.59</ele>
        <time>2014-05-08T13:14:33Z</time>
      </trkpt>
      <trkpt lat="43.70857" lon="3.67538">
        <ele>210.67</ele>
        <time>2014-05-08T13:14:34Z</time>
      </trkpt>
      <trkpt lat="43.70867" lon="3.67523">
        <ele>210.67</ele>
        <time>2014-05-08T13:14:35Z</time>
      </trkpt>
      <trkpt lat="43.70875" lon="3.67509">
        <ele>210.19</ele>
        <time>2014-05-08T13:14:36Z</time>
      </trkpt>
      <trkpt lat="43.70884" lon="3.67497">
        <ele>209.7</ele>
        <time>2014-05-08T13:14:37Z</time>
      </trkpt>
      <trkpt lat="43.70894" lon="3.67488">
        <ele>209.22</ele>
        <time>2014-05-08T13:14:38Z</time>
      </trkpt>
      <trkpt lat="43.70905" lon="3.67481">
        <ele>208.74</ele>
        <time>2014-05-08T13:14:39Z</time>
      </trkpt>
      <trkpt lat="43.70916" lon="3.67474">
        <ele>208.26</ele>
        <time>2014-05-08T13:14:40Z</time>
      </trkpt>
      <trkpt lat="43.70925" lon="3.67466">
        <ele>207.78</ele>
        <time>2014-05-08T13:14:41Z</time>
      </trkpt>
      <trkpt lat="43.70931" lon="3.67459">
        <ele>207.3</ele>
        <time>2014-05-08T13:14:42Z</time>
      </trkpt>
      <trkpt lat="43.70936" lon="3.67456">
        <ele>206.82</ele>
        <time>2014-05-08T13:14:43Z</time>
      </trkpt>
      <trkpt lat="43.70941" lon="3.67458">
        <ele>205.86</ele>
        <time>2014-05-08T13:14:44Z</time>
      </trkpt>
      <trkpt lat="43.70946" lon="3.67465">
        <ele>204.9</ele>
        <time>2014-05-08T13:14:45Z</time>
      </trkpt>
      <trkpt lat="43.70949" lon="3.67476">
        <ele>203.94</ele>
        <time>2014-05-08T13:14:46Z</time>
      </trkpt>
      <trkpt lat="43.70952" lon="3.67491">
        <ele>202.49</ele>
        <time>2014-05-08T13:14:47Z</time>
      </trkpt>
      <trkpt lat="43.70951" lon="3.67513">
        <ele>203.46</ele>
        <time>2014-05-08T13:14:48Z</time>
      </trkpt>
      <trkpt lat="43.70951" lon="3.67539">
        <ele>203.46</ele>
        <time>2014-05-08T13:14:49Z</time>
      </trkpt>
      <trkpt lat="43.70951" lon="3.67564">
        <ele>202.98</ele>
        <time>2014-05-08T13:14:50Z</time>
      </trkpt>
      <trkpt lat="43.70951" lon="3.67591">
        <ele>202.01</ele>
        <time>2014-05-08T13:14:51Z</time>
      </trkpt>
      <trkpt lat="43.70963" lon="3.67867">
        <ele>195.28</ele>
        <time>2014-05-08T13:15:01Z</time>
      </trkpt>
      <trkpt lat="43.70966" lon="3.67932">
        <ele>194.32</ele>
        <time>2014-05-08T13:15:04Z</time>
      </trkpt>
      <trkpt lat="43.70971" lon="3.67949">
        <ele>193.84</ele>
        <time>2014-05-08T13:15:05Z</time>
      </trkpt>
      <trkpt lat="43.70978" lon="3.67961">
        <ele>193.36</ele>
        <time>2014-05-08T13:15:06Z</time>
      </trkpt>
      <trkpt lat="43.70989" lon="3.67967">
        <ele>192.88</ele>
        <time>2014-05-08T13:15:07Z</time>
      </trkpt>
      <trkpt lat="43.71002" lon="3.67968">
        <ele>192.88</ele>
        <time>2014-05-08T13:15:08Z</time>
      </trkpt>
      <trkpt lat="43.71017" lon="3.67966">
        <ele>193.84</ele>
        <time>2014-05-08T13:15:09Z</time>
      </trkpt>
      <trkpt lat="43.71032" lon="3.67961">
        <ele>194.32</ele>
        <time>2014-05-08T13:15:10Z</time>
      </trkpt>
      <trkpt lat="43.7105" lon="3.67953">
        <ele>194.8</ele>
        <time>2014-05-08T13:15:11Z</time>
      </trkpt>
      <trkpt lat="43.71065" lon="3.67946">
        <ele>194.8</ele>
        <time>2014-05-08T13:15:12Z</time>
      </trkpt>
      <trkpt lat="43.71117" lon="3.67929">
        <ele>196.73</ele>
        <time>2014-05-08T13:15:16Z</time>
      </trkpt>
      <trkpt lat="43.71129" lon="3.67934">
        <ele>196.25</ele>
        <time>2014-05-08T13:15:17Z</time>
      </trkpt>
      <trkpt lat="43.7114" lon="3.67943">
        <ele>196.25</ele>
        <time>2014-05-08T13:15:18Z</time>
      </trkpt>
      <trkpt lat="43.71153" lon="3.67955">
        <ele>196.25</ele>
        <time>2014-05-08T13:15:19Z</time>
      </trkpt>
      <trkpt lat="43.71166" lon="3.6797">
        <ele>196.73</ele>
        <time>2014-05-08T13:15:20Z</time>
      </trkpt>
      <trkpt lat="43.71178" lon="3.67984">
        <ele>197.21</ele>
        <time>2014-05-08T13:15:21Z</time>
      </trkpt>
      <trkpt lat="43.71217" lon="3.68045">
        <ele>198.65</ele>
        <time>2014-05-08T13:15:25Z</time>
      </trkpt>
      <trkpt lat="43.7122" lon="3.68064">
        <ele>198.65</ele>
        <time>2014-05-08T13:15:26Z</time>
      </trkpt>
      <trkpt lat="43.71224" lon="3.68084">
        <ele>198.65</ele>
        <time>2014-05-08T13:15:27Z</time>
      </trkpt>
      <trkpt lat="43.71226" lon="3.68106">
        <ele>198.65</ele>
        <time>2014-05-08T13:15:28Z</time>
      </trkpt>
      <trkpt lat="43.71227" lon="3.6813">
        <ele>198.65</ele>
        <time>2014-05-08T13:15:29Z</time>
      </trkpt>
      <trkpt lat="43.71228" lon="3.68154">
        <ele>199.13</ele>
        <time>2014-05-08T13:15:30Z</time>
      </trkpt>
      <trkpt lat="43.71232" lon="3.68194">
        <ele>200.09</ele>
        <time>2014-05-08T13:15:32Z</time>
      </trkpt>
      <trkpt lat="43.71236" lon="3.68209">
        <ele>201.05</ele>
        <time>2014-05-08T13:15:33Z</time>
      </trkpt>
      <trkpt lat="43.71242" lon="3.68218">
        <ele>201.53</ele>
        <time>2014-05-08T13:15:34Z</time>
      </trkpt>
      <trkpt lat="43.71252" lon="3.68223">
        <ele>202.01</ele>
        <time>2014-05-08T13:15:35Z</time>
      </trkpt>
      <trkpt lat="43.71264" lon="3.68226">
        <ele>202.49</ele>
        <time>2014-05-08T13:15:36Z</time>
      </trkpt>
      <trkpt lat="43.71276" lon="3.68229">
        <ele>203.46</ele>
        <time>2014-05-08T13:15:37Z</time>
      </trkpt>
      <trkpt lat="43.71286" lon="3.6823">
        <ele>203.94</ele>
        <time>2014-05-08T13:15:38Z</time>
      </trkpt>
      <trkpt lat="43.71295" lon="3.68226">
        <ele>204.42</ele>
        <time>2014-05-08T13:15:39Z</time>
      </trkpt>
      <trkpt lat="43.71304" lon="3.68219">
        <ele>203.94</ele>
        <time>2014-05-08T13:15:40Z</time>
      </trkpt>
      <trkpt lat="43.71312" lon="3.68206">
        <ele>204.42</ele>
        <time>2014-05-08T13:15:41Z</time>
      </trkpt>
      <trkpt lat="43.7132" lon="3.68186">
        <ele>205.86</ele>
        <time>2014-05-08T13:15:42Z</time>
      </trkpt>
      <trkpt lat="43.71368" lon="3.68131">
        <ele>209.22</ele>
        <time>2014-05-08T13:15:46Z</time>
      </trkpt>
      <trkpt lat="43.71381" lon="3.68123">
        <ele>209.7</ele>
        <time>2014-05-08T13:15:47Z</time>
      </trkpt>
      <trkpt lat="43.71394" lon="3.68115">
        <ele>210.19</ele>
        <time>2014-05-08T13:15:48Z</time>
      </trkpt>
      <trkpt lat="43.71406" lon="3.68104">
        <ele>210.19</ele>
        <time>2014-05-08T13:15:49Z</time>
      </trkpt>
      <trkpt lat="43.71417" lon="3.68089">
        <ele>211.15</ele>
        <time>2014-05-08T13:15:50Z</time>
      </trkpt>
      <trkpt lat="43.71427" lon="3.68071">
        <ele>212.11</ele>
        <time>2014-05-08T13:15:51Z</time>
      </trkpt>
      <trkpt lat="43.71436" lon="3.68054">
        <ele>213.07</ele>
        <time>2014-05-08T13:15:52Z</time>
      </trkpt>
      <trkpt lat="43.71447" lon="3.68041">
        <ele>214.03</ele>
        <time>2014-05-08T13:15:53Z</time>
      </trkpt>
      <trkpt lat="43.71458" lon="3.68031">
        <ele>214.99</ele>
        <time>2014-05-08T13:15:54Z</time>
      </trkpt>
      <trkpt lat="43.71471" lon="3.68023">
        <ele>215.47</ele>
        <time>2014-05-08T13:15:55Z</time>
      </trkpt>
      <trkpt lat="43.71485" lon="3.68017">
        <ele>216.91</ele>
        <time>2014-05-08T13:15:56Z</time>
      </trkpt>
      <trkpt lat="43.71499" lon="3.6801">
        <ele>217.88</ele>
        <time>2014-05-08T13:15:57Z</time>
      </trkpt>
      <trkpt lat="43.71513" lon="3.68">
        <ele>218.84</ele>
        <time>2014-05-08T13:15:58Z</time>
      </trkpt>
      <trkpt lat="43.71526" lon="3.67989">
        <ele>219.8</ele>
        <time>2014-05-08T13:15:59Z</time>
      </trkpt>
      <trkpt lat="43.71536" lon="3.67976">
        <ele>220.76</ele>
        <time>2014-05-08T13:16:00Z</time>
      </trkpt>
      <trkpt lat="43.71545" lon="3.67965">
        <ele>220.76</ele>
        <time>2014-05-08T13:16:01Z</time>
      </trkpt>
      <trkpt lat="43.71554" lon="3.67956">
        <ele>221.24</ele>
        <time>2014-05-08T13:16:02Z</time>
      </trkpt>
      <trkpt lat="43.71565" lon="3.67954">
        <ele>222.2</ele>
        <time>2014-05-08T13:16:03Z</time>
      </trkpt>
      <trkpt lat="43.71577" lon="3.67948">
        <ele>222.68</ele>
        <time>2014-05-08T13:16:04Z</time>
      </trkpt>
      <trkpt lat="43.7159" lon="3.67945">
        <ele>223.16</ele>
        <time>2014-05-08T13:16:05Z</time>
      </trkpt>
      <trkpt lat="43.71601" lon="3.6794">
        <ele>223.64</ele>
        <time>2014-05-08T13:16:06Z</time>
      </trkpt>
      <trkpt lat="43.71634" lon="3.67926">
        <ele>224.61</ele>
        <time>2014-05-08T13:16:09Z</time>
      </trkpt>
      <trkpt lat="43.71646" lon="3.67925">
        <ele>224.12</ele>
        <time>2014-05-08T13:16:10Z</time>
      </trkpt>
      <trkpt lat="43.71657" lon="3.67931">
        <ele>224.12</ele>
        <time>2014-05-08T13:16:11Z</time>
      </trkpt>
      <trkpt lat="43.7167" lon="3.6794">
        <ele>224.61</ele>
        <time>2014-05-08T13:16:12Z</time>
      </trkpt>
      <trkpt lat="43.71683" lon="3.67952">
        <ele>225.09</ele>
        <time>2014-05-08T13:16:13Z</time>
      </trkpt>
      <trkpt lat="43.71696" lon="3.67966">
        <ele>225.57</ele>
        <time>2014-05-08T13:16:14Z</time>
      </trkpt>
      <trkpt lat="43.71749" lon="3.68024">
        <ele>227.01</ele>
        <time>2014-05-08T13:16:18Z</time>
      </trkpt>
      <trkpt lat="43.71763" lon="3.68035">
        <ele>227.97</ele>
        <time>2014-05-08T13:16:19Z</time>
      </trkpt>
      <trkpt lat="43.71777" lon="3.68043">
        <ele>228.45</ele>
        <time>2014-05-08T13:16:20Z</time>
      </trkpt>
      <trkpt lat="43.71791" lon="3.68047">
        <ele>228.93</ele>
        <time>2014-05-08T13:16:21Z</time>
      </trkpt>
      <trkpt lat="43.71804" lon="3.68051">
        <ele>228.93</ele>
        <time>2014-05-08T13:16:22Z</time>
      </trkpt>
      <trkpt lat="43.71816" lon="3.68058">
        <ele>229.41</ele>
        <time>2014-05-08T13:16:23Z</time>
      </trkpt>
      <trkpt lat="43.71826" lon="3.68069">
        <ele>229.41</ele>
        <time>2014-05-08T13:16:24Z</time>
      </trkpt>
      <trkpt lat="43.71834" lon="3.68083">
        <ele>229.41</ele>
        <time>2014-05-08T13:16:25Z</time>
      </trkpt>
      <trkpt lat="43.7184" lon="3.681">
        <ele>229.41</ele>
        <time>2014-05-08T13:16:26Z</time>
      </trkpt>
      <trkpt lat="43.71847" lon="3.68116">
        <ele>229.89</ele>
        <time>2014-05-08T13:16:27Z</time>
      </trkpt>
      <trkpt lat="43.71856" lon="3.68128">
        <ele>230.37</ele>
        <time>2014-05-08T13:16:28Z</time>
      </trkpt>
      <trkpt lat="43.71865" lon="3.68136">
        <ele>230.37</ele>
        <time>2014-05-08T13:16:29Z</time>
      </trkpt>
      <trkpt lat="43.71877" lon="3.68141">
        <ele>229.89</ele>
        <time>2014-05-08T13:16:30Z</time>
      </trkpt>
      <trkpt lat="43.7189" lon="3.68142">
        <ele>229.41</ele>
        <time>2014-05-08T13:16:31Z</time>
      </trkpt>
      <trkpt lat="43.71903" lon="3.6814">
        <ele>229.41</ele>
        <time>2014-05-08T13:16:32Z</time>
      </trkpt>
      <trkpt lat="43.71917" lon="3.68131">
        <ele>230.85</ele>
        <time>2014-05-08T13:16:33Z</time>
      </trkpt>
      <trkpt lat="43.7193" lon="3.68124">
        <ele>232.3</ele>
        <time>2014-05-08T13:16:34Z</time>
      </trkpt>
      <trkpt lat="43.71943" lon="3.68116">
        <ele>232.78</ele>
        <time>2014-05-08T13:16:35Z</time>
      </trkpt>
      <trkpt lat="43.71954" lon="3.68106">
        <ele>232.78</ele>
        <time>2014-05-08T13:16:36Z</time>
      </trkpt>
      <trkpt lat="43.71963" lon="3.68093">
        <ele>232.78</ele>
        <time>2014-05-08T13:16:37Z</time>
      </trkpt>
      <trkpt lat="43.7197" lon="3.68076">
        <ele>233.26</ele>
        <time>2014-05-08T13:16:38Z</time>
      </trkpt>
      <trkpt lat="43.71976" lon="3.68057">
        <ele>234.22</ele>
        <time>2014-05-08T13:16:39Z</time>
      </trkpt>
      <trkpt lat="43.7198" lon="3.68034">
        <ele>235.18</ele>
        <time>2014-05-08T13:16:40Z</time>
      </trkpt>
      <trkpt lat="43.71983" lon="3.6801">
        <ele>237.1</ele>
        <time>2014-05-08T13:16:41Z</time>
      </trkpt>
      <trkpt lat="43.71987" lon="3.67986">
        <ele>239.02</ele>
        <time>2014-05-08T13:16:42Z</time>
      </trkpt>
      <trkpt lat="43.72001" lon="3.6793">
        <ele>242.87</ele>
        <time>2014-05-08T13:16:45Z</time>
      </trkpt>
      <trkpt lat="43.72008" lon="3.67915">
        <ele>243.83</ele>
        <time>2014-05-08T13:16:46Z</time>
      </trkpt>
      <trkpt lat="43.72016" lon="3.679">
        <ele>245.27</ele>
        <time>2014-05-08T13:16:47Z</time>
      </trkpt>
      <trkpt lat="43.72025" lon="3.67884">
        <ele>247.2</ele>
        <time>2014-05-08T13:16:48Z</time>
      </trkpt>
      <trkpt lat="43.72031" lon="3.67864">
        <ele>248.64</ele>
        <time>2014-05-08T13:16:49Z</time>
      </trkpt>
      <trkpt lat="43.72035" lon="3.67843">
        <ele>250.56</ele>
        <time>2014-05-08T13:16:50Z</time>
      </trkpt>
      <trkpt lat="43.72038" lon="3.6782">
        <ele>252</ele>
        <time>2014-05-08T13:16:51Z</time>
      </trkpt>
      <trkpt lat="43.72042" lon="3.67799">
        <ele>253.44</ele>
        <time>2014-05-08T13:16:52Z</time>
      </trkpt>
      <trkpt lat="43.72049" lon="3.67779">
        <ele>254.89</ele>
        <time>2014-05-08T13:16:53Z</time>
      </trkpt>
      <trkpt lat="43.72057" lon="3.67761">
        <ele>256.81</ele>
        <time>2014-05-08T13:16:54Z</time>
      </trkpt>
      <trkpt lat="43.72066" lon="3.67747">
        <ele>258.25</ele>
        <time>2014-05-08T13:16:55Z</time>
      </trkpt>
      <trkpt lat="43.72076" lon="3.67736">
        <ele>259.69</ele>
        <time>2014-05-08T13:16:56Z</time>
      </trkpt>
      <trkpt lat="43.72088" lon="3.6773">
        <ele>261.62</ele>
        <time>2014-05-08T13:16:57Z</time>
      </trkpt>
      <trkpt lat="43.72102" lon="3.67723">
        <ele>263.06</ele>
        <time>2014-05-08T13:16:58Z</time>
      </trkpt>
      <trkpt lat="43.72115" lon="3.67713">
        <ele>264.5</ele>
        <time>2014-05-08T13:16:59Z</time>
      </trkpt>
      <trkpt lat="43.72126" lon="3.67698">
        <ele>265.46</ele>
        <time>2014-05-08T13:17:00Z</time>
      </trkpt>
      <trkpt lat="43.72136" lon="3.67682">
        <ele>266.9</ele>
        <time>2014-05-08T13:17:01Z</time>
      </trkpt>
      <trkpt lat="43.72164" lon="3.67636">
        <ele>266.9</ele>
        <time>2014-05-08T13:17:04Z</time>
      </trkpt>
      <trkpt lat="43.72176" lon="3.67628">
        <ele>267.86</ele>
        <time>2014-05-08T13:17:05Z</time>
      </trkpt>
      <trkpt lat="43.7219" lon="3.67624">
        <ele>268.35</ele>
        <time>2014-05-08T13:17:06Z</time>
      </trkpt>
      <trkpt lat="43.72204" lon="3.6762">
        <ele>268.83</ele>
        <time>2014-05-08T13:17:07Z</time>
      </trkpt>
      <trkpt lat="43.72221" lon="3.67619">
        <ele>269.31</ele>
        <time>2014-05-08T13:17:08Z</time>
      </trkpt>
      <trkpt lat="43.72237" lon="3.67618">
        <ele>268.83</ele>
        <time>2014-05-08T13:17:09Z</time>
      </trkpt>
      <trkpt lat="43.72269" lon="3.67619">
        <ele>269.31</ele>
        <time>2014-05-08T13:17:11Z</time>
      </trkpt>
      <trkpt lat="43.72285" lon="3.67623">
        <ele>269.79</ele>
        <time>2014-05-08T13:17:12Z</time>
      </trkpt>
      <trkpt lat="43.72419" lon="3.67642">
        <ele>272.19</ele>
        <time>2014-05-08T13:17:20Z</time>
      </trkpt>
      <trkpt lat="43.72431" lon="3.67631">
        <ele>272.67</ele>
        <time>2014-05-08T13:17:21Z</time>
      </trkpt>
      <trkpt lat="43.72441" lon="3.67617">
        <ele>272.67</ele>
        <time>2014-05-08T13:17:22Z</time>
      </trkpt>
      <trkpt lat="43.7245" lon="3.676">
        <ele>272.67</ele>
        <time>2014-05-08T13:17:23Z</time>
      </trkpt>
      <trkpt lat="43.72461" lon="3.67583">
        <ele>273.15</ele>
        <time>2014-05-08T13:17:24Z</time>
      </trkpt>
      <trkpt lat="43.72471" lon="3.67568">
        <ele>273.15</ele>
        <time>2014-05-08T13:17:25Z</time>
      </trkpt>
      <trkpt lat="43.72484" lon="3.67558">
        <ele>273.15</ele>
        <time>2014-05-08T13:17:26Z</time>
      </trkpt>
      <trkpt lat="43.72497" lon="3.67551">
        <ele>273.15</ele>
        <time>2014-05-08T13:17:27Z</time>
      </trkpt>
      <trkpt lat="43.72512" lon="3.67548">
        <ele>273.63</ele>
        <time>2014-05-08T13:17:28Z</time>
      </trkpt>
      <trkpt lat="43.72528" lon="3.67549">
        <ele>274.11</ele>
        <time>2014-05-08T13:17:29Z</time>
      </trkpt>
      <trkpt lat="43.72546" lon="3.6755">
        <ele>274.59</ele>
        <time>2014-05-08T13:17:30Z</time>
      </trkpt>
      <trkpt lat="43.72565" lon="3.67552">
        <ele>275.07</ele>
        <time>2014-05-08T13:17:31Z</time>
      </trkpt>
      <trkpt lat="43.72622" lon="3.67565">
        <ele>276.04</ele>
        <time>2014-05-08T13:17:34Z</time>
      </trkpt>
      <trkpt lat="43.72641" lon="3.67573">
        <ele>276.04</ele>
        <time>2014-05-08T13:17:35Z</time>
      </trkpt>
      <trkpt lat="43.7271" lon="3.67611">
        <ele>277.96</ele>
        <time>2014-05-08T13:17:39Z</time>
      </trkpt>
      <trkpt lat="43.72726" lon="3.67625">
        <ele>278.44</ele>
        <time>2014-05-08T13:17:40Z</time>
      </trkpt>
      <trkpt lat="43.7274" lon="3.67642">
        <ele>278.44</ele>
        <time>2014-05-08T13:17:41Z</time>
      </trkpt>
      <trkpt lat="43.72754" lon="3.67661">
        <ele>279.88</ele>
        <time>2014-05-08T13:17:42Z</time>
      </trkpt>
      <trkpt lat="43.72768" lon="3.67681">
        <ele>280.84</ele>
        <time>2014-05-08T13:17:43Z</time>
      </trkpt>
      <trkpt lat="43.72889" lon="3.67833">
        <ele>288.05</ele>
        <time>2014-05-08T13:17:52Z</time>
      </trkpt>
      <trkpt lat="43.72994" lon="3.67911">
        <ele>289.97</ele>
        <time>2014-05-08T13:17:59Z</time>
      </trkpt>
      <trkpt lat="43.73012" lon="3.67926">
        <ele>289.97</ele>
        <time>2014-05-08T13:18:04Z</time>
      </trkpt>
      <trkpt lat="43.73017" lon="3.67935">
        <ele>289.97</ele>
        <time>2014-05-08T13:18:05Z</time>
      </trkpt>
      <trkpt lat="43.73023" lon="3.67952">
        <ele>289.97</ele>
        <time>2014-05-08T13:18:06Z</time>
      </trkpt>
      <trkpt lat="43.73074" lon="3.68077">
        <ele>289.49</ele>
        <time>2014-05-08T13:18:11Z</time>
      </trkpt>
      <trkpt lat="43.73157" lon="3.68293">
        <ele>288.05</ele>
        <time>2014-05-08T13:18:18Z</time>
      </trkpt>
      <trkpt lat="43.73187" lon="3.6847">
        <ele>284.21</ele>
        <time>2014-05-08T13:18:24Z</time>
      </trkpt>
      <trkpt lat="43.73222" lon="3.68625">
        <ele>278.44</ele>
        <time>2014-05-08T13:18:30Z</time>
      </trkpt>
      <trkpt lat="43.73319" lon="3.68886">
        <ele>267.86</ele>
        <time>2014-05-08T13:18:40Z</time>
      </trkpt>
      <trkpt lat="43.73455" lon="3.69081">
        <ele>263.06</ele>
        <time>2014-05-08T13:18:47Z</time>
      </trkpt>
      <trkpt lat="43.73536" lon="3.69175">
        <ele>264.02</ele>
        <time>2014-05-08T13:18:51Z</time>
      </trkpt>
      <trkpt lat="43.73559" lon="3.69192">
        <ele>264.02</ele>
        <time>2014-05-08T13:18:52Z</time>
      </trkpt>
      <trkpt lat="43.73733" lon="3.69289">
        <ele>258.25</ele>
        <time>2014-05-08T13:18:59Z</time>
      </trkpt>
      <trkpt lat="43.73761" lon="3.69292">
        <ele>257.29</ele>
        <time>2014-05-08T13:19:00Z</time>
      </trkpt>
      <trkpt lat="43.73788" lon="3.69291">
        <ele>256.81</ele>
        <time>2014-05-08T13:19:01Z</time>
      </trkpt>
      <trkpt lat="43.73817" lon="3.69288">
        <ele>256.33</ele>
        <time>2014-05-08T13:19:02Z</time>
      </trkpt>
      <trkpt lat="43.73845" lon="3.69285">
        <ele>256.33</ele>
        <time>2014-05-08T13:19:03Z</time>
      </trkpt>
      <trkpt lat="43.73948" lon="3.69282">
        <ele>255.37</ele>
        <time>2014-05-08T13:19:07Z</time>
      </trkpt>
      <trkpt lat="43.73971" lon="3.6929">
        <ele>254.89</ele>
        <time>2014-05-08T13:19:08Z</time>
      </trkpt>
      <trkpt lat="43.73992" lon="3.69304">
        <ele>253.93</ele>
        <time>2014-05-08T13:19:09Z</time>
      </trkpt>
      <trkpt lat="43.74012" lon="3.69325">
        <ele>252.96</ele>
        <time>2014-05-08T13:19:10Z</time>
      </trkpt>
      <trkpt lat="43.74028" lon="3.69349">
        <ele>252.96</ele>
        <time>2014-05-08T13:19:11Z</time>
      </trkpt>
      <trkpt lat="43.74042" lon="3.69377">
        <ele>252.48</ele>
        <time>2014-05-08T13:19:12Z</time>
      </trkpt>
      <trkpt lat="43.74053" lon="3.69407">
        <ele>252.96</ele>
        <time>2014-05-08T13:19:13Z</time>
      </trkpt>
      <trkpt lat="43.74061" lon="3.69436">
        <ele>254.41</ele>
        <time>2014-05-08T13:19:14Z</time>
      </trkpt>
      <trkpt lat="43.7413" lon="3.69657">
        <ele>258.73</ele>
        <time>2014-05-08T13:19:23Z</time>
      </trkpt>
      <trkpt lat="43.74186" lon="3.69895">
        <ele>255.37</ele>
        <time>2014-05-08T13:19:33Z</time>
      </trkpt>
      <trkpt lat="43.74211" lon="3.70177">
        <ele>253.44</ele>
        <time>2014-05-08T13:19:46Z</time>
      </trkpt>
      <trkpt lat="43.74215" lon="3.70194">
        <ele>253.44</ele>
        <time>2014-05-08T13:19:47Z</time>
      </trkpt>
      <trkpt lat="43.7422" lon="3.70209">
        <ele>253.93</ele>
        <time>2014-05-08T13:19:48Z</time>
      </trkpt>
      <trkpt lat="43.74233" lon="3.70243">
        <ele>254.89</ele>
        <time>2014-05-08T13:19:53Z</time>
      </trkpt>
      <trkpt lat="43.74239" lon="3.70253">
        <ele>254.89</ele>
        <time>2014-05-08T13:19:58Z</time>
      </trkpt>
      <trkpt lat="43.74261" lon="3.70302">
        <ele>256.81</ele>
        <time>2014-05-08T13:20:08Z</time>
      </trkpt>
      <trkpt lat="43.74298" lon="3.70358">
        <ele>259.69</ele>
        <time>2014-05-08T13:20:16Z</time>
      </trkpt>
      <trkpt lat="43.74303" lon="3.70368">
        <ele>259.69</ele>
        <time>2014-05-08T13:20:17Z</time>
      </trkpt>
      <trkpt lat="43.74307" lon="3.70378">
        <ele>260.17</ele>
        <time>2014-05-08T13:20:18Z</time>
      </trkpt>
      <trkpt lat="43.74319" lon="3.7041">
        <ele>260.65</ele>
        <time>2014-05-08T13:20:22Z</time>
      </trkpt>
      <trkpt lat="43.74322" lon="3.70417">
        <ele>260.65</ele>
        <time>2014-05-08T13:20:23Z</time>
      </trkpt>
      <trkpt lat="43.74328" lon="3.70424">
        <ele>260.65</ele>
        <time>2014-05-08T13:20:24Z</time>
      </trkpt>
      <trkpt lat="43.74388" lon="3.7049">
        <ele>260.65</ele>
        <time>2014-05-08T13:20:33Z</time>
      </trkpt>
      <trkpt lat="43.74395" lon="3.70495">
        <ele>260.65</ele>
        <time>2014-05-08T13:20:34Z</time>
      </trkpt>
      <trkpt lat="43.74466" lon="3.70565">
        <ele>258.25</ele>
        <time>2014-05-08T13:20:44Z</time>
      </trkpt>
      <trkpt lat="43.74472" lon="3.70576">
        <ele>257.77</ele>
        <time>2014-05-08T13:20:45Z</time>
      </trkpt>
      <trkpt lat="43.74476" lon="3.70588">
        <ele>257.29</ele>
        <time>2014-05-08T13:20:46Z</time>
      </trkpt>
      <trkpt lat="43.7448" lon="3.70603">
        <ele>256.81</ele>
        <time>2014-05-08T13:20:47Z</time>
      </trkpt>
      <trkpt lat="43.74482" lon="3.70618">
        <ele>255.85</ele>
        <time>2014-05-08T13:20:48Z</time>
      </trkpt>
      <trkpt lat="43.74505" lon="3.70755">
        <ele>249.12</ele>
        <time>2014-05-08T13:20:57Z</time>
      </trkpt>
      <trkpt lat="43.74506" lon="3.70767">
        <ele>248.64</ele>
        <time>2014-05-08T13:20:58Z</time>
      </trkpt>
      <trkpt lat="43.74505" lon="3.70776">
        <ele>248.16</ele>
        <time>2014-05-08T13:20:59Z</time>
      </trkpt>
      <trkpt lat="43.74505" lon="3.70785">
        <ele>247.68</ele>
        <time>2014-05-08T13:21:05Z</time>
      </trkpt>
      <trkpt lat="43.74505" lon="3.70782">
        <ele>249.6</ele>
        <time>2014-05-08T13:22:11Z</time>
      </trkpt>
      <trkpt lat="43.74507" lon="3.70783">
        <ele>249.6</ele>
        <time>2014-05-08T13:22:12Z</time>
      </trkpt>
      <trkpt lat="43.74511" lon="3.70783">
        <ele>249.6</ele>
        <time>2014-05-08T13:22:13Z</time>
      </trkpt>
      <trkpt lat="43.74516" lon="3.70785">
        <ele>249.12</ele>
        <time>2014-05-08T13:22:14Z</time>
      </trkpt>
      <trkpt lat="43.74523" lon="3.7079">
        <ele>249.12</ele>
        <time>2014-05-08T13:22:15Z</time>
      </trkpt>
      <trkpt lat="43.74531" lon="3.70799">
        <ele>249.12</ele>
        <time>2014-05-08T13:22:16Z</time>
      </trkpt>
      <trkpt lat="43.74541" lon="3.70811">
        <ele>248.64</ele>
        <time>2014-05-08T13:22:17Z</time>
      </trkpt>
      <trkpt lat="43.7463" lon="3.70902">
        <ele>243.35</ele>
        <time>2014-05-08T13:22:24Z</time>
      </trkpt>
      <trkpt lat="43.74737" lon="3.71009">
        <ele>239.51</ele>
        <time>2014-05-08T13:22:33Z</time>
      </trkpt>
      <trkpt lat="43.74842" lon="3.71114">
        <ele>236.14</ele>
        <time>2014-05-08T13:22:39Z</time>
      </trkpt>
      <trkpt lat="43.74946" lon="3.71216">
        <ele>235.66</ele>
        <time>2014-05-08T13:22:45Z</time>
      </trkpt>
      <trkpt lat="43.75124" lon="3.71396">
        <ele>241.43</ele>
        <time>2014-05-08T13:22:54Z</time>
      </trkpt>
      <trkpt lat="43.75397" lon="3.71672">
        <ele>251.52</ele>
        <time>2014-05-08T13:23:09Z</time>
      </trkpt>
      <trkpt lat="43.75561" lon="3.718">
        <ele>252.48</ele>
        <time>2014-05-08T13:23:16Z</time>
      </trkpt>
      <trkpt lat="43.75818" lon="3.7196">
        <ele>254.41</ele>
        <time>2014-05-08T13:23:25Z</time>
      </trkpt>
      <trkpt lat="43.76074" lon="3.72112">
        <ele>257.29</ele>
        <time>2014-05-08T13:23:34Z</time>
      </trkpt>
      <trkpt lat="43.76389" lon="3.72275">
        <ele>257.29</ele>
        <time>2014-05-08T13:23:45Z</time>
      </trkpt>
      <trkpt lat="43.76838" lon="3.72507">
        <ele>260.17</ele>
        <time>2014-05-08T13:24:02Z</time>
      </trkpt>
      <trkpt lat="43.76938" lon="3.72556">
        <ele>258.73</ele>
        <time>2014-05-08T13:24:07Z</time>
      </trkpt>
      <trkpt lat="43.76957" lon="3.72561">
        <ele>258.25</ele>
        <time>2014-05-08T13:24:08Z</time>
      </trkpt>
      <trkpt lat="43.76977" lon="3.72564">
        <ele>257.77</ele>
        <time>2014-05-08T13:24:09Z</time>
      </trkpt>
      <trkpt lat="43.77068" lon="3.7256">
        <ele>254.41</ele>
        <time>2014-05-08T13:24:14Z</time>
      </trkpt>
      <trkpt lat="43.77087" lon="3.72551">
        <ele>253.93</ele>
        <time>2014-05-08T13:24:15Z</time>
      </trkpt>
      <trkpt lat="43.77105" lon="3.7254">
        <ele>252.96</ele>
        <time>2014-05-08T13:24:16Z</time>
      </trkpt>
      <trkpt lat="43.77176" lon="3.72501">
        <ele>248.16</ele>
        <time>2014-05-08T13:24:20Z</time>
      </trkpt>
      <trkpt lat="43.77191" lon="3.72487">
        <ele>246.23</ele>
        <time>2014-05-08T13:24:21Z</time>
      </trkpt>
      <trkpt lat="43.77202" lon="3.72466">
        <ele>245.27</ele>
        <time>2014-05-08T13:24:22Z</time>
      </trkpt>
      <trkpt lat="43.77212" lon="3.72448">
        <ele>243.83</ele>
        <time>2014-05-08T13:24:23Z</time>
      </trkpt>
      <trkpt lat="43.77219" lon="3.72424">
        <ele>242.87</ele>
        <time>2014-05-08T13:24:24Z</time>
      </trkpt>
      <trkpt lat="43.77224" lon="3.72397">
        <ele>240.95</ele>
        <time>2014-05-08T13:24:25Z</time>
      </trkpt>
      <trkpt lat="43.77229" lon="3.72371">
        <ele>239.51</ele>
        <time>2014-05-08T13:24:26Z</time>
      </trkpt>
      <trkpt lat="43.77233" lon="3.72345">
        <ele>238.06</ele>
        <time>2014-05-08T13:24:27Z</time>
      </trkpt>
      <trkpt lat="43.77278" lon="3.72109">
        <ele>225.57</ele>
        <time>2014-05-08T13:24:37Z</time>
      </trkpt>
      <trkpt lat="43.77285" lon="3.72091">
        <ele>224.12</ele>
        <time>2014-05-08T13:24:38Z</time>
      </trkpt>
      <trkpt lat="43.77296" lon="3.72078">
        <ele>223.16</ele>
        <time>2014-05-08T13:24:39Z</time>
      </trkpt>
      <trkpt lat="43.77309" lon="3.7207">
        <ele>222.2</ele>
        <time>2014-05-08T13:24:40Z</time>
      </trkpt>
      <trkpt lat="43.77325" lon="3.72066">
        <ele>221.24</ele>
        <time>2014-05-08T13:24:41Z</time>
      </trkpt>
      <trkpt lat="43.77341" lon="3.72062">
        <ele>220.28</ele>
        <time>2014-05-08T13:24:42Z</time>
      </trkpt>
      <trkpt lat="43.77357" lon="3.72061">
        <ele>219.8</ele>
        <time>2014-05-08T13:24:43Z</time>
      </trkpt>
      <trkpt lat="43.77375" lon="3.72061">
        <ele>219.32</ele>
        <time>2014-05-08T13:24:44Z</time>
      </trkpt>
      <trkpt lat="43.77393" lon="3.72061">
        <ele>217.88</ele>
        <time>2014-05-08T13:24:45Z</time>
      </trkpt>
      <trkpt lat="43.77461" lon="3.72064">
        <ele>215.95</ele>
        <time>2014-05-08T13:24:49Z</time>
      </trkpt>
      <trkpt lat="43.77477" lon="3.72069">
        <ele>216.43</ele>
        <time>2014-05-08T13:24:50Z</time>
      </trkpt>
      <trkpt lat="43.77494" lon="3.72077">
        <ele>215.95</ele>
        <time>2014-05-08T13:24:51Z</time>
      </trkpt>
      <trkpt lat="43.77609" lon="3.72151">
        <ele>214.99</ele>
        <time>2014-05-08T13:24:59Z</time>
      </trkpt>
      <trkpt lat="43.77782" lon="3.72278">
        <ele>210.67</ele>
        <time>2014-05-08T13:25:11Z</time>
      </trkpt>
      <trkpt lat="43.7791" lon="3.72376">
        <ele>207.78</ele>
        <time>2014-05-08T13:25:20Z</time>
      </trkpt>
      <trkpt lat="43.7803" lon="3.72466">
        <ele>206.34</ele>
        <time>2014-05-08T13:25:27Z</time>
      </trkpt>
      <trkpt lat="43.78179" lon="3.72591">
        <ele>203.46</ele>
        <time>2014-05-08T13:25:37Z</time>
      </trkpt>
      <trkpt lat="43.78288" lon="3.72698">
        <ele>202.01</ele>
        <time>2014-05-08T13:25:47Z</time>
      </trkpt>
      <trkpt lat="43.78299" lon="3.72714">
        <ele>202.01</ele>
        <time>2014-05-08T13:25:49Z</time>
      </trkpt>
      <trkpt lat="43.78306" lon="3.72719">
        <ele>202.01</ele>
        <time>2014-05-08T13:25:50Z</time>
      </trkpt>
      <trkpt lat="43.78315" lon="3.72723">
        <ele>202.01</ele>
        <time>2014-05-08T13:25:51Z</time>
      </trkpt>
      <trkpt lat="43.78325" lon="3.7273">
        <ele>202.01</ele>
        <time>2014-05-08T13:25:52Z</time>
      </trkpt>
      <trkpt lat="43.78335" lon="3.72738">
        <ele>201.53</ele>
        <time>2014-05-08T13:25:53Z</time>
      </trkpt>
      <trkpt lat="43.78345" lon="3.72748">
        <ele>201.53</ele>
        <time>2014-05-08T13:25:54Z</time>
      </trkpt>
      <trkpt lat="43.78472" lon="3.72868">
        <ele>199.13</ele>
        <time>2014-05-08T13:26:04Z</time>
      </trkpt>
      <trkpt lat="43.78591" lon="3.7298">
        <ele>198.65</ele>
        <time>2014-05-08T13:26:14Z</time>
      </trkpt>
      <trkpt lat="43.78686" lon="3.7307">
        <ele>198.17</ele>
        <time>2014-05-08T13:26:25Z</time>
      </trkpt>
      <trkpt lat="43.78741" lon="3.73121">
        <ele>196.73</ele>
        <time>2014-05-08T13:26:34Z</time>
      </trkpt>
      <trkpt lat="43.78831" lon="3.73205">
        <ele>194.32</ele>
        <time>2014-05-08T13:26:46Z</time>
      </trkpt>
      <trkpt lat="43.78838" lon="3.73212">
        <ele>194.32</ele>
        <time>2014-05-08T13:26:48Z</time>
      </trkpt>
      <trkpt lat="43.7884" lon="3.73216">
        <ele>193.84</ele>
        <time>2014-05-08T13:26:49Z</time>
      </trkpt>
      <trkpt lat="43.78842" lon="3.73221">
        <ele>193.36</ele>
        <time>2014-05-08T13:26:50Z</time>
      </trkpt>
      <trkpt lat="43.78844" lon="3.73225">
        <ele>193.36</ele>
        <time>2014-05-08T13:26:51Z</time>
      </trkpt>
      <trkpt lat="43.78847" lon="3.73227">
        <ele>193.36</ele>
        <time>2014-05-08T13:26:52Z</time>
      </trkpt>
      <trkpt lat="43.7885" lon="3.73227">
        <ele>193.36</ele>
        <time>2014-05-08T13:26:53Z</time>
      </trkpt>
      <trkpt lat="43.78854" lon="3.73227">
        <ele>193.36</ele>
        <time>2014-05-08T13:26:54Z</time>
      </trkpt>
      <trkpt lat="43.78859" lon="3.73227">
        <ele>193.36</ele>
        <time>2014-05-08T13:26:55Z</time>
      </trkpt>
      <trkpt lat="43.7892" lon="3.73239">
        <ele>194.32</ele>
        <time>2014-05-08T13:27:02Z</time>
      </trkpt>
      <trkpt lat="43.79042" lon="3.73263">
        <ele>193.36</ele>
        <time>2014-05-08T13:27:13Z</time>
      </trkpt>
      <trkpt lat="43.79086" lon="3.73264">
        <ele>199.13</ele>
        <time>2014-05-08T13:27:20Z</time>
      </trkpt>
      <trkpt lat="43.79107" lon="3.73256">
        <ele>200.09</ele>
        <time>2014-05-08T13:27:30Z</time>
      </trkpt>
      <trkpt lat="43.79117" lon="3.73256">
        <ele>201.53</ele>
        <time>2014-05-08T13:27:31Z</time>
      </trkpt>
      <trkpt lat="43.79125" lon="3.73258">
        <ele>202.01</ele>
        <time>2014-05-08T13:27:32Z</time>
      </trkpt>
      <trkpt lat="43.79133" lon="3.7326">
        <ele>202.49</ele>
        <time>2014-05-08T13:27:33Z</time>
      </trkpt>
      <trkpt lat="43.7921" lon="3.73311">
        <ele>201.05</ele>
        <time>2014-05-08T13:27:41Z</time>
      </trkpt>
      <trkpt lat="43.79322" lon="3.73343">
        <ele>197.69</ele>
        <time>2014-05-08T13:27:51Z</time>
      </trkpt>
      <trkpt lat="43.79426" lon="3.73357">
        <ele>198.17</ele>
        <time>2014-05-08T13:27:59Z</time>
      </trkpt>
      <trkpt lat="43.7944" lon="3.73359">
        <ele>197.69</ele>
        <time>2014-05-08T13:28:01Z</time>
      </trkpt>
      <trkpt lat="43.79445" lon="3.73357">
        <ele>197.21</ele>
        <time>2014-05-08T13:28:02Z</time>
      </trkpt>
      <trkpt lat="43.79446" lon="3.7335">
        <ele>197.21</ele>
        <time>2014-05-08T13:28:03Z</time>
      </trkpt>
      <trkpt lat="43.79446" lon="3.73343">
        <ele>197.21</ele>
        <time>2014-05-08T13:28:04Z</time>
      </trkpt>
      <trkpt lat="43.79444" lon="3.73336">
        <ele>197.21</ele>
        <time>2014-05-08T13:28:05Z</time>
      </trkpt>
      <trkpt lat="43.79437" lon="3.73329">
        <ele>197.21</ele>
        <time>2014-05-08T13:28:06Z</time>
      </trkpt>
      <trkpt lat="43.79426" lon="3.73323">
        <ele>197.69</ele>
        <time>2014-05-08T13:28:07Z</time>
      </trkpt>
      <trkpt lat="43.79411" lon="3.73314">
        <ele>197.69</ele>
        <time>2014-05-08T13:28:08Z</time>
      </trkpt>
      <trkpt lat="43.79396" lon="3.73308">
        <ele>198.65</ele>
        <time>2014-05-08T13:28:09Z</time>
      </trkpt>
      <trkpt lat="43.79298" lon="3.73234">
        <ele>202.49</ele>
        <time>2014-05-08T13:28:16Z</time>
      </trkpt>
      <trkpt lat="43.79267" lon="3.73204">
        <ele>203.46</ele>
        <time>2014-05-08T13:28:19Z</time>
      </trkpt>
      <trkpt lat="43.7926" lon="3.73191">
        <ele>203.94</ele>
        <time>2014-05-08T13:28:20Z</time>
      </trkpt>
      <trkpt lat="43.79255" lon="3.73176">
        <ele>204.42</ele>
        <time>2014-05-08T13:28:21Z</time>
      </trkpt>
      <trkpt lat="43.79253" lon="3.73155">
        <ele>205.38</ele>
        <time>2014-05-08T13:28:22Z</time>
      </trkpt>
      <trkpt lat="43.79251" lon="3.73134">
        <ele>206.34</ele>
        <time>2014-05-08T13:28:23Z</time>
      </trkpt>
      <trkpt lat="43.79249" lon="3.73112">
        <ele>207.3</ele>
        <time>2014-05-08T13:28:24Z</time>
      </trkpt>
      <trkpt lat="43.79246" lon="3.73074">
        <ele>208.74</ele>
        <time>2014-05-08T13:28:26Z</time>
      </trkpt>
      <trkpt lat="43.7925" lon="3.73057">
        <ele>209.22</ele>
        <time>2014-05-08T13:28:27Z</time>
      </trkpt>
      <trkpt lat="43.79256" lon="3.73041">
        <ele>209.7</ele>
        <time>2014-05-08T13:28:28Z</time>
      </trkpt>
      <trkpt lat="43.79264" lon="3.73031">
        <ele>211.15</ele>
        <time>2014-05-08T13:28:29Z</time>
      </trkpt>
      <trkpt lat="43.79277" lon="3.73029">
        <ele>212.11</ele>
        <time>2014-05-08T13:28:30Z</time>
      </trkpt>
      <trkpt lat="43.7929" lon="3.73029">
        <ele>213.55</ele>
        <time>2014-05-08T13:28:31Z</time>
      </trkpt>
      <trkpt lat="43.79305" lon="3.73027">
        <ele>214.51</ele>
        <time>2014-05-08T13:28:32Z</time>
      </trkpt>
      <trkpt lat="43.79323" lon="3.73025">
        <ele>215.47</ele>
        <time>2014-05-08T13:28:33Z</time>
      </trkpt>
      <trkpt lat="43.79429" lon="3.72973">
        <ele>222.2</ele>
        <time>2014-05-08T13:28:39Z</time>
      </trkpt>
      <trkpt lat="43.79516" lon="3.72925">
        <ele>229.41</ele>
        <time>2014-05-08T13:28:46Z</time>
      </trkpt>
      <trkpt lat="43.79618" lon="3.72853">
        <ele>236.14</ele>
        <time>2014-05-08T13:28:52Z</time>
      </trkpt>
      <trkpt lat="43.79718" lon="3.72813">
        <ele>242.39</ele>
        <time>2014-05-08T13:28:57Z</time>
      </trkpt>
      <trkpt lat="43.79735" lon="3.72801">
        <ele>242.87</ele>
        <time>2014-05-08T13:28:58Z</time>
      </trkpt>
      <trkpt lat="43.79752" lon="3.72783">
        <ele>243.83</ele>
        <time>2014-05-08T13:28:59Z</time>
      </trkpt>
      <trkpt lat="43.79767" lon="3.72762">
        <ele>245.27</ele>
        <time>2014-05-08T13:29:00Z</time>
      </trkpt>
      <trkpt lat="43.79781" lon="3.72737">
        <ele>246.72</ele>
        <time>2014-05-08T13:29:01Z</time>
      </trkpt>
      <trkpt lat="43.79942" lon="3.7253">
        <ele>253.93</ele>
        <time>2014-05-08T13:29:10Z</time>
      </trkpt>
      <trkpt lat="43.80078" lon="3.7238">
        <ele>259.21</ele>
        <time>2014-05-08T13:29:18Z</time>
      </trkpt>
      <trkpt lat="43.80098" lon="3.72376">
        <ele>260.17</ele>
        <time>2014-05-08T13:29:19Z</time>
      </trkpt>
      <trkpt lat="43.80118" lon="3.72374">
        <ele>261.62</ele>
        <time>2014-05-08T13:29:20Z</time>
      </trkpt>
      <trkpt lat="43.80139" lon="3.72373">
        <ele>262.58</ele>
        <time>2014-05-08T13:29:21Z</time>
      </trkpt>
      <trkpt lat="43.80198" lon="3.72375">
        <ele>266.42</ele>
        <time>2014-05-08T13:29:24Z</time>
      </trkpt>
      <trkpt lat="43.80215" lon="3.72386">
        <ele>267.86</ele>
        <time>2014-05-08T13:29:25Z</time>
      </trkpt>
      <trkpt lat="43.80232" lon="3.72402">
        <ele>269.79</ele>
        <time>2014-05-08T13:29:26Z</time>
      </trkpt>
      <trkpt lat="43.80247" lon="3.72419">
        <ele>270.75</ele>
        <time>2014-05-08T13:29:27Z</time>
      </trkpt>
      <trkpt lat="43.80265" lon="3.72436">
        <ele>272.19</ele>
        <time>2014-05-08T13:29:28Z</time>
      </trkpt>
      <trkpt lat="43.80283" lon="3.72448">
        <ele>273.15</ele>
        <time>2014-05-08T13:29:29Z</time>
      </trkpt>
      <trkpt lat="43.80302" lon="3.72456">
        <ele>274.59</ele>
        <time>2014-05-08T13:29:30Z</time>
      </trkpt>
      <trkpt lat="43.80319" lon="3.72459">
        <ele>276.04</ele>
        <time>2014-05-08T13:29:31Z</time>
      </trkpt>
      <trkpt lat="43.80336" lon="3.72459">
        <ele>277.48</ele>
        <time>2014-05-08T13:29:32Z</time>
      </trkpt>
      <trkpt lat="43.80352" lon="3.72451">
        <ele>278.92</ele>
        <time>2014-05-08T13:29:33Z</time>
      </trkpt>
      <trkpt lat="43.80368" lon="3.72436">
        <ele>279.88</ele>
        <time>2014-05-08T13:29:34Z</time>
      </trkpt>
      <trkpt lat="43.80383" lon="3.72415">
        <ele>282.28</ele>
        <time>2014-05-08T13:29:35Z</time>
      </trkpt>
      <trkpt lat="43.80397" lon="3.72393">
        <ele>283.73</ele>
        <time>2014-05-08T13:29:36Z</time>
      </trkpt>
      <trkpt lat="43.80414" lon="3.7237">
        <ele>286.13</ele>
        <time>2014-05-08T13:29:37Z</time>
      </trkpt>
      <trkpt lat="43.80489" lon="3.7231">
        <ele>293.34</ele>
        <time>2014-05-08T13:29:42Z</time>
      </trkpt>
      <trkpt lat="43.80497" lon="3.72293">
        <ele>295.26</ele>
        <time>2014-05-08T13:29:43Z</time>
      </trkpt>
      <trkpt lat="43.80493" lon="3.7226">
        <ele>295.74</ele>
        <time>2014-05-08T13:29:44Z</time>
      </trkpt>
      <trkpt lat="43.80492" lon="3.72232">
        <ele>296.22</ele>
        <time>2014-05-08T13:29:45Z</time>
      </trkpt>
      <trkpt lat="43.8049" lon="3.72203">
        <ele>296.7</ele>
        <time>2014-05-08T13:29:46Z</time>
      </trkpt>
      <trkpt lat="43.80487" lon="3.72174">
        <ele>297.67</ele>
        <time>2014-05-08T13:29:47Z</time>
      </trkpt>
      <trkpt lat="43.8048" lon="3.72121">
        <ele>299.11</ele>
        <time>2014-05-08T13:29:49Z</time>
      </trkpt>
      <trkpt lat="43.80473" lon="3.72097">
        <ele>299.59</ele>
        <time>2014-05-08T13:29:50Z</time>
      </trkpt>
      <trkpt lat="43.80464" lon="3.72075">
        <ele>300.55</ele>
        <time>2014-05-08T13:29:51Z</time>
      </trkpt>
      <trkpt lat="43.80455" lon="3.72054">
        <ele>301.51</ele>
        <time>2014-05-08T13:29:52Z</time>
      </trkpt>
      <trkpt lat="43.8045" lon="3.72033">
        <ele>302.47</ele>
        <time>2014-05-08T13:29:53Z</time>
      </trkpt>
      <trkpt lat="43.8045" lon="3.72011">
        <ele>303.91</ele>
        <time>2014-05-08T13:29:54Z</time>
      </trkpt>
      <trkpt lat="43.80454" lon="3.71988">
        <ele>304.88</ele>
        <time>2014-05-08T13:29:55Z</time>
      </trkpt>
      <trkpt lat="43.80464" lon="3.71967">
        <ele>305.84</ele>
        <time>2014-05-08T13:29:56Z</time>
      </trkpt>
      <trkpt lat="43.80475" lon="3.7195">
        <ele>306.8</ele>
        <time>2014-05-08T13:29:57Z</time>
      </trkpt>
      <trkpt lat="43.80486" lon="3.7194">
        <ele>308.72</ele>
        <time>2014-05-08T13:29:58Z</time>
      </trkpt>
      <trkpt lat="43.80502" lon="3.71933">
        <ele>309.68</ele>
        <time>2014-05-08T13:29:59Z</time>
      </trkpt>
      <trkpt lat="43.8052" lon="3.71934">
        <ele>310.16</ele>
        <time>2014-05-08T13:30:00Z</time>
      </trkpt>
      <trkpt lat="43.80537" lon="3.71937">
        <ele>311.12</ele>
        <time>2014-05-08T13:30:01Z</time>
      </trkpt>
      <trkpt lat="43.80556" lon="3.71946">
        <ele>313.05</ele>
        <time>2014-05-08T13:30:02Z</time>
      </trkpt>
      <trkpt lat="43.80576" lon="3.71959">
        <ele>314.01</ele>
        <time>2014-05-08T13:30:03Z</time>
      </trkpt>
      <trkpt lat="43.80593" lon="3.71976">
        <ele>315.45</ele>
        <time>2014-05-08T13:30:04Z</time>
      </trkpt>
      <trkpt lat="43.80608" lon="3.71993">
        <ele>317.37</ele>
        <time>2014-05-08T13:30:05Z</time>
      </trkpt>
      <trkpt lat="43.80623" lon="3.72011">
        <ele>319.3</ele>
        <time>2014-05-08T13:30:06Z</time>
      </trkpt>
      <trkpt lat="43.8064" lon="3.72026">
        <ele>320.74</ele>
        <time>2014-05-08T13:30:07Z</time>
      </trkpt>
      <trkpt lat="43.80658" lon="3.7204">
        <ele>322.18</ele>
        <time>2014-05-08T13:30:08Z</time>
      </trkpt>
      <trkpt lat="43.80676" lon="3.72051">
        <ele>324.1</ele>
        <time>2014-05-08T13:30:09Z</time>
      </trkpt>
      <trkpt lat="43.80693" lon="3.72056">
        <ele>325.54</ele>
        <time>2014-05-08T13:30:10Z</time>
      </trkpt>
      <trkpt lat="43.8071" lon="3.72055">
        <ele>327.47</ele>
        <time>2014-05-08T13:30:11Z</time>
      </trkpt>
      <trkpt lat="43.80726" lon="3.72048">
        <ele>328.91</ele>
        <time>2014-05-08T13:30:12Z</time>
      </trkpt>
      <trkpt lat="43.80741" lon="3.72028">
        <ele>329.87</ele>
        <time>2014-05-08T13:30:13Z</time>
      </trkpt>
      <trkpt lat="43.8076" lon="3.72017">
        <ele>331.79</ele>
        <time>2014-05-08T13:30:14Z</time>
      </trkpt>
      <trkpt lat="43.80777" lon="3.71989">
        <ele>333.71</ele>
        <time>2014-05-08T13:30:15Z</time>
      </trkpt>
      <trkpt lat="43.80793" lon="3.71964">
        <ele>335.16</ele>
        <time>2014-05-08T13:30:16Z</time>
      </trkpt>
      <trkpt lat="43.80809" lon="3.71942">
        <ele>336.6</ele>
        <time>2014-05-08T13:30:17Z</time>
      </trkpt>
      <trkpt lat="43.80848" lon="3.71882">
        <ele>339.96</ele>
        <time>2014-05-08T13:30:20Z</time>
      </trkpt>
      <trkpt lat="43.80879" lon="3.71813">
        <ele>338.04</ele>
        <time>2014-05-08T13:30:23Z</time>
      </trkpt>
      <trkpt lat="43.80893" lon="3.71792">
        <ele>337.08</ele>
        <time>2014-05-08T13:30:24Z</time>
      </trkpt>
      <trkpt lat="43.80984" lon="3.71691">
        <ele>330.35</ele>
        <time>2014-05-08T13:30:30Z</time>
      </trkpt>
      <trkpt lat="43.81003" lon="3.7168">
        <ele>329.39</ele>
        <time>2014-05-08T13:30:31Z</time>
      </trkpt>
      <trkpt lat="43.81023" lon="3.71672">
        <ele>328.91</ele>
        <time>2014-05-08T13:30:32Z</time>
      </trkpt>
      <trkpt lat="43.81119" lon="3.71644">
        <ele>324.58</ele>
        <time>2014-05-08T13:30:37Z</time>
      </trkpt>
      <trkpt lat="43.81133" lon="3.71637">
        <ele>323.62</ele>
        <time>2014-05-08T13:30:38Z</time>
      </trkpt>
      <trkpt lat="43.81144" lon="3.71626">
        <ele>322.66</ele>
        <time>2014-05-08T13:30:39Z</time>
      </trkpt>
      <trkpt lat="43.81153" lon="3.71612">
        <ele>321.22</ele>
        <time>2014-05-08T13:30:40Z</time>
      </trkpt>
      <trkpt lat="43.81152" lon="3.71591">
        <ele>318.33</ele>
        <time>2014-05-08T13:30:41Z</time>
      </trkpt>
      <trkpt lat="43.81148" lon="3.71571">
        <ele>316.41</ele>
        <time>2014-05-08T13:30:42Z</time>
      </trkpt>
      <trkpt lat="43.81142" lon="3.71552">
        <ele>314.49</ele>
        <time>2014-05-08T13:30:43Z</time>
      </trkpt>
      <trkpt lat="43.81129" lon="3.71528">
        <ele>314.97</ele>
        <time>2014-05-08T13:30:44Z</time>
      </trkpt>
      <trkpt lat="43.81123" lon="3.71508">
        <ele>313.53</ele>
        <time>2014-05-08T13:30:45Z</time>
      </trkpt>
      <trkpt lat="43.81121" lon="3.71484">
        <ele>312.57</ele>
        <time>2014-05-08T13:30:46Z</time>
      </trkpt>
      <trkpt lat="43.8112" lon="3.71457">
        <ele>311.6</ele>
        <time>2014-05-08T13:30:47Z</time>
      </trkpt>
      <trkpt lat="43.81118" lon="3.7143">
        <ele>310.64</ele>
        <time>2014-05-08T13:30:48Z</time>
      </trkpt>
      <trkpt lat="43.81114" lon="3.71404">
        <ele>309.2</ele>
        <time>2014-05-08T13:30:49Z</time>
      </trkpt>
      <trkpt lat="43.81109" lon="3.7138">
        <ele>308.24</ele>
        <time>2014-05-08T13:30:50Z</time>
      </trkpt>
      <trkpt lat="43.81093" lon="3.71321">
        <ele>305.36</ele>
        <time>2014-05-08T13:30:53Z</time>
      </trkpt>
      <trkpt lat="43.81084" lon="3.71307">
        <ele>304.39</ele>
        <time>2014-05-08T13:30:54Z</time>
      </trkpt>
      <trkpt lat="43.81073" lon="3.71294">
        <ele>303.91</ele>
        <time>2014-05-08T13:30:55Z</time>
      </trkpt>
      <trkpt lat="43.8106" lon="3.7128">
        <ele>302.95</ele>
        <time>2014-05-08T13:30:56Z</time>
      </trkpt>
      <trkpt lat="43.81047" lon="3.71264">
        <ele>302.47</ele>
        <time>2014-05-08T13:30:57Z</time>
      </trkpt>
      <trkpt lat="43.81033" lon="3.71245">
        <ele>301.51</ele>
        <time>2014-05-08T13:30:58Z</time>
      </trkpt>
      <trkpt lat="43.81021" lon="3.71224">
        <ele>300.55</ele>
        <time>2014-05-08T13:30:59Z</time>
      </trkpt>
      <trkpt lat="43.81012" lon="3.712">
        <ele>299.11</ele>
        <time>2014-05-08T13:31:00Z</time>
      </trkpt>
      <trkpt lat="43.81004" lon="3.71175">
        <ele>297.67</ele>
        <time>2014-05-08T13:31:01Z</time>
      </trkpt>
      <trkpt lat="43.80998" lon="3.71148">
        <ele>296.22</ele>
        <time>2014-05-08T13:31:02Z</time>
      </trkpt>
      <trkpt lat="43.80995" lon="3.71119">
        <ele>294.78</ele>
        <time>2014-05-08T13:31:03Z</time>
      </trkpt>
      <trkpt lat="43.80992" lon="3.7109">
        <ele>293.34</ele>
        <time>2014-05-08T13:31:04Z</time>
      </trkpt>
      <trkpt lat="43.80991" lon="3.71059">
        <ele>292.38</ele>
        <time>2014-05-08T13:31:05Z</time>
      </trkpt>
      <trkpt lat="43.80991" lon="3.71032">
        <ele>290.94</ele>
        <time>2014-05-08T13:31:06Z</time>
      </trkpt>
      <trkpt lat="43.80994" lon="3.70983">
        <ele>289.49</ele>
        <time>2014-05-08T13:31:08Z</time>
      </trkpt>
      <trkpt lat="43.81002" lon="3.70959">
        <ele>288.05</ele>
        <time>2014-05-08T13:31:09Z</time>
      </trkpt>
      <trkpt lat="43.8101" lon="3.70935">
        <ele>287.09</ele>
        <time>2014-05-08T13:31:10Z</time>
      </trkpt>
      <trkpt lat="43.8102" lon="3.70912">
        <ele>285.65</ele>
        <time>2014-05-08T13:31:11Z</time>
      </trkpt>
      <trkpt lat="43.81033" lon="3.7089">
        <ele>284.69</ele>
        <time>2014-05-08T13:31:12Z</time>
      </trkpt>
      <trkpt lat="43.81047" lon="3.70869">
        <ele>283.73</ele>
        <time>2014-05-08T13:31:13Z</time>
      </trkpt>
      <trkpt lat="43.81061" lon="3.70849">
        <ele>282.77</ele>
        <time>2014-05-08T13:31:14Z</time>
      </trkpt>
      <trkpt lat="43.81089" lon="3.70814">
        <ele>280.84</ele>
        <time>2014-05-08T13:31:16Z</time>
      </trkpt>
      <trkpt lat="43.81104" lon="3.70801">
        <ele>279.4</ele>
        <time>2014-05-08T13:31:17Z</time>
      </trkpt>
      <trkpt lat="43.8112" lon="3.70791">
        <ele>278.44</ele>
        <time>2014-05-08T13:31:18Z</time>
      </trkpt>
      <trkpt lat="43.81137" lon="3.70784">
        <ele>277.96</ele>
        <time>2014-05-08T13:31:19Z</time>
      </trkpt>
      <trkpt lat="43.81155" lon="3.70783">
        <ele>277</ele>
        <time>2014-05-08T13:31:20Z</time>
      </trkpt>
      <trkpt lat="43.81174" lon="3.7079">
        <ele>276.52</ele>
        <time>2014-05-08T13:31:21Z</time>
      </trkpt>
      <trkpt lat="43.8119" lon="3.70797">
        <ele>275.56</ele>
        <time>2014-05-08T13:31:22Z</time>
      </trkpt>
      <trkpt lat="43.81204" lon="3.70805">
        <ele>274.59</ele>
        <time>2014-05-08T13:31:23Z</time>
      </trkpt>
      <trkpt lat="43.81216" lon="3.70813">
        <ele>274.11</ele>
        <time>2014-05-08T13:31:24Z</time>
      </trkpt>
      <trkpt lat="43.8124" lon="3.70825">
        <ele>272.67</ele>
        <time>2014-05-08T13:31:26Z</time>
      </trkpt>
      <trkpt lat="43.81251" lon="3.70826">
        <ele>272.19</ele>
        <time>2014-05-08T13:31:27Z</time>
      </trkpt>
      <trkpt lat="43.81262" lon="3.70821">
        <ele>271.23</ele>
        <time>2014-05-08T13:31:28Z</time>
      </trkpt>
      <trkpt lat="43.81272" lon="3.70814">
        <ele>270.27</ele>
        <time>2014-05-08T13:31:29Z</time>
      </trkpt>
      <trkpt lat="43.81279" lon="3.70801">
        <ele>269.79</ele>
        <time>2014-05-08T13:31:30Z</time>
      </trkpt>
      <trkpt lat="43.81285" lon="3.70786">
        <ele>269.79</ele>
        <time>2014-05-08T13:31:31Z</time>
      </trkpt>
      <trkpt lat="43.81285" lon="3.70766">
        <ele>268.35</ele>
        <time>2014-05-08T13:31:32Z</time>
      </trkpt>
      <trkpt lat="43.81285" lon="3.70744">
        <ele>266.9</ele>
        <time>2014-05-08T13:31:33Z</time>
      </trkpt>
      <trkpt lat="43.8129" lon="3.70721">
        <ele>265.94</ele>
        <time>2014-05-08T13:31:34Z</time>
      </trkpt>
      <trkpt lat="43.81299" lon="3.70697">
        <ele>264.5</ele>
        <time>2014-05-08T13:31:35Z</time>
      </trkpt>
      <trkpt lat="43.81312" lon="3.70674">
        <ele>263.54</ele>
        <time>2014-05-08T13:31:36Z</time>
      </trkpt>
      <trkpt lat="43.81349" lon="3.70604">
        <ele>259.69</ele>
        <time>2014-05-08T13:31:39Z</time>
      </trkpt>
      <trkpt lat="43.81357" lon="3.70577">
        <ele>258.25</ele>
        <time>2014-05-08T13:31:40Z</time>
      </trkpt>
      <trkpt lat="43.81364" lon="3.70549">
        <ele>256.81</ele>
        <time>2014-05-08T13:31:41Z</time>
      </trkpt>
      <trkpt lat="43.81368" lon="3.70518">
        <ele>254.89</ele>
        <time>2014-05-08T13:31:42Z</time>
      </trkpt>
      <trkpt lat="43.8137" lon="3.70484">
        <ele>253.44</ele>
        <time>2014-05-08T13:31:43Z</time>
      </trkpt>
      <trkpt lat="43.81373" lon="3.70451">
        <ele>252.48</ele>
        <time>2014-05-08T13:31:44Z</time>
      </trkpt>
      <trkpt lat="43.81421" lon="3.70204">
        <ele>241.91</ele>
        <time>2014-05-08T13:31:52Z</time>
      </trkpt>
      <trkpt lat="43.8151" lon="3.69911">
        <ele>231.81</ele>
        <time>2014-05-08T13:32:02Z</time>
      </trkpt>
      <trkpt lat="43.81531" lon="3.6986">
        <ele>229.89</ele>
        <time>2014-05-08T13:32:04Z</time>
      </trkpt>
      <trkpt lat="43.81538" lon="3.69834">
        <ele>228.93</ele>
        <time>2014-05-08T13:32:05Z</time>
      </trkpt>
      <trkpt lat="43.81543" lon="3.6981">
        <ele>227.49</ele>
        <time>2014-05-08T13:32:06Z</time>
      </trkpt>
      <trkpt lat="43.81546" lon="3.69785">
        <ele>226.53</ele>
        <time>2014-05-08T13:32:07Z</time>
      </trkpt>
      <trkpt lat="43.81548" lon="3.6976">
        <ele>225.57</ele>
        <time>2014-05-08T13:32:08Z</time>
      </trkpt>
      <trkpt lat="43.8156" lon="3.69665">
        <ele>222.2</ele>
        <time>2014-05-08T13:32:13Z</time>
      </trkpt>
      <trkpt lat="43.81563" lon="3.69653">
        <ele>222.2</ele>
        <time>2014-05-08T13:32:14Z</time>
      </trkpt>
      <trkpt lat="43.81595" lon="3.69518">
        <ele>218.84</ele>
        <time>2014-05-08T13:32:22Z</time>
      </trkpt>
      <trkpt lat="43.8162" lon="3.69333">
        <ele>215.47</ele>
        <time>2014-05-08T13:32:32Z</time>
      </trkpt>
      <trkpt lat="43.81621" lon="3.69313">
        <ele>215.95</ele>
        <time>2014-05-08T13:32:33Z</time>
      </trkpt>
      <trkpt lat="43.8162" lon="3.69293">
        <ele>216.43</ele>
        <time>2014-05-08T13:32:34Z</time>
      </trkpt>
      <trkpt lat="43.81618" lon="3.69276">
        <ele>216.91</ele>
        <time>2014-05-08T13:32:35Z</time>
      </trkpt>
      <trkpt lat="43.81613" lon="3.69242">
        <ele>218.36</ele>
        <time>2014-05-08T13:32:37Z</time>
      </trkpt>
      <trkpt lat="43.81613" lon="3.69225">
        <ele>219.32</ele>
        <time>2014-05-08T13:32:38Z</time>
      </trkpt>
      <trkpt lat="43.81614" lon="3.6921">
        <ele>219.8</ele>
        <time>2014-05-08T13:32:39Z</time>
      </trkpt>
      <trkpt lat="43.81617" lon="3.69195">
        <ele>220.76</ele>
        <time>2014-05-08T13:32:40Z</time>
      </trkpt>
      <trkpt lat="43.8162" lon="3.6918">
        <ele>221.24</ele>
        <time>2014-05-08T13:32:41Z</time>
      </trkpt>
      <trkpt lat="43.81621" lon="3.69164">
        <ele>221.72</ele>
        <time>2014-05-08T13:32:42Z</time>
      </trkpt>
      <trkpt lat="43.8162" lon="3.69147">
        <ele>222.2</ele>
        <time>2014-05-08T13:32:43Z</time>
      </trkpt>
      <trkpt lat="43.81618" lon="3.6913">
        <ele>222.2</ele>
        <time>2014-05-08T13:32:44Z</time>
      </trkpt>
      <trkpt lat="43.81604" lon="3.68967">
        <ele>225.57</ele>
        <time>2014-05-08T13:32:52Z</time>
      </trkpt>
      <trkpt lat="43.81587" lon="3.68808">
        <ele>228.45</ele>
        <time>2014-05-08T13:32:58Z</time>
      </trkpt>
      <trkpt lat="43.81579" lon="3.68785">
        <ele>228.93</ele>
        <time>2014-05-08T13:32:59Z</time>
      </trkpt>
      <trkpt lat="43.81567" lon="3.68765">
        <ele>228.93</ele>
        <time>2014-05-08T13:33:00Z</time>
      </trkpt>
      <trkpt lat="43.81551" lon="3.68745">
        <ele>229.89</ele>
        <time>2014-05-08T13:33:01Z</time>
      </trkpt>
      <trkpt lat="43.81536" lon="3.68727">
        <ele>230.37</ele>
        <time>2014-05-08T13:33:02Z</time>
      </trkpt>
      <trkpt lat="43.81523" lon="3.68708">
        <ele>231.33</ele>
        <time>2014-05-08T13:33:03Z</time>
      </trkpt>
      <trkpt lat="43.81511" lon="3.68688">
        <ele>231.81</ele>
        <time>2014-05-08T13:33:04Z</time>
      </trkpt>
      <trkpt lat="43.8142" lon="3.68569">
        <ele>233.74</ele>
        <time>2014-05-08T13:33:10Z</time>
      </trkpt>
      <trkpt lat="43.81385" lon="3.68549">
        <ele>233.74</ele>
        <time>2014-05-08T13:33:12Z</time>
      </trkpt>
      <trkpt lat="43.81365" lon="3.68545">
        <ele>232.78</ele>
        <time>2014-05-08T13:33:13Z</time>
      </trkpt>
      <trkpt lat="43.81343" lon="3.68543">
        <ele>232.78</ele>
        <time>2014-05-08T13:33:14Z</time>
      </trkpt>
      <trkpt lat="43.81321" lon="3.68537">
        <ele>232.78</ele>
        <time>2014-05-08T13:33:15Z</time>
      </trkpt>
      <trkpt lat="43.813" lon="3.68528">
        <ele>233.26</ele>
        <time>2014-05-08T13:33:16Z</time>
      </trkpt>
      <trkpt lat="43.81217" lon="3.68513">
        <ele>233.26</ele>
        <time>2014-05-08T13:33:20Z</time>
      </trkpt>
      <trkpt lat="43.81197" lon="3.68517">
        <ele>232.3</ele>
        <time>2014-05-08T13:33:21Z</time>
      </trkpt>
      <trkpt lat="43.81119" lon="3.68518">
        <ele>230.37</ele>
        <time>2014-05-08T13:33:25Z</time>
      </trkpt>
      <trkpt lat="43.81101" lon="3.68508">
        <ele>228.93</ele>
        <time>2014-05-08T13:33:26Z</time>
      </trkpt>
      <trkpt lat="43.81084" lon="3.68492">
        <ele>227.97</ele>
        <time>2014-05-08T13:33:27Z</time>
      </trkpt>
      <trkpt lat="43.81072" lon="3.68471">
        <ele>227.49</ele>
        <time>2014-05-08T13:33:28Z</time>
      </trkpt>
      <trkpt lat="43.81064" lon="3.68445">
        <ele>226.05</ele>
        <time>2014-05-08T13:33:29Z</time>
      </trkpt>
      <trkpt lat="43.8106" lon="3.68416">
        <ele>224.61</ele>
        <time>2014-05-08T13:33:30Z</time>
      </trkpt>
      <trkpt lat="43.8106" lon="3.68387">
        <ele>223.64</ele>
        <time>2014-05-08T13:33:31Z</time>
      </trkpt>
      <trkpt lat="43.81063" lon="3.68359">
        <ele>222.68</ele>
        <time>2014-05-08T13:33:32Z</time>
      </trkpt>
      <trkpt lat="43.81071" lon="3.68335">
        <ele>221.24</ele>
        <time>2014-05-08T13:33:33Z</time>
      </trkpt>
      <trkpt lat="43.81083" lon="3.68311">
        <ele>220.28</ele>
        <time>2014-05-08T13:33:34Z</time>
      </trkpt>
      <trkpt lat="43.81098" lon="3.68291">
        <ele>219.8</ele>
        <time>2014-05-08T13:33:35Z</time>
      </trkpt>
      <trkpt lat="43.81115" lon="3.68275">
        <ele>218.84</ele>
        <time>2014-05-08T13:33:36Z</time>
      </trkpt>
      <trkpt lat="43.81134" lon="3.68262">
        <ele>217.4</ele>
        <time>2014-05-08T13:33:37Z</time>
      </trkpt>
      <trkpt lat="43.81154" lon="3.68253">
        <ele>216.91</ele>
        <time>2014-05-08T13:33:38Z</time>
      </trkpt>
      <trkpt lat="43.81174" lon="3.68245">
        <ele>216.43</ele>
        <time>2014-05-08T13:33:39Z</time>
      </trkpt>
      <trkpt lat="43.81196" lon="3.6824">
        <ele>216.43</ele>
        <time>2014-05-08T13:33:40Z</time>
      </trkpt>
      <trkpt lat="43.81217" lon="3.68234">
        <ele>215.95</ele>
        <time>2014-05-08T13:33:41Z</time>
      </trkpt>
      <trkpt lat="43.81279" lon="3.68199">
        <ele>212.59</ele>
        <time>2014-05-08T13:33:45Z</time>
      </trkpt>
      <trkpt lat="43.81289" lon="3.68179">
        <ele>213.07</ele>
        <time>2014-05-08T13:33:46Z</time>
      </trkpt>
      <trkpt lat="43.813" lon="3.68159">
        <ele>212.11</ele>
        <time>2014-05-08T13:33:47Z</time>
      </trkpt>
      <trkpt lat="43.81361" lon="3.68059">
        <ele>206.82</ele>
        <time>2014-05-08T13:33:53Z</time>
      </trkpt>
      <trkpt lat="43.81365" lon="3.68039">
        <ele>206.34</ele>
        <time>2014-05-08T13:33:54Z</time>
      </trkpt>
      <trkpt lat="43.81368" lon="3.68018">
        <ele>204.9</ele>
        <time>2014-05-08T13:33:55Z</time>
      </trkpt>
      <trkpt lat="43.81375" lon="3.67979">
        <ele>203.46</ele>
        <time>2014-05-08T13:33:57Z</time>
      </trkpt>
      <trkpt lat="43.81383" lon="3.67964">
        <ele>202.49</ele>
        <time>2014-05-08T13:33:58Z</time>
      </trkpt>
      <trkpt lat="43.81401" lon="3.67933">
        <ele>200.09</ele>
        <time>2014-05-08T13:34:00Z</time>
      </trkpt>
      <trkpt lat="43.81407" lon="3.67916">
        <ele>199.61</ele>
        <time>2014-05-08T13:34:01Z</time>
      </trkpt>
      <trkpt lat="43.81413" lon="3.67898">
        <ele>198.65</ele>
        <time>2014-05-08T13:34:02Z</time>
      </trkpt>
      <trkpt lat="43.81421" lon="3.67883">
        <ele>197.69</ele>
        <time>2014-05-08T13:34:03Z</time>
      </trkpt>
      <trkpt lat="43.81429" lon="3.67869">
        <ele>196.73</ele>
        <time>2014-05-08T13:34:04Z</time>
      </trkpt>
      <trkpt lat="43.81435" lon="3.67854">
        <ele>195.77</ele>
        <time>2014-05-08T13:34:05Z</time>
      </trkpt>
      <trkpt lat="43.81436" lon="3.67836">
        <ele>194.32</ele>
        <time>2014-05-08T13:34:06Z</time>
      </trkpt>
      <trkpt lat="43.81435" lon="3.67817">
        <ele>192.88</ele>
        <time>2014-05-08T13:34:07Z</time>
      </trkpt>
      <trkpt lat="43.81432" lon="3.67796">
        <ele>191.92</ele>
        <time>2014-05-08T13:34:08Z</time>
      </trkpt>
      <trkpt lat="43.81429" lon="3.67775">
        <ele>190.96</ele>
        <time>2014-05-08T13:34:09Z</time>
      </trkpt>
      <trkpt lat="43.81427" lon="3.67753">
        <ele>190</ele>
        <time>2014-05-08T13:34:10Z</time>
      </trkpt>
      <trkpt lat="43.81425" lon="3.67733">
        <ele>189.04</ele>
        <time>2014-05-08T13:34:11Z</time>
      </trkpt>
      <trkpt lat="43.8142" lon="3.67717">
        <ele>188.56</ele>
        <time>2014-05-08T13:34:12Z</time>
      </trkpt>
      <trkpt lat="43.81412" lon="3.67706">
        <ele>188.08</ele>
        <time>2014-05-08T13:34:13Z</time>
      </trkpt>
      <trkpt lat="43.81403" lon="3.67696">
        <ele>187.11</ele>
        <time>2014-05-08T13:34:14Z</time>
      </trkpt>
      <trkpt lat="43.81391" lon="3.6769">
        <ele>186.63</ele>
        <time>2014-05-08T13:34:15Z</time>
      </trkpt>
      <trkpt lat="43.81376" lon="3.67686">
        <ele>186.15</ele>
        <time>2014-05-08T13:34:16Z</time>
      </trkpt>
      <trkpt lat="43.81358" lon="3.67687">
        <ele>185.67</ele>
        <time>2014-05-08T13:34:17Z</time>
      </trkpt>
      <trkpt lat="43.81342" lon="3.67683">
        <ele>184.71</ele>
        <time>2014-05-08T13:34:18Z</time>
      </trkpt>
      <trkpt lat="43.81326" lon="3.67674">
        <ele>184.23</ele>
        <time>2014-05-08T13:34:19Z</time>
      </trkpt>
      <trkpt lat="43.81311" lon="3.67663">
        <ele>183.75</ele>
        <time>2014-05-08T13:34:20Z</time>
      </trkpt>
      <trkpt lat="43.81297" lon="3.67653">
        <ele>183.27</ele>
        <time>2014-05-08T13:34:21Z</time>
      </trkpt>
      <trkpt lat="43.81283" lon="3.67645">
        <ele>182.79</ele>
        <time>2014-05-08T13:34:22Z</time>
      </trkpt>
      <trkpt lat="43.81272" lon="3.67638">
        <ele>182.31</ele>
        <time>2014-05-08T13:34:23Z</time>
      </trkpt>
      <trkpt lat="43.81262" lon="3.67631">
        <ele>181.35</ele>
        <time>2014-05-08T13:34:24Z</time>
      </trkpt>
      <trkpt lat="43.81255" lon="3.67621">
        <ele>180.87</ele>
        <time>2014-05-08T13:34:25Z</time>
      </trkpt>
      <trkpt lat="43.81253" lon="3.67608">
        <ele>179.9</ele>
        <time>2014-05-08T13:34:26Z</time>
      </trkpt>
      <trkpt lat="43.81257" lon="3.67594">
        <ele>178.94</ele>
        <time>2014-05-08T13:34:27Z</time>
      </trkpt>
      <trkpt lat="43.81266" lon="3.67576">
        <ele>178.46</ele>
        <time>2014-05-08T13:34:28Z</time>
      </trkpt>
      <trkpt lat="43.81274" lon="3.67557">
        <ele>177.5</ele>
        <time>2014-05-08T13:34:29Z</time>
      </trkpt>
      <trkpt lat="43.81293" lon="3.67497">
        <ele>175.58</ele>
        <time>2014-05-08T13:34:32Z</time>
      </trkpt>
      <trkpt lat="43.81296" lon="3.67475">
        <ele>174.62</ele>
        <time>2014-05-08T13:34:33Z</time>
      </trkpt>
      <trkpt lat="43.81295" lon="3.67454">
        <ele>173.66</ele>
        <time>2014-05-08T13:34:34Z</time>
      </trkpt>
      <trkpt lat="43.81293" lon="3.67433">
        <ele>172.21</ele>
        <time>2014-05-08T13:34:35Z</time>
      </trkpt>
      <trkpt lat="43.81289" lon="3.67414">
        <ele>171.25</ele>
        <time>2014-05-08T13:34:36Z</time>
      </trkpt>
      <trkpt lat="43.81281" lon="3.67398">
        <ele>170.29</ele>
        <time>2014-05-08T13:34:37Z</time>
      </trkpt>
      <trkpt lat="43.81268" lon="3.67384">
        <ele>169.33</ele>
        <time>2014-05-08T13:34:38Z</time>
      </trkpt>
      <trkpt lat="43.81253" lon="3.67371">
        <ele>168.37</ele>
        <time>2014-05-08T13:34:39Z</time>
      </trkpt>
      <trkpt lat="43.81237" lon="3.67357">
        <ele>167.41</ele>
        <time>2014-05-08T13:34:40Z</time>
      </trkpt>
      <trkpt lat="43.81222" lon="3.67346">
        <ele>166.93</ele>
        <time>2014-05-08T13:34:41Z</time>
      </trkpt>
      <trkpt lat="43.8118" lon="3.67322">
        <ele>164.04</ele>
        <time>2014-05-08T13:34:44Z</time>
      </trkpt>
      <trkpt lat="43.81164" lon="3.67319">
        <ele>163.56</ele>
        <time>2014-05-08T13:34:45Z</time>
      </trkpt>
      <trkpt lat="43.81085" lon="3.67314">
        <ele>160.2</ele>
        <time>2014-05-08T13:34:50Z</time>
      </trkpt>
      <trkpt lat="43.81071" lon="3.67321">
        <ele>159.72</ele>
        <time>2014-05-08T13:34:51Z</time>
      </trkpt>
      <trkpt lat="43.81058" lon="3.67333">
        <ele>158.75</ele>
        <time>2014-05-08T13:34:52Z</time>
      </trkpt>
      <trkpt lat="43.81044" lon="3.67345">
        <ele>158.75</ele>
        <time>2014-05-08T13:34:53Z</time>
      </trkpt>
      <trkpt lat="43.8103" lon="3.67355">
        <ele>158.27</ele>
        <time>2014-05-08T13:34:54Z</time>
      </trkpt>
      <trkpt lat="43.81016" lon="3.67362">
        <ele>157.79</ele>
        <time>2014-05-08T13:34:55Z</time>
      </trkpt>
      <trkpt lat="43.81" lon="3.67364">
        <ele>157.31</ele>
        <time>2014-05-08T13:34:56Z</time>
      </trkpt>
      <trkpt lat="43.80983" lon="3.67362">
        <ele>156.83</ele>
        <time>2014-05-08T13:34:57Z</time>
      </trkpt>
      <trkpt lat="43.80967" lon="3.6736">
        <ele>155.39</ele>
        <time>2014-05-08T13:34:58Z</time>
      </trkpt>
      <trkpt lat="43.80951" lon="3.67356">
        <ele>153.95</ele>
        <time>2014-05-08T13:34:59Z</time>
      </trkpt>
      <trkpt lat="43.80935" lon="3.6735">
        <ele>153.47</ele>
        <time>2014-05-08T13:35:00Z</time>
      </trkpt>
      <trkpt lat="43.80919" lon="3.67345">
        <ele>152.51</ele>
        <time>2014-05-08T13:35:01Z</time>
      </trkpt>
      <trkpt lat="43.80904" lon="3.67344">
        <ele>151.54</ele>
        <time>2014-05-08T13:35:02Z</time>
      </trkpt>
      <trkpt lat="43.80891" lon="3.67346">
        <ele>150.58</ele>
        <time>2014-05-08T13:35:03Z</time>
      </trkpt>
      <trkpt lat="43.8087" lon="3.67361">
        <ele>150.58</ele>
        <time>2014-05-08T13:35:05Z</time>
      </trkpt>
      <trkpt lat="43.80854" lon="3.67372">
        <ele>148.66</ele>
        <time>2014-05-08T13:35:07Z</time>
      </trkpt>
      <trkpt lat="43.80846" lon="3.6737">
        <ele>146.74</ele>
        <time>2014-05-08T13:35:08Z</time>
      </trkpt>
      <trkpt lat="43.8084" lon="3.67362">
        <ele>145.78</ele>
        <time>2014-05-08T13:35:09Z</time>
      </trkpt>
      <trkpt lat="43.80832" lon="3.67349">
        <ele>144.82</ele>
        <time>2014-05-08T13:35:10Z</time>
      </trkpt>
      <trkpt lat="43.80824" lon="3.67333">
        <ele>144.34</ele>
        <time>2014-05-08T13:35:11Z</time>
      </trkpt>
      <trkpt lat="43.80817" lon="3.67316">
        <ele>144.34</ele>
        <time>2014-05-08T13:35:12Z</time>
      </trkpt>
      <trkpt lat="43.80815" lon="3.67299">
        <ele>143.37</ele>
        <time>2014-05-08T13:35:13Z</time>
      </trkpt>
      <trkpt lat="43.80816" lon="3.67281">
        <ele>142.89</ele>
        <time>2014-05-08T13:35:14Z</time>
      </trkpt>
      <trkpt lat="43.80817" lon="3.67265">
        <ele>141.93</ele>
        <time>2014-05-08T13:35:15Z</time>
      </trkpt>
      <trkpt lat="43.80816" lon="3.67249">
        <ele>140.97</ele>
        <time>2014-05-08T13:35:16Z</time>
      </trkpt>
      <trkpt lat="43.8081" lon="3.67235">
        <ele>140.01</ele>
        <time>2014-05-08T13:35:17Z</time>
      </trkpt>
      <trkpt lat="43.80802" lon="3.67223">
        <ele>139.53</ele>
        <time>2014-05-08T13:35:18Z</time>
      </trkpt>
      <trkpt lat="43.80796" lon="3.6721">
        <ele>139.53</ele>
        <time>2014-05-08T13:35:19Z</time>
      </trkpt>
      <trkpt lat="43.80794" lon="3.67198">
        <ele>139.05</ele>
        <time>2014-05-08T13:35:20Z</time>
      </trkpt>
      <trkpt lat="43.80794" lon="3.67183">
        <ele>138.57</ele>
        <time>2014-05-08T13:35:21Z</time>
      </trkpt>
      <trkpt lat="43.80791" lon="3.67167">
        <ele>137.61</ele>
        <time>2014-05-08T13:35:22Z</time>
      </trkpt>
      <trkpt lat="43.80785" lon="3.67152">
        <ele>137.13</ele>
        <time>2014-05-08T13:35:23Z</time>
      </trkpt>
      <trkpt lat="43.80777" lon="3.67137">
        <ele>136.16</ele>
        <time>2014-05-08T13:35:24Z</time>
      </trkpt>
      <trkpt lat="43.8077" lon="3.67121">
        <ele>136.16</ele>
        <time>2014-05-08T13:35:25Z</time>
      </trkpt>
      <trkpt lat="43.80764" lon="3.67103">
        <ele>134.72</ele>
        <time>2014-05-08T13:35:26Z</time>
      </trkpt>
      <trkpt lat="43.80759" lon="3.67079">
        <ele>134.24</ele>
        <time>2014-05-08T13:35:27Z</time>
      </trkpt>
      <trkpt lat="43.80755" lon="3.67057">
        <ele>133.28</ele>
        <time>2014-05-08T13:35:28Z</time>
      </trkpt>
      <trkpt lat="43.80733" lon="3.66961">
        <ele>129.92</ele>
        <time>2014-05-08T13:35:33Z</time>
      </trkpt>
      <trkpt lat="43.80731" lon="3.66944">
        <ele>128.95</ele>
        <time>2014-05-08T13:35:34Z</time>
      </trkpt>
      <trkpt lat="43.80733" lon="3.66908">
        <ele>126.07</ele>
        <time>2014-05-08T13:35:36Z</time>
      </trkpt>
      <trkpt lat="43.80735" lon="3.66892">
        <ele>125.59</ele>
        <time>2014-05-08T13:35:37Z</time>
      </trkpt>
      <trkpt lat="43.80742" lon="3.6687">
        <ele>122.22</ele>
        <time>2014-05-08T13:35:39Z</time>
      </trkpt>
      <trkpt lat="43.8075" lon="3.66861">
        <ele>122.71</ele>
        <time>2014-05-08T13:35:40Z</time>
      </trkpt>
      <trkpt lat="43.80765" lon="3.66846">
        <ele>123.19</ele>
        <time>2014-05-08T13:35:42Z</time>
      </trkpt>
      <trkpt lat="43.80768" lon="3.66836">
        <ele>122.71</ele>
        <time>2014-05-08T13:35:43Z</time>
      </trkpt>
      <trkpt lat="43.8077" lon="3.66823">
        <ele>121.74</ele>
        <time>2014-05-08T13:35:44Z</time>
      </trkpt>
      <trkpt lat="43.80768" lon="3.66809">
        <ele>120.78</ele>
        <time>2014-05-08T13:35:45Z</time>
      </trkpt>
      <trkpt lat="43.80764" lon="3.66794">
        <ele>119.34</ele>
        <time>2014-05-08T13:35:46Z</time>
      </trkpt>
      <trkpt lat="43.8076" lon="3.66777">
        <ele>119.34</ele>
        <time>2014-05-08T13:35:47Z</time>
      </trkpt>
      <trkpt lat="43.80756" lon="3.6676">
        <ele>118.38</ele>
        <time>2014-05-08T13:35:48Z</time>
      </trkpt>
      <trkpt lat="43.80754" lon="3.6674">
        <ele>118.38</ele>
        <time>2014-05-08T13:35:49Z</time>
      </trkpt>
      <trkpt lat="43.80753" lon="3.6672">
        <ele>118.38</ele>
        <time>2014-05-08T13:35:50Z</time>
      </trkpt>
      <trkpt lat="43.80752" lon="3.66684">
        <ele>117.42</ele>
        <time>2014-05-08T13:35:52Z</time>
      </trkpt>
      <trkpt lat="43.80749" lon="3.66667">
        <ele>116.94</ele>
        <time>2014-05-08T13:35:53Z</time>
      </trkpt>
      <trkpt lat="43.80744" lon="3.66651">
        <ele>116.94</ele>
        <time>2014-05-08T13:35:54Z</time>
      </trkpt>
      <trkpt lat="43.80737" lon="3.66637">
        <ele>115.98</ele>
        <time>2014-05-08T13:35:55Z</time>
      </trkpt>
      <trkpt lat="43.80727" lon="3.66622">
        <ele>115.5</ele>
        <time>2014-05-08T13:35:56Z</time>
      </trkpt>
      <trkpt lat="43.80717" lon="3.66608">
        <ele>114.05</ele>
        <time>2014-05-08T13:35:57Z</time>
      </trkpt>
      <trkpt lat="43.80706" lon="3.66594">
        <ele>113.09</ele>
        <time>2014-05-08T13:35:58Z</time>
      </trkpt>
      <trkpt lat="43.80694" lon="3.6658">
        <ele>112.61</ele>
        <time>2014-05-08T13:35:59Z</time>
      </trkpt>
      <trkpt lat="43.80681" lon="3.66567">
        <ele>111.65</ele>
        <time>2014-05-08T13:36:00Z</time>
      </trkpt>
      <trkpt lat="43.80655" lon="3.66546">
        <ele>110.69</ele>
        <time>2014-05-08T13:36:02Z</time>
      </trkpt>
      <trkpt lat="43.80641" lon="3.6654">
        <ele>110.21</ele>
        <time>2014-05-08T13:36:03Z</time>
      </trkpt>
      <trkpt lat="43.80627" lon="3.66535">
        <ele>109.25</ele>
        <time>2014-05-08T13:36:04Z</time>
      </trkpt>
      <trkpt lat="43.8051" lon="3.66536">
        <ele>105.4</ele>
        <time>2014-05-08T13:36:13Z</time>
      </trkpt>
      <trkpt lat="43.80502" lon="3.66537">
        <ele>104.92</ele>
        <time>2014-05-08T13:36:14Z</time>
      </trkpt>
      <trkpt lat="43.80495" lon="3.66535">
        <ele>104.92</ele>
        <time>2014-05-08T13:36:15Z</time>
      </trkpt>
      <trkpt lat="43.8049" lon="3.66531">
        <ele>104.92</ele>
        <time>2014-05-08T13:36:16Z</time>
      </trkpt>
      <trkpt lat="43.80488" lon="3.66524">
        <ele>105.4</ele>
        <time>2014-05-08T13:36:17Z</time>
      </trkpt>
      <trkpt lat="43.80486" lon="3.66516">
        <ele>105.4</ele>
        <time>2014-05-08T13:36:18Z</time>
      </trkpt>
      <trkpt lat="43.80484" lon="3.66508">
        <ele>105.4</ele>
        <time>2014-05-08T13:36:19Z</time>
      </trkpt>
      <trkpt lat="43.80479" lon="3.66475">
        <ele>105.88</ele>
        <time>2014-05-08T13:36:28Z</time>
      </trkpt>
      <trkpt lat="43.8048" lon="3.66477">
        <ele>107.32</ele>
        <time>2014-05-08T13:37:09Z</time>
      </trkpt>
      <trkpt lat="43.80469" lon="3.66441">
        <ele>111.65</ele>
        <time>2014-05-08T13:37:43Z</time>
      </trkpt>
      <trkpt lat="43.80461" lon="3.66414">
        <ele>112.61</ele>
        <time>2014-05-08T13:37:46Z</time>
      </trkpt>
      <trkpt lat="43.80458" lon="3.66407">
        <ele>112.61</ele>
        <time>2014-05-08T13:37:47Z</time>
      </trkpt>
      <trkpt lat="43.80453" lon="3.66403">
        <ele>112.13</ele>
        <time>2014-05-08T13:37:48Z</time>
      </trkpt>
      <trkpt lat="43.80446" lon="3.66403">
        <ele>112.13</ele>
        <time>2014-05-08T13:37:49Z</time>
      </trkpt>
      <trkpt lat="43.80438" lon="3.66403">
        <ele>111.65</ele>
        <time>2014-05-08T13:37:50Z</time>
      </trkpt>
      <trkpt lat="43.80428" lon="3.66407">
        <ele>111.17</ele>
        <time>2014-05-08T13:37:51Z</time>
      </trkpt>
      <trkpt lat="43.80415" lon="3.66413">
        <ele>111.17</ele>
        <time>2014-05-08T13:37:52Z</time>
      </trkpt>
      <trkpt lat="43.804" lon="3.66421">
        <ele>111.17</ele>
        <time>2014-05-08T13:37:53Z</time>
      </trkpt>
      <trkpt lat="43.80285" lon="3.66478">
        <ele>117.9</ele>
        <time>2014-05-08T13:37:59Z</time>
      </trkpt>
      <trkpt lat="43.80119" lon="3.66536">
        <ele>131.84</ele>
        <time>2014-05-08T13:38:07Z</time>
      </trkpt>
      <trkpt lat="43.80021" lon="3.66559">
        <ele>139.53</ele>
        <time>2014-05-08T13:38:12Z</time>
      </trkpt>
      <trkpt lat="43.80002" lon="3.66567">
        <ele>140.97</ele>
        <time>2014-05-08T13:38:13Z</time>
      </trkpt>
      <trkpt lat="43.79982" lon="3.66572">
        <ele>142.89</ele>
        <time>2014-05-08T13:38:14Z</time>
      </trkpt>
      <trkpt lat="43.79931" lon="3.6658">
        <ele>148.18</ele>
        <time>2014-05-08T13:38:17Z</time>
      </trkpt>
      <trkpt lat="43.79918" lon="3.66577">
        <ele>150.1</ele>
        <time>2014-05-08T13:38:18Z</time>
      </trkpt>
      <trkpt lat="43.79907" lon="3.66567">
        <ele>150.58</ele>
        <time>2014-05-08T13:38:19Z</time>
      </trkpt>
      <trkpt lat="43.79898" lon="3.66552">
        <ele>150.58</ele>
        <time>2014-05-08T13:38:20Z</time>
      </trkpt>
      <trkpt lat="43.79891" lon="3.66537">
        <ele>152.03</ele>
        <time>2014-05-08T13:38:21Z</time>
      </trkpt>
      <trkpt lat="43.79882" lon="3.66526">
        <ele>153.95</ele>
        <time>2014-05-08T13:38:22Z</time>
      </trkpt>
      <trkpt lat="43.79871" lon="3.66524">
        <ele>153.95</ele>
        <time>2014-05-08T13:38:23Z</time>
      </trkpt>
      <trkpt lat="43.79856" lon="3.66524">
        <ele>155.39</ele>
        <time>2014-05-08T13:38:24Z</time>
      </trkpt>
      <trkpt lat="43.79838" lon="3.66525">
        <ele>156.35</ele>
        <time>2014-05-08T13:38:25Z</time>
      </trkpt>
      <trkpt lat="43.79819" lon="3.66523">
        <ele>158.27</ele>
        <time>2014-05-08T13:38:26Z</time>
      </trkpt>
      <trkpt lat="43.79799" lon="3.66519">
        <ele>159.72</ele>
        <time>2014-05-08T13:38:27Z</time>
      </trkpt>
      <trkpt lat="43.7978" lon="3.66512">
        <ele>161.64</ele>
        <time>2014-05-08T13:38:28Z</time>
      </trkpt>
      <trkpt lat="43.79761" lon="3.66504">
        <ele>163.08</ele>
        <time>2014-05-08T13:38:29Z</time>
      </trkpt>
      <trkpt lat="43.79664" lon="3.66451">
        <ele>171.25</ele>
        <time>2014-05-08T13:38:35Z</time>
      </trkpt>
      <trkpt lat="43.79652" lon="3.66453">
        <ele>172.21</ele>
        <time>2014-05-08T13:38:36Z</time>
      </trkpt>
      <trkpt lat="43.79643" lon="3.66458">
        <ele>174.14</ele>
        <time>2014-05-08T13:38:37Z</time>
      </trkpt>
      <trkpt lat="43.7963" lon="3.66465">
        <ele>177.02</ele>
        <time>2014-05-08T13:38:39Z</time>
      </trkpt>
      <trkpt lat="43.79625" lon="3.66462">
        <ele>177.02</ele>
        <time>2014-05-08T13:38:40Z</time>
      </trkpt>
      <trkpt lat="43.79622" lon="3.66457">
        <ele>177.02</ele>
        <time>2014-05-08T13:38:41Z</time>
      </trkpt>
      <trkpt lat="43.79624" lon="3.6645">
        <ele>177.5</ele>
        <time>2014-05-08T13:38:42Z</time>
      </trkpt>
      <trkpt lat="43.79629" lon="3.66446">
        <ele>179.42</ele>
        <time>2014-05-08T13:38:43Z</time>
      </trkpt>
      <trkpt lat="43.79637" lon="3.66443">
        <ele>181.83</ele>
        <time>2014-05-08T13:38:44Z</time>
      </trkpt>
      <trkpt lat="43.79649" lon="3.66438">
        <ele>183.75</ele>
        <time>2014-05-08T13:38:45Z</time>
      </trkpt>
      <trkpt lat="43.79664" lon="3.66435">
        <ele>186.15</ele>
        <time>2014-05-08T13:38:46Z</time>
      </trkpt>
      <trkpt lat="43.79681" lon="3.66428">
        <ele>186.63</ele>
        <time>2014-05-08T13:38:47Z</time>
      </trkpt>
      <trkpt lat="43.797" lon="3.66422">
        <ele>187.11</ele>
        <time>2014-05-08T13:38:48Z</time>
      </trkpt>
      <trkpt lat="43.79722" lon="3.66415">
        <ele>187.59</ele>
        <time>2014-05-08T13:38:49Z</time>
      </trkpt>
      <trkpt lat="43.7987" lon="3.66364">
        <ele>199.13</ele>
        <time>2014-05-08T13:38:56Z</time>
      </trkpt>
      <trkpt lat="43.79889" lon="3.66352">
        <ele>200.57</ele>
        <time>2014-05-08T13:38:57Z</time>
      </trkpt>
      <trkpt lat="43.79907" lon="3.66335">
        <ele>202.49</ele>
        <time>2014-05-08T13:38:58Z</time>
      </trkpt>
      <trkpt lat="43.79925" lon="3.66317">
        <ele>203.94</ele>
        <time>2014-05-08T13:38:59Z</time>
      </trkpt>
      <trkpt lat="43.79943" lon="3.66296">
        <ele>205.86</ele>
        <time>2014-05-08T13:39:00Z</time>
      </trkpt>
      <trkpt lat="43.79959" lon="3.6627">
        <ele>207.78</ele>
        <time>2014-05-08T13:39:01Z</time>
      </trkpt>
      <trkpt lat="43.79974" lon="3.66245">
        <ele>209.7</ele>
        <time>2014-05-08T13:39:02Z</time>
      </trkpt>
      <trkpt lat="43.79987" lon="3.66222">
        <ele>211.15</ele>
        <time>2014-05-08T13:39:03Z</time>
      </trkpt>
      <trkpt lat="43.80004" lon="3.66182">
        <ele>214.03</ele>
        <time>2014-05-08T13:39:05Z</time>
      </trkpt>
      <trkpt lat="43.80008" lon="3.66162">
        <ele>215.47</ele>
        <time>2014-05-08T13:39:06Z</time>
      </trkpt>
      <trkpt lat="43.80008" lon="3.6614">
        <ele>215.95</ele>
        <time>2014-05-08T13:39:07Z</time>
      </trkpt>
      <trkpt lat="43.80004" lon="3.66116">
        <ele>217.4</ele>
        <time>2014-05-08T13:39:08Z</time>
      </trkpt>
      <trkpt lat="43.79995" lon="3.66094">
        <ele>218.36</ele>
        <time>2014-05-08T13:39:09Z</time>
      </trkpt>
      <trkpt lat="43.79986" lon="3.66071">
        <ele>220.28</ele>
        <time>2014-05-08T13:39:10Z</time>
      </trkpt>
      <trkpt lat="43.79977" lon="3.66045">
        <ele>222.2</ele>
        <time>2014-05-08T13:39:11Z</time>
      </trkpt>
      <trkpt lat="43.79945" lon="3.65892">
        <ele>225.57</ele>
        <time>2014-05-08T13:39:16Z</time>
      </trkpt>
      <trkpt lat="43.79946" lon="3.65823">
        <ele>225.09</ele>
        <time>2014-05-08T13:39:19Z</time>
      </trkpt>
      <trkpt lat="43.79956" lon="3.65809">
        <ele>225.57</ele>
        <time>2014-05-08T13:39:20Z</time>
      </trkpt>
      <trkpt lat="43.79967" lon="3.65795">
        <ele>225.57</ele>
        <time>2014-05-08T13:39:21Z</time>
      </trkpt>
      <trkpt lat="43.7998" lon="3.65782">
        <ele>226.05</ele>
        <time>2014-05-08T13:39:22Z</time>
      </trkpt>
      <trkpt lat="43.79996" lon="3.65768">
        <ele>226.53</ele>
        <time>2014-05-08T13:39:23Z</time>
      </trkpt>
      <trkpt lat="43.80013" lon="3.65752">
        <ele>226.53</ele>
        <time>2014-05-08T13:39:24Z</time>
      </trkpt>
      <trkpt lat="43.80146" lon="3.65625">
        <ele>228.93</ele>
        <time>2014-05-08T13:39:32Z</time>
      </trkpt>
      <trkpt lat="43.80158" lon="3.65603">
        <ele>228.93</ele>
        <time>2014-05-08T13:39:33Z</time>
      </trkpt>
      <trkpt lat="43.80167" lon="3.65579">
        <ele>230.37</ele>
        <time>2014-05-08T13:39:34Z</time>
      </trkpt>
      <trkpt lat="43.80175" lon="3.65551">
        <ele>230.85</ele>
        <time>2014-05-08T13:39:35Z</time>
      </trkpt>
      <trkpt lat="43.80182" lon="3.65525">
        <ele>231.33</ele>
        <time>2014-05-08T13:39:36Z</time>
      </trkpt>
      <trkpt lat="43.80205" lon="3.65458">
        <ele>233.26</ele>
        <time>2014-05-08T13:39:39Z</time>
      </trkpt>
      <trkpt lat="43.80215" lon="3.65441">
        <ele>234.22</ele>
        <time>2014-05-08T13:39:40Z</time>
      </trkpt>
      <trkpt lat="43.80227" lon="3.65425">
        <ele>235.18</ele>
        <time>2014-05-08T13:39:41Z</time>
      </trkpt>
      <trkpt lat="43.80239" lon="3.65411">
        <ele>236.14</ele>
        <time>2014-05-08T13:39:42Z</time>
      </trkpt>
      <trkpt lat="43.80253" lon="3.65399">
        <ele>237.1</ele>
        <time>2014-05-08T13:39:43Z</time>
      </trkpt>
      <trkpt lat="43.80267" lon="3.65387">
        <ele>238.06</ele>
        <time>2014-05-08T13:39:44Z</time>
      </trkpt>
      <trkpt lat="43.80331" lon="3.65337">
        <ele>239.02</ele>
        <time>2014-05-08T13:39:50Z</time>
      </trkpt>
      <trkpt lat="43.8035" lon="3.6532">
        <ele>239.02</ele>
        <time>2014-05-08T13:39:52Z</time>
      </trkpt>
      <trkpt lat="43.80359" lon="3.65308">
        <ele>239.02</ele>
        <time>2014-05-08T13:39:53Z</time>
      </trkpt>
      <trkpt lat="43.80367" lon="3.65293">
        <ele>239.02</ele>
        <time>2014-05-08T13:39:54Z</time>
      </trkpt>
      <trkpt lat="43.80375" lon="3.65275">
        <ele>239.51</ele>
        <time>2014-05-08T13:39:55Z</time>
      </trkpt>
      <trkpt lat="43.80381" lon="3.65255">
        <ele>239.51</ele>
        <time>2014-05-08T13:39:56Z</time>
      </trkpt>
      <trkpt lat="43.80386" lon="3.65234">
        <ele>239.99</ele>
        <time>2014-05-08T13:39:57Z</time>
      </trkpt>
      <trkpt lat="43.80391" lon="3.65215">
        <ele>240.47</ele>
        <time>2014-05-08T13:39:58Z</time>
      </trkpt>
      <trkpt lat="43.80414" lon="3.65117">
        <ele>242.39</ele>
        <time>2014-05-08T13:40:05Z</time>
      </trkpt>
      <trkpt lat="43.80434" lon="3.65053">
        <ele>243.83</ele>
        <time>2014-05-08T13:40:10Z</time>
      </trkpt>
      <trkpt lat="43.8044" lon="3.65041">
        <ele>244.31</ele>
        <time>2014-05-08T13:40:11Z</time>
      </trkpt>
      <trkpt lat="43.80447" lon="3.6503">
        <ele>244.79</ele>
        <time>2014-05-08T13:40:12Z</time>
      </trkpt>
      <trkpt lat="43.80456" lon="3.6502">
        <ele>245.27</ele>
        <time>2014-05-08T13:40:13Z</time>
      </trkpt>
      <trkpt lat="43.80465" lon="3.65012">
        <ele>246.23</ele>
        <time>2014-05-08T13:40:14Z</time>
      </trkpt>
      <trkpt lat="43.80475" lon="3.65005">
        <ele>246.23</ele>
        <time>2014-05-08T13:40:15Z</time>
      </trkpt>
      <trkpt lat="43.80486" lon="3.64998">
        <ele>246.72</ele>
        <time>2014-05-08T13:40:16Z</time>
      </trkpt>
      <trkpt lat="43.80515" lon="3.64972">
        <ele>246.72</ele>
        <time>2014-05-08T13:40:19Z</time>
      </trkpt>
      <trkpt lat="43.80522" lon="3.64963">
        <ele>246.72</ele>
        <time>2014-05-08T13:40:20Z</time>
      </trkpt>
      <trkpt lat="43.80581" lon="3.64887">
        <ele>246.72</ele>
        <time>2014-05-08T13:40:30Z</time>
      </trkpt>
      <trkpt lat="43.80585" lon="3.64884">
        <ele>246.72</ele>
        <time>2014-05-08T13:40:31Z</time>
      </trkpt>
      <trkpt lat="43.80589" lon="3.64883">
        <ele>246.72</ele>
        <time>2014-05-08T13:40:32Z</time>
      </trkpt>
      <trkpt lat="43.80593" lon="3.64881">
        <ele>246.72</ele>
        <time>2014-05-08T13:40:33Z</time>
      </trkpt>
      <trkpt lat="43.80596" lon="3.64877">
        <ele>246.72</ele>
        <time>2014-05-08T13:40:34Z</time>
      </trkpt>
      <trkpt lat="43.80598" lon="3.64871">
        <ele>246.72</ele>
        <time>2014-05-08T13:40:35Z</time>
      </trkpt>
      <trkpt lat="43.80599" lon="3.64864">
        <ele>246.72</ele>
        <time>2014-05-08T13:40:36Z</time>
      </trkpt>
      <trkpt lat="43.80601" lon="3.64857">
        <ele>246.23</ele>
        <time>2014-05-08T13:40:37Z</time>
      </trkpt>
      <trkpt lat="43.80605" lon="3.6485">
        <ele>246.23</ele>
        <time>2014-05-08T13:40:38Z</time>
      </trkpt>
      <trkpt lat="43.8061" lon="3.64843">
        <ele>246.23</ele>
        <time>2014-05-08T13:40:39Z</time>
      </trkpt>
      <trkpt lat="43.80672" lon="3.64755">
        <ele>247.68</ele>
        <time>2014-05-08T13:40:48Z</time>
      </trkpt>
      <trkpt lat="43.80765" lon="3.64632">
        <ele>248.64</ele>
        <time>2014-05-08T13:40:57Z</time>
      </trkpt>
      <trkpt lat="43.80779" lon="3.64621">
        <ele>249.12</ele>
        <time>2014-05-08T13:40:58Z</time>
      </trkpt>
      <trkpt lat="43.80794" lon="3.64611">
        <ele>249.6</ele>
        <time>2014-05-08T13:40:59Z</time>
      </trkpt>
      <trkpt lat="43.8081" lon="3.64603">
        <ele>250.08</ele>
        <time>2014-05-08T13:41:00Z</time>
      </trkpt>
      <trkpt lat="43.80827" lon="3.64594">
        <ele>251.04</ele>
        <time>2014-05-08T13:41:01Z</time>
      </trkpt>
      <trkpt lat="43.80918" lon="3.64549">
        <ele>256.33</ele>
        <time>2014-05-08T13:41:08Z</time>
      </trkpt>
      <trkpt lat="43.80958" lon="3.64521">
        <ele>259.21</ele>
        <time>2014-05-08T13:41:14Z</time>
      </trkpt>
      <trkpt lat="43.80969" lon="3.6451">
        <ele>261.14</ele>
        <time>2014-05-08T13:41:20Z</time>
      </trkpt>
      <trkpt lat="43.80967" lon="3.64512">
        <ele>260.17</ele>
        <time>2014-05-08T13:42:23Z</time>
      </trkpt>
      <trkpt lat="43.80968" lon="3.64509">
        <ele>260.17</ele>
        <time>2014-05-08T13:42:30Z</time>
      </trkpt>
      <trkpt lat="43.8097" lon="3.64505">
        <ele>260.65</ele>
        <time>2014-05-08T13:42:31Z</time>
      </trkpt>
      <trkpt lat="43.80978" lon="3.64492">
        <ele>261.14</ele>
        <time>2014-05-08T13:42:33Z</time>
      </trkpt>
      <trkpt lat="43.81032" lon="3.64415">
        <ele>265.94</ele>
        <time>2014-05-08T13:42:40Z</time>
      </trkpt>
      <trkpt lat="43.81044" lon="3.64405">
        <ele>266.42</ele>
        <time>2014-05-08T13:42:41Z</time>
      </trkpt>
      <trkpt lat="43.81054" lon="3.64396">
        <ele>267.38</ele>
        <time>2014-05-08T13:42:42Z</time>
      </trkpt>
      <trkpt lat="43.81067" lon="3.64391">
        <ele>268.35</ele>
        <time>2014-05-08T13:42:43Z</time>
      </trkpt>
      <trkpt lat="43.81078" lon="3.64384">
        <ele>268.83</ele>
        <time>2014-05-08T13:42:44Z</time>
      </trkpt>
      <trkpt lat="43.81088" lon="3.64375">
        <ele>269.79</ele>
        <time>2014-05-08T13:42:45Z</time>
      </trkpt>
      <trkpt lat="43.81097" lon="3.64364">
        <ele>270.27</ele>
        <time>2014-05-08T13:42:46Z</time>
      </trkpt>
      <trkpt lat="43.81105" lon="3.64347">
        <ele>270.27</ele>
        <time>2014-05-08T13:42:47Z</time>
      </trkpt>
      <trkpt lat="43.81114" lon="3.64332">
        <ele>269.79</ele>
        <time>2014-05-08T13:42:48Z</time>
      </trkpt>
      <trkpt lat="43.81123" lon="3.64318">
        <ele>269.79</ele>
        <time>2014-05-08T13:42:49Z</time>
      </trkpt>
      <trkpt lat="43.81133" lon="3.64302">
        <ele>269.79</ele>
        <time>2014-05-08T13:42:50Z</time>
      </trkpt>
      <trkpt lat="43.81145" lon="3.64288">
        <ele>270.27</ele>
        <time>2014-05-08T13:42:51Z</time>
      </trkpt>
      <trkpt lat="43.81158" lon="3.64278">
        <ele>270.27</ele>
        <time>2014-05-08T13:42:52Z</time>
      </trkpt>
      <trkpt lat="43.8117" lon="3.64271">
        <ele>270.75</ele>
        <time>2014-05-08T13:42:53Z</time>
      </trkpt>
      <trkpt lat="43.81182" lon="3.64267">
        <ele>271.23</ele>
        <time>2014-05-08T13:42:54Z</time>
      </trkpt>
      <trkpt lat="43.81194" lon="3.64264">
        <ele>271.23</ele>
        <time>2014-05-08T13:42:55Z</time>
      </trkpt>
      <trkpt lat="43.8129" lon="3.64241">
        <ele>275.56</ele>
        <time>2014-05-08T13:43:01Z</time>
      </trkpt>
      <trkpt lat="43.81325" lon="3.64237">
        <ele>277</ele>
        <time>2014-05-08T13:43:03Z</time>
      </trkpt>
      <trkpt lat="43.81343" lon="3.64239">
        <ele>277.96</ele>
        <time>2014-05-08T13:43:04Z</time>
      </trkpt>
      <trkpt lat="43.81415" lon="3.64247">
        <ele>280.84</ele>
        <time>2014-05-08T13:43:08Z</time>
      </trkpt>
      <trkpt lat="43.81432" lon="3.64242">
        <ele>281.32</ele>
        <time>2014-05-08T13:43:09Z</time>
      </trkpt>
      <trkpt lat="43.81449" lon="3.64234">
        <ele>282.28</ele>
        <time>2014-05-08T13:43:10Z</time>
      </trkpt>
      <trkpt lat="43.81466" lon="3.64224">
        <ele>282.77</ele>
        <time>2014-05-08T13:43:11Z</time>
      </trkpt>
      <trkpt lat="43.81485" lon="3.64213">
        <ele>284.21</ele>
        <time>2014-05-08T13:43:12Z</time>
      </trkpt>
      <trkpt lat="43.81641" lon="3.64101">
        <ele>287.57</ele>
        <time>2014-05-08T13:43:21Z</time>
      </trkpt>
      <trkpt lat="43.81653" lon="3.64083">
        <ele>287.57</ele>
        <time>2014-05-08T13:43:22Z</time>
      </trkpt>
      <trkpt lat="43.81662" lon="3.6406">
        <ele>287.09</ele>
        <time>2014-05-08T13:43:23Z</time>
      </trkpt>
      <trkpt lat="43.81668" lon="3.64033">
        <ele>288.05</ele>
        <time>2014-05-08T13:43:24Z</time>
      </trkpt>
      <trkpt lat="43.81675" lon="3.64006">
        <ele>288.53</ele>
        <time>2014-05-08T13:43:25Z</time>
      </trkpt>
      <trkpt lat="43.81682" lon="3.63979">
        <ele>289.01</ele>
        <time>2014-05-08T13:43:26Z</time>
      </trkpt>
      <trkpt lat="43.81746" lon="3.63699">
        <ele>292.38</ele>
        <time>2014-05-08T13:43:36Z</time>
      </trkpt>
      <trkpt lat="43.81764" lon="3.63588">
        <ele>294.78</ele>
        <time>2014-05-08T13:43:40Z</time>
      </trkpt>
      <trkpt lat="43.81765" lon="3.63562">
        <ele>294.78</ele>
        <time>2014-05-08T13:43:41Z</time>
      </trkpt>
      <trkpt lat="43.81763" lon="3.63535">
        <ele>294.78</ele>
        <time>2014-05-08T13:43:42Z</time>
      </trkpt>
      <trkpt lat="43.81725" lon="3.63319">
        <ele>295.26</ele>
        <time>2014-05-08T13:43:49Z</time>
      </trkpt>
      <trkpt lat="43.81671" lon="3.63064">
        <ele>299.11</ele>
        <time>2014-05-08T13:43:58Z</time>
      </trkpt>
      <trkpt lat="43.8162" lon="3.62834">
        <ele>302.95</ele>
        <time>2014-05-08T13:44:05Z</time>
      </trkpt>
      <trkpt lat="43.8155" lon="3.62485">
        <ele>313.05</ele>
        <time>2014-05-08T13:44:15Z</time>
      </trkpt>
      <trkpt lat="43.81549" lon="3.6242">
        <ele>314.49</ele>
        <time>2014-05-08T13:44:17Z</time>
      </trkpt>
      <trkpt lat="43.81551" lon="3.62386">
        <ele>315.45</ele>
        <time>2014-05-08T13:44:18Z</time>
      </trkpt>
      <trkpt lat="43.81573" lon="3.62175">
        <ele>320.74</ele>
        <time>2014-05-08T13:44:25Z</time>
      </trkpt>
      <trkpt lat="43.81582" lon="3.62153">
        <ele>321.7</ele>
        <time>2014-05-08T13:44:26Z</time>
      </trkpt>
      <trkpt lat="43.81592" lon="3.62131">
        <ele>321.7</ele>
        <time>2014-05-08T13:44:27Z</time>
      </trkpt>
      <trkpt lat="43.81619" lon="3.62061">
        <ele>320.74</ele>
        <time>2014-05-08T13:44:30Z</time>
      </trkpt>
      <trkpt lat="43.81625" lon="3.62037">
        <ele>319.78</ele>
        <time>2014-05-08T13:44:31Z</time>
      </trkpt>
      <trkpt lat="43.81642" lon="3.61961">
        <ele>315.93</ele>
        <time>2014-05-08T13:44:35Z</time>
      </trkpt>
      <trkpt lat="43.81643" lon="3.61948">
        <ele>314.97</ele>
        <time>2014-05-08T13:44:36Z</time>
      </trkpt>
      <trkpt lat="43.81641" lon="3.61935">
        <ele>314.01</ele>
        <time>2014-05-08T13:44:37Z</time>
      </trkpt>
      <trkpt lat="43.81637" lon="3.61923">
        <ele>313.53</ele>
        <time>2014-05-08T13:44:38Z</time>
      </trkpt>
      <trkpt lat="43.81631" lon="3.61913">
        <ele>312.09</ele>
        <time>2014-05-08T13:44:39Z</time>
      </trkpt>
      <trkpt lat="43.81624" lon="3.61904">
        <ele>311.12</ele>
        <time>2014-05-08T13:44:40Z</time>
      </trkpt>
      <trkpt lat="43.81618" lon="3.61892">
        <ele>310.16</ele>
        <time>2014-05-08T13:44:41Z</time>
      </trkpt>
      <trkpt lat="43.81614" lon="3.61878">
        <ele>308.72</ele>
        <time>2014-05-08T13:44:42Z</time>
      </trkpt>
      <trkpt lat="43.81616" lon="3.61863">
        <ele>307.28</ele>
        <time>2014-05-08T13:44:43Z</time>
      </trkpt>
      <trkpt lat="43.81619" lon="3.61846">
        <ele>306.32</ele>
        <time>2014-05-08T13:44:44Z</time>
      </trkpt>
      <trkpt lat="43.81624" lon="3.61829">
        <ele>304.88</ele>
        <time>2014-05-08T13:44:45Z</time>
      </trkpt>
      <trkpt lat="43.8163" lon="3.61795">
        <ele>301.99</ele>
        <time>2014-05-08T13:44:47Z</time>
      </trkpt>
      <trkpt lat="43.8163" lon="3.61779">
        <ele>300.55</ele>
        <time>2014-05-08T13:44:48Z</time>
      </trkpt>
      <trkpt lat="43.81628" lon="3.61763">
        <ele>299.59</ele>
        <time>2014-05-08T13:44:49Z</time>
      </trkpt>
      <trkpt lat="43.81625" lon="3.61747">
        <ele>298.15</ele>
        <time>2014-05-08T13:44:50Z</time>
      </trkpt>
      <trkpt lat="43.81625" lon="3.61732">
        <ele>297.18</ele>
        <time>2014-05-08T13:44:51Z</time>
      </trkpt>
      <trkpt lat="43.81627" lon="3.61718">
        <ele>295.74</ele>
        <time>2014-05-08T13:44:52Z</time>
      </trkpt>
      <trkpt lat="43.81632" lon="3.61705">
        <ele>294.3</ele>
        <time>2014-05-08T13:44:53Z</time>
      </trkpt>
      <trkpt lat="43.81638" lon="3.61693">
        <ele>292.86</ele>
        <time>2014-05-08T13:44:54Z</time>
      </trkpt>
      <trkpt lat="43.81643" lon="3.6168">
        <ele>291.9</ele>
        <time>2014-05-08T13:44:55Z</time>
      </trkpt>
      <trkpt lat="43.81645" lon="3.61666">
        <ele>290.46</ele>
        <time>2014-05-08T13:44:56Z</time>
      </trkpt>
      <trkpt lat="43.81644" lon="3.61654">
        <ele>289.49</ele>
        <time>2014-05-08T13:44:57Z</time>
      </trkpt>
      <trkpt lat="43.81643" lon="3.61643">
        <ele>289.01</ele>
        <time>2014-05-08T13:44:58Z</time>
      </trkpt>
      <trkpt lat="43.8164" lon="3.61633">
        <ele>287.57</ele>
        <time>2014-05-08T13:44:59Z</time>
      </trkpt>
      <trkpt lat="43.81635" lon="3.61625">
        <ele>286.61</ele>
        <time>2014-05-08T13:45:00Z</time>
      </trkpt>
      <trkpt lat="43.81629" lon="3.61618">
        <ele>285.65</ele>
        <time>2014-05-08T13:45:01Z</time>
      </trkpt>
      <trkpt lat="43.81622" lon="3.61611">
        <ele>285.17</ele>
        <time>2014-05-08T13:45:02Z</time>
      </trkpt>
      <trkpt lat="43.8161" lon="3.61595">
        <ele>283.73</ele>
        <time>2014-05-08T13:45:04Z</time>
      </trkpt>
      <trkpt lat="43.81606" lon="3.61585">
        <ele>283.25</ele>
        <time>2014-05-08T13:45:05Z</time>
      </trkpt>
      <trkpt lat="43.81604" lon="3.61573">
        <ele>282.28</ele>
        <time>2014-05-08T13:45:06Z</time>
      </trkpt>
      <trkpt lat="43.81603" lon="3.61561">
        <ele>281.32</ele>
        <time>2014-05-08T13:45:07Z</time>
      </trkpt>
      <trkpt lat="43.81603" lon="3.6155">
        <ele>280.84</ele>
        <time>2014-05-08T13:45:08Z</time>
      </trkpt>
      <trkpt lat="43.81604" lon="3.61539">
        <ele>279.88</ele>
        <time>2014-05-08T13:45:09Z</time>
      </trkpt>
      <trkpt lat="43.81603" lon="3.61529">
        <ele>279.4</ele>
        <time>2014-05-08T13:45:10Z</time>
      </trkpt>
      <trkpt lat="43.81601" lon="3.6152">
        <ele>278.44</ele>
        <time>2014-05-08T13:45:11Z</time>
      </trkpt>
      <trkpt lat="43.81598" lon="3.61513">
        <ele>277.96</ele>
        <time>2014-05-08T13:45:12Z</time>
      </trkpt>
      <trkpt lat="43.81592" lon="3.61506">
        <ele>277.48</ele>
        <time>2014-05-08T13:45:13Z</time>
      </trkpt>
      <trkpt lat="43.81586" lon="3.615">
        <ele>277</ele>
        <time>2014-05-08T13:45:14Z</time>
      </trkpt>
      <trkpt lat="43.81575" lon="3.61485">
        <ele>275.56</ele>
        <time>2014-05-08T13:45:16Z</time>
      </trkpt>
      <trkpt lat="43.81571" lon="3.61476">
        <ele>275.07</ele>
        <time>2014-05-08T13:45:17Z</time>
      </trkpt>
      <trkpt lat="43.81568" lon="3.61466">
        <ele>274.11</ele>
        <time>2014-05-08T13:45:18Z</time>
      </trkpt>
      <trkpt lat="43.81568" lon="3.61455">
        <ele>273.63</ele>
        <time>2014-05-08T13:45:19Z</time>
      </trkpt>
      <trkpt lat="43.81568" lon="3.61444">
        <ele>273.15</ele>
        <time>2014-05-08T13:45:20Z</time>
      </trkpt>
      <trkpt lat="43.81569" lon="3.61399">
        <ele>270.75</ele>
        <time>2014-05-08T13:45:24Z</time>
      </trkpt>
      <trkpt lat="43.81567" lon="3.61388">
        <ele>269.79</ele>
        <time>2014-05-08T13:45:25Z</time>
      </trkpt>
      <trkpt lat="43.81564" lon="3.61379">
        <ele>269.31</ele>
        <time>2014-05-08T13:45:26Z</time>
      </trkpt>
      <trkpt lat="43.8156" lon="3.61373">
        <ele>268.35</ele>
        <time>2014-05-08T13:45:27Z</time>
      </trkpt>
      <trkpt lat="43.81568" lon="3.61363">
        <ele>264.98</ele>
        <time>2014-05-08T13:45:33Z</time>
      </trkpt>
      <trkpt lat="43.81573" lon="3.61369">
        <ele>264.5</ele>
        <time>2014-05-08T13:45:34Z</time>
      </trkpt>
      <trkpt lat="43.81578" lon="3.61376">
        <ele>264.02</ele>
        <time>2014-05-08T13:45:35Z</time>
      </trkpt>
      <trkpt lat="43.81582" lon="3.61384">
        <ele>263.06</ele>
        <time>2014-05-08T13:45:36Z</time>
      </trkpt>
      <trkpt lat="43.81585" lon="3.61394">
        <ele>262.58</ele>
        <time>2014-05-08T13:45:37Z</time>
      </trkpt>
      <trkpt lat="43.81588" lon="3.61405">
        <ele>262.1</ele>
        <time>2014-05-08T13:45:38Z</time>
      </trkpt>
      <trkpt lat="43.81589" lon="3.61419">
        <ele>261.14</ele>
        <time>2014-05-08T13:45:39Z</time>
      </trkpt>
      <trkpt lat="43.81588" lon="3.61433">
        <ele>260.65</ele>
        <time>2014-05-08T13:45:40Z</time>
      </trkpt>
      <trkpt lat="43.8159" lon="3.61446">
        <ele>260.17</ele>
        <time>2014-05-08T13:45:41Z</time>
      </trkpt>
      <trkpt lat="43.81593" lon="3.61459">
        <ele>259.21</ele>
        <time>2014-05-08T13:45:42Z</time>
      </trkpt>
      <trkpt lat="43.81598" lon="3.6147">
        <ele>258.25</ele>
        <time>2014-05-08T13:45:43Z</time>
      </trkpt>
      <trkpt lat="43.81605" lon="3.61479">
        <ele>257.77</ele>
        <time>2014-05-08T13:45:44Z</time>
      </trkpt>
      <trkpt lat="43.81613" lon="3.61486">
        <ele>257.29</ele>
        <time>2014-05-08T13:45:45Z</time>
      </trkpt>
      <trkpt lat="43.81621" lon="3.61494">
        <ele>256.33</ele>
        <time>2014-05-08T13:45:46Z</time>
      </trkpt>
      <trkpt lat="43.81629" lon="3.61502">
        <ele>255.85</ele>
        <time>2014-05-08T13:45:47Z</time>
      </trkpt>
      <trkpt lat="43.81635" lon="3.61512">
        <ele>254.89</ele>
        <time>2014-05-08T13:45:48Z</time>
      </trkpt>
      <trkpt lat="43.8164" lon="3.61522">
        <ele>254.41</ele>
        <time>2014-05-08T13:45:49Z</time>
      </trkpt>
      <trkpt lat="43.81644" lon="3.61533">
        <ele>253.44</ele>
        <time>2014-05-08T13:45:50Z</time>
      </trkpt>
      <trkpt lat="43.81649" lon="3.61543">
        <ele>252.96</ele>
        <time>2014-05-08T13:45:51Z</time>
      </trkpt>
      <trkpt lat="43.81654" lon="3.61553">
        <ele>252</ele>
        <time>2014-05-08T13:45:52Z</time>
      </trkpt>
      <trkpt lat="43.81661" lon="3.61561">
        <ele>251.04</ele>
        <time>2014-05-08T13:45:53Z</time>
      </trkpt>
      <trkpt lat="43.81668" lon="3.61567">
        <ele>250.56</ele>
        <time>2014-05-08T13:45:54Z</time>
      </trkpt>
      <trkpt lat="43.81676" lon="3.61571">
        <ele>249.6</ele>
        <time>2014-05-08T13:45:55Z</time>
      </trkpt>
      <trkpt lat="43.81685" lon="3.61576">
        <ele>249.12</ele>
        <time>2014-05-08T13:45:56Z</time>
      </trkpt>
      <trkpt lat="43.81693" lon="3.61581">
        <ele>247.68</ele>
        <time>2014-05-08T13:45:57Z</time>
      </trkpt>
      <trkpt lat="43.81701" lon="3.61588">
        <ele>247.2</ele>
        <time>2014-05-08T13:45:58Z</time>
      </trkpt>
      <trkpt lat="43.81708" lon="3.61597">
        <ele>246.72</ele>
        <time>2014-05-08T13:45:59Z</time>
      </trkpt>
      <trkpt lat="43.81715" lon="3.61607">
        <ele>245.75</ele>
        <time>2014-05-08T13:46:00Z</time>
      </trkpt>
      <trkpt lat="43.81721" lon="3.61618">
        <ele>244.79</ele>
        <time>2014-05-08T13:46:01Z</time>
      </trkpt>
      <trkpt lat="43.81726" lon="3.6163">
        <ele>243.83</ele>
        <time>2014-05-08T13:46:02Z</time>
      </trkpt>
      <trkpt lat="43.81728" lon="3.61643">
        <ele>242.87</ele>
        <time>2014-05-08T13:46:03Z</time>
      </trkpt>
      <trkpt lat="43.81728" lon="3.61656">
        <ele>241.91</ele>
        <time>2014-05-08T13:46:04Z</time>
      </trkpt>
      <trkpt lat="43.81724" lon="3.6167">
        <ele>240.47</ele>
        <time>2014-05-08T13:46:05Z</time>
      </trkpt>
      <trkpt lat="43.81722" lon="3.61682">
        <ele>239.99</ele>
        <time>2014-05-08T13:46:06Z</time>
      </trkpt>
      <trkpt lat="43.81717" lon="3.61695">
        <ele>238.54</ele>
        <time>2014-05-08T13:46:07Z</time>
      </trkpt>
      <trkpt lat="43.81712" lon="3.6172">
        <ele>237.1</ele>
        <time>2014-05-08T13:46:09Z</time>
      </trkpt>
      <trkpt lat="43.81713" lon="3.61732">
        <ele>236.62</ele>
        <time>2014-05-08T13:46:10Z</time>
      </trkpt>
      <trkpt lat="43.81716" lon="3.61742">
        <ele>236.14</ele>
        <time>2014-05-08T13:46:11Z</time>
      </trkpt>
      <trkpt lat="43.81722" lon="3.61751">
        <ele>236.14</ele>
        <time>2014-05-08T13:46:12Z</time>
      </trkpt>
      <trkpt lat="43.81728" lon="3.61757">
        <ele>234.7</ele>
        <time>2014-05-08T13:46:13Z</time>
      </trkpt>
      <trkpt lat="43.81736" lon="3.61761">
        <ele>233.74</ele>
        <time>2014-05-08T13:46:14Z</time>
      </trkpt>
      <trkpt lat="43.81744" lon="3.61765">
        <ele>233.26</ele>
        <time>2014-05-08T13:46:15Z</time>
      </trkpt>
      <trkpt lat="43.81752" lon="3.61771">
        <ele>232.3</ele>
        <time>2014-05-08T13:46:16Z</time>
      </trkpt>
      <trkpt lat="43.8176" lon="3.61775">
        <ele>231.81</ele>
        <time>2014-05-08T13:46:17Z</time>
      </trkpt>
      <trkpt lat="43.81769" lon="3.61778">
        <ele>230.85</ele>
        <time>2014-05-08T13:46:18Z</time>
      </trkpt>
      <trkpt lat="43.81777" lon="3.61781">
        <ele>230.37</ele>
        <time>2014-05-08T13:46:19Z</time>
      </trkpt>
      <trkpt lat="43.81785" lon="3.61785">
        <ele>229.89</ele>
        <time>2014-05-08T13:46:20Z</time>
      </trkpt>
      <trkpt lat="43.81791" lon="3.61791">
        <ele>229.41</ele>
        <time>2014-05-08T13:46:21Z</time>
      </trkpt>
      <trkpt lat="43.81795" lon="3.61799">
        <ele>228.93</ele>
        <time>2014-05-08T13:46:22Z</time>
      </trkpt>
      <trkpt lat="43.81797" lon="3.61808">
        <ele>227.97</ele>
        <time>2014-05-08T13:46:23Z</time>
      </trkpt>
      <trkpt lat="43.81797" lon="3.61818">
        <ele>227.49</ele>
        <time>2014-05-08T13:46:24Z</time>
      </trkpt>
      <trkpt lat="43.81798" lon="3.61829">
        <ele>227.01</ele>
        <time>2014-05-08T13:46:25Z</time>
      </trkpt>
      <trkpt lat="43.818" lon="3.61838">
        <ele>226.53</ele>
        <time>2014-05-08T13:46:26Z</time>
      </trkpt>
      <trkpt lat="43.81803" lon="3.61848">
        <ele>225.57</ele>
        <time>2014-05-08T13:46:27Z</time>
      </trkpt>
      <trkpt lat="43.81808" lon="3.61856">
        <ele>225.09</ele>
        <time>2014-05-08T13:46:28Z</time>
      </trkpt>
      <trkpt lat="43.81814" lon="3.61861">
        <ele>224.12</ele>
        <time>2014-05-08T13:46:29Z</time>
      </trkpt>
      <trkpt lat="43.81823" lon="3.61863">
        <ele>224.12</ele>
        <time>2014-05-08T13:46:30Z</time>
      </trkpt>
      <trkpt lat="43.81831" lon="3.61863">
        <ele>223.16</ele>
        <time>2014-05-08T13:46:31Z</time>
      </trkpt>
      <trkpt lat="43.8184" lon="3.61861">
        <ele>222.68</ele>
        <time>2014-05-08T13:46:32Z</time>
      </trkpt>
      <trkpt lat="43.81848" lon="3.6186">
        <ele>221.72</ele>
        <time>2014-05-08T13:46:33Z</time>
      </trkpt>
      <trkpt lat="43.81856" lon="3.6186">
        <ele>221.24</ele>
        <time>2014-05-08T13:46:34Z</time>
      </trkpt>
      <trkpt lat="43.81862" lon="3.61863">
        <ele>220.76</ele>
        <time>2014-05-08T13:46:35Z</time>
      </trkpt>
      <trkpt lat="43.81867" lon="3.61869">
        <ele>219.8</ele>
        <time>2014-05-08T13:46:36Z</time>
      </trkpt>
      <trkpt lat="43.8187" lon="3.61876">
        <ele>219.32</ele>
        <time>2014-05-08T13:46:37Z</time>
      </trkpt>
      <trkpt lat="43.81872" lon="3.61883">
        <ele>218.84</ele>
        <time>2014-05-08T13:46:38Z</time>
      </trkpt>
      <trkpt lat="43.81866" lon="3.61894">
        <ele>217.4</ele>
        <time>2014-05-08T13:46:39Z</time>
      </trkpt>
      <trkpt lat="43.8186" lon="3.61906">
        <ele>216.43</ele>
        <time>2014-05-08T13:46:40Z</time>
      </trkpt>
      <trkpt lat="43.81855" lon="3.61916">
        <ele>215.95</ele>
        <time>2014-05-08T13:46:41Z</time>
      </trkpt>
      <trkpt lat="43.8185" lon="3.61925">
        <ele>215.47</ele>
        <time>2014-05-08T13:46:42Z</time>
      </trkpt>
      <trkpt lat="43.81836" lon="3.61954">
        <ele>213.55</ele>
        <time>2014-05-08T13:46:45Z</time>
      </trkpt>
      <trkpt lat="43.81832" lon="3.61966">
        <ele>212.59</ele>
        <time>2014-05-08T13:46:46Z</time>
      </trkpt>
      <trkpt lat="43.81835" lon="3.61976">
        <ele>211.63</ele>
        <time>2014-05-08T13:46:47Z</time>
      </trkpt>
      <trkpt lat="43.81839" lon="3.61983">
        <ele>211.15</ele>
        <time>2014-05-08T13:46:48Z</time>
      </trkpt>
      <trkpt lat="43.81845" lon="3.61988">
        <ele>210.67</ele>
        <time>2014-05-08T13:46:49Z</time>
      </trkpt>
      <trkpt lat="43.81856" lon="3.6199">
        <ele>210.67</ele>
        <time>2014-05-08T13:46:50Z</time>
      </trkpt>
      <trkpt lat="43.81865" lon="3.61992">
        <ele>210.19</ele>
        <time>2014-05-08T13:46:51Z</time>
      </trkpt>
      <trkpt lat="43.81873" lon="3.61994">
        <ele>209.22</ele>
        <time>2014-05-08T13:46:52Z</time>
      </trkpt>
      <trkpt lat="43.8188" lon="3.61994">
        <ele>207.78</ele>
        <time>2014-05-08T13:46:53Z</time>
      </trkpt>
      <trkpt lat="43.81889" lon="3.61991">
        <ele>206.34</ele>
        <time>2014-05-08T13:46:54Z</time>
      </trkpt>
      <trkpt lat="43.81898" lon="3.61985">
        <ele>206.34</ele>
        <time>2014-05-08T13:46:55Z</time>
      </trkpt>
      <trkpt lat="43.81906" lon="3.61981">
        <ele>205.86</ele>
        <time>2014-05-08T13:46:56Z</time>
      </trkpt>
      <trkpt lat="43.81914" lon="3.61978">
        <ele>205.38</ele>
        <time>2014-05-08T13:46:57Z</time>
      </trkpt>
      <trkpt lat="43.81922" lon="3.61976">
        <ele>204.42</ele>
        <time>2014-05-08T13:46:58Z</time>
      </trkpt>
      <trkpt lat="43.8193" lon="3.61974">
        <ele>203.46</ele>
        <time>2014-05-08T13:46:59Z</time>
      </trkpt>
      <trkpt lat="43.81938" lon="3.61969">
        <ele>203.46</ele>
        <time>2014-05-08T13:47:00Z</time>
      </trkpt>
      <trkpt lat="43.81945" lon="3.61962">
        <ele>202.98</ele>
        <time>2014-05-08T13:47:01Z</time>
      </trkpt>
      <trkpt lat="43.81967" lon="3.61942">
        <ele>201.53</ele>
        <time>2014-05-08T13:47:04Z</time>
      </trkpt>
      <trkpt lat="43.81975" lon="3.61938">
        <ele>201.05</ele>
        <time>2014-05-08T13:47:05Z</time>
      </trkpt>
      <trkpt lat="43.81983" lon="3.61936">
        <ele>200.09</ele>
        <time>2014-05-08T13:47:06Z</time>
      </trkpt>
      <trkpt lat="43.81991" lon="3.61936">
        <ele>199.61</ele>
        <time>2014-05-08T13:47:07Z</time>
      </trkpt>
      <trkpt lat="43.82001" lon="3.61937">
        <ele>198.65</ele>
        <time>2014-05-08T13:47:08Z</time>
      </trkpt>
      <trkpt lat="43.82031" lon="3.61938">
        <ele>196.73</ele>
        <time>2014-05-08T13:47:11Z</time>
      </trkpt>
      <trkpt lat="43.82046" lon="3.61933">
        <ele>196.25</ele>
        <time>2014-05-08T13:47:12Z</time>
      </trkpt>
      <trkpt lat="43.82059" lon="3.61926">
        <ele>195.77</ele>
        <time>2014-05-08T13:47:13Z</time>
      </trkpt>
      <trkpt lat="43.82077" lon="3.61917">
        <ele>194.32</ele>
        <time>2014-05-08T13:47:14Z</time>
      </trkpt>
      <trkpt lat="43.82093" lon="3.61908">
        <ele>192.88</ele>
        <time>2014-05-08T13:47:15Z</time>
      </trkpt>
      <trkpt lat="43.82124" lon="3.61899">
        <ele>190.48</ele>
        <time>2014-05-08T13:47:17Z</time>
      </trkpt>
      <trkpt lat="43.82138" lon="3.61902">
        <ele>188.56</ele>
        <time>2014-05-08T13:47:18Z</time>
      </trkpt>
      <trkpt lat="43.8215" lon="3.61907">
        <ele>187.59</ele>
        <time>2014-05-08T13:47:19Z</time>
      </trkpt>
      <trkpt lat="43.82161" lon="3.61919">
        <ele>186.63</ele>
        <time>2014-05-08T13:47:20Z</time>
      </trkpt>
      <trkpt lat="43.82169" lon="3.61933">
        <ele>185.67</ele>
        <time>2014-05-08T13:47:21Z</time>
      </trkpt>
      <trkpt lat="43.82176" lon="3.61949">
        <ele>185.19</ele>
        <time>2014-05-08T13:47:22Z</time>
      </trkpt>
      <trkpt lat="43.82184" lon="3.61962">
        <ele>184.71</ele>
        <time>2014-05-08T13:47:23Z</time>
      </trkpt>
      <trkpt lat="43.82193" lon="3.61974">
        <ele>183.75</ele>
        <time>2014-05-08T13:47:24Z</time>
      </trkpt>
      <trkpt lat="43.82202" lon="3.6198">
        <ele>182.31</ele>
        <time>2014-05-08T13:47:25Z</time>
      </trkpt>
      <trkpt lat="43.82211" lon="3.61983">
        <ele>180.38</ele>
        <time>2014-05-08T13:47:26Z</time>
      </trkpt>
      <trkpt lat="43.82223" lon="3.61981">
        <ele>177.98</ele>
        <time>2014-05-08T13:47:27Z</time>
      </trkpt>
      <trkpt lat="43.82244" lon="3.61972">
        <ele>179.42</ele>
        <time>2014-05-08T13:47:28Z</time>
      </trkpt>
      <trkpt lat="43.82264" lon="3.61964">
        <ele>178.46</ele>
        <time>2014-05-08T13:47:29Z</time>
      </trkpt>
      <trkpt lat="43.82285" lon="3.61953">
        <ele>177.5</ele>
        <time>2014-05-08T13:47:30Z</time>
      </trkpt>
      <trkpt lat="43.82307" lon="3.61943">
        <ele>175.58</ele>
        <time>2014-05-08T13:47:31Z</time>
      </trkpt>
      <trkpt lat="43.82457" lon="3.6188">
        <ele>164.04</ele>
        <time>2014-05-08T13:47:39Z</time>
      </trkpt>
      <trkpt lat="43.82478" lon="3.61863">
        <ele>160.2</ele>
        <time>2014-05-08T13:47:41Z</time>
      </trkpt>
      <trkpt lat="43.82484" lon="3.61855">
        <ele>158.75</ele>
        <time>2014-05-08T13:47:42Z</time>
      </trkpt>
      <trkpt lat="43.82491" lon="3.61847">
        <ele>157.31</ele>
        <time>2014-05-08T13:47:43Z</time>
      </trkpt>
      <trkpt lat="43.82499" lon="3.6184">
        <ele>156.35</ele>
        <time>2014-05-08T13:47:44Z</time>
      </trkpt>
      <trkpt lat="43.82509" lon="3.61835">
        <ele>155.87</ele>
        <time>2014-05-08T13:47:45Z</time>
      </trkpt>
      <trkpt lat="43.8252" lon="3.61831">
        <ele>155.39</ele>
        <time>2014-05-08T13:47:46Z</time>
      </trkpt>
      <trkpt lat="43.82532" lon="3.61828">
        <ele>154.91</ele>
        <time>2014-05-08T13:47:47Z</time>
      </trkpt>
      <trkpt lat="43.82543" lon="3.61826">
        <ele>154.43</ele>
        <time>2014-05-08T13:47:48Z</time>
      </trkpt>
      <trkpt lat="43.82554" lon="3.61824">
        <ele>154.43</ele>
        <time>2014-05-08T13:47:49Z</time>
      </trkpt>
      <trkpt lat="43.82574" lon="3.61819">
        <ele>153.95</ele>
        <time>2014-05-08T13:47:51Z</time>
      </trkpt>
      <trkpt lat="43.8258" lon="3.61813">
        <ele>154.43</ele>
        <time>2014-05-08T13:47:52Z</time>
      </trkpt>
      <trkpt lat="43.82582" lon="3.61801">
        <ele>156.35</ele>
        <time>2014-05-08T13:47:53Z</time>
      </trkpt>
      <trkpt lat="43.82584" lon="3.61788">
        <ele>156.83</ele>
        <time>2014-05-08T13:47:54Z</time>
      </trkpt>
      <trkpt lat="43.82586" lon="3.61777">
        <ele>157.31</ele>
        <time>2014-05-08T13:47:55Z</time>
      </trkpt>
      <trkpt lat="43.82588" lon="3.61767">
        <ele>157.31</ele>
        <time>2014-05-08T13:47:56Z</time>
      </trkpt>
      <trkpt lat="43.82592" lon="3.6176">
        <ele>156.83</ele>
        <time>2014-05-08T13:47:57Z</time>
      </trkpt>
      <trkpt lat="43.82597" lon="3.61757">
        <ele>156.83</ele>
        <time>2014-05-08T13:47:58Z</time>
      </trkpt>
      <trkpt lat="43.82603" lon="3.61755">
        <ele>156.83</ele>
        <time>2014-05-08T13:47:59Z</time>
      </trkpt>
      <trkpt lat="43.8261" lon="3.61757">
        <ele>156.35</ele>
        <time>2014-05-08T13:48:00Z</time>
      </trkpt>
      <trkpt lat="43.82618" lon="3.61762">
        <ele>156.35</ele>
        <time>2014-05-08T13:48:01Z</time>
      </trkpt>
      <trkpt lat="43.82627" lon="3.61769">
        <ele>156.35</ele>
        <time>2014-05-08T13:48:02Z</time>
      </trkpt>
      <trkpt lat="43.82635" lon="3.61776">
        <ele>156.35</ele>
        <time>2014-05-08T13:48:03Z</time>
      </trkpt>
      <trkpt lat="43.82674" lon="3.61802">
        <ele>156.83</ele>
        <time>2014-05-08T13:48:08Z</time>
      </trkpt>
      <trkpt lat="43.82683" lon="3.61801">
        <ele>157.31</ele>
        <time>2014-05-08T13:48:09Z</time>
      </trkpt>
      <trkpt lat="43.82692" lon="3.61801">
        <ele>157.31</ele>
        <time>2014-05-08T13:48:10Z</time>
      </trkpt>
      <trkpt lat="43.82699" lon="3.618">
        <ele>157.79</ele>
        <time>2014-05-08T13:48:11Z</time>
      </trkpt>
      <trkpt lat="43.82706" lon="3.61797">
        <ele>157.79</ele>
        <time>2014-05-08T13:48:12Z</time>
      </trkpt>
      <trkpt lat="43.82713" lon="3.61794">
        <ele>158.27</ele>
        <time>2014-05-08T13:48:13Z</time>
      </trkpt>
      <trkpt lat="43.8272" lon="3.6179">
        <ele>158.27</ele>
        <time>2014-05-08T13:48:14Z</time>
      </trkpt>
      <trkpt lat="43.82726" lon="3.61786">
        <ele>157.79</ele>
        <time>2014-05-08T13:48:15Z</time>
      </trkpt>
      <trkpt lat="43.82732" lon="3.61782">
        <ele>157.79</ele>
        <time>2014-05-08T13:48:16Z</time>
      </trkpt>
      <trkpt lat="43.82756" lon="3.6176">
        <ele>161.16</ele>
        <time>2014-05-08T13:48:25Z</time>
      </trkpt>
      <trkpt lat="43.82773" lon="3.61751">
        <ele>170.77</ele>
        <time>2014-05-08T13:48:35Z</time>
      </trkpt>
      <trkpt lat="43.82807" lon="3.61749">
        <ele>172.69</ele>
        <time>2014-05-08T13:48:45Z</time>
      </trkpt>
      <trkpt lat="43.82846" lon="3.61766">
        <ele>173.66</ele>
        <time>2014-05-08T13:48:55Z</time>
      </trkpt>
      <trkpt lat="43.82844" lon="3.61772">
        <ele>173.66</ele>
        <time>2014-05-08T13:48:56Z</time>
      </trkpt>
      <trkpt lat="43.82844" lon="3.61775">
        <ele>174.14</ele>
        <time>2014-05-08T13:48:57Z</time>
      </trkpt>
      <trkpt lat="43.82845" lon="3.61777">
        <ele>172.69</ele>
        <time>2014-05-08T13:48:58Z</time>
      </trkpt>
      <trkpt lat="43.82847" lon="3.61778">
        <ele>172.69</ele>
        <time>2014-05-08T13:48:59Z</time>
      </trkpt>
      <trkpt lat="43.8285" lon="3.6178">
        <ele>171.73</ele>
        <time>2014-05-08T13:49:00Z</time>
      </trkpt>
      <trkpt lat="43.82854" lon="3.6178">
        <ele>171.73</ele>
        <time>2014-05-08T13:49:01Z</time>
      </trkpt>
      <trkpt lat="43.82868" lon="3.61784">
        <ele>167.41</ele>
        <time>2014-05-08T13:49:05Z</time>
      </trkpt>
      <trkpt lat="43.82872" lon="3.61783">
        <ele>166.93</ele>
        <time>2014-05-08T13:49:06Z</time>
      </trkpt>
      <trkpt lat="43.82877" lon="3.61781">
        <ele>165.48</ele>
        <time>2014-05-08T13:49:07Z</time>
      </trkpt>
      <trkpt lat="43.82881" lon="3.61779">
        <ele>165</ele>
        <time>2014-05-08T13:49:08Z</time>
      </trkpt>
      <trkpt lat="43.82883" lon="3.61777">
        <ele>164.52</ele>
        <time>2014-05-08T13:49:09Z</time>
      </trkpt>
      <trkpt lat="43.82894" lon="3.61768">
        <ele>163.56</ele>
        <time>2014-05-08T13:49:19Z</time>
      </trkpt>
      <trkpt lat="43.82934" lon="3.61733">
        <ele>165.48</ele>
        <time>2014-05-08T13:49:27Z</time>
      </trkpt>
      <trkpt lat="43.83001" lon="3.61672">
        <ele>168.85</ele>
        <time>2014-05-08T13:49:38Z</time>
      </trkpt>
      <trkpt lat="43.83038" lon="3.61641">
        <ele>170.77</ele>
        <time>2014-05-08T13:49:42Z</time>
      </trkpt>
      <trkpt lat="43.83048" lon="3.61637">
        <ele>171.25</ele>
        <time>2014-05-08T13:49:43Z</time>
      </trkpt>
      <trkpt lat="43.83062" lon="3.61636">
        <ele>171.25</ele>
        <time>2014-05-08T13:49:44Z</time>
      </trkpt>
      <trkpt lat="43.83073" lon="3.6164">
        <ele>170.77</ele>
        <time>2014-05-08T13:49:45Z</time>
      </trkpt>
      <trkpt lat="43.83086" lon="3.61643">
        <ele>171.25</ele>
        <time>2014-05-08T13:49:46Z</time>
      </trkpt>
      <trkpt lat="43.83104" lon="3.61646">
        <ele>172.69</ele>
        <time>2014-05-08T13:49:47Z</time>
      </trkpt>
      <trkpt lat="43.83119" lon="3.61652">
        <ele>174.14</ele>
        <time>2014-05-08T13:49:48Z</time>
      </trkpt>
      <trkpt lat="43.83134" lon="3.61658">
        <ele>175.1</ele>
        <time>2014-05-08T13:49:49Z</time>
      </trkpt>
      <trkpt lat="43.83162" lon="3.61665">
        <ele>176.06</ele>
        <time>2014-05-08T13:49:51Z</time>
      </trkpt>
      <trkpt lat="43.83174" lon="3.61665">
        <ele>176.54</ele>
        <time>2014-05-08T13:49:52Z</time>
      </trkpt>
      <trkpt lat="43.83202" lon="3.61665">
        <ele>177.98</ele>
        <time>2014-05-08T13:49:54Z</time>
      </trkpt>
      <trkpt lat="43.83218" lon="3.61671">
        <ele>178.94</ele>
        <time>2014-05-08T13:49:55Z</time>
      </trkpt>
      <trkpt lat="43.83234" lon="3.61679">
        <ele>179.9</ele>
        <time>2014-05-08T13:49:56Z</time>
      </trkpt>
      <trkpt lat="43.83263" lon="3.61689">
        <ele>181.83</ele>
        <time>2014-05-08T13:49:58Z</time>
      </trkpt>
      <trkpt lat="43.83277" lon="3.61685">
        <ele>182.79</ele>
        <time>2014-05-08T13:49:59Z</time>
      </trkpt>
      <trkpt lat="43.8329" lon="3.61677">
        <ele>183.75</ele>
        <time>2014-05-08T13:50:00Z</time>
      </trkpt>
      <trkpt lat="43.83303" lon="3.61664">
        <ele>184.23</ele>
        <time>2014-05-08T13:50:01Z</time>
      </trkpt>
      <trkpt lat="43.83315" lon="3.61648">
        <ele>185.19</ele>
        <time>2014-05-08T13:50:02Z</time>
      </trkpt>
      <trkpt lat="43.83328" lon="3.61629">
        <ele>186.15</ele>
        <time>2014-05-08T13:50:03Z</time>
      </trkpt>
      <trkpt lat="43.83341" lon="3.61613">
        <ele>187.11</ele>
        <time>2014-05-08T13:50:04Z</time>
      </trkpt>
      <trkpt lat="43.83357" lon="3.61602">
        <ele>187.59</ele>
        <time>2014-05-08T13:50:05Z</time>
      </trkpt>
      <trkpt lat="43.83374" lon="3.61597">
        <ele>188.08</ele>
        <time>2014-05-08T13:50:06Z</time>
      </trkpt>
      <trkpt lat="43.83393" lon="3.61598">
        <ele>188.56</ele>
        <time>2014-05-08T13:50:07Z</time>
      </trkpt>
      <trkpt lat="43.83411" lon="3.61609">
        <ele>189.52</ele>
        <time>2014-05-08T13:50:08Z</time>
      </trkpt>
      <trkpt lat="43.83426" lon="3.6162">
        <ele>190.48</ele>
        <time>2014-05-08T13:50:09Z</time>
      </trkpt>
      <trkpt lat="43.83439" lon="3.61639">
        <ele>190.96</ele>
        <time>2014-05-08T13:50:10Z</time>
      </trkpt>
      <trkpt lat="43.83446" lon="3.6166">
        <ele>192.4</ele>
        <time>2014-05-08T13:50:11Z</time>
      </trkpt>
      <trkpt lat="43.83449" lon="3.61681">
        <ele>193.36</ele>
        <time>2014-05-08T13:50:12Z</time>
      </trkpt>
      <trkpt lat="43.83453" lon="3.61701">
        <ele>195.28</ele>
        <time>2014-05-08T13:50:13Z</time>
      </trkpt>
      <trkpt lat="43.83459" lon="3.61719">
        <ele>195.28</ele>
        <time>2014-05-08T13:50:14Z</time>
      </trkpt>
      <trkpt lat="43.83512" lon="3.61798">
        <ele>199.61</ele>
        <time>2014-05-08T13:50:18Z</time>
      </trkpt>
      <trkpt lat="43.83529" lon="3.61815">
        <ele>200.57</ele>
        <time>2014-05-08T13:50:19Z</time>
      </trkpt>
      <trkpt lat="43.83545" lon="3.61833">
        <ele>202.01</ele>
        <time>2014-05-08T13:50:20Z</time>
      </trkpt>
      <trkpt lat="43.83558" lon="3.61857">
        <ele>202.98</ele>
        <time>2014-05-08T13:50:21Z</time>
      </trkpt>
      <trkpt lat="43.83569" lon="3.61883">
        <ele>203.94</ele>
        <time>2014-05-08T13:50:22Z</time>
      </trkpt>
      <trkpt lat="43.83577" lon="3.61911">
        <ele>205.38</ele>
        <time>2014-05-08T13:50:23Z</time>
      </trkpt>
      <trkpt lat="43.83583" lon="3.6194">
        <ele>206.34</ele>
        <time>2014-05-08T13:50:24Z</time>
      </trkpt>
      <trkpt lat="43.83587" lon="3.61969">
        <ele>208.26</ele>
        <time>2014-05-08T13:50:25Z</time>
      </trkpt>
      <trkpt lat="43.8359" lon="3.61996">
        <ele>209.7</ele>
        <time>2014-05-08T13:50:26Z</time>
      </trkpt>
      <trkpt lat="43.83604" lon="3.62061">
        <ele>213.07</ele>
        <time>2014-05-08T13:50:29Z</time>
      </trkpt>
      <trkpt lat="43.83616" lon="3.62079">
        <ele>214.51</ele>
        <time>2014-05-08T13:50:30Z</time>
      </trkpt>
      <trkpt lat="43.83632" lon="3.62096">
        <ele>215.47</ele>
        <time>2014-05-08T13:50:31Z</time>
      </trkpt>
      <trkpt lat="43.8365" lon="3.62113">
        <ele>216.91</ele>
        <time>2014-05-08T13:50:32Z</time>
      </trkpt>
      <trkpt lat="43.83667" lon="3.62135">
        <ele>218.36</ele>
        <time>2014-05-08T13:50:33Z</time>
      </trkpt>
      <trkpt lat="43.8379" lon="3.62292">
        <ele>227.01</ele>
        <time>2014-05-08T13:50:40Z</time>
      </trkpt>
      <trkpt lat="43.83847" lon="3.62339">
        <ele>230.37</ele>
        <time>2014-05-08T13:50:43Z</time>
      </trkpt>
      <trkpt lat="43.83869" lon="3.62347">
        <ele>231.81</ele>
        <time>2014-05-08T13:50:44Z</time>
      </trkpt>
      <trkpt lat="43.83991" lon="3.62433">
        <ele>240.47</ele>
        <time>2014-05-08T13:50:51Z</time>
      </trkpt>
      <trkpt lat="43.83992" lon="3.62454">
        <ele>241.43</ele>
        <time>2014-05-08T13:50:52Z</time>
      </trkpt>
      <trkpt lat="43.83995" lon="3.62476">
        <ele>243.35</ele>
        <time>2014-05-08T13:50:53Z</time>
      </trkpt>
      <trkpt lat="43.83991" lon="3.62504">
        <ele>244.79</ele>
        <time>2014-05-08T13:50:54Z</time>
      </trkpt>
      <trkpt lat="43.83987" lon="3.62535">
        <ele>245.75</ele>
        <time>2014-05-08T13:50:55Z</time>
      </trkpt>
      <trkpt lat="43.83988" lon="3.62562">
        <ele>247.2</ele>
        <time>2014-05-08T13:50:56Z</time>
      </trkpt>
      <trkpt lat="43.8401" lon="3.62704">
        <ele>252.48</ele>
        <time>2014-05-08T13:51:01Z</time>
      </trkpt>
      <trkpt lat="43.84022" lon="3.62724">
        <ele>253.44</ele>
        <time>2014-05-08T13:51:02Z</time>
      </trkpt>
      <trkpt lat="43.84039" lon="3.62747">
        <ele>254.89</ele>
        <time>2014-05-08T13:51:03Z</time>
      </trkpt>
      <trkpt lat="43.84056" lon="3.62767">
        <ele>255.37</ele>
        <time>2014-05-08T13:51:04Z</time>
      </trkpt>
      <trkpt lat="43.84076" lon="3.62787">
        <ele>255.37</ele>
        <time>2014-05-08T13:51:05Z</time>
      </trkpt>
      <trkpt lat="43.84095" lon="3.62809">
        <ele>254.41</ele>
        <time>2014-05-08T13:51:06Z</time>
      </trkpt>
      <trkpt lat="43.84168" lon="3.6294">
        <ele>248.64</ele>
        <time>2014-05-08T13:51:11Z</time>
      </trkpt>
      <trkpt lat="43.84177" lon="3.62971">
        <ele>248.16</ele>
        <time>2014-05-08T13:51:12Z</time>
      </trkpt>
      <trkpt lat="43.84242" lon="3.63199">
        <ele>239.51</ele>
        <time>2014-05-08T13:51:20Z</time>
      </trkpt>
      <trkpt lat="43.84258" lon="3.63211">
        <ele>238.06</ele>
        <time>2014-05-08T13:51:21Z</time>
      </trkpt>
      <trkpt lat="43.84272" lon="3.63225">
        <ele>236.14</ele>
        <time>2014-05-08T13:51:22Z</time>
      </trkpt>
      <trkpt lat="43.84294" lon="3.63235">
        <ele>235.66</ele>
        <time>2014-05-08T13:51:23Z</time>
      </trkpt>
      <trkpt lat="43.84316" lon="3.63248">
        <ele>234.7</ele>
        <time>2014-05-08T13:51:24Z</time>
      </trkpt>
      <trkpt lat="43.84447" lon="3.63384">
        <ele>226.53</ele>
        <time>2014-05-08T13:51:31Z</time>
      </trkpt>
      <trkpt lat="43.84477" lon="3.63434">
        <ele>224.12</ele>
        <time>2014-05-08T13:51:33Z</time>
      </trkpt>
      <trkpt lat="43.84488" lon="3.63466">
        <ele>222.68</ele>
        <time>2014-05-08T13:51:34Z</time>
      </trkpt>
      <trkpt lat="43.84518" lon="3.63554">
        <ele>219.8</ele>
        <time>2014-05-08T13:51:37Z</time>
      </trkpt>
      <trkpt lat="43.84543" lon="3.63737">
        <ele>212.59</ele>
        <time>2014-05-08T13:51:43Z</time>
      </trkpt>
      <trkpt lat="43.846" lon="3.63937">
        <ele>205.38</ele>
        <time>2014-05-08T13:51:49Z</time>
      </trkpt>
      <trkpt lat="43.84606" lon="3.63969">
        <ele>203.94</ele>
        <time>2014-05-08T13:51:50Z</time>
      </trkpt>
      <trkpt lat="43.84609" lon="3.64002">
        <ele>202.98</ele>
        <time>2014-05-08T13:51:51Z</time>
      </trkpt>
      <trkpt lat="43.84624" lon="3.64122">
        <ele>198.65</ele>
        <time>2014-05-08T13:51:55Z</time>
      </trkpt>
      <trkpt lat="43.84634" lon="3.64149">
        <ele>197.21</ele>
        <time>2014-05-08T13:51:56Z</time>
      </trkpt>
      <trkpt lat="43.84647" lon="3.64176">
        <ele>196.25</ele>
        <time>2014-05-08T13:51:57Z</time>
      </trkpt>
      <trkpt lat="43.8475" lon="3.64394">
        <ele>186.15</ele>
        <time>2014-05-08T13:52:05Z</time>
      </trkpt>
      <trkpt lat="43.84754" lon="3.64425">
        <ele>185.19</ele>
        <time>2014-05-08T13:52:06Z</time>
      </trkpt>
      <trkpt lat="43.84758" lon="3.64459">
        <ele>184.23</ele>
        <time>2014-05-08T13:52:07Z</time>
      </trkpt>
      <trkpt lat="43.84781" lon="3.64614">
        <ele>177.02</ele>
        <time>2014-05-08T13:52:12Z</time>
      </trkpt>
      <trkpt lat="43.84792" lon="3.64641">
        <ele>175.1</ele>
        <time>2014-05-08T13:52:13Z</time>
      </trkpt>
      <trkpt lat="43.84806" lon="3.64667">
        <ele>173.66</ele>
        <time>2014-05-08T13:52:14Z</time>
      </trkpt>
      <trkpt lat="43.84822" lon="3.64694">
        <ele>172.69</ele>
        <time>2014-05-08T13:52:15Z</time>
      </trkpt>
      <trkpt lat="43.84838" lon="3.6472">
        <ele>171.25</ele>
        <time>2014-05-08T13:52:16Z</time>
      </trkpt>
      <trkpt lat="43.84853" lon="3.64748">
        <ele>169.81</ele>
        <time>2014-05-08T13:52:17Z</time>
      </trkpt>
      <trkpt lat="43.84865" lon="3.64777">
        <ele>168.37</ele>
        <time>2014-05-08T13:52:18Z</time>
      </trkpt>
      <trkpt lat="43.84875" lon="3.64809">
        <ele>166.93</ele>
        <time>2014-05-08T13:52:19Z</time>
      </trkpt>
      <trkpt lat="43.84882" lon="3.64841">
        <ele>165.96</ele>
        <time>2014-05-08T13:52:20Z</time>
      </trkpt>
      <trkpt lat="43.84888" lon="3.64872">
        <ele>165.48</ele>
        <time>2014-05-08T13:52:21Z</time>
      </trkpt>
      <trkpt lat="43.84923" lon="3.64981">
        <ele>162.12</ele>
        <time>2014-05-08T13:52:25Z</time>
      </trkpt>
      <trkpt lat="43.84936" lon="3.65006">
        <ele>161.16</ele>
        <time>2014-05-08T13:52:26Z</time>
      </trkpt>
      <trkpt lat="43.84954" lon="3.65028">
        <ele>160.68</ele>
        <time>2014-05-08T13:52:27Z</time>
      </trkpt>
      <trkpt lat="43.84973" lon="3.65048">
        <ele>160.68</ele>
        <time>2014-05-08T13:52:28Z</time>
      </trkpt>
      <trkpt lat="43.8499" lon="3.65069">
        <ele>160.2</ele>
        <time>2014-05-08T13:52:29Z</time>
      </trkpt>
      <trkpt lat="43.85021" lon="3.65144">
        <ele>158.27</ele>
        <time>2014-05-08T13:52:32Z</time>
      </trkpt>
      <trkpt lat="43.85024" lon="3.65176">
        <ele>158.27</ele>
        <time>2014-05-08T13:52:33Z</time>
      </trkpt>
      <trkpt lat="43.85026" lon="3.6521">
        <ele>157.79</ele>
        <time>2014-05-08T13:52:34Z</time>
      </trkpt>
      <trkpt lat="43.85063" lon="3.65397">
        <ele>155.39</ele>
        <time>2014-05-08T13:52:40Z</time>
      </trkpt>
      <trkpt lat="43.85098" lon="3.65471">
        <ele>155.39</ele>
        <time>2014-05-08T13:52:43Z</time>
      </trkpt>
      <trkpt lat="43.8511" lon="3.65527">
        <ele>155.87</ele>
        <time>2014-05-08T13:52:45Z</time>
      </trkpt>
      <trkpt lat="43.85113" lon="3.65559">
        <ele>155.87</ele>
        <time>2014-05-08T13:52:46Z</time>
      </trkpt>
      <trkpt lat="43.85157" lon="3.65826">
        <ele>150.1</ele>
        <time>2014-05-08T13:52:54Z</time>
      </trkpt>
      <trkpt lat="43.85195" lon="3.65969">
        <ele>145.3</ele>
        <time>2014-05-08T13:52:59Z</time>
      </trkpt>
      <trkpt lat="43.85199" lon="3.65999">
        <ele>144.82</ele>
        <time>2014-05-08T13:53:00Z</time>
      </trkpt>
      <trkpt lat="43.85202" lon="3.66028">
        <ele>144.34</ele>
        <time>2014-05-08T13:53:01Z</time>
      </trkpt>
      <trkpt lat="43.85203" lon="3.66059">
        <ele>143.85</ele>
        <time>2014-05-08T13:53:02Z</time>
      </trkpt>
      <trkpt lat="43.85202" lon="3.66088">
        <ele>143.37</ele>
        <time>2014-05-08T13:53:03Z</time>
      </trkpt>
      <trkpt lat="43.85201" lon="3.66116">
        <ele>142.41</ele>
        <time>2014-05-08T13:53:04Z</time>
      </trkpt>
      <trkpt lat="43.85192" lon="3.66167">
        <ele>141.45</ele>
        <time>2014-05-08T13:53:06Z</time>
      </trkpt>
      <trkpt lat="43.8518" lon="3.66185">
        <ele>141.45</ele>
        <time>2014-05-08T13:53:07Z</time>
      </trkpt>
      <trkpt lat="43.8517" lon="3.66203">
        <ele>140.97</ele>
        <time>2014-05-08T13:53:08Z</time>
      </trkpt>
      <trkpt lat="43.85158" lon="3.66218">
        <ele>140.01</ele>
        <time>2014-05-08T13:53:09Z</time>
      </trkpt>
      <trkpt lat="43.85144" lon="3.66229">
        <ele>139.05</ele>
        <time>2014-05-08T13:53:10Z</time>
      </trkpt>
      <trkpt lat="43.85125" lon="3.66238">
        <ele>139.05</ele>
        <time>2014-05-08T13:53:11Z</time>
      </trkpt>
      <trkpt lat="43.85101" lon="3.6624">
        <ele>140.49</ele>
        <time>2014-05-08T13:53:12Z</time>
      </trkpt>
      <trkpt lat="43.85081" lon="3.66249">
        <ele>139.53</ele>
        <time>2014-05-08T13:53:13Z</time>
      </trkpt>
      <trkpt lat="43.85011" lon="3.66303">
        <ele>138.09</ele>
        <time>2014-05-08T13:53:17Z</time>
      </trkpt>
      <trkpt lat="43.84999" lon="3.66322">
        <ele>138.57</ele>
        <time>2014-05-08T13:53:18Z</time>
      </trkpt>
      <trkpt lat="43.84987" lon="3.66341">
        <ele>138.57</ele>
        <time>2014-05-08T13:53:19Z</time>
      </trkpt>
      <trkpt lat="43.84933" lon="3.66442">
        <ele>143.85</ele>
        <time>2014-05-08T13:53:24Z</time>
      </trkpt>
      <trkpt lat="43.84925" lon="3.66467">
        <ele>145.3</ele>
        <time>2014-05-08T13:53:25Z</time>
      </trkpt>
      <trkpt lat="43.84919" lon="3.66495">
        <ele>146.26</ele>
        <time>2014-05-08T13:53:26Z</time>
      </trkpt>
      <trkpt lat="43.84903" lon="3.66612">
        <ele>150.58</ele>
        <time>2014-05-08T13:53:30Z</time>
      </trkpt>
      <trkpt lat="43.84903" lon="3.66641">
        <ele>151.54</ele>
        <time>2014-05-08T13:53:31Z</time>
      </trkpt>
      <trkpt lat="43.84906" lon="3.66671">
        <ele>152.51</ele>
        <time>2014-05-08T13:53:32Z</time>
      </trkpt>
      <trkpt lat="43.8491" lon="3.667">
        <ele>153.47</ele>
        <time>2014-05-08T13:53:33Z</time>
      </trkpt>
      <trkpt lat="43.84916" lon="3.66727">
        <ele>154.91</ele>
        <time>2014-05-08T13:53:34Z</time>
      </trkpt>
      <trkpt lat="43.84923" lon="3.66751">
        <ele>155.87</ele>
        <time>2014-05-08T13:53:35Z</time>
      </trkpt>
      <trkpt lat="43.84935" lon="3.66773">
        <ele>156.83</ele>
        <time>2014-05-08T13:53:36Z</time>
      </trkpt>
      <trkpt lat="43.84949" lon="3.66792">
        <ele>157.79</ele>
        <time>2014-05-08T13:53:37Z</time>
      </trkpt>
      <trkpt lat="43.84965" lon="3.66808">
        <ele>159.24</ele>
        <time>2014-05-08T13:53:38Z</time>
      </trkpt>
      <trkpt lat="43.84982" lon="3.66825">
        <ele>160.68</ele>
        <time>2014-05-08T13:53:39Z</time>
      </trkpt>
      <trkpt lat="43.85001" lon="3.66841">
        <ele>162.6</ele>
        <time>2014-05-08T13:53:40Z</time>
      </trkpt>
      <trkpt lat="43.85023" lon="3.66858">
        <ele>164.04</ele>
        <time>2014-05-08T13:53:41Z</time>
      </trkpt>
      <trkpt lat="43.85169" lon="3.66971">
        <ele>175.58</ele>
        <time>2014-05-08T13:53:48Z</time>
      </trkpt>
      <trkpt lat="43.852" lon="3.67009">
        <ele>178.94</ele>
        <time>2014-05-08T13:53:50Z</time>
      </trkpt>
      <trkpt lat="43.85214" lon="3.67033">
        <ele>180.38</ele>
        <time>2014-05-08T13:53:51Z</time>
      </trkpt>
      <trkpt lat="43.85225" lon="3.67057">
        <ele>181.83</ele>
        <time>2014-05-08T13:53:52Z</time>
      </trkpt>
      <trkpt lat="43.85285" lon="3.67135">
        <ele>186.63</ele>
        <time>2014-05-08T13:53:56Z</time>
      </trkpt>
      <trkpt lat="43.85371" lon="3.67217">
        <ele>193.36</ele>
        <time>2014-05-08T13:54:01Z</time>
      </trkpt>
      <trkpt lat="43.85382" lon="3.67242">
        <ele>194.32</ele>
        <time>2014-05-08T13:54:02Z</time>
      </trkpt>
      <trkpt lat="43.85391" lon="3.67272">
        <ele>195.28</ele>
        <time>2014-05-08T13:54:03Z</time>
      </trkpt>
      <trkpt lat="43.85397" lon="3.67305">
        <ele>196.25</ele>
        <time>2014-05-08T13:54:04Z</time>
      </trkpt>
      <trkpt lat="43.85403" lon="3.67338">
        <ele>197.69</ele>
        <time>2014-05-08T13:54:05Z</time>
      </trkpt>
      <trkpt lat="43.85411" lon="3.67371">
        <ele>198.65</ele>
        <time>2014-05-08T13:54:06Z</time>
      </trkpt>
      <trkpt lat="43.85467" lon="3.67564">
        <ele>209.22</ele>
        <time>2014-05-08T13:54:13Z</time>
      </trkpt>
      <trkpt lat="43.85528" lon="3.67667">
        <ele>212.11</ele>
        <time>2014-05-08T13:54:19Z</time>
      </trkpt>
      <trkpt lat="43.85563" lon="3.67707">
        <ele>211.15</ele>
        <time>2014-05-08T13:54:21Z</time>
      </trkpt>
      <trkpt lat="43.85692" lon="3.67834">
        <ele>206.34</ele>
        <time>2014-05-08T13:54:27Z</time>
      </trkpt>
      <trkpt lat="43.85708" lon="3.67859">
        <ele>205.38</ele>
        <time>2014-05-08T13:54:28Z</time>
      </trkpt>
      <trkpt lat="43.8572" lon="3.67887">
        <ele>204.9</ele>
        <time>2014-05-08T13:54:29Z</time>
      </trkpt>
      <trkpt lat="43.85726" lon="3.67921">
        <ele>203.94</ele>
        <time>2014-05-08T13:54:30Z</time>
      </trkpt>
      <trkpt lat="43.85735" lon="3.67953">
        <ele>202.98</ele>
        <time>2014-05-08T13:54:31Z</time>
      </trkpt>
      <trkpt lat="43.85747" lon="3.67984">
        <ele>201.53</ele>
        <time>2014-05-08T13:54:32Z</time>
      </trkpt>
      <trkpt lat="43.85761" lon="3.68014">
        <ele>200.57</ele>
        <time>2014-05-08T13:54:33Z</time>
      </trkpt>
      <trkpt lat="43.85855" lon="3.68193">
        <ele>196.25</ele>
        <time>2014-05-08T13:54:39Z</time>
      </trkpt>
      <trkpt lat="43.85885" lon="3.68297">
        <ele>192.88</ele>
        <time>2014-05-08T13:54:43Z</time>
      </trkpt>
      <trkpt lat="43.85882" lon="3.68319">
        <ele>191.92</ele>
        <time>2014-05-08T13:54:44Z</time>
      </trkpt>
      <trkpt lat="43.8588" lon="3.68342">
        <ele>190.96</ele>
        <time>2014-05-08T13:54:45Z</time>
      </trkpt>
      <trkpt lat="43.85875" lon="3.68371">
        <ele>190.96</ele>
        <time>2014-05-08T13:54:46Z</time>
      </trkpt>
      <trkpt lat="43.85874" lon="3.68402">
        <ele>190.96</ele>
        <time>2014-05-08T13:54:47Z</time>
      </trkpt>
      <trkpt lat="43.85874" lon="3.68433">
        <ele>190.96</ele>
        <time>2014-05-08T13:54:48Z</time>
      </trkpt>
      <trkpt lat="43.85881" lon="3.68492">
        <ele>190.96</ele>
        <time>2014-05-08T13:54:50Z</time>
      </trkpt>
      <trkpt lat="43.85887" lon="3.68516">
        <ele>190.96</ele>
        <time>2014-05-08T13:54:51Z</time>
      </trkpt>
      <trkpt lat="43.85896" lon="3.68533">
        <ele>190.96</ele>
        <time>2014-05-08T13:54:52Z</time>
      </trkpt>
      <trkpt lat="43.85904" lon="3.68548">
        <ele>190.96</ele>
        <time>2014-05-08T13:54:53Z</time>
      </trkpt>
      <trkpt lat="43.8591" lon="3.68563">
        <ele>190.96</ele>
        <time>2014-05-08T13:54:54Z</time>
      </trkpt>
      <trkpt lat="43.85921" lon="3.68598">
        <ele>190.96</ele>
        <time>2014-05-08T13:54:56Z</time>
      </trkpt>
      <trkpt lat="43.85925" lon="3.68619">
        <ele>190.48</ele>
        <time>2014-05-08T13:54:57Z</time>
      </trkpt>
      <trkpt lat="43.85944" lon="3.68735">
        <ele>187.11</ele>
        <time>2014-05-08T13:55:04Z</time>
      </trkpt>
      <trkpt lat="43.85946" lon="3.68744">
        <ele>187.11</ele>
        <time>2014-05-08T13:55:10Z</time>
      </trkpt>
      <trkpt lat="43.85951" lon="3.68781">
        <ele>186.63</ele>
        <time>2014-05-08T13:55:54Z</time>
      </trkpt>
      <trkpt lat="43.85969" lon="3.6889">
        <ele>184.23</ele>
        <time>2014-05-08T13:56:02Z</time>
      </trkpt>
      <trkpt lat="43.85971" lon="3.68919">
        <ele>184.23</ele>
        <time>2014-05-08T13:56:05Z</time>
      </trkpt>
      <trkpt lat="43.85969" lon="3.68925">
        <ele>183.75</ele>
        <time>2014-05-08T13:56:06Z</time>
      </trkpt>
      <trkpt lat="43.85965" lon="3.68932">
        <ele>182.31</ele>
        <time>2014-05-08T13:56:07Z</time>
      </trkpt>
      <trkpt lat="43.85956" lon="3.68934">
        <ele>181.35</ele>
        <time>2014-05-08T13:56:08Z</time>
      </trkpt>
      <trkpt lat="43.85947" lon="3.68941">
        <ele>180.87</ele>
        <time>2014-05-08T13:56:09Z</time>
      </trkpt>
      <trkpt lat="43.85937" lon="3.68947">
        <ele>179.9</ele>
        <time>2014-05-08T13:56:10Z</time>
      </trkpt>
      <trkpt lat="43.85927" lon="3.68954">
        <ele>178.46</ele>
        <time>2014-05-08T13:56:11Z</time>
      </trkpt>
      <trkpt lat="43.85918" lon="3.68964">
        <ele>177.5</ele>
        <time>2014-05-08T13:56:12Z</time>
      </trkpt>
      <trkpt lat="43.8591" lon="3.68975">
        <ele>176.54</ele>
        <time>2014-05-08T13:56:13Z</time>
      </trkpt>
      <trkpt lat="43.85902" lon="3.68989">
        <ele>176.06</ele>
        <time>2014-05-08T13:56:14Z</time>
      </trkpt>
      <trkpt lat="43.85895" lon="3.69003">
        <ele>174.62</ele>
        <time>2014-05-08T13:56:15Z</time>
      </trkpt>
      <trkpt lat="43.85866" lon="3.69059">
        <ele>171.73</ele>
        <time>2014-05-08T13:56:20Z</time>
      </trkpt>
      <trkpt lat="43.85862" lon="3.69063">
        <ele>171.25</ele>
        <time>2014-05-08T13:56:21Z</time>
      </trkpt>
      <trkpt lat="43.85857" lon="3.69063">
        <ele>170.29</ele>
        <time>2014-05-08T13:56:22Z</time>
      </trkpt>
      <trkpt lat="43.85853" lon="3.69057">
        <ele>169.33</ele>
        <time>2014-05-08T13:56:23Z</time>
      </trkpt>
      <trkpt lat="43.85849" lon="3.69048">
        <ele>168.37</ele>
        <time>2014-05-08T13:56:24Z</time>
      </trkpt>
      <trkpt lat="43.85845" lon="3.69036">
        <ele>167.41</ele>
        <time>2014-05-08T13:56:25Z</time>
      </trkpt>
      <trkpt lat="43.85841" lon="3.69021">
        <ele>166.45</ele>
        <time>2014-05-08T13:56:26Z</time>
      </trkpt>
      <trkpt lat="43.85837" lon="3.69004">
        <ele>165</ele>
        <time>2014-05-08T13:56:27Z</time>
      </trkpt>
      <trkpt lat="43.85815" lon="3.68901">
        <ele>163.56</ele>
        <time>2014-05-08T13:56:34Z</time>
      </trkpt>
      <trkpt lat="43.85811" lon="3.68895">
        <ele>163.08</ele>
        <time>2014-05-08T13:56:35Z</time>
      </trkpt>
      <trkpt lat="43.85805" lon="3.68894">
        <ele>162.6</ele>
        <time>2014-05-08T13:56:36Z</time>
      </trkpt>
      <trkpt lat="43.85799" lon="3.68899">
        <ele>162.6</ele>
        <time>2014-05-08T13:56:37Z</time>
      </trkpt>
      <trkpt lat="43.85793" lon="3.68905">
        <ele>162.6</ele>
        <time>2014-05-08T13:56:38Z</time>
      </trkpt>
      <trkpt lat="43.85787" lon="3.68917">
        <ele>163.08</ele>
        <time>2014-05-08T13:56:39Z</time>
      </trkpt>
      <trkpt lat="43.8578" lon="3.6893">
        <ele>165</ele>
        <time>2014-05-08T13:56:40Z</time>
      </trkpt>
      <trkpt lat="43.85749" lon="3.68974">
        <ele>169.81</ele>
        <time>2014-05-08T13:56:44Z</time>
      </trkpt>
      <trkpt lat="43.8574" lon="3.68982">
        <ele>170.29</ele>
        <time>2014-05-08T13:56:45Z</time>
      </trkpt>
      <trkpt lat="43.85667" lon="3.69046">
        <ele>170.29</ele>
        <time>2014-05-08T13:56:52Z</time>
      </trkpt>
      <trkpt lat="43.8566" lon="3.69055">
        <ele>169.81</ele>
        <time>2014-05-08T13:56:53Z</time>
      </trkpt>
      <trkpt lat="43.85655" lon="3.69067">
        <ele>169.33</ele>
        <time>2014-05-08T13:56:54Z</time>
      </trkpt>
      <trkpt lat="43.85654" lon="3.69082">
        <ele>169.33</ele>
        <time>2014-05-08T13:56:55Z</time>
      </trkpt>
      <trkpt lat="43.85653" lon="3.69099">
        <ele>168.37</ele>
        <time>2014-05-08T13:56:56Z</time>
      </trkpt>
      <trkpt lat="43.85654" lon="3.69117">
        <ele>167.89</ele>
        <time>2014-05-08T13:56:57Z</time>
      </trkpt>
      <trkpt lat="43.85656" lon="3.69136">
        <ele>166.93</ele>
        <time>2014-05-08T13:56:58Z</time>
      </trkpt>
      <trkpt lat="43.85658" lon="3.69155">
        <ele>165.96</ele>
        <time>2014-05-08T13:56:59Z</time>
      </trkpt>
      <trkpt lat="43.85661" lon="3.69203">
        <ele>164.52</ele>
        <time>2014-05-08T13:57:02Z</time>
      </trkpt>
      <trkpt lat="43.85659" lon="3.69218">
        <ele>163.56</ele>
        <time>2014-05-08T13:57:03Z</time>
      </trkpt>
      <trkpt lat="43.85654" lon="3.69234">
        <ele>162.6</ele>
        <time>2014-05-08T13:57:04Z</time>
      </trkpt>
      <trkpt lat="43.85611" lon="3.69362">
        <ele>155.87</ele>
        <time>2014-05-08T13:57:11Z</time>
      </trkpt>
      <trkpt lat="43.85611" lon="3.69381">
        <ele>154.91</ele>
        <time>2014-05-08T13:57:12Z</time>
      </trkpt>
      <trkpt lat="43.85611" lon="3.694">
        <ele>154.43</ele>
        <time>2014-05-08T13:57:13Z</time>
      </trkpt>
      <trkpt lat="43.85595" lon="3.69562">
        <ele>147.22</ele>
        <time>2014-05-08T13:57:22Z</time>
      </trkpt>
      <trkpt lat="43.85591" lon="3.69582">
        <ele>145.78</ele>
        <time>2014-05-08T13:57:24Z</time>
      </trkpt>
      <trkpt lat="43.85587" lon="3.69587">
        <ele>144.82</ele>
        <time>2014-05-08T13:57:25Z</time>
      </trkpt>
      <trkpt lat="43.85582" lon="3.69587">
        <ele>143.37</ele>
        <time>2014-05-08T13:57:26Z</time>
      </trkpt>
      <trkpt lat="43.85573" lon="3.69583">
        <ele>141.93</ele>
        <time>2014-05-08T13:57:27Z</time>
      </trkpt>
      <trkpt lat="43.85564" lon="3.69579">
        <ele>140.97</ele>
        <time>2014-05-08T13:57:28Z</time>
      </trkpt>
      <trkpt lat="43.85552" lon="3.69569">
        <ele>140.97</ele>
        <time>2014-05-08T13:57:29Z</time>
      </trkpt>
      <trkpt lat="43.85541" lon="3.69563">
        <ele>140.01</ele>
        <time>2014-05-08T13:57:30Z</time>
      </trkpt>
      <trkpt lat="43.8552" lon="3.69558">
        <ele>138.09</ele>
        <time>2014-05-08T13:57:32Z</time>
      </trkpt>
      <trkpt lat="43.85509" lon="3.69565">
        <ele>136.64</ele>
        <time>2014-05-08T13:57:33Z</time>
      </trkpt>
      <trkpt lat="43.85498" lon="3.69574">
        <ele>135.2</ele>
        <time>2014-05-08T13:57:34Z</time>
      </trkpt>
      <trkpt lat="43.85456" lon="3.69615">
        <ele>129.92</ele>
        <time>2014-05-08T13:57:38Z</time>
      </trkpt>
      <trkpt lat="43.85449" lon="3.69628">
        <ele>128.95</ele>
        <time>2014-05-08T13:57:39Z</time>
      </trkpt>
      <trkpt lat="43.85443" lon="3.69641">
        <ele>127.99</ele>
        <time>2014-05-08T13:57:40Z</time>
      </trkpt>
      <trkpt lat="43.85437" lon="3.69653">
        <ele>127.99</ele>
        <time>2014-05-08T13:57:41Z</time>
      </trkpt>
      <trkpt lat="43.85431" lon="3.69662">
        <ele>127.03</ele>
        <time>2014-05-08T13:57:42Z</time>
      </trkpt>
      <trkpt lat="43.85425" lon="3.69669">
        <ele>126.07</ele>
        <time>2014-05-08T13:57:43Z</time>
      </trkpt>
      <trkpt lat="43.85417" lon="3.69672">
        <ele>125.59</ele>
        <time>2014-05-08T13:57:44Z</time>
      </trkpt>
      <trkpt lat="43.85407" lon="3.69674">
        <ele>124.63</ele>
        <time>2014-05-08T13:57:45Z</time>
      </trkpt>
      <trkpt lat="43.85394" lon="3.69669">
        <ele>125.11</ele>
        <time>2014-05-08T13:57:46Z</time>
      </trkpt>
      <trkpt lat="43.85381" lon="3.69664">
        <ele>124.15</ele>
        <time>2014-05-08T13:57:47Z</time>
      </trkpt>
      <trkpt lat="43.85367" lon="3.69659">
        <ele>124.15</ele>
        <time>2014-05-08T13:57:48Z</time>
      </trkpt>
      <trkpt lat="43.85354" lon="3.69652">
        <ele>124.15</ele>
        <time>2014-05-08T13:57:49Z</time>
      </trkpt>
      <trkpt lat="43.85342" lon="3.69643">
        <ele>124.15</ele>
        <time>2014-05-08T13:57:50Z</time>
      </trkpt>
      <trkpt lat="43.8533" lon="3.69636">
        <ele>123.67</ele>
        <time>2014-05-08T13:57:51Z</time>
      </trkpt>
      <trkpt lat="43.85319" lon="3.69631">
        <ele>123.67</ele>
        <time>2014-05-08T13:57:52Z</time>
      </trkpt>
      <trkpt lat="43.85308" lon="3.69632">
        <ele>123.19</ele>
        <time>2014-05-08T13:57:53Z</time>
      </trkpt>
      <trkpt lat="43.85296" lon="3.69636">
        <ele>122.71</ele>
        <time>2014-05-08T13:57:54Z</time>
      </trkpt>
      <trkpt lat="43.85283" lon="3.69644">
        <ele>122.22</ele>
        <time>2014-05-08T13:57:55Z</time>
      </trkpt>
      <trkpt lat="43.8527" lon="3.69651">
        <ele>122.22</ele>
        <time>2014-05-08T13:57:56Z</time>
      </trkpt>
      <trkpt lat="43.85193" lon="3.69688">
        <ele>120.78</ele>
        <time>2014-05-08T13:58:02Z</time>
      </trkpt>
      <trkpt lat="43.8518" lon="3.6969">
        <ele>120.78</ele>
        <time>2014-05-08T13:58:03Z</time>
      </trkpt>
      <trkpt lat="43.85165" lon="3.69688">
        <ele>120.3</ele>
        <time>2014-05-08T13:58:04Z</time>
      </trkpt>
      <trkpt lat="43.8515" lon="3.69684">
        <ele>119.82</ele>
        <time>2014-05-08T13:58:05Z</time>
      </trkpt>
      <trkpt lat="43.85137" lon="3.69681">
        <ele>119.34</ele>
        <time>2014-05-08T13:58:06Z</time>
      </trkpt>
      <trkpt lat="43.85058" lon="3.6966">
        <ele>118.86</ele>
        <time>2014-05-08T13:58:12Z</time>
      </trkpt>
      <trkpt lat="43.85044" lon="3.69662">
        <ele>118.38</ele>
        <time>2014-05-08T13:58:13Z</time>
      </trkpt>
      <trkpt lat="43.85029" lon="3.69667">
        <ele>118.38</ele>
        <time>2014-05-08T13:58:14Z</time>
      </trkpt>
      <trkpt lat="43.84931" lon="3.69692">
        <ele>117.42</ele>
        <time>2014-05-08T13:58:21Z</time>
      </trkpt>
      <trkpt lat="43.84915" lon="3.69686">
        <ele>117.42</ele>
        <time>2014-05-08T13:58:22Z</time>
      </trkpt>
      <trkpt lat="43.84901" lon="3.69679">
        <ele>117.42</ele>
        <time>2014-05-08T13:58:23Z</time>
      </trkpt>
      <trkpt lat="43.84833" lon="3.69658">
        <ele>117.9</ele>
        <time>2014-05-08T13:58:28Z</time>
      </trkpt>
      <trkpt lat="43.84819" lon="3.69659">
        <ele>117.9</ele>
        <time>2014-05-08T13:58:29Z</time>
      </trkpt>
      <trkpt lat="43.84804" lon="3.69663">
        <ele>118.38</ele>
        <time>2014-05-08T13:58:30Z</time>
      </trkpt>
      <trkpt lat="43.84789" lon="3.6967">
        <ele>118.38</ele>
        <time>2014-05-08T13:58:31Z</time>
      </trkpt>
      <trkpt lat="43.84774" lon="3.69679">
        <ele>118.86</ele>
        <time>2014-05-08T13:58:32Z</time>
      </trkpt>
      <trkpt lat="43.84609" lon="3.69767">
        <ele>116.46</ele>
        <time>2014-05-08T13:58:43Z</time>
      </trkpt>
      <trkpt lat="43.84523" lon="3.69853">
        <ele>117.42</ele>
        <time>2014-05-08T13:58:50Z</time>
      </trkpt>
      <trkpt lat="43.84454" lon="3.69901">
        <ele>116.46</ele>
        <time>2014-05-08T13:58:57Z</time>
      </trkpt>
      <trkpt lat="43.84433" lon="3.6991">
        <ele>115.01</ele>
        <time>2014-05-08T13:59:00Z</time>
      </trkpt>
      <trkpt lat="43.84429" lon="3.6991">
        <ele>114.53</ele>
        <time>2014-05-08T13:59:01Z</time>
      </trkpt>
      <trkpt lat="43.84425" lon="3.69911">
        <ele>114.05</ele>
        <time>2014-05-08T13:59:02Z</time>
      </trkpt>
      <trkpt lat="43.84423" lon="3.69911">
        <ele>113.57</ele>
        <time>2014-05-08T13:59:03Z</time>
      </trkpt>
      <trkpt lat="43.84423" lon="3.6991">
        <ele>114.05</ele>
        <time>2014-05-08T13:59:16Z</time>
      </trkpt>
      <trkpt lat="43.84421" lon="3.69912">
        <ele>113.57</ele>
        <time>2014-05-08T13:59:17Z</time>
      </trkpt>
      <trkpt lat="43.84419" lon="3.69915">
        <ele>113.57</ele>
        <time>2014-05-08T13:59:18Z</time>
      </trkpt>
      <trkpt lat="43.84417" lon="3.69921">
        <ele>113.09</ele>
        <time>2014-05-08T13:59:19Z</time>
      </trkpt>
      <trkpt lat="43.84415" lon="3.69929">
        <ele>113.09</ele>
        <time>2014-05-08T13:59:20Z</time>
      </trkpt>
      <trkpt lat="43.84415" lon="3.69941">
        <ele>113.09</ele>
        <time>2014-05-08T13:59:21Z</time>
      </trkpt>
      <trkpt lat="43.84415" lon="3.69955">
        <ele>113.57</ele>
        <time>2014-05-08T13:59:22Z</time>
      </trkpt>
      <trkpt lat="43.84417" lon="3.69971">
        <ele>114.05</ele>
        <time>2014-05-08T13:59:23Z</time>
      </trkpt>
      <trkpt lat="43.8442" lon="3.69987">
        <ele>114.53</ele>
        <time>2014-05-08T13:59:24Z</time>
      </trkpt>
      <trkpt lat="43.84441" lon="3.70092">
        <ele>115.01</ele>
        <time>2014-05-08T13:59:32Z</time>
      </trkpt>
      <trkpt lat="43.84446" lon="3.70103">
        <ele>115.01</ele>
        <time>2014-05-08T13:59:33Z</time>
      </trkpt>
      <trkpt lat="43.84508" lon="3.70213">
        <ele>115.98</ele>
        <time>2014-05-08T13:59:40Z</time>
      </trkpt>
      <trkpt lat="43.84618" lon="3.70407">
        <ele>116.46</ele>
        <time>2014-05-08T13:59:49Z</time>
      </trkpt>
      <trkpt lat="43.84706" lon="3.70563">
        <ele>122.71</ele>
        <time>2014-05-08T13:59:57Z</time>
      </trkpt>
      <trkpt lat="43.84788" lon="3.70689">
        <ele>126.55</ele>
        <time>2014-05-08T14:00:05Z</time>
      </trkpt>
      <trkpt lat="43.84803" lon="3.70696">
        <ele>127.03</ele>
        <time>2014-05-08T14:00:06Z</time>
      </trkpt>
      <trkpt lat="43.84819" lon="3.70696">
        <ele>126.55</ele>
        <time>2014-05-08T14:00:07Z</time>
      </trkpt>
      <trkpt lat="43.84837" lon="3.70689">
        <ele>126.55</ele>
        <time>2014-05-08T14:00:08Z</time>
      </trkpt>
      <trkpt lat="43.84854" lon="3.70677">
        <ele>125.59</ele>
        <time>2014-05-08T14:00:09Z</time>
      </trkpt>
      <trkpt lat="43.84871" lon="3.70667">
        <ele>125.11</ele>
        <time>2014-05-08T14:00:10Z</time>
      </trkpt>
      <trkpt lat="43.84888" lon="3.70652">
        <ele>124.15</ele>
        <time>2014-05-08T14:00:11Z</time>
      </trkpt>
      <trkpt lat="43.84902" lon="3.70637">
        <ele>123.19</ele>
        <time>2014-05-08T14:00:12Z</time>
      </trkpt>
      <trkpt lat="43.84914" lon="3.70626">
        <ele>123.19</ele>
        <time>2014-05-08T14:00:13Z</time>
      </trkpt>
      <trkpt lat="43.84923" lon="3.70612">
        <ele>123.67</ele>
        <time>2014-05-08T14:00:14Z</time>
      </trkpt>
      <trkpt lat="43.84951" lon="3.70597">
        <ele>122.22</ele>
        <time>2014-05-08T14:00:16Z</time>
      </trkpt>
      <trkpt lat="43.84968" lon="3.70597">
        <ele>121.26</ele>
        <time>2014-05-08T14:00:17Z</time>
      </trkpt>
      <trkpt lat="43.84986" lon="3.70599">
        <ele>119.82</ele>
        <time>2014-05-08T14:00:18Z</time>
      </trkpt>
      <trkpt lat="43.85006" lon="3.70606">
        <ele>119.34</ele>
        <time>2014-05-08T14:00:19Z</time>
      </trkpt>
      <trkpt lat="43.85027" lon="3.70611">
        <ele>119.34</ele>
        <time>2014-05-08T14:00:20Z</time>
      </trkpt>
      <trkpt lat="43.8521" lon="3.70656">
        <ele>117.9</ele>
        <time>2014-05-08T14:00:29Z</time>
      </trkpt>
      <trkpt lat="43.85326" lon="3.7068">
        <ele>118.38</ele>
        <time>2014-05-08T14:00:36Z</time>
      </trkpt>
      <trkpt lat="43.85493" lon="3.70713">
        <ele>120.3</ele>
        <time>2014-05-08T14:00:49Z</time>
      </trkpt>
      <trkpt lat="43.85518" lon="3.70726">
        <ele>120.3</ele>
        <time>2014-05-08T14:00:51Z</time>
      </trkpt>
      <trkpt lat="43.85613" lon="3.70756">
        <ele>117.9</ele>
        <time>2014-05-08T14:00:59Z</time>
      </trkpt>
      <trkpt lat="43.85628" lon="3.7075">
        <ele>115.5</ele>
        <time>2014-05-08T14:01:00Z</time>
      </trkpt>
      <trkpt lat="43.85695" lon="3.70754">
        <ele>116.46</ele>
        <time>2014-05-08T14:01:05Z</time>
      </trkpt>
      <trkpt lat="43.85708" lon="3.70759">
        <ele>115.98</ele>
        <time>2014-05-08T14:01:06Z</time>
      </trkpt>
      <trkpt lat="43.85783" lon="3.70789">
        <ele>115.5</ele>
        <time>2014-05-08T14:01:12Z</time>
      </trkpt>
      <trkpt lat="43.85796" lon="3.70789">
        <ele>115.5</ele>
        <time>2014-05-08T14:01:13Z</time>
      </trkpt>
      <trkpt lat="43.85811" lon="3.70787">
        <ele>115.98</ele>
        <time>2014-05-08T14:01:14Z</time>
      </trkpt>
      <trkpt lat="43.85825" lon="3.70783">
        <ele>116.46</ele>
        <time>2014-05-08T14:01:15Z</time>
      </trkpt>
      <trkpt lat="43.85839" lon="3.70777">
        <ele>116.94</ele>
        <time>2014-05-08T14:01:16Z</time>
      </trkpt>
      <trkpt lat="43.85853" lon="3.7077">
        <ele>117.42</ele>
        <time>2014-05-08T14:01:17Z</time>
      </trkpt>
      <trkpt lat="43.85949" lon="3.70693">
        <ele>118.38</ele>
        <time>2014-05-08T14:01:24Z</time>
      </trkpt>
      <trkpt lat="43.86041" lon="3.70627">
        <ele>119.34</ele>
        <time>2014-05-08T14:01:29Z</time>
      </trkpt>
      <trkpt lat="43.86058" lon="3.70622">
        <ele>119.34</ele>
        <time>2014-05-08T14:01:30Z</time>
      </trkpt>
      <trkpt lat="43.86074" lon="3.70621">
        <ele>119.34</ele>
        <time>2014-05-08T14:01:31Z</time>
      </trkpt>
      <trkpt lat="43.86103" lon="3.70619">
        <ele>119.82</ele>
        <time>2014-05-08T14:01:33Z</time>
      </trkpt>
      <trkpt lat="43.86116" lon="3.70615">
        <ele>118.86</ele>
        <time>2014-05-08T14:01:34Z</time>
      </trkpt>
      <trkpt lat="43.86129" lon="3.70607">
        <ele>118.38</ele>
        <time>2014-05-08T14:01:35Z</time>
      </trkpt>
      <trkpt lat="43.86141" lon="3.70594">
        <ele>118.86</ele>
        <time>2014-05-08T14:01:36Z</time>
      </trkpt>
      <trkpt lat="43.86155" lon="3.70584">
        <ele>118.86</ele>
        <time>2014-05-08T14:01:37Z</time>
      </trkpt>
      <trkpt lat="43.8617" lon="3.70576">
        <ele>118.86</ele>
        <time>2014-05-08T14:01:38Z</time>
      </trkpt>
      <trkpt lat="43.86187" lon="3.70571">
        <ele>118.86</ele>
        <time>2014-05-08T14:01:39Z</time>
      </trkpt>
      <trkpt lat="43.86204" lon="3.70568">
        <ele>118.38</ele>
        <time>2014-05-08T14:01:40Z</time>
      </trkpt>
      <trkpt lat="43.86221" lon="3.70568">
        <ele>118.86</ele>
        <time>2014-05-08T14:01:41Z</time>
      </trkpt>
      <trkpt lat="43.86238" lon="3.70569">
        <ele>119.82</ele>
        <time>2014-05-08T14:01:42Z</time>
      </trkpt>
      <trkpt lat="43.86255" lon="3.70573">
        <ele>120.3</ele>
        <time>2014-05-08T14:01:43Z</time>
      </trkpt>
      <trkpt lat="43.86272" lon="3.7058">
        <ele>120.78</ele>
        <time>2014-05-08T14:01:44Z</time>
      </trkpt>
      <trkpt lat="43.86289" lon="3.70589">
        <ele>121.26</ele>
        <time>2014-05-08T14:01:45Z</time>
      </trkpt>
      <trkpt lat="43.86306" lon="3.70599">
        <ele>121.74</ele>
        <time>2014-05-08T14:01:46Z</time>
      </trkpt>
      <trkpt lat="43.86421" lon="3.7067">
        <ele>121.74</ele>
        <time>2014-05-08T14:01:53Z</time>
      </trkpt>
      <trkpt lat="43.86428" lon="3.70693">
        <ele>121.26</ele>
        <time>2014-05-08T14:01:54Z</time>
      </trkpt>
      <trkpt lat="43.86496" lon="3.70873">
        <ele>121.74</ele>
        <time>2014-05-08T14:02:02Z</time>
      </trkpt>
      <trkpt lat="43.86537" lon="3.70901">
        <ele>119.34</ele>
        <time>2014-05-08T14:02:05Z</time>
      </trkpt>
      <trkpt lat="43.86552" lon="3.70903">
        <ele>118.86</ele>
        <time>2014-05-08T14:02:06Z</time>
      </trkpt>
      <trkpt lat="43.86573" lon="3.70902">
        <ele>120.78</ele>
        <time>2014-05-08T14:02:07Z</time>
      </trkpt>
      <trkpt lat="43.86599" lon="3.70898">
        <ele>120.78</ele>
        <time>2014-05-08T14:02:08Z</time>
      </trkpt>
      <trkpt lat="43.86624" lon="3.70894">
        <ele>121.74</ele>
        <time>2014-05-08T14:02:09Z</time>
      </trkpt>
      <trkpt lat="43.86649" lon="3.70891">
        <ele>122.22</ele>
        <time>2014-05-08T14:02:10Z</time>
      </trkpt>
      <trkpt lat="43.8667" lon="3.70885">
        <ele>121.74</ele>
        <time>2014-05-08T14:02:11Z</time>
      </trkpt>
      <trkpt lat="43.86723" lon="3.70846">
        <ele>120.3</ele>
        <time>2014-05-08T14:02:14Z</time>
      </trkpt>
      <trkpt lat="43.86738" lon="3.70828">
        <ele>119.82</ele>
        <time>2014-05-08T14:02:15Z</time>
      </trkpt>
      <trkpt lat="43.86753" lon="3.70805">
        <ele>119.82</ele>
        <time>2014-05-08T14:02:16Z</time>
      </trkpt>
      <trkpt lat="43.86766" lon="3.7078">
        <ele>119.82</ele>
        <time>2014-05-08T14:02:17Z</time>
      </trkpt>
      <trkpt lat="43.86779" lon="3.70761">
        <ele>120.3</ele>
        <time>2014-05-08T14:02:18Z</time>
      </trkpt>
      <trkpt lat="43.86794" lon="3.70741">
        <ele>121.26</ele>
        <time>2014-05-08T14:02:19Z</time>
      </trkpt>
      <trkpt lat="43.86812" lon="3.70727">
        <ele>121.74</ele>
        <time>2014-05-08T14:02:20Z</time>
      </trkpt>
      <trkpt lat="43.86831" lon="3.70716">
        <ele>122.71</ele>
        <time>2014-05-08T14:02:21Z</time>
      </trkpt>
      <trkpt lat="43.86848" lon="3.70709">
        <ele>123.67</ele>
        <time>2014-05-08T14:02:22Z</time>
      </trkpt>
      <trkpt lat="43.86865" lon="3.7071">
        <ele>125.11</ele>
        <time>2014-05-08T14:02:23Z</time>
      </trkpt>
      <trkpt lat="43.86885" lon="3.70718">
        <ele>125.59</ele>
        <time>2014-05-08T14:02:24Z</time>
      </trkpt>
      <trkpt lat="43.86902" lon="3.70729">
        <ele>126.55</ele>
        <time>2014-05-08T14:02:25Z</time>
      </trkpt>
      <trkpt lat="43.86918" lon="3.70741">
        <ele>127.03</ele>
        <time>2014-05-08T14:02:26Z</time>
      </trkpt>
      <trkpt lat="43.86931" lon="3.70755">
        <ele>128.47</ele>
        <time>2014-05-08T14:02:27Z</time>
      </trkpt>
      <trkpt lat="43.86943" lon="3.70766">
        <ele>128.95</ele>
        <time>2014-05-08T14:02:28Z</time>
      </trkpt>
      <trkpt lat="43.86953" lon="3.7077">
        <ele>129.92</ele>
        <time>2014-05-08T14:02:29Z</time>
      </trkpt>
      <trkpt lat="43.86962" lon="3.70767">
        <ele>130.4</ele>
        <time>2014-05-08T14:02:30Z</time>
      </trkpt>
      <trkpt lat="43.86971" lon="3.7076">
        <ele>129.92</ele>
        <time>2014-05-08T14:02:31Z</time>
      </trkpt>
      <trkpt lat="43.86977" lon="3.70746">
        <ele>129.43</ele>
        <time>2014-05-08T14:02:32Z</time>
      </trkpt>
      <trkpt lat="43.86981" lon="3.70728">
        <ele>131.36</ele>
        <time>2014-05-08T14:02:33Z</time>
      </trkpt>
      <trkpt lat="43.86986" lon="3.7071">
        <ele>132.32</ele>
        <time>2014-05-08T14:02:34Z</time>
      </trkpt>
      <trkpt lat="43.86994" lon="3.70693">
        <ele>131.84</ele>
        <time>2014-05-08T14:02:35Z</time>
      </trkpt>
      <trkpt lat="43.87028" lon="3.70671">
        <ele>133.28</ele>
        <time>2014-05-08T14:02:38Z</time>
      </trkpt>
      <trkpt lat="43.87041" lon="3.70668">
        <ele>135.68</ele>
        <time>2014-05-08T14:02:39Z</time>
      </trkpt>
      <trkpt lat="43.87059" lon="3.70671">
        <ele>137.13</ele>
        <time>2014-05-08T14:02:40Z</time>
      </trkpt>
      <trkpt lat="43.87092" lon="3.7066">
        <ele>138.09</ele>
        <time>2014-05-08T14:02:42Z</time>
      </trkpt>
      <trkpt lat="43.87106" lon="3.70647">
        <ele>137.61</ele>
        <time>2014-05-08T14:02:43Z</time>
      </trkpt>
      <trkpt lat="43.87116" lon="3.70631">
        <ele>137.13</ele>
        <time>2014-05-08T14:02:44Z</time>
      </trkpt>
      <trkpt lat="43.87124" lon="3.70613">
        <ele>136.64</ele>
        <time>2014-05-08T14:02:45Z</time>
      </trkpt>
      <trkpt lat="43.87131" lon="3.70596">
        <ele>136.64</ele>
        <time>2014-05-08T14:02:46Z</time>
      </trkpt>
      <trkpt lat="43.87136" lon="3.70578">
        <ele>136.16</ele>
        <time>2014-05-08T14:02:47Z</time>
      </trkpt>
      <trkpt lat="43.87143" lon="3.70563">
        <ele>136.16</ele>
        <time>2014-05-08T14:02:48Z</time>
      </trkpt>
      <trkpt lat="43.87155" lon="3.70554">
        <ele>135.68</ele>
        <time>2014-05-08T14:02:49Z</time>
      </trkpt>
      <trkpt lat="43.8717" lon="3.70552">
        <ele>135.2</ele>
        <time>2014-05-08T14:02:50Z</time>
      </trkpt>
      <trkpt lat="43.87188" lon="3.70552">
        <ele>135.68</ele>
        <time>2014-05-08T14:02:51Z</time>
      </trkpt>
      <trkpt lat="43.87208" lon="3.70555">
        <ele>134.72</ele>
        <time>2014-05-08T14:02:52Z</time>
      </trkpt>
      <trkpt lat="43.87229" lon="3.70557">
        <ele>133.76</ele>
        <time>2014-05-08T14:02:53Z</time>
      </trkpt>
      <trkpt lat="43.87424" lon="3.70583">
        <ele>131.36</ele>
        <time>2014-05-08T14:03:03Z</time>
      </trkpt>
      <trkpt lat="43.87438" lon="3.70595">
        <ele>131.84</ele>
        <time>2014-05-08T14:03:04Z</time>
      </trkpt>
      <trkpt lat="43.87476" lon="3.70604">
        <ele>130.88</ele>
        <time>2014-05-08T14:03:07Z</time>
      </trkpt>
      <trkpt lat="43.87492" lon="3.70598">
        <ele>132.32</ele>
        <time>2014-05-08T14:03:08Z</time>
      </trkpt>
      <trkpt lat="43.87509" lon="3.70587">
        <ele>131.84</ele>
        <time>2014-05-08T14:03:09Z</time>
      </trkpt>
      <trkpt lat="43.87522" lon="3.70574">
        <ele>131.84</ele>
        <time>2014-05-08T14:03:10Z</time>
      </trkpt>
      <trkpt lat="43.87539" lon="3.70561">
        <ele>131.36</ele>
        <time>2014-05-08T14:03:11Z</time>
      </trkpt>
      <trkpt lat="43.87661" lon="3.70477">
        <ele>134.72</ele>
        <time>2014-05-08T14:03:19Z</time>
      </trkpt>
      <trkpt lat="43.87733" lon="3.70393">
        <ele>134.72</ele>
        <time>2014-05-08T14:03:26Z</time>
      </trkpt>
      <trkpt lat="43.87745" lon="3.7037">
        <ele>136.16</ele>
        <time>2014-05-08T14:03:28Z</time>
      </trkpt>
      <trkpt lat="43.87751" lon="3.70358">
        <ele>136.64</ele>
        <time>2014-05-08T14:03:29Z</time>
      </trkpt>
      <trkpt lat="43.87755" lon="3.70346">
        <ele>136.64</ele>
        <time>2014-05-08T14:03:30Z</time>
      </trkpt>
      <trkpt lat="43.87758" lon="3.70334">
        <ele>136.64</ele>
        <time>2014-05-08T14:03:31Z</time>
      </trkpt>
      <trkpt lat="43.87759" lon="3.70322">
        <ele>136.64</ele>
        <time>2014-05-08T14:03:32Z</time>
      </trkpt>
      <trkpt lat="43.87761" lon="3.7031">
        <ele>136.16</ele>
        <time>2014-05-08T14:03:33Z</time>
      </trkpt>
      <trkpt lat="43.87767" lon="3.70265">
        <ele>135.2</ele>
        <time>2014-05-08T14:03:37Z</time>
      </trkpt>
      <trkpt lat="43.87777" lon="3.7023">
        <ele>134.72</ele>
        <time>2014-05-08T14:03:40Z</time>
      </trkpt>
      <trkpt lat="43.87784" lon="3.7022">
        <ele>134.72</ele>
        <time>2014-05-08T14:03:41Z</time>
      </trkpt>
      <trkpt lat="43.8779" lon="3.70212">
        <ele>135.2</ele>
        <time>2014-05-08T14:03:42Z</time>
      </trkpt>
      <trkpt lat="43.87798" lon="3.70204">
        <ele>135.68</ele>
        <time>2014-05-08T14:03:43Z</time>
      </trkpt>
      <trkpt lat="43.87805" lon="3.70197">
        <ele>135.68</ele>
        <time>2014-05-08T14:03:44Z</time>
      </trkpt>
      <trkpt lat="43.87813" lon="3.70191">
        <ele>135.68</ele>
        <time>2014-05-08T14:03:45Z</time>
      </trkpt>
      <trkpt lat="43.87822" lon="3.70186">
        <ele>136.16</ele>
        <time>2014-05-08T14:03:46Z</time>
      </trkpt>
      <trkpt lat="43.8783" lon="3.70184">
        <ele>137.13</ele>
        <time>2014-05-08T14:03:47Z</time>
      </trkpt>
      <trkpt lat="43.87839" lon="3.70183">
        <ele>138.09</ele>
        <time>2014-05-08T14:03:48Z</time>
      </trkpt>
      <trkpt lat="43.87849" lon="3.70183">
        <ele>138.09</ele>
        <time>2014-05-08T14:03:49Z</time>
      </trkpt>
      <trkpt lat="43.87885" lon="3.70182">
        <ele>138.57</ele>
        <time>2014-05-08T14:03:53Z</time>
      </trkpt>
      <trkpt lat="43.87894" lon="3.70185">
        <ele>138.09</ele>
        <time>2014-05-08T14:03:54Z</time>
      </trkpt>
      <trkpt lat="43.87904" lon="3.70189">
        <ele>138.57</ele>
        <time>2014-05-08T14:03:55Z</time>
      </trkpt>
      <trkpt lat="43.87912" lon="3.70194">
        <ele>138.57</ele>
        <time>2014-05-08T14:03:56Z</time>
      </trkpt>
      <trkpt lat="43.8792" lon="3.702">
        <ele>138.57</ele>
        <time>2014-05-08T14:03:57Z</time>
      </trkpt>
      <trkpt lat="43.87928" lon="3.70206">
        <ele>138.57</ele>
        <time>2014-05-08T14:03:58Z</time>
      </trkpt>
      <trkpt lat="43.87972" lon="3.70239">
        <ele>139.05</ele>
        <time>2014-05-08T14:04:03Z</time>
      </trkpt>
      <trkpt lat="43.87981" lon="3.70243">
        <ele>139.05</ele>
        <time>2014-05-08T14:04:04Z</time>
      </trkpt>
      <trkpt lat="43.8808" lon="3.70273">
        <ele>138.57</ele>
        <time>2014-05-08T14:04:13Z</time>
      </trkpt>
      <trkpt lat="43.88182" lon="3.70292">
        <ele>138.57</ele>
        <time>2014-05-08T14:04:20Z</time>
      </trkpt>
      <trkpt lat="43.88346" lon="3.7032">
        <ele>140.49</ele>
        <time>2014-05-08T14:04:30Z</time>
      </trkpt>
      <trkpt lat="43.8853" lon="3.70352">
        <ele>143.85</ele>
        <time>2014-05-08T14:04:38Z</time>
      </trkpt>
      <trkpt lat="43.88794" lon="3.70388">
        <ele>152.51</ele>
        <time>2014-05-08T14:04:50Z</time>
      </trkpt>
      <trkpt lat="43.89018" lon="3.70352">
        <ele>161.16</ele>
        <time>2014-05-08T14:05:00Z</time>
      </trkpt>
      <trkpt lat="43.89232" lon="3.70258">
        <ele>167.89</ele>
        <time>2014-05-08T14:05:09Z</time>
      </trkpt>
      <trkpt lat="43.89433" lon="3.70196">
        <ele>167.41</ele>
        <time>2014-05-08T14:05:16Z</time>
      </trkpt>
      <trkpt lat="43.89682" lon="3.70122">
        <ele>164.52</ele>
        <time>2014-05-08T14:05:23Z</time>
      </trkpt>
      <trkpt lat="43.90031" lon="3.70018">
        <ele>161.64</ele>
        <time>2014-05-08T14:05:33Z</time>
      </trkpt>
      <trkpt lat="43.90215" lon="3.69964">
        <ele>165.96</ele>
        <time>2014-05-08T14:05:39Z</time>
      </trkpt>
      <trkpt lat="43.90509" lon="3.69877">
        <ele>177.02</ele>
        <time>2014-05-08T14:05:49Z</time>
      </trkpt>
      <trkpt lat="43.90659" lon="3.69833">
        <ele>184.23</ele>
        <time>2014-05-08T14:05:56Z</time>
      </trkpt>
      <trkpt lat="43.90879" lon="3.69766">
        <ele>192.88</ele>
        <time>2014-05-08T14:06:06Z</time>
      </trkpt>
      <trkpt lat="43.91017" lon="3.69729">
        <ele>199.13</ele>
        <time>2014-05-08T14:06:13Z</time>
      </trkpt>
      <trkpt lat="43.91086" lon="3.69736">
        <ele>200.09</ele>
        <time>2014-05-08T14:06:17Z</time>
      </trkpt>
      <trkpt lat="43.91104" lon="3.69749">
        <ele>200.09</ele>
        <time>2014-05-08T14:06:18Z</time>
      </trkpt>
      <trkpt lat="43.91121" lon="3.69765">
        <ele>200.09</ele>
        <time>2014-05-08T14:06:19Z</time>
      </trkpt>
      <trkpt lat="43.91138" lon="3.69786">
        <ele>199.13</ele>
        <time>2014-05-08T14:06:20Z</time>
      </trkpt>
      <trkpt lat="43.91151" lon="3.6981">
        <ele>198.17</ele>
        <time>2014-05-08T14:06:21Z</time>
      </trkpt>
      <trkpt lat="43.91163" lon="3.69835">
        <ele>196.25</ele>
        <time>2014-05-08T14:06:22Z</time>
      </trkpt>
      <trkpt lat="43.91177" lon="3.6986">
        <ele>194.32</ele>
        <time>2014-05-08T14:06:23Z</time>
      </trkpt>
      <trkpt lat="43.91194" lon="3.69883">
        <ele>192.88</ele>
        <time>2014-05-08T14:06:24Z</time>
      </trkpt>
      <trkpt lat="43.91212" lon="3.69905">
        <ele>190.48</ele>
        <time>2014-05-08T14:06:25Z</time>
      </trkpt>
      <trkpt lat="43.91349" lon="3.70074">
        <ele>176.54</ele>
        <time>2014-05-08T14:06:33Z</time>
      </trkpt>
      <trkpt lat="43.91434" lon="3.70198">
        <ele>167.41</ele>
        <time>2014-05-08T14:06:39Z</time>
      </trkpt>
      <trkpt lat="43.91449" lon="3.70209">
        <ele>165.96</ele>
        <time>2014-05-08T14:06:40Z</time>
      </trkpt>
      <trkpt lat="43.91466" lon="3.70213">
        <ele>164.52</ele>
        <time>2014-05-08T14:06:41Z</time>
      </trkpt>
      <trkpt lat="43.91486" lon="3.70214">
        <ele>163.08</ele>
        <time>2014-05-08T14:06:42Z</time>
      </trkpt>
      <trkpt lat="43.91507" lon="3.70213">
        <ele>161.64</ele>
        <time>2014-05-08T14:06:43Z</time>
      </trkpt>
      <trkpt lat="43.91529" lon="3.70211">
        <ele>160.2</ele>
        <time>2014-05-08T14:06:44Z</time>
      </trkpt>
      <trkpt lat="43.91722" lon="3.70209">
        <ele>153.95</ele>
        <time>2014-05-08T14:06:53Z</time>
      </trkpt>
      <trkpt lat="43.91861" lon="3.70204">
        <ele>159.24</ele>
        <time>2014-05-08T14:07:02Z</time>
      </trkpt>
      <trkpt lat="43.91872" lon="3.70205">
        <ele>159.72</ele>
        <time>2014-05-08T14:07:03Z</time>
      </trkpt>
      <trkpt lat="43.91884" lon="3.70203">
        <ele>160.2</ele>
        <time>2014-05-08T14:07:04Z</time>
      </trkpt>
      <trkpt lat="43.91896" lon="3.70203">
        <ele>160.68</ele>
        <time>2014-05-08T14:07:05Z</time>
      </trkpt>
      <trkpt lat="43.9191" lon="3.70205">
        <ele>161.64</ele>
        <time>2014-05-08T14:07:06Z</time>
      </trkpt>
      <trkpt lat="43.91924" lon="3.70209">
        <ele>162.12</ele>
        <time>2014-05-08T14:07:07Z</time>
      </trkpt>
      <trkpt lat="43.91939" lon="3.70214">
        <ele>162.12</ele>
        <time>2014-05-08T14:07:08Z</time>
      </trkpt>
      <trkpt lat="43.92068" lon="3.70265">
        <ele>165.96</ele>
        <time>2014-05-08T14:07:18Z</time>
      </trkpt>
      <trkpt lat="43.92173" lon="3.70314">
        <ele>167.41</ele>
        <time>2014-05-08T14:07:28Z</time>
      </trkpt>
      <trkpt lat="43.92292" lon="3.70345">
        <ele>171.25</ele>
        <time>2014-05-08T14:07:39Z</time>
      </trkpt>
      <trkpt lat="43.92385" lon="3.70359">
        <ele>168.37</ele>
        <time>2014-05-08T14:07:47Z</time>
      </trkpt>
      <trkpt lat="43.9246" lon="3.70354">
        <ele>165.48</ele>
        <time>2014-05-08T14:07:54Z</time>
      </trkpt>
      <trkpt lat="43.92545" lon="3.70349">
        <ele>160.2</ele>
        <time>2014-05-08T14:08:02Z</time>
      </trkpt>
      <trkpt lat="43.92652" lon="3.70345">
        <ele>157.79</ele>
        <time>2014-05-08T14:08:13Z</time>
      </trkpt>
      <trkpt lat="43.92746" lon="3.70344">
        <ele>155.39</ele>
        <time>2014-05-08T14:08:23Z</time>
      </trkpt>
      <trkpt lat="43.93138" lon="3.70399">
        <ele>153.47</ele>
        <time>2014-05-08T14:09:16Z</time>
      </trkpt>
      <trkpt lat="43.93142" lon="3.70408">
        <ele>153.47</ele>
        <time>2014-05-08T14:09:17Z</time>
      </trkpt>
      <trkpt lat="43.93145" lon="3.70417">
        <ele>153.47</ele>
        <time>2014-05-08T14:09:18Z</time>
      </trkpt>
      <trkpt lat="43.93147" lon="3.70426">
        <ele>152.99</ele>
        <time>2014-05-08T14:09:19Z</time>
      </trkpt>
      <trkpt lat="43.93147" lon="3.70435">
        <ele>153.47</ele>
        <time>2014-05-08T14:09:20Z</time>
      </trkpt>
      <trkpt lat="43.9314" lon="3.70445">
        <ele>152.99</ele>
        <time>2014-05-08T14:09:21Z</time>
      </trkpt>
      <trkpt lat="43.93134" lon="3.70453">
        <ele>152.03</ele>
        <time>2014-05-08T14:09:22Z</time>
      </trkpt>
      <trkpt lat="43.93124" lon="3.70462">
        <ele>152.51</ele>
        <time>2014-05-08T14:09:23Z</time>
      </trkpt>
      <trkpt lat="43.93114" lon="3.70472">
        <ele>152.51</ele>
        <time>2014-05-08T14:09:24Z</time>
      </trkpt>
      <trkpt lat="43.93063" lon="3.70526">
        <ele>152.03</ele>
        <time>2014-05-08T14:09:30Z</time>
      </trkpt>
      <trkpt lat="43.93054" lon="3.70528">
        <ele>152.03</ele>
        <time>2014-05-08T14:09:31Z</time>
      </trkpt>
      <trkpt lat="43.93046" lon="3.70526">
        <ele>151.54</ele>
        <time>2014-05-08T14:09:32Z</time>
      </trkpt>
      <trkpt lat="43.93037" lon="3.70527">
        <ele>151.54</ele>
        <time>2014-05-08T14:09:33Z</time>
      </trkpt>
      <trkpt lat="43.9303" lon="3.70532">
        <ele>151.54</ele>
        <time>2014-05-08T14:09:34Z</time>
      </trkpt>
      <trkpt lat="43.93024" lon="3.70541">
        <ele>151.06</ele>
        <time>2014-05-08T14:09:35Z</time>
      </trkpt>
      <trkpt lat="43.93022" lon="3.70552">
        <ele>151.06</ele>
        <time>2014-05-08T14:09:36Z</time>
      </trkpt>
      <trkpt lat="43.93024" lon="3.70564">
        <ele>150.58</ele>
        <time>2014-05-08T14:09:37Z</time>
      </trkpt>
      <trkpt lat="43.93028" lon="3.70575">
        <ele>150.58</ele>
        <time>2014-05-08T14:09:38Z</time>
      </trkpt>
      <trkpt lat="43.93033" lon="3.70584">
        <ele>150.58</ele>
        <time>2014-05-08T14:09:39Z</time>
      </trkpt>
      <trkpt lat="43.93038" lon="3.70593">
        <ele>150.58</ele>
        <time>2014-05-08T14:09:40Z</time>
      </trkpt>
      <trkpt lat="43.9304" lon="3.70602">
        <ele>151.06</ele>
        <time>2014-05-08T14:09:41Z</time>
      </trkpt>
      <trkpt lat="43.9304" lon="3.70612">
        <ele>151.06</ele>
        <time>2014-05-08T14:09:42Z</time>
      </trkpt>
      <trkpt lat="43.93038" lon="3.70626">
        <ele>151.06</ele>
        <time>2014-05-08T14:09:43Z</time>
      </trkpt>
      <trkpt lat="43.93036" lon="3.70642">
        <ele>151.06</ele>
        <time>2014-05-08T14:09:44Z</time>
      </trkpt>
      <trkpt lat="43.93034" lon="3.7066">
        <ele>150.58</ele>
        <time>2014-05-08T14:09:45Z</time>
      </trkpt>
      <trkpt lat="43.93034" lon="3.70679">
        <ele>150.58</ele>
        <time>2014-05-08T14:09:46Z</time>
      </trkpt>
      <trkpt lat="43.93034" lon="3.70697">
        <ele>150.58</ele>
        <time>2014-05-08T14:09:47Z</time>
      </trkpt>
      <trkpt lat="43.93036" lon="3.70717">
        <ele>150.1</ele>
        <time>2014-05-08T14:09:48Z</time>
      </trkpt>
      <trkpt lat="43.9304" lon="3.70738">
        <ele>150.1</ele>
        <time>2014-05-08T14:09:49Z</time>
      </trkpt>
      <trkpt lat="43.93045" lon="3.70759">
        <ele>150.1</ele>
        <time>2014-05-08T14:09:50Z</time>
      </trkpt>
      <trkpt lat="43.93052" lon="3.7078">
        <ele>150.1</ele>
        <time>2014-05-08T14:09:51Z</time>
      </trkpt>
      <trkpt lat="43.93061" lon="3.70801">
        <ele>150.1</ele>
        <time>2014-05-08T14:09:52Z</time>
      </trkpt>
      <trkpt lat="43.93072" lon="3.7082">
        <ele>149.62</ele>
        <time>2014-05-08T14:09:53Z</time>
      </trkpt>
      <trkpt lat="43.93084" lon="3.70838">
        <ele>150.1</ele>
        <time>2014-05-08T14:09:54Z</time>
      </trkpt>
      <trkpt lat="43.93096" lon="3.70856">
        <ele>150.1</ele>
        <time>2014-05-08T14:09:55Z</time>
      </trkpt>
      <trkpt lat="43.93196" lon="3.71022">
        <ele>151.06</ele>
        <time>2014-05-08T14:10:05Z</time>
      </trkpt>
      <trkpt lat="43.93214" lon="3.7106">
        <ele>151.54</ele>
        <time>2014-05-08T14:10:08Z</time>
      </trkpt>
      <trkpt lat="43.93216" lon="3.71069">
        <ele>151.54</ele>
        <time>2014-05-08T14:10:09Z</time>
      </trkpt>
      <trkpt lat="43.93217" lon="3.71077">
        <ele>151.54</ele>
        <time>2014-05-08T14:10:10Z</time>
      </trkpt>
      <trkpt lat="43.93217" lon="3.71086">
        <ele>152.03</ele>
        <time>2014-05-08T14:10:11Z</time>
      </trkpt>
      <trkpt lat="43.93216" lon="3.71098">
        <ele>152.03</ele>
        <time>2014-05-08T14:10:12Z</time>
      </trkpt>
      <trkpt lat="43.93214" lon="3.7111">
        <ele>152.99</ele>
        <time>2014-05-08T14:10:13Z</time>
      </trkpt>
      <trkpt lat="43.93208" lon="3.71122">
        <ele>152.99</ele>
        <time>2014-05-08T14:10:14Z</time>
      </trkpt>
      <trkpt lat="43.93198" lon="3.71131">
        <ele>152.51</ele>
        <time>2014-05-08T14:10:15Z</time>
      </trkpt>
      <trkpt lat="43.93187" lon="3.71137">
        <ele>152.99</ele>
        <time>2014-05-08T14:10:16Z</time>
      </trkpt>
      <trkpt lat="43.93176" lon="3.71144">
        <ele>152.99</ele>
        <time>2014-05-08T14:10:17Z</time>
      </trkpt>
      <trkpt lat="43.93166" lon="3.71151">
        <ele>152.99</ele>
        <time>2014-05-08T14:10:18Z</time>
      </trkpt>
      <trkpt lat="43.93076" lon="3.71222">
        <ele>152.99</ele>
        <time>2014-05-08T14:10:28Z</time>
      </trkpt>
      <trkpt lat="43.92966" lon="3.71311">
        <ele>152.51</ele>
        <time>2014-05-08T14:10:38Z</time>
      </trkpt>
      <trkpt lat="43.92889" lon="3.71371">
        <ele>152.03</ele>
        <time>2014-05-08T14:10:46Z</time>
      </trkpt>
      <trkpt lat="43.92795" lon="3.71449">
        <ele>151.06</ele>
        <time>2014-05-08T14:10:54Z</time>
      </trkpt>
      <trkpt lat="43.92661" lon="3.71553">
        <ele>149.62</ele>
        <time>2014-05-08T14:11:05Z</time>
      </trkpt>
      <trkpt lat="43.92638" lon="3.71571">
        <ele>149.62</ele>
        <time>2014-05-08T14:11:08Z</time>
      </trkpt>
      <trkpt lat="43.92631" lon="3.71587">
        <ele>149.14</ele>
        <time>2014-05-08T14:11:09Z</time>
      </trkpt>
      <trkpt lat="43.92623" lon="3.71602">
        <ele>149.14</ele>
        <time>2014-05-08T14:11:10Z</time>
      </trkpt>
      <trkpt lat="43.92553" lon="3.71764">
        <ele>147.22</ele>
        <time>2014-05-08T14:11:20Z</time>
      </trkpt>
      <trkpt lat="43.92477" lon="3.72014">
        <ele>143.37</ele>
        <time>2014-05-08T14:11:33Z</time>
      </trkpt>
      <trkpt lat="43.92405" lon="3.72142">
        <ele>142.41</ele>
        <time>2014-05-08T14:11:42Z</time>
      </trkpt>
      <trkpt lat="43.92399" lon="3.72154">
        <ele>141.93</ele>
        <time>2014-05-08T14:11:43Z</time>
      </trkpt>
      <trkpt lat="43.92351" lon="3.72244">
        <ele>142.89</ele>
        <time>2014-05-08T14:11:50Z</time>
      </trkpt>
      <trkpt lat="43.92342" lon="3.72254">
        <ele>142.89</ele>
        <time>2014-05-08T14:11:51Z</time>
      </trkpt>
      <trkpt lat="43.92333" lon="3.72263">
        <ele>142.89</ele>
        <time>2014-05-08T14:11:52Z</time>
      </trkpt>
      <trkpt lat="43.92323" lon="3.72271">
        <ele>142.89</ele>
        <time>2014-05-08T14:11:53Z</time>
      </trkpt>
      <trkpt lat="43.92314" lon="3.72277">
        <ele>142.41</ele>
        <time>2014-05-08T14:11:54Z</time>
      </trkpt>
      <trkpt lat="43.92305" lon="3.72281">
        <ele>142.41</ele>
        <time>2014-05-08T14:11:55Z</time>
      </trkpt>
      <trkpt lat="43.92298" lon="3.72284">
        <ele>141.93</ele>
        <time>2014-05-08T14:11:56Z</time>
      </trkpt>
      <trkpt lat="43.92293" lon="3.72285">
        <ele>141.45</ele>
        <time>2014-05-08T14:11:57Z</time>
      </trkpt>
      <trkpt lat="43.92276" lon="3.72288">
        <ele>140.97</ele>
        <time>2014-05-08T14:12:05Z</time>
      </trkpt>
      <trkpt lat="43.92248" lon="3.72294">
        <ele>140.97</ele>
        <time>2014-05-08T14:12:11Z</time>
      </trkpt>
      <trkpt lat="43.92242" lon="3.72297">
        <ele>140.97</ele>
        <time>2014-05-08T14:12:12Z</time>
      </trkpt>
      <trkpt lat="43.92236" lon="3.72302">
        <ele>140.97</ele>
        <time>2014-05-08T14:12:13Z</time>
      </trkpt>
      <trkpt lat="43.92231" lon="3.72308">
        <ele>140.97</ele>
        <time>2014-05-08T14:12:14Z</time>
      </trkpt>
      <trkpt lat="43.92226" lon="3.72314">
        <ele>141.45</ele>
        <time>2014-05-08T14:12:15Z</time>
      </trkpt>
      <trkpt lat="43.92205" lon="3.72349">
        <ele>142.41</ele>
        <time>2014-05-08T14:12:20Z</time>
      </trkpt>
      <trkpt lat="43.92203" lon="3.72357">
        <ele>142.41</ele>
        <time>2014-05-08T14:12:21Z</time>
      </trkpt>
      <trkpt lat="43.92196" lon="3.7239">
        <ele>142.41</ele>
        <time>2014-05-08T14:12:25Z</time>
      </trkpt>
      <trkpt lat="43.92196" lon="3.72397">
        <ele>142.89</ele>
        <time>2014-05-08T14:12:26Z</time>
      </trkpt>
      <trkpt lat="43.92193" lon="3.7241">
        <ele>144.82</ele>
        <time>2014-05-08T14:12:29Z</time>
      </trkpt>
      <trkpt lat="43.92189" lon="3.72409">
        <ele>150.1</ele>
        <time>2014-05-08T14:12:42Z</time>
      </trkpt>
      <trkpt lat="43.9219" lon="3.72409">
        <ele>148.18</ele>
        <time>2014-05-08T14:12:46Z</time>
      </trkpt>
      <trkpt lat="43.92197" lon="3.72403">
        <ele>146.26</ele>
        <time>2014-05-08T14:38:38Z</time>
      </trkpt>
      <trkpt lat="43.92203" lon="3.72417">
        <ele>133.76</ele>
        <time>2014-05-08T14:39:08Z</time>
      </trkpt>
      <trkpt lat="43.92198" lon="3.72441">
        <ele>135.2</ele>
        <time>2014-05-08T14:39:17Z</time>
      </trkpt>
      <trkpt lat="43.92195" lon="3.72466">
        <ele>134.72</ele>
        <time>2014-05-08T14:39:26Z</time>
      </trkpt>
      <trkpt lat="43.92192" lon="3.72473">
        <ele>135.2</ele>
        <time>2014-05-08T14:39:27Z</time>
      </trkpt>
      <trkpt lat="43.9216" lon="3.72534">
        <ele>136.64</ele>
        <time>2014-05-08T14:39:35Z</time>
      </trkpt>
      <trkpt lat="43.92154" lon="3.72541">
        <ele>136.64</ele>
        <time>2014-05-08T14:39:36Z</time>
      </trkpt>
      <trkpt lat="43.92122" lon="3.72568">
        <ele>138.09</ele>
        <time>2014-05-08T14:39:40Z</time>
      </trkpt>
      <trkpt lat="43.92113" lon="3.72572">
        <ele>138.09</ele>
        <time>2014-05-08T14:39:41Z</time>
      </trkpt>
      <trkpt lat="43.92103" lon="3.72573">
        <ele>138.57</ele>
        <time>2014-05-08T14:39:42Z</time>
      </trkpt>
      <trkpt lat="43.92092" lon="3.72571">
        <ele>139.05</ele>
        <time>2014-05-08T14:39:43Z</time>
      </trkpt>
      <trkpt lat="43.92081" lon="3.72566">
        <ele>139.53</ele>
        <time>2014-05-08T14:39:44Z</time>
      </trkpt>
      <trkpt lat="43.92069" lon="3.72561">
        <ele>139.53</ele>
        <time>2014-05-08T14:39:45Z</time>
      </trkpt>
      <trkpt lat="43.92057" lon="3.72558">
        <ele>139.53</ele>
        <time>2014-05-08T14:39:46Z</time>
      </trkpt>
      <trkpt lat="43.92042" lon="3.7256">
        <ele>139.53</ele>
        <time>2014-05-08T14:39:47Z</time>
      </trkpt>
      <trkpt lat="43.92028" lon="3.72565">
        <ele>140.01</ele>
        <time>2014-05-08T14:39:48Z</time>
      </trkpt>
      <trkpt lat="43.92014" lon="3.72573">
        <ele>140.01</ele>
        <time>2014-05-08T14:39:49Z</time>
      </trkpt>
      <trkpt lat="43.92001" lon="3.72582">
        <ele>139.05</ele>
        <time>2014-05-08T14:39:50Z</time>
      </trkpt>
      <trkpt lat="43.91888" lon="3.72665">
        <ele>139.53</ele>
        <time>2014-05-08T14:39:59Z</time>
      </trkpt>
      <trkpt lat="43.91877" lon="3.7268">
        <ele>139.53</ele>
        <time>2014-05-08T14:40:00Z</time>
      </trkpt>
      <trkpt lat="43.91867" lon="3.72696">
        <ele>139.53</ele>
        <time>2014-05-08T14:40:01Z</time>
      </trkpt>
      <trkpt lat="43.91822" lon="3.72766">
        <ele>140.97</ele>
        <time>2014-05-08T14:40:05Z</time>
      </trkpt>
      <trkpt lat="43.91808" lon="3.7278">
        <ele>140.49</ele>
        <time>2014-05-08T14:40:06Z</time>
      </trkpt>
      <trkpt lat="43.91792" lon="3.72792">
        <ele>140.01</ele>
        <time>2014-05-08T14:40:07Z</time>
      </trkpt>
      <trkpt lat="43.91774" lon="3.728">
        <ele>140.97</ele>
        <time>2014-05-08T14:40:08Z</time>
      </trkpt>
      <trkpt lat="43.91756" lon="3.72804">
        <ele>140.97</ele>
        <time>2014-05-08T14:40:09Z</time>
      </trkpt>
      <trkpt lat="43.91737" lon="3.72802">
        <ele>140.97</ele>
        <time>2014-05-08T14:40:10Z</time>
      </trkpt>
      <trkpt lat="43.91719" lon="3.72797">
        <ele>140.49</ele>
        <time>2014-05-08T14:40:11Z</time>
      </trkpt>
      <trkpt lat="43.91701" lon="3.72791">
        <ele>141.45</ele>
        <time>2014-05-08T14:40:12Z</time>
      </trkpt>
      <trkpt lat="43.91606" lon="3.72768">
        <ele>142.41</ele>
        <time>2014-05-08T14:40:18Z</time>
      </trkpt>
      <trkpt lat="43.91592" lon="3.72771">
        <ele>142.41</ele>
        <time>2014-05-08T14:40:19Z</time>
      </trkpt>
      <trkpt lat="43.91578" lon="3.72777">
        <ele>142.41</ele>
        <time>2014-05-08T14:40:20Z</time>
      </trkpt>
      <trkpt lat="43.91568" lon="3.72789">
        <ele>141.45</ele>
        <time>2014-05-08T14:40:21Z</time>
      </trkpt>
      <trkpt lat="43.91562" lon="3.72804">
        <ele>140.97</ele>
        <time>2014-05-08T14:40:22Z</time>
      </trkpt>
      <trkpt lat="43.9156" lon="3.72821">
        <ele>140.97</ele>
        <time>2014-05-08T14:40:23Z</time>
      </trkpt>
      <trkpt lat="43.91562" lon="3.7284">
        <ele>141.45</ele>
        <time>2014-05-08T14:40:24Z</time>
      </trkpt>
      <trkpt lat="43.91569" lon="3.72861">
        <ele>141.93</ele>
        <time>2014-05-08T14:40:25Z</time>
      </trkpt>
      <trkpt lat="43.91579" lon="3.72882">
        <ele>141.45</ele>
        <time>2014-05-08T14:40:26Z</time>
      </trkpt>
      <trkpt lat="43.91592" lon="3.72905">
        <ele>140.97</ele>
        <time>2014-05-08T14:40:27Z</time>
      </trkpt>
      <trkpt lat="43.91606" lon="3.72932">
        <ele>141.45</ele>
        <time>2014-05-08T14:40:28Z</time>
      </trkpt>
      <trkpt lat="43.91615" lon="3.72956">
        <ele>141.45</ele>
        <time>2014-05-08T14:40:29Z</time>
      </trkpt>
      <trkpt lat="43.91681" lon="3.73208">
        <ele>141.45</ele>
        <time>2014-05-08T14:40:38Z</time>
      </trkpt>
      <trkpt lat="43.91685" lon="3.73268">
        <ele>140.97</ele>
        <time>2014-05-08T14:40:40Z</time>
      </trkpt>
      <trkpt lat="43.91683" lon="3.73299">
        <ele>141.45</ele>
        <time>2014-05-08T14:40:41Z</time>
      </trkpt>
      <trkpt lat="43.9168" lon="3.73328">
        <ele>141.93</ele>
        <time>2014-05-08T14:40:42Z</time>
      </trkpt>
      <trkpt lat="43.91676" lon="3.73357">
        <ele>141.45</ele>
        <time>2014-05-08T14:40:43Z</time>
      </trkpt>
      <trkpt lat="43.91671" lon="3.73386">
        <ele>141.45</ele>
        <time>2014-05-08T14:40:44Z</time>
      </trkpt>
      <trkpt lat="43.91664" lon="3.73415">
        <ele>141.45</ele>
        <time>2014-05-08T14:40:45Z</time>
      </trkpt>
      <trkpt lat="43.91653" lon="3.73443">
        <ele>140.49</ele>
        <time>2014-05-08T14:40:46Z</time>
      </trkpt>
      <trkpt lat="43.91641" lon="3.73473">
        <ele>139.05</ele>
        <time>2014-05-08T14:40:47Z</time>
      </trkpt>
      <trkpt lat="43.91629" lon="3.73502">
        <ele>139.05</ele>
        <time>2014-05-08T14:40:48Z</time>
      </trkpt>
      <trkpt lat="43.91525" lon="3.7371">
        <ele>137.13</ele>
        <time>2014-05-08T14:40:56Z</time>
      </trkpt>
      <trkpt lat="43.91428" lon="3.73811">
        <ele>144.34</ele>
        <time>2014-05-08T14:41:03Z</time>
      </trkpt>
      <trkpt lat="43.91411" lon="3.73817">
        <ele>146.74</ele>
        <time>2014-05-08T14:41:04Z</time>
      </trkpt>
      <trkpt lat="43.91392" lon="3.73819">
        <ele>148.18</ele>
        <time>2014-05-08T14:41:05Z</time>
      </trkpt>
      <trkpt lat="43.91374" lon="3.73819">
        <ele>149.62</ele>
        <time>2014-05-08T14:41:06Z</time>
      </trkpt>
      <trkpt lat="43.91356" lon="3.73818">
        <ele>150.58</ele>
        <time>2014-05-08T14:41:07Z</time>
      </trkpt>
      <trkpt lat="43.91341" lon="3.73815">
        <ele>151.06</ele>
        <time>2014-05-08T14:41:08Z</time>
      </trkpt>
      <trkpt lat="43.91326" lon="3.73808">
        <ele>151.54</ele>
        <time>2014-05-08T14:41:09Z</time>
      </trkpt>
      <trkpt lat="43.91312" lon="3.73799">
        <ele>151.54</ele>
        <time>2014-05-08T14:41:10Z</time>
      </trkpt>
      <trkpt lat="43.91298" lon="3.73788">
        <ele>151.54</ele>
        <time>2014-05-08T14:41:11Z</time>
      </trkpt>
      <trkpt lat="43.91283" lon="3.73775">
        <ele>151.54</ele>
        <time>2014-05-08T14:41:12Z</time>
      </trkpt>
      <trkpt lat="43.9118" lon="3.7368">
        <ele>149.62</ele>
        <time>2014-05-08T14:41:18Z</time>
      </trkpt>
      <trkpt lat="43.91158" lon="3.7367">
        <ele>146.74</ele>
        <time>2014-05-08T14:41:19Z</time>
      </trkpt>
      <trkpt lat="43.91137" lon="3.73662">
        <ele>144.82</ele>
        <time>2014-05-08T14:41:20Z</time>
      </trkpt>
      <trkpt lat="43.91072" lon="3.73649">
        <ele>141.45</ele>
        <time>2014-05-08T14:41:23Z</time>
      </trkpt>
      <trkpt lat="43.9105" lon="3.73649">
        <ele>140.97</ele>
        <time>2014-05-08T14:41:24Z</time>
      </trkpt>
      <trkpt lat="43.91029" lon="3.73653">
        <ele>140.01</ele>
        <time>2014-05-08T14:41:25Z</time>
      </trkpt>
      <trkpt lat="43.91009" lon="3.7366">
        <ele>139.53</ele>
        <time>2014-05-08T14:41:26Z</time>
      </trkpt>
      <trkpt lat="43.90989" lon="3.7367">
        <ele>139.53</ele>
        <time>2014-05-08T14:41:27Z</time>
      </trkpt>
      <trkpt lat="43.90969" lon="3.73684">
        <ele>139.05</ele>
        <time>2014-05-08T14:41:28Z</time>
      </trkpt>
      <trkpt lat="43.90949" lon="3.73699">
        <ele>138.57</ele>
        <time>2014-05-08T14:41:29Z</time>
      </trkpt>
      <trkpt lat="43.9093" lon="3.73715">
        <ele>138.09</ele>
        <time>2014-05-08T14:41:30Z</time>
      </trkpt>
      <trkpt lat="43.90849" lon="3.73772">
        <ele>138.09</ele>
        <time>2014-05-08T14:41:34Z</time>
      </trkpt>
      <trkpt lat="43.90829" lon="3.73779">
        <ele>137.61</ele>
        <time>2014-05-08T14:41:35Z</time>
      </trkpt>
      <trkpt lat="43.90809" lon="3.73781">
        <ele>137.13</ele>
        <time>2014-05-08T14:41:36Z</time>
      </trkpt>
      <trkpt lat="43.90787" lon="3.73778">
        <ele>136.64</ele>
        <time>2014-05-08T14:41:37Z</time>
      </trkpt>
      <trkpt lat="43.90765" lon="3.73774">
        <ele>136.64</ele>
        <time>2014-05-08T14:41:38Z</time>
      </trkpt>
      <trkpt lat="43.90565" lon="3.73764">
        <ele>139.53</ele>
        <time>2014-05-08T14:41:47Z</time>
      </trkpt>
      <trkpt lat="43.90414" lon="3.73804">
        <ele>140.49</ele>
        <time>2014-05-08T14:41:55Z</time>
      </trkpt>
      <trkpt lat="43.90378" lon="3.73806">
        <ele>140.49</ele>
        <time>2014-05-08T14:41:58Z</time>
      </trkpt>
      <trkpt lat="43.90368" lon="3.73805">
        <ele>140.01</ele>
        <time>2014-05-08T14:41:59Z</time>
      </trkpt>
      <trkpt lat="43.90265" lon="3.73779">
        <ele>136.64</ele>
        <time>2014-05-08T14:42:07Z</time>
      </trkpt>
      <trkpt lat="43.90134" lon="3.73741">
        <ele>135.2</ele>
        <time>2014-05-08T14:42:16Z</time>
      </trkpt>
      <trkpt lat="43.89982" lon="3.73701">
        <ele>131.36</ele>
        <time>2014-05-08T14:42:27Z</time>
      </trkpt>
      <trkpt lat="43.89869" lon="3.73673">
        <ele>134.24</ele>
        <time>2014-05-08T14:42:36Z</time>
      </trkpt>
      <trkpt lat="43.89857" lon="3.73674">
        <ele>134.24</ele>
        <time>2014-05-08T14:42:37Z</time>
      </trkpt>
      <trkpt lat="43.89844" lon="3.73677">
        <ele>134.72</ele>
        <time>2014-05-08T14:42:38Z</time>
      </trkpt>
      <trkpt lat="43.89801" lon="3.73693">
        <ele>133.28</ele>
        <time>2014-05-08T14:42:44Z</time>
      </trkpt>
      <trkpt lat="43.89757" lon="3.73707">
        <ele>133.28</ele>
        <time>2014-05-08T14:42:54Z</time>
      </trkpt>
      <trkpt lat="43.89675" lon="3.73736">
        <ele>131.36</ele>
        <time>2014-05-08T14:43:03Z</time>
      </trkpt>
      <trkpt lat="43.89563" lon="3.73772">
        <ele>133.76</ele>
        <time>2014-05-08T14:43:16Z</time>
      </trkpt>
      <trkpt lat="43.89444" lon="3.73815">
        <ele>130.4</ele>
        <time>2014-05-08T14:43:27Z</time>
      </trkpt>
      <trkpt lat="43.894" lon="3.73827">
        <ele>131.36</ele>
        <time>2014-05-08T14:43:31Z</time>
      </trkpt>
      <trkpt lat="43.89331" lon="3.73846">
        <ele>133.28</ele>
        <time>2014-05-08T14:43:39Z</time>
      </trkpt>
      <trkpt lat="43.8923" lon="3.73874">
        <ele>132.32</ele>
        <time>2014-05-08T14:43:49Z</time>
      </trkpt>
      <trkpt lat="43.89167" lon="3.73894">
        <ele>132.32</ele>
        <time>2014-05-08T14:43:57Z</time>
      </trkpt>
      <trkpt lat="43.89035" lon="3.73935">
        <ele>130.88</ele>
        <time>2014-05-08T14:44:11Z</time>
      </trkpt>
      <trkpt lat="43.88964" lon="3.73957">
        <ele>130.88</ele>
        <time>2014-05-08T14:44:18Z</time>
      </trkpt>
      <trkpt lat="43.88956" lon="3.73957">
        <ele>130.88</ele>
        <time>2014-05-08T14:44:19Z</time>
      </trkpt>
      <trkpt lat="43.88948" lon="3.73954">
        <ele>131.36</ele>
        <time>2014-05-08T14:44:20Z</time>
      </trkpt>
      <trkpt lat="43.88936" lon="3.73947">
        <ele>131.36</ele>
        <time>2014-05-08T14:44:22Z</time>
      </trkpt>
      <trkpt lat="43.8893" lon="3.73947">
        <ele>131.36</ele>
        <time>2014-05-08T14:44:23Z</time>
      </trkpt>
      <trkpt lat="43.88925" lon="3.73953">
        <ele>131.84</ele>
        <time>2014-05-08T14:44:24Z</time>
      </trkpt>
      <trkpt lat="43.88919" lon="3.73961">
        <ele>131.84</ele>
        <time>2014-05-08T14:44:25Z</time>
      </trkpt>
      <trkpt lat="43.88913" lon="3.73971">
        <ele>132.32</ele>
        <time>2014-05-08T14:44:26Z</time>
      </trkpt>
      <trkpt lat="43.88904" lon="3.73981">
        <ele>132.32</ele>
        <time>2014-05-08T14:44:27Z</time>
      </trkpt>
      <trkpt lat="43.88894" lon="3.73989">
        <ele>132.32</ele>
        <time>2014-05-08T14:44:28Z</time>
      </trkpt>
      <trkpt lat="43.88882" lon="3.73996">
        <ele>132.32</ele>
        <time>2014-05-08T14:44:29Z</time>
      </trkpt>
      <trkpt lat="43.8887" lon="3.74003">
        <ele>132.8</ele>
        <time>2014-05-08T14:44:30Z</time>
      </trkpt>
      <trkpt lat="43.88724" lon="3.74061">
        <ele>137.61</ele>
        <time>2014-05-08T14:44:41Z</time>
      </trkpt>
      <trkpt lat="43.8859" lon="3.74048">
        <ele>142.89</ele>
        <time>2014-05-08T14:44:49Z</time>
      </trkpt>
      <trkpt lat="43.88437" lon="3.74065">
        <ele>149.14</ele>
        <time>2014-05-08T14:44:58Z</time>
      </trkpt>
      <trkpt lat="43.8834" lon="3.74145">
        <ele>153.95</ele>
        <time>2014-05-08T14:45:04Z</time>
      </trkpt>
      <trkpt lat="43.88262" lon="3.74275">
        <ele>158.27</ele>
        <time>2014-05-08T14:45:11Z</time>
      </trkpt>
      <trkpt lat="43.88157" lon="3.74412">
        <ele>163.08</ele>
        <time>2014-05-08T14:45:19Z</time>
      </trkpt>
      <trkpt lat="43.88031" lon="3.74482">
        <ele>165.96</ele>
        <time>2014-05-08T14:45:26Z</time>
      </trkpt>
      <trkpt lat="43.87899" lon="3.74497">
        <ele>169.33</ele>
        <time>2014-05-08T14:45:33Z</time>
      </trkpt>
      <trkpt lat="43.87881" lon="3.74491">
        <ele>170.29</ele>
        <time>2014-05-08T14:45:34Z</time>
      </trkpt>
      <trkpt lat="43.87864" lon="3.74483">
        <ele>171.25</ele>
        <time>2014-05-08T14:45:35Z</time>
      </trkpt>
      <trkpt lat="43.87847" lon="3.74471">
        <ele>172.69</ele>
        <time>2014-05-08T14:45:36Z</time>
      </trkpt>
      <trkpt lat="43.87831" lon="3.74457">
        <ele>173.66</ele>
        <time>2014-05-08T14:45:37Z</time>
      </trkpt>
      <trkpt lat="43.87816" lon="3.7444">
        <ele>174.62</ele>
        <time>2014-05-08T14:45:38Z</time>
      </trkpt>
      <trkpt lat="43.87803" lon="3.74421">
        <ele>175.58</ele>
        <time>2014-05-08T14:45:39Z</time>
      </trkpt>
      <trkpt lat="43.8779" lon="3.744">
        <ele>176.06</ele>
        <time>2014-05-08T14:45:40Z</time>
      </trkpt>
      <trkpt lat="43.87779" lon="3.74379">
        <ele>176.54</ele>
        <time>2014-05-08T14:45:41Z</time>
      </trkpt>
      <trkpt lat="43.87769" lon="3.74357">
        <ele>177.5</ele>
        <time>2014-05-08T14:45:42Z</time>
      </trkpt>
      <trkpt lat="43.87698" lon="3.74242">
        <ele>179.9</ele>
        <time>2014-05-08T14:45:47Z</time>
      </trkpt>
      <trkpt lat="43.87679" lon="3.74223">
        <ele>180.87</ele>
        <time>2014-05-08T14:45:48Z</time>
      </trkpt>
      <trkpt lat="43.87658" lon="3.74208">
        <ele>181.35</ele>
        <time>2014-05-08T14:45:49Z</time>
      </trkpt>
      <trkpt lat="43.87635" lon="3.74196">
        <ele>181.35</ele>
        <time>2014-05-08T14:45:50Z</time>
      </trkpt>
      <trkpt lat="43.87611" lon="3.74188">
        <ele>181.83</ele>
        <time>2014-05-08T14:45:51Z</time>
      </trkpt>
      <trkpt lat="43.87588" lon="3.74183">
        <ele>182.79</ele>
        <time>2014-05-08T14:45:52Z</time>
      </trkpt>
      <trkpt lat="43.87566" lon="3.74182">
        <ele>183.75</ele>
        <time>2014-05-08T14:45:53Z</time>
      </trkpt>
      <trkpt lat="43.87544" lon="3.74184">
        <ele>184.71</ele>
        <time>2014-05-08T14:45:54Z</time>
      </trkpt>
      <trkpt lat="43.87523" lon="3.74189">
        <ele>185.19</ele>
        <time>2014-05-08T14:45:55Z</time>
      </trkpt>
      <trkpt lat="43.87501" lon="3.74196">
        <ele>185.19</ele>
        <time>2014-05-08T14:45:56Z</time>
      </trkpt>
      <trkpt lat="43.87302" lon="3.74246">
        <ele>185.19</ele>
        <time>2014-05-08T14:46:06Z</time>
      </trkpt>
      <trkpt lat="43.87108" lon="3.7423">
        <ele>190.96</ele>
        <time>2014-05-08T14:46:16Z</time>
      </trkpt>
      <trkpt lat="43.86942" lon="3.74168">
        <ele>198.17</ele>
        <time>2014-05-08T14:46:24Z</time>
      </trkpt>
      <trkpt lat="43.86793" lon="3.74072">
        <ele>205.38</ele>
        <time>2014-05-08T14:46:32Z</time>
      </trkpt>
      <trkpt lat="43.86666" lon="3.74032">
        <ele>208.74</ele>
        <time>2014-05-08T14:46:39Z</time>
      </trkpt>
      <trkpt lat="43.86548" lon="3.74073">
        <ele>209.22</ele>
        <time>2014-05-08T14:46:46Z</time>
      </trkpt>
      <trkpt lat="43.86393" lon="3.74182">
        <ele>214.51</ele>
        <time>2014-05-08T14:46:55Z</time>
      </trkpt>
      <trkpt lat="43.86276" lon="3.74274">
        <ele>218.36</ele>
        <time>2014-05-08T14:47:01Z</time>
      </trkpt>
      <trkpt lat="43.86163" lon="3.74316">
        <ele>224.12</ele>
        <time>2014-05-08T14:47:05Z</time>
      </trkpt>
      <trkpt lat="43.86132" lon="3.74317">
        <ele>226.05</ele>
        <time>2014-05-08T14:47:06Z</time>
      </trkpt>
      <trkpt lat="43.86102" lon="3.74309">
        <ele>227.97</ele>
        <time>2014-05-08T14:47:07Z</time>
      </trkpt>
      <trkpt lat="43.8607" lon="3.74297">
        <ele>229.89</ele>
        <time>2014-05-08T14:47:08Z</time>
      </trkpt>
      <trkpt lat="43.86039" lon="3.7428">
        <ele>231.81</ele>
        <time>2014-05-08T14:47:09Z</time>
      </trkpt>
      <trkpt lat="43.86009" lon="3.74258">
        <ele>234.7</ele>
        <time>2014-05-08T14:47:10Z</time>
      </trkpt>
      <trkpt lat="43.85979" lon="3.74237">
        <ele>238.06</ele>
        <time>2014-05-08T14:47:11Z</time>
      </trkpt>
      <trkpt lat="43.85824" lon="3.74176">
        <ele>254.89</ele>
        <time>2014-05-08T14:47:16Z</time>
      </trkpt>
      <trkpt lat="43.85792" lon="3.74175">
        <ele>258.25</ele>
        <time>2014-05-08T14:47:17Z</time>
      </trkpt>
      <trkpt lat="43.8576" lon="3.74178">
        <ele>261.14</ele>
        <time>2014-05-08T14:47:18Z</time>
      </trkpt>
      <trkpt lat="43.85728" lon="3.74184">
        <ele>264.02</ele>
        <time>2014-05-08T14:47:19Z</time>
      </trkpt>
      <trkpt lat="43.85696" lon="3.74191">
        <ele>267.38</ele>
        <time>2014-05-08T14:47:20Z</time>
      </trkpt>
      <trkpt lat="43.85447" lon="3.74214">
        <ele>289.01</ele>
        <time>2014-05-08T14:47:28Z</time>
      </trkpt>
      <trkpt lat="43.8534" lon="3.74192">
        <ele>301.51</ele>
        <time>2014-05-08T14:47:33Z</time>
      </trkpt>
      <trkpt lat="43.85182" lon="3.74116">
        <ele>315.93</ele>
        <time>2014-05-08T14:47:40Z</time>
      </trkpt>
      <trkpt lat="43.84963" lon="3.74002">
        <ele>327.47</ele>
        <time>2014-05-08T14:47:49Z</time>
      </trkpt>
      <trkpt lat="43.84841" lon="3.73986">
        <ele>324.1</ele>
        <time>2014-05-08T14:47:55Z</time>
      </trkpt>
      <trkpt lat="43.84707" lon="3.74037">
        <ele>311.6</ele>
        <time>2014-05-08T14:48:02Z</time>
      </trkpt>
      <trkpt lat="43.84407" lon="3.74203">
        <ele>288.53</ele>
        <time>2014-05-08T14:48:18Z</time>
      </trkpt>
      <trkpt lat="43.84155" lon="3.74339">
        <ele>268.35</ele>
        <time>2014-05-08T14:48:31Z</time>
      </trkpt>
      <trkpt lat="43.83955" lon="3.74425">
        <ele>252.48</ele>
        <time>2014-05-08T14:48:41Z</time>
      </trkpt>
      <trkpt lat="43.83815" lon="3.74418">
        <ele>244.79</ele>
        <time>2014-05-08T14:48:48Z</time>
      </trkpt>
      <trkpt lat="43.8369" lon="3.74357">
        <ele>240.95</ele>
        <time>2014-05-08T14:48:56Z</time>
      </trkpt>
      <trkpt lat="43.83676" lon="3.7435">
        <ele>240.47</ele>
        <time>2014-05-08T14:48:58Z</time>
      </trkpt>
      <trkpt lat="43.8367" lon="3.74355">
        <ele>239.99</ele>
        <time>2014-05-08T14:48:59Z</time>
      </trkpt>
      <trkpt lat="43.83664" lon="3.74365">
        <ele>240.47</ele>
        <time>2014-05-08T14:49:00Z</time>
      </trkpt>
      <trkpt lat="43.83659" lon="3.74377">
        <ele>240.47</ele>
        <time>2014-05-08T14:49:01Z</time>
      </trkpt>
      <trkpt lat="43.83655" lon="3.74396">
        <ele>239.99</ele>
        <time>2014-05-08T14:49:02Z</time>
      </trkpt>
      <trkpt lat="43.8365" lon="3.74419">
        <ele>239.51</ele>
        <time>2014-05-08T14:49:03Z</time>
      </trkpt>
      <trkpt lat="43.83643" lon="3.74447">
        <ele>238.54</ele>
        <time>2014-05-08T14:49:04Z</time>
      </trkpt>
      <trkpt lat="43.83577" lon="3.7467">
        <ele>230.37</ele>
        <time>2014-05-08T14:49:12Z</time>
      </trkpt>
      <trkpt lat="43.83486" lon="3.7497">
        <ele>223.16</ele>
        <time>2014-05-08T14:49:21Z</time>
      </trkpt>
      <trkpt lat="43.83284" lon="3.75628">
        <ele>204.9</ele>
        <time>2014-05-08T14:49:38Z</time>
      </trkpt>
      <trkpt lat="43.83226" lon="3.75801">
        <ele>198.65</ele>
        <time>2014-05-08T14:49:44Z</time>
      </trkpt>
      <trkpt lat="43.83211" lon="3.75816">
        <ele>197.21</ele>
        <time>2014-05-08T14:49:45Z</time>
      </trkpt>
      <trkpt lat="43.83191" lon="3.75828">
        <ele>195.77</ele>
        <time>2014-05-08T14:49:46Z</time>
      </trkpt>
      <trkpt lat="43.83168" lon="3.75839">
        <ele>194.8</ele>
        <time>2014-05-08T14:49:47Z</time>
      </trkpt>
      <trkpt lat="43.83144" lon="3.75849">
        <ele>194.8</ele>
        <time>2014-05-08T14:49:48Z</time>
      </trkpt>
      <trkpt lat="43.83116" lon="3.75862">
        <ele>194.8</ele>
        <time>2014-05-08T14:49:49Z</time>
      </trkpt>
      <trkpt lat="43.82988" lon="3.75971">
        <ele>193.84</ele>
        <time>2014-05-08T14:49:54Z</time>
      </trkpt>
      <trkpt lat="43.82885" lon="3.76086">
        <ele>192.4</ele>
        <time>2014-05-08T14:49:59Z</time>
      </trkpt>
      <trkpt lat="43.82872" lon="3.76115">
        <ele>191.92</ele>
        <time>2014-05-08T14:50:00Z</time>
      </trkpt>
      <trkpt lat="43.82861" lon="3.76146">
        <ele>191.92</ele>
        <time>2014-05-08T14:50:01Z</time>
      </trkpt>
      <trkpt lat="43.82839" lon="3.7623">
        <ele>190</ele>
        <time>2014-05-08T14:50:04Z</time>
      </trkpt>
      <trkpt lat="43.82835" lon="3.76256">
        <ele>189.04</ele>
        <time>2014-05-08T14:50:05Z</time>
      </trkpt>
      <trkpt lat="43.82833" lon="3.76283">
        <ele>188.56</ele>
        <time>2014-05-08T14:50:06Z</time>
      </trkpt>
      <trkpt lat="43.82833" lon="3.76308">
        <ele>188.08</ele>
        <time>2014-05-08T14:50:07Z</time>
      </trkpt>
      <trkpt lat="43.82834" lon="3.76333">
        <ele>187.59</ele>
        <time>2014-05-08T14:50:08Z</time>
      </trkpt>
      <trkpt lat="43.82832" lon="3.76377">
        <ele>186.63</ele>
        <time>2014-05-08T14:50:10Z</time>
      </trkpt>
      <trkpt lat="43.82829" lon="3.76397">
        <ele>186.15</ele>
        <time>2014-05-08T14:50:11Z</time>
      </trkpt>
      <trkpt lat="43.82824" lon="3.76416">
        <ele>185.67</ele>
        <time>2014-05-08T14:50:12Z</time>
      </trkpt>
      <trkpt lat="43.82817" lon="3.76433">
        <ele>185.19</ele>
        <time>2014-05-08T14:50:13Z</time>
      </trkpt>
      <trkpt lat="43.82809" lon="3.76446">
        <ele>184.71</ele>
        <time>2014-05-08T14:50:14Z</time>
      </trkpt>
      <trkpt lat="43.82801" lon="3.76459">
        <ele>184.71</ele>
        <time>2014-05-08T14:50:15Z</time>
      </trkpt>
      <trkpt lat="43.82734" lon="3.76567">
        <ele>185.19</ele>
        <time>2014-05-08T14:50:22Z</time>
      </trkpt>
      <trkpt lat="43.82725" lon="3.76586">
        <ele>185.19</ele>
        <time>2014-05-08T14:50:23Z</time>
      </trkpt>
      <trkpt lat="43.82717" lon="3.76606">
        <ele>185.67</ele>
        <time>2014-05-08T14:50:24Z</time>
      </trkpt>
      <trkpt lat="43.8271" lon="3.76629">
        <ele>186.15</ele>
        <time>2014-05-08T14:50:25Z</time>
      </trkpt>
      <trkpt lat="43.82704" lon="3.76653">
        <ele>186.63</ele>
        <time>2014-05-08T14:50:26Z</time>
      </trkpt>
      <trkpt lat="43.82698" lon="3.76677">
        <ele>187.59</ele>
        <time>2014-05-08T14:50:27Z</time>
      </trkpt>
      <trkpt lat="43.82687" lon="3.76744">
        <ele>189.52</ele>
        <time>2014-05-08T14:50:30Z</time>
      </trkpt>
      <trkpt lat="43.82689" lon="3.76769">
        <ele>190</ele>
        <time>2014-05-08T14:50:31Z</time>
      </trkpt>
      <trkpt lat="43.82692" lon="3.76795">
        <ele>190.48</ele>
        <time>2014-05-08T14:50:32Z</time>
      </trkpt>
      <trkpt lat="43.82697" lon="3.76824">
        <ele>191.44</ele>
        <time>2014-05-08T14:50:33Z</time>
      </trkpt>
      <trkpt lat="43.82703" lon="3.76854">
        <ele>192.4</ele>
        <time>2014-05-08T14:50:34Z</time>
      </trkpt>
      <trkpt lat="43.82709" lon="3.76882">
        <ele>192.88</ele>
        <time>2014-05-08T14:50:35Z</time>
      </trkpt>
      <trkpt lat="43.82723" lon="3.76983">
        <ele>195.77</ele>
        <time>2014-05-08T14:50:39Z</time>
      </trkpt>
      <trkpt lat="43.82722" lon="3.77006">
        <ele>195.77</ele>
        <time>2014-05-08T14:50:40Z</time>
      </trkpt>
      <trkpt lat="43.8271" lon="3.77161">
        <ele>193.36</ele>
        <time>2014-05-08T14:50:48Z</time>
      </trkpt>
      <trkpt lat="43.82698" lon="3.77212">
        <ele>193.84</ele>
        <time>2014-05-08T14:50:51Z</time>
      </trkpt>
      <trkpt lat="43.82648" lon="3.77398">
        <ele>193.36</ele>
        <time>2014-05-08T14:51:01Z</time>
      </trkpt>
      <trkpt lat="43.82632" lon="3.77522">
        <ele>192.88</ele>
        <time>2014-05-08T14:51:10Z</time>
      </trkpt>
      <trkpt lat="43.82631" lon="3.77531">
        <ele>192.4</ele>
        <time>2014-05-08T14:51:15Z</time>
      </trkpt>
      <trkpt lat="43.82624" lon="3.77607">
        <ele>193.36</ele>
        <time>2014-05-08T14:51:21Z</time>
      </trkpt>
      <trkpt lat="43.82624" lon="3.77649">
        <ele>194.8</ele>
        <time>2014-05-08T14:51:24Z</time>
      </trkpt>
      <trkpt lat="43.82625" lon="3.77662">
        <ele>195.77</ele>
        <time>2014-05-08T14:51:25Z</time>
      </trkpt>
      <trkpt lat="43.82627" lon="3.77673">
        <ele>195.77</ele>
        <time>2014-05-08T14:51:26Z</time>
      </trkpt>
      <trkpt lat="43.82646" lon="3.77743">
        <ele>198.65</ele>
        <time>2014-05-08T14:51:33Z</time>
      </trkpt>
      <trkpt lat="43.82644" lon="3.77748">
        <ele>199.13</ele>
        <time>2014-05-08T14:51:34Z</time>
      </trkpt>
      <trkpt lat="43.82639" lon="3.77751">
        <ele>199.61</ele>
        <time>2014-05-08T14:51:35Z</time>
      </trkpt>
      <trkpt lat="43.82631" lon="3.77753">
        <ele>199.61</ele>
        <time>2014-05-08T14:51:36Z</time>
      </trkpt>
      <trkpt lat="43.82623" lon="3.77756">
        <ele>199.13</ele>
        <time>2014-05-08T14:51:37Z</time>
      </trkpt>
      <trkpt lat="43.82616" lon="3.7776">
        <ele>198.65</ele>
        <time>2014-05-08T14:51:38Z</time>
      </trkpt>
      <trkpt lat="43.82583" lon="3.77783">
        <ele>197.21</ele>
        <time>2014-05-08T14:51:43Z</time>
      </trkpt>
      <trkpt lat="43.8256" lon="3.77794">
        <ele>194.32</ele>
        <time>2014-05-08T14:51:47Z</time>
      </trkpt>
      <trkpt lat="43.82509" lon="3.77809">
        <ele>190.48</ele>
        <time>2014-05-08T14:51:53Z</time>
      </trkpt>
      <trkpt lat="43.8242" lon="3.77836">
        <ele>185.19</ele>
        <time>2014-05-08T14:52:01Z</time>
      </trkpt>
      <trkpt lat="43.82294" lon="3.77874">
        <ele>185.19</ele>
        <time>2014-05-08T14:52:08Z</time>
      </trkpt>
      <trkpt lat="43.82093" lon="3.77936">
        <ele>188.56</ele>
        <time>2014-05-08T14:52:16Z</time>
      </trkpt>
      <trkpt lat="43.81826" lon="3.78019">
        <ele>186.63</ele>
        <time>2014-05-08T14:52:26Z</time>
      </trkpt>
      <trkpt lat="43.81656" lon="3.78065">
        <ele>194.8</ele>
        <time>2014-05-08T14:52:34Z</time>
      </trkpt>
      <trkpt lat="43.81644" lon="3.7806">
        <ele>195.77</ele>
        <time>2014-05-08T14:52:35Z</time>
      </trkpt>
      <trkpt lat="43.81634" lon="3.78049">
        <ele>196.73</ele>
        <time>2014-05-08T14:52:36Z</time>
      </trkpt>
      <trkpt lat="43.81625" lon="3.78034">
        <ele>197.69</ele>
        <time>2014-05-08T14:52:37Z</time>
      </trkpt>
      <trkpt lat="43.81616" lon="3.78019">
        <ele>198.17</ele>
        <time>2014-05-08T14:52:38Z</time>
      </trkpt>
      <trkpt lat="43.81606" lon="3.78006">
        <ele>199.13</ele>
        <time>2014-05-08T14:52:39Z</time>
      </trkpt>
      <trkpt lat="43.81594" lon="3.77998">
        <ele>199.61</ele>
        <time>2014-05-08T14:52:40Z</time>
      </trkpt>
      <trkpt lat="43.81579" lon="3.77994">
        <ele>200.57</ele>
        <time>2014-05-08T14:52:41Z</time>
      </trkpt>
      <trkpt lat="43.81562" lon="3.77993">
        <ele>201.05</ele>
        <time>2014-05-08T14:52:42Z</time>
      </trkpt>
      <trkpt lat="43.81544" lon="3.77993">
        <ele>201.53</ele>
        <time>2014-05-08T14:52:43Z</time>
      </trkpt>
      <trkpt lat="43.81512" lon="3.77998">
        <ele>202.98</ele>
        <time>2014-05-08T14:52:45Z</time>
      </trkpt>
      <trkpt lat="43.81498" lon="3.78008">
        <ele>203.94</ele>
        <time>2014-05-08T14:52:46Z</time>
      </trkpt>
      <trkpt lat="43.81484" lon="3.7802">
        <ele>204.9</ele>
        <time>2014-05-08T14:52:47Z</time>
      </trkpt>
      <trkpt lat="43.81468" lon="3.78031">
        <ele>205.38</ele>
        <time>2014-05-08T14:52:48Z</time>
      </trkpt>
      <trkpt lat="43.81452" lon="3.78039">
        <ele>206.34</ele>
        <time>2014-05-08T14:52:49Z</time>
      </trkpt>
      <trkpt lat="43.81417" lon="3.78077">
        <ele>207.3</ele>
        <time>2014-05-08T14:52:52Z</time>
      </trkpt>
      <trkpt lat="43.8141" lon="3.78097">
        <ele>207.3</ele>
        <time>2014-05-08T14:52:53Z</time>
      </trkpt>
      <trkpt lat="43.81406" lon="3.78119">
        <ele>207.3</ele>
        <time>2014-05-08T14:52:54Z</time>
      </trkpt>
      <trkpt lat="43.81408" lon="3.78144">
        <ele>207.3</ele>
        <time>2014-05-08T14:52:55Z</time>
      </trkpt>
      <trkpt lat="43.81413" lon="3.78172">
        <ele>207.78</ele>
        <time>2014-05-08T14:52:56Z</time>
      </trkpt>
      <trkpt lat="43.81425" lon="3.78206">
        <ele>209.7</ele>
        <time>2014-05-08T14:52:57Z</time>
      </trkpt>
      <trkpt lat="43.81435" lon="3.78239">
        <ele>212.11</ele>
        <time>2014-05-08T14:52:58Z</time>
      </trkpt>
      <trkpt lat="43.81441" lon="3.7827">
        <ele>213.55</ele>
        <time>2014-05-08T14:52:59Z</time>
      </trkpt>
      <trkpt lat="43.81459" lon="3.78372">
        <ele>218.84</ele>
        <time>2014-05-08T14:53:04Z</time>
      </trkpt>
      <trkpt lat="43.81456" lon="3.78382">
        <ele>219.8</ele>
        <time>2014-05-08T14:53:05Z</time>
      </trkpt>
      <trkpt lat="43.81445" lon="3.7839">
        <ele>219.32</ele>
        <time>2014-05-08T14:53:06Z</time>
      </trkpt>
      <trkpt lat="43.81433" lon="3.78396">
        <ele>218.84</ele>
        <time>2014-05-08T14:53:07Z</time>
      </trkpt>
      <trkpt lat="43.81418" lon="3.78398">
        <ele>219.32</ele>
        <time>2014-05-08T14:53:08Z</time>
      </trkpt>
      <trkpt lat="43.81401" lon="3.78399">
        <ele>220.76</ele>
        <time>2014-05-08T14:53:09Z</time>
      </trkpt>
      <trkpt lat="43.81386" lon="3.78402">
        <ele>221.24</ele>
        <time>2014-05-08T14:53:10Z</time>
      </trkpt>
      <trkpt lat="43.81361" lon="3.78419">
        <ele>221.24</ele>
        <time>2014-05-08T14:53:12Z</time>
      </trkpt>
      <trkpt lat="43.81351" lon="3.78431">
        <ele>220.76</ele>
        <time>2014-05-08T14:53:13Z</time>
      </trkpt>
      <trkpt lat="43.81339" lon="3.78443">
        <ele>220.28</ele>
        <time>2014-05-08T14:53:14Z</time>
      </trkpt>
      <trkpt lat="43.81326" lon="3.78452">
        <ele>219.32</ele>
        <time>2014-05-08T14:53:15Z</time>
      </trkpt>
      <trkpt lat="43.81314" lon="3.78462">
        <ele>218.84</ele>
        <time>2014-05-08T14:53:16Z</time>
      </trkpt>
      <trkpt lat="43.81301" lon="3.78477">
        <ele>218.36</ele>
        <time>2014-05-08T14:53:17Z</time>
      </trkpt>
      <trkpt lat="43.8129" lon="3.78498">
        <ele>218.36</ele>
        <time>2014-05-08T14:53:18Z</time>
      </trkpt>
      <trkpt lat="43.81279" lon="3.7852">
        <ele>217.4</ele>
        <time>2014-05-08T14:53:19Z</time>
      </trkpt>
      <trkpt lat="43.81268" lon="3.78543">
        <ele>215.47</ele>
        <time>2014-05-08T14:53:20Z</time>
      </trkpt>
      <trkpt lat="43.81217" lon="3.78626">
        <ele>208.26</ele>
        <time>2014-05-08T14:53:25Z</time>
      </trkpt>
      <trkpt lat="43.81202" lon="3.78629">
        <ele>206.34</ele>
        <time>2014-05-08T14:53:26Z</time>
      </trkpt>
      <trkpt lat="43.81187" lon="3.7863">
        <ele>204.9</ele>
        <time>2014-05-08T14:53:27Z</time>
      </trkpt>
      <trkpt lat="43.8117" lon="3.78626">
        <ele>205.38</ele>
        <time>2014-05-08T14:53:28Z</time>
      </trkpt>
      <trkpt lat="43.81155" lon="3.78617">
        <ele>203.46</ele>
        <time>2014-05-08T14:53:29Z</time>
      </trkpt>
      <trkpt lat="43.8114" lon="3.78605">
        <ele>202.01</ele>
        <time>2014-05-08T14:53:30Z</time>
      </trkpt>
      <trkpt lat="43.81131" lon="3.78588">
        <ele>201.05</ele>
        <time>2014-05-08T14:53:31Z</time>
      </trkpt>
      <trkpt lat="43.8112" lon="3.78571">
        <ele>200.57</ele>
        <time>2014-05-08T14:53:32Z</time>
      </trkpt>
      <trkpt lat="43.81113" lon="3.78552">
        <ele>199.13</ele>
        <time>2014-05-08T14:53:33Z</time>
      </trkpt>
      <trkpt lat="43.81105" lon="3.78535">
        <ele>197.69</ele>
        <time>2014-05-08T14:53:34Z</time>
      </trkpt>
      <trkpt lat="43.8109" lon="3.78506">
        <ele>194.8</ele>
        <time>2014-05-08T14:53:36Z</time>
      </trkpt>
      <trkpt lat="43.81081" lon="3.785">
        <ele>193.36</ele>
        <time>2014-05-08T14:53:37Z</time>
      </trkpt>
      <trkpt lat="43.81069" lon="3.78496">
        <ele>193.84</ele>
        <time>2014-05-08T14:53:38Z</time>
      </trkpt>
      <trkpt lat="43.81059" lon="3.785">
        <ele>192.88</ele>
        <time>2014-05-08T14:53:39Z</time>
      </trkpt>
      <trkpt lat="43.81051" lon="3.78507">
        <ele>192.4</ele>
        <time>2014-05-08T14:53:40Z</time>
      </trkpt>
      <trkpt lat="43.81048" lon="3.78518">
        <ele>191.92</ele>
        <time>2014-05-08T14:53:41Z</time>
      </trkpt>
      <trkpt lat="43.81047" lon="3.7853">
        <ele>190.48</ele>
        <time>2014-05-08T14:53:42Z</time>
      </trkpt>
      <trkpt lat="43.81052" lon="3.78545">
        <ele>189.04</ele>
        <time>2014-05-08T14:53:43Z</time>
      </trkpt>
      <trkpt lat="43.81061" lon="3.78564">
        <ele>188.08</ele>
        <time>2014-05-08T14:53:44Z</time>
      </trkpt>
      <trkpt lat="43.81072" lon="3.78586">
        <ele>187.11</ele>
        <time>2014-05-08T14:53:45Z</time>
      </trkpt>
      <trkpt lat="43.81083" lon="3.78605">
        <ele>185.67</ele>
        <time>2014-05-08T14:53:46Z</time>
      </trkpt>
      <trkpt lat="43.81097" lon="3.78621">
        <ele>185.19</ele>
        <time>2014-05-08T14:53:47Z</time>
      </trkpt>
      <trkpt lat="43.8111" lon="3.78636">
        <ele>184.71</ele>
        <time>2014-05-08T14:53:48Z</time>
      </trkpt>
      <trkpt lat="43.81122" lon="3.78648">
        <ele>184.23</ele>
        <time>2014-05-08T14:53:49Z</time>
      </trkpt>
      <trkpt lat="43.81138" lon="3.78662">
        <ele>184.23</ele>
        <time>2014-05-08T14:53:51Z</time>
      </trkpt>
      <trkpt lat="43.81141" lon="3.7867">
        <ele>183.27</ele>
        <time>2014-05-08T14:53:52Z</time>
      </trkpt>
      <trkpt lat="43.81139" lon="3.78678">
        <ele>181.83</ele>
        <time>2014-05-08T14:53:53Z</time>
      </trkpt>
      <trkpt lat="43.81134" lon="3.78682">
        <ele>180.87</ele>
        <time>2014-05-08T14:53:54Z</time>
      </trkpt>
      <trkpt lat="43.81114" lon="3.78667">
        <ele>181.83</ele>
        <time>2014-05-08T14:53:56Z</time>
      </trkpt>
      <trkpt lat="43.811" lon="3.78655">
        <ele>180.87</ele>
        <time>2014-05-08T14:53:57Z</time>
      </trkpt>
      <trkpt lat="43.81086" lon="3.78641">
        <ele>180.87</ele>
        <time>2014-05-08T14:53:58Z</time>
      </trkpt>
      <trkpt lat="43.81071" lon="3.78625">
        <ele>180.38</ele>
        <time>2014-05-08T14:53:59Z</time>
      </trkpt>
      <trkpt lat="43.81057" lon="3.78609">
        <ele>179.42</ele>
        <time>2014-05-08T14:54:00Z</time>
      </trkpt>
      <trkpt lat="43.81043" lon="3.78594">
        <ele>178.94</ele>
        <time>2014-05-08T14:54:01Z</time>
      </trkpt>
      <trkpt lat="43.80983" lon="3.78531">
        <ele>176.06</ele>
        <time>2014-05-08T14:54:06Z</time>
      </trkpt>
      <trkpt lat="43.80969" lon="3.78528">
        <ele>176.54</ele>
        <time>2014-05-08T14:54:07Z</time>
      </trkpt>
      <trkpt lat="43.80956" lon="3.78533">
        <ele>176.54</ele>
        <time>2014-05-08T14:54:08Z</time>
      </trkpt>
      <trkpt lat="43.80943" lon="3.78536">
        <ele>176.54</ele>
        <time>2014-05-08T14:54:09Z</time>
      </trkpt>
      <trkpt lat="43.80929" lon="3.78547">
        <ele>176.06</ele>
        <time>2014-05-08T14:54:10Z</time>
      </trkpt>
      <trkpt lat="43.80913" lon="3.7857">
        <ele>177.5</ele>
        <time>2014-05-08T14:54:11Z</time>
      </trkpt>
      <trkpt lat="43.80896" lon="3.78589">
        <ele>177.02</ele>
        <time>2014-05-08T14:54:12Z</time>
      </trkpt>
      <trkpt lat="43.80758" lon="3.78732">
        <ele>176.54</ele>
        <time>2014-05-08T14:54:19Z</time>
      </trkpt>
      <trkpt lat="43.80562" lon="3.78931">
        <ele>178.94</ele>
        <time>2014-05-08T14:54:29Z</time>
      </trkpt>
      <trkpt lat="43.80482" lon="3.79036">
        <ele>179.42</ele>
        <time>2014-05-08T14:54:34Z</time>
      </trkpt>
      <trkpt lat="43.80465" lon="3.79059">
        <ele>179.42</ele>
        <time>2014-05-08T14:54:35Z</time>
      </trkpt>
      <trkpt lat="43.80445" lon="3.7908">
        <ele>179.42</ele>
        <time>2014-05-08T14:54:36Z</time>
      </trkpt>
      <trkpt lat="43.80423" lon="3.79098">
        <ele>179.42</ele>
        <time>2014-05-08T14:54:37Z</time>
      </trkpt>
      <trkpt lat="43.80267" lon="3.79204">
        <ele>180.38</ele>
        <time>2014-05-08T14:54:44Z</time>
      </trkpt>
      <trkpt lat="43.8025" lon="3.79225">
        <ele>180.87</ele>
        <time>2014-05-08T14:54:45Z</time>
      </trkpt>
      <trkpt lat="43.80235" lon="3.79252">
        <ele>181.35</ele>
        <time>2014-05-08T14:54:46Z</time>
      </trkpt>
      <trkpt lat="43.8022" lon="3.79281">
        <ele>181.83</ele>
        <time>2014-05-08T14:54:47Z</time>
      </trkpt>
      <trkpt lat="43.80206" lon="3.79312">
        <ele>182.31</ele>
        <time>2014-05-08T14:54:48Z</time>
      </trkpt>
      <trkpt lat="43.8015" lon="3.79422">
        <ele>182.79</ele>
        <time>2014-05-08T14:54:52Z</time>
      </trkpt>
      <trkpt lat="43.80131" lon="3.79443">
        <ele>182.79</ele>
        <time>2014-05-08T14:54:53Z</time>
      </trkpt>
      <trkpt lat="43.80111" lon="3.79463">
        <ele>182.79</ele>
        <time>2014-05-08T14:54:54Z</time>
      </trkpt>
      <trkpt lat="43.79945" lon="3.79579">
        <ele>183.75</ele>
        <time>2014-05-08T14:55:01Z</time>
      </trkpt>
      <trkpt lat="43.79657" lon="3.79748">
        <ele>186.63</ele>
        <time>2014-05-08T14:55:13Z</time>
      </trkpt>
      <trkpt lat="43.79515" lon="3.79883">
        <ele>190</ele>
        <time>2014-05-08T14:55:20Z</time>
      </trkpt>
      <trkpt lat="43.79457" lon="3.79957">
        <ele>190.96</ele>
        <time>2014-05-08T14:55:24Z</time>
      </trkpt>
      <trkpt lat="43.79445" lon="3.79979">
        <ele>190.96</ele>
        <time>2014-05-08T14:55:25Z</time>
      </trkpt>
      <trkpt lat="43.79385" lon="3.80076">
        <ele>190.96</ele>
        <time>2014-05-08T14:55:31Z</time>
      </trkpt>
      <trkpt lat="43.79378" lon="3.8008">
        <ele>190.96</ele>
        <time>2014-05-08T14:55:32Z</time>
      </trkpt>
      <trkpt lat="43.79374" lon="3.80081">
        <ele>190.48</ele>
        <time>2014-05-08T14:55:33Z</time>
      </trkpt>
      <trkpt lat="43.7937" lon="3.80081">
        <ele>190</ele>
        <time>2014-05-08T14:55:39Z</time>
      </trkpt>
      <trkpt lat="43.79369" lon="3.80083">
        <ele>190</ele>
        <time>2014-05-08T14:55:40Z</time>
      </trkpt>
      <trkpt lat="43.79368" lon="3.80089">
        <ele>190.48</ele>
        <time>2014-05-08T14:55:41Z</time>
      </trkpt>
      <trkpt lat="43.79367" lon="3.80098">
        <ele>190.48</ele>
        <time>2014-05-08T14:55:42Z</time>
      </trkpt>
      <trkpt lat="43.79366" lon="3.80111">
        <ele>190.96</ele>
        <time>2014-05-08T14:55:43Z</time>
      </trkpt>
      <trkpt lat="43.79363" lon="3.80126">
        <ele>191.92</ele>
        <time>2014-05-08T14:55:44Z</time>
      </trkpt>
      <trkpt lat="43.79361" lon="3.80143">
        <ele>192.4</ele>
        <time>2014-05-08T14:55:45Z</time>
      </trkpt>
      <trkpt lat="43.79351" lon="3.80185">
        <ele>194.32</ele>
        <time>2014-05-08T14:55:47Z</time>
      </trkpt>
      <trkpt lat="43.79343" lon="3.8021">
        <ele>194.8</ele>
        <time>2014-05-08T14:55:48Z</time>
      </trkpt>
      <trkpt lat="43.79332" lon="3.80233">
        <ele>195.77</ele>
        <time>2014-05-08T14:55:49Z</time>
      </trkpt>
      <trkpt lat="43.7932" lon="3.80255">
        <ele>196.73</ele>
        <time>2014-05-08T14:55:50Z</time>
      </trkpt>
      <trkpt lat="43.79306" lon="3.80273">
        <ele>197.69</ele>
        <time>2014-05-08T14:55:51Z</time>
      </trkpt>
      <trkpt lat="43.7929" lon="3.8029">
        <ele>198.17</ele>
        <time>2014-05-08T14:55:52Z</time>
      </trkpt>
      <trkpt lat="43.7927" lon="3.80305">
        <ele>199.61</ele>
        <time>2014-05-08T14:55:53Z</time>
      </trkpt>
      <trkpt lat="43.79249" lon="3.80318">
        <ele>201.53</ele>
        <time>2014-05-08T14:55:54Z</time>
      </trkpt>
      <trkpt lat="43.79228" lon="3.80332">
        <ele>202.49</ele>
        <time>2014-05-08T14:55:55Z</time>
      </trkpt>
      <trkpt lat="43.79113" lon="3.80408">
        <ele>209.7</ele>
        <time>2014-05-08T14:56:01Z</time>
      </trkpt>
      <trkpt lat="43.79097" lon="3.80426">
        <ele>211.15</ele>
        <time>2014-05-08T14:56:02Z</time>
      </trkpt>
      <trkpt lat="43.79082" lon="3.80448">
        <ele>212.59</ele>
        <time>2014-05-08T14:56:03Z</time>
      </trkpt>
      <trkpt lat="43.79005" lon="3.80556">
        <ele>219.32</ele>
        <time>2014-05-08T14:56:09Z</time>
      </trkpt>
      <trkpt lat="43.78993" lon="3.80559">
        <ele>219.8</ele>
        <time>2014-05-08T14:56:10Z</time>
      </trkpt>
      <trkpt lat="43.78979" lon="3.80555">
        <ele>220.28</ele>
        <time>2014-05-08T14:56:11Z</time>
      </trkpt>
      <trkpt lat="43.78965" lon="3.80543">
        <ele>220.76</ele>
        <time>2014-05-08T14:56:12Z</time>
      </trkpt>
      <trkpt lat="43.78952" lon="3.80525">
        <ele>221.72</ele>
        <time>2014-05-08T14:56:13Z</time>
      </trkpt>
      <trkpt lat="43.78938" lon="3.80506">
        <ele>222.2</ele>
        <time>2014-05-08T14:56:14Z</time>
      </trkpt>
      <trkpt lat="43.78924" lon="3.80485">
        <ele>223.16</ele>
        <time>2014-05-08T14:56:15Z</time>
      </trkpt>
      <trkpt lat="43.78908" lon="3.80465">
        <ele>224.61</ele>
        <time>2014-05-08T14:56:16Z</time>
      </trkpt>
      <trkpt lat="43.78842" lon="3.804">
        <ele>229.41</ele>
        <time>2014-05-08T14:56:21Z</time>
      </trkpt>
      <trkpt lat="43.78832" lon="3.80397">
        <ele>229.89</ele>
        <time>2014-05-08T14:56:22Z</time>
      </trkpt>
      <trkpt lat="43.78818" lon="3.80412">
        <ele>231.33</ele>
        <time>2014-05-08T14:56:24Z</time>
      </trkpt>
      <trkpt lat="43.78816" lon="3.80426">
        <ele>232.3</ele>
        <time>2014-05-08T14:56:25Z</time>
      </trkpt>
      <trkpt lat="43.78818" lon="3.80442">
        <ele>232.78</ele>
        <time>2014-05-08T14:56:26Z</time>
      </trkpt>
      <trkpt lat="43.78826" lon="3.8046">
        <ele>233.26</ele>
        <time>2014-05-08T14:56:27Z</time>
      </trkpt>
      <trkpt lat="43.78834" lon="3.80479">
        <ele>233.74</ele>
        <time>2014-05-08T14:56:28Z</time>
      </trkpt>
      <trkpt lat="43.78846" lon="3.805">
        <ele>234.22</ele>
        <time>2014-05-08T14:56:29Z</time>
      </trkpt>
      <trkpt lat="43.78861" lon="3.8052">
        <ele>235.18</ele>
        <time>2014-05-08T14:56:30Z</time>
      </trkpt>
      <trkpt lat="43.78876" lon="3.80538">
        <ele>235.66</ele>
        <time>2014-05-08T14:56:31Z</time>
      </trkpt>
      <trkpt lat="43.78891" lon="3.80552">
        <ele>236.14</ele>
        <time>2014-05-08T14:56:32Z</time>
      </trkpt>
      <trkpt lat="43.78904" lon="3.80563">
        <ele>236.14</ele>
        <time>2014-05-08T14:56:33Z</time>
      </trkpt>
      <trkpt lat="43.78929" lon="3.80589">
        <ele>238.06</ele>
        <time>2014-05-08T14:56:36Z</time>
      </trkpt>
      <trkpt lat="43.78929" lon="3.80598">
        <ele>239.02</ele>
        <time>2014-05-08T14:56:37Z</time>
      </trkpt>
      <trkpt lat="43.78924" lon="3.80603">
        <ele>239.51</ele>
        <time>2014-05-08T14:56:38Z</time>
      </trkpt>
      <trkpt lat="43.78917" lon="3.80602">
        <ele>240.47</ele>
        <time>2014-05-08T14:56:39Z</time>
      </trkpt>
      <trkpt lat="43.78909" lon="3.80598">
        <ele>240.47</ele>
        <time>2014-05-08T14:56:40Z</time>
      </trkpt>
      <trkpt lat="43.78898" lon="3.80591">
        <ele>240.95</ele>
        <time>2014-05-08T14:56:41Z</time>
      </trkpt>
      <trkpt lat="43.78884" lon="3.80584">
        <ele>241.43</ele>
        <time>2014-05-08T14:56:42Z</time>
      </trkpt>
      <trkpt lat="43.7887" lon="3.80579">
        <ele>241.43</ele>
        <time>2014-05-08T14:56:43Z</time>
      </trkpt>
      <trkpt lat="43.78853" lon="3.80578">
        <ele>242.39</ele>
        <time>2014-05-08T14:56:44Z</time>
      </trkpt>
      <trkpt lat="43.78839" lon="3.80581">
        <ele>243.35</ele>
        <time>2014-05-08T14:56:45Z</time>
      </trkpt>
      <trkpt lat="43.78828" lon="3.80586">
        <ele>243.35</ele>
        <time>2014-05-08T14:56:46Z</time>
      </trkpt>
      <trkpt lat="43.78819" lon="3.80591">
        <ele>243.83</ele>
        <time>2014-05-08T14:56:47Z</time>
      </trkpt>
      <trkpt lat="43.78811" lon="3.80596">
        <ele>244.31</ele>
        <time>2014-05-08T14:56:48Z</time>
      </trkpt>
      <trkpt lat="43.78805" lon="3.80606">
        <ele>244.31</ele>
        <time>2014-05-08T14:56:49Z</time>
      </trkpt>
      <trkpt lat="43.78807" lon="3.80628">
        <ele>244.79</ele>
        <time>2014-05-08T14:56:51Z</time>
      </trkpt>
      <trkpt lat="43.78817" lon="3.80637">
        <ele>244.79</ele>
        <time>2014-05-08T14:56:52Z</time>
      </trkpt>
      <trkpt lat="43.78829" lon="3.80644">
        <ele>244.79</ele>
        <time>2014-05-08T14:56:53Z</time>
      </trkpt>
      <trkpt lat="43.78842" lon="3.80651">
        <ele>245.27</ele>
        <time>2014-05-08T14:56:54Z</time>
      </trkpt>
      <trkpt lat="43.78857" lon="3.8066">
        <ele>245.27</ele>
        <time>2014-05-08T14:56:55Z</time>
      </trkpt>
      <trkpt lat="43.78871" lon="3.80674">
        <ele>244.31</ele>
        <time>2014-05-08T14:56:56Z</time>
      </trkpt>
      <trkpt lat="43.78882" lon="3.80694">
        <ele>243.83</ele>
        <time>2014-05-08T14:56:57Z</time>
      </trkpt>
      <trkpt lat="43.7889" lon="3.80717">
        <ele>243.35</ele>
        <time>2014-05-08T14:56:58Z</time>
      </trkpt>
      <trkpt lat="43.78899" lon="3.8074">
        <ele>241.91</ele>
        <time>2014-05-08T14:56:59Z</time>
      </trkpt>
      <trkpt lat="43.78908" lon="3.80763">
        <ele>241.43</ele>
        <time>2014-05-08T14:57:00Z</time>
      </trkpt>
      <trkpt lat="43.7892" lon="3.80784">
        <ele>240.47</ele>
        <time>2014-05-08T14:57:01Z</time>
      </trkpt>
      <trkpt lat="43.78934" lon="3.80802">
        <ele>239.99</ele>
        <time>2014-05-08T14:57:02Z</time>
      </trkpt>
      <trkpt lat="43.7895" lon="3.80818">
        <ele>239.02</ele>
        <time>2014-05-08T14:57:03Z</time>
      </trkpt>
      <trkpt lat="43.78968" lon="3.80834">
        <ele>238.06</ele>
        <time>2014-05-08T14:57:04Z</time>
      </trkpt>
      <trkpt lat="43.78986" lon="3.8085">
        <ele>237.1</ele>
        <time>2014-05-08T14:57:05Z</time>
      </trkpt>
      <trkpt lat="43.79018" lon="3.80886">
        <ele>235.18</ele>
        <time>2014-05-08T14:57:07Z</time>
      </trkpt>
      <trkpt lat="43.7903" lon="3.8091">
        <ele>234.22</ele>
        <time>2014-05-08T14:57:08Z</time>
      </trkpt>
      <trkpt lat="43.7904" lon="3.80938">
        <ele>233.26</ele>
        <time>2014-05-08T14:57:09Z</time>
      </trkpt>
      <trkpt lat="43.79048" lon="3.80972">
        <ele>231.81</ele>
        <time>2014-05-08T14:57:10Z</time>
      </trkpt>
      <trkpt lat="43.79055" lon="3.8101">
        <ele>230.85</ele>
        <time>2014-05-08T14:57:11Z</time>
      </trkpt>
      <trkpt lat="43.79062" lon="3.81051">
        <ele>228.93</ele>
        <time>2014-05-08T14:57:12Z</time>
      </trkpt>
      <trkpt lat="43.79105" lon="3.81351">
        <ele>219.32</ele>
        <time>2014-05-08T14:57:19Z</time>
      </trkpt>
      <trkpt lat="43.79112" lon="3.81728">
        <ele>210.19</ele>
        <time>2014-05-08T14:57:28Z</time>
      </trkpt>
      <trkpt lat="43.79097" lon="3.8211">
        <ele>203.46</ele>
        <time>2014-05-08T14:57:38Z</time>
      </trkpt>
      <trkpt lat="43.7906" lon="3.82334">
        <ele>195.77</ele>
        <time>2014-05-08T14:57:44Z</time>
      </trkpt>
      <trkpt lat="43.78982" lon="3.82703">
        <ele>182.31</ele>
        <time>2014-05-08T14:57:54Z</time>
      </trkpt>
      <trkpt lat="43.78875" lon="3.82991">
        <ele>172.69</ele>
        <time>2014-05-08T14:58:03Z</time>
      </trkpt>
      <trkpt lat="43.7883" lon="3.83185">
        <ele>165.96</ele>
        <time>2014-05-08T14:58:09Z</time>
      </trkpt>
      <trkpt lat="43.78808" lon="3.83406">
        <ele>161.16</ele>
        <time>2014-05-08T14:58:15Z</time>
      </trkpt>
      <trkpt lat="43.78785" lon="3.83568">
        <ele>157.31</ele>
        <time>2014-05-08T14:58:20Z</time>
      </trkpt>
      <trkpt lat="43.78789" lon="3.83603">
        <ele>156.35</ele>
        <time>2014-05-08T14:58:21Z</time>
      </trkpt>
      <trkpt lat="43.78794" lon="3.8364">
        <ele>155.39</ele>
        <time>2014-05-08T14:58:22Z</time>
      </trkpt>
      <trkpt lat="43.78802" lon="3.83681">
        <ele>154.43</ele>
        <time>2014-05-08T14:58:23Z</time>
      </trkpt>
      <trkpt lat="43.78811" lon="3.83723">
        <ele>152.51</ele>
        <time>2014-05-08T14:58:24Z</time>
      </trkpt>
      <trkpt lat="43.789" lon="3.84233">
        <ele>138.09</ele>
        <time>2014-05-08T14:58:36Z</time>
      </trkpt>
      <trkpt lat="43.78973" lon="3.84552">
        <ele>131.36</ele>
        <time>2014-05-08T14:58:44Z</time>
      </trkpt>
      <trkpt lat="43.79056" lon="3.8486">
        <ele>127.51</ele>
        <time>2014-05-08T14:58:52Z</time>
      </trkpt>
      <trkpt lat="43.79098" lon="3.85042">
        <ele>126.55</ele>
        <time>2014-05-08T14:58:57Z</time>
      </trkpt>
      <trkpt lat="43.791" lon="3.85078">
        <ele>126.55</ele>
        <time>2014-05-08T14:58:58Z</time>
      </trkpt>
      <trkpt lat="43.79099" lon="3.85116">
        <ele>126.55</ele>
        <time>2014-05-08T14:58:59Z</time>
      </trkpt>
      <trkpt lat="43.79073" lon="3.8543">
        <ele>124.63</ele>
        <time>2014-05-08T14:59:07Z</time>
      </trkpt>
      <trkpt lat="43.79027" lon="3.85614">
        <ele>122.71</ele>
        <time>2014-05-08T14:59:13Z</time>
      </trkpt>
      <trkpt lat="43.79011" lon="3.85635">
        <ele>123.19</ele>
        <time>2014-05-08T14:59:14Z</time>
      </trkpt>
      <trkpt lat="43.78992" lon="3.85654">
        <ele>123.67</ele>
        <time>2014-05-08T14:59:15Z</time>
      </trkpt>
      <trkpt lat="43.78973" lon="3.85669">
        <ele>124.63</ele>
        <time>2014-05-08T14:59:16Z</time>
      </trkpt>
      <trkpt lat="43.78953" lon="3.85682">
        <ele>125.11</ele>
        <time>2014-05-08T14:59:17Z</time>
      </trkpt>
      <trkpt lat="43.78933" lon="3.85691">
        <ele>125.59</ele>
        <time>2014-05-08T14:59:18Z</time>
      </trkpt>
      <trkpt lat="43.78911" lon="3.85699">
        <ele>125.11</ele>
        <time>2014-05-08T14:59:19Z</time>
      </trkpt>
      <trkpt lat="43.78888" lon="3.85705">
        <ele>123.67</ele>
        <time>2014-05-08T14:59:20Z</time>
      </trkpt>
      <trkpt lat="43.78864" lon="3.85709">
        <ele>123.19</ele>
        <time>2014-05-08T14:59:21Z</time>
      </trkpt>
      <trkpt lat="43.78838" lon="3.85714">
        <ele>123.19</ele>
        <time>2014-05-08T14:59:22Z</time>
      </trkpt>
      <trkpt lat="43.78579" lon="3.85771">
        <ele>122.22</ele>
        <time>2014-05-08T14:59:31Z</time>
      </trkpt>
      <trkpt lat="43.78362" lon="3.85808">
        <ele>120.78</ele>
        <time>2014-05-08T14:59:39Z</time>
      </trkpt>
      <trkpt lat="43.78165" lon="3.85766">
        <ele>119.82</ele>
        <time>2014-05-08T14:59:46Z</time>
      </trkpt>
      <trkpt lat="43.77984" lon="3.85691">
        <ele>121.26</ele>
        <time>2014-05-08T14:59:53Z</time>
      </trkpt>
      <trkpt lat="43.77932" lon="3.8567">
        <ele>120.78</ele>
        <time>2014-05-08T14:59:56Z</time>
      </trkpt>
      <trkpt lat="43.77916" lon="3.85672">
        <ele>120.78</ele>
        <time>2014-05-08T14:59:57Z</time>
      </trkpt>
      <trkpt lat="43.779" lon="3.85682">
        <ele>120.3</ele>
        <time>2014-05-08T14:59:58Z</time>
      </trkpt>
      <trkpt lat="43.77882" lon="3.85696">
        <ele>121.26</ele>
        <time>2014-05-08T14:59:59Z</time>
      </trkpt>
      <trkpt lat="43.77864" lon="3.85717">
        <ele>121.74</ele>
        <time>2014-05-08T15:00:00Z</time>
      </trkpt>
      <trkpt lat="43.77845" lon="3.85738">
        <ele>121.26</ele>
        <time>2014-05-08T15:00:01Z</time>
      </trkpt>
      <trkpt lat="43.77826" lon="3.8576">
        <ele>121.26</ele>
        <time>2014-05-08T15:00:02Z</time>
      </trkpt>
      <trkpt lat="43.77766" lon="3.85833">
        <ele>120.3</ele>
        <time>2014-05-08T15:00:06Z</time>
      </trkpt>
      <trkpt lat="43.77755" lon="3.85858">
        <ele>120.78</ele>
        <time>2014-05-08T15:00:07Z</time>
      </trkpt>
      <trkpt lat="43.77745" lon="3.85886">
        <ele>121.26</ele>
        <time>2014-05-08T15:00:08Z</time>
      </trkpt>
      <trkpt lat="43.77738" lon="3.85919">
        <ele>118.38</ele>
        <time>2014-05-08T15:00:09Z</time>
      </trkpt>
      <trkpt lat="43.77727" lon="3.85953">
        <ele>118.38</ele>
        <time>2014-05-08T15:00:10Z</time>
      </trkpt>
      <trkpt lat="43.77622" lon="3.86317">
        <ele>107.32</ele>
        <time>2014-05-08T15:00:20Z</time>
      </trkpt>
      <trkpt lat="43.77534" lon="3.8661">
        <ele>106.84</ele>
        <time>2014-05-08T15:00:28Z</time>
      </trkpt>
      <trkpt lat="43.77481" lon="3.86785">
        <ele>107.32</ele>
        <time>2014-05-08T15:00:34Z</time>
      </trkpt>
      <trkpt lat="43.77444" lon="3.86918">
        <ele>110.69</ele>
        <time>2014-05-08T15:00:41Z</time>
      </trkpt>
      <trkpt lat="43.7744" lon="3.86927">
        <ele>111.17</ele>
        <time>2014-05-08T15:00:42Z</time>
      </trkpt>
      <trkpt lat="43.77433" lon="3.86934">
        <ele>111.17</ele>
        <time>2014-05-08T15:00:43Z</time>
      </trkpt>
      <trkpt lat="43.77423" lon="3.86939">
        <ele>111.65</ele>
        <time>2014-05-08T15:00:44Z</time>
      </trkpt>
      <trkpt lat="43.77411" lon="3.86945">
        <ele>110.69</ele>
        <time>2014-05-08T15:00:45Z</time>
      </trkpt>
      <trkpt lat="43.77397" lon="3.86949">
        <ele>110.69</ele>
        <time>2014-05-08T15:00:46Z</time>
      </trkpt>
      <trkpt lat="43.77383" lon="3.86951">
        <ele>110.21</ele>
        <time>2014-05-08T15:00:47Z</time>
      </trkpt>
      <trkpt lat="43.77369" lon="3.86949">
        <ele>109.25</ele>
        <time>2014-05-08T15:00:48Z</time>
      </trkpt>
      <trkpt lat="43.77355" lon="3.86947">
        <ele>108.29</ele>
        <time>2014-05-08T15:00:49Z</time>
      </trkpt>
      <trkpt lat="43.77259" lon="3.86916">
        <ele>104.92</ele>
        <time>2014-05-08T15:00:57Z</time>
      </trkpt>
      <trkpt lat="43.77148" lon="3.86875">
        <ele>102.52</ele>
        <time>2014-05-08T15:01:07Z</time>
      </trkpt>
      <trkpt lat="43.77017" lon="3.86826">
        <ele>102.04</ele>
        <time>2014-05-08T15:01:20Z</time>
      </trkpt>
      <trkpt lat="43.76929" lon="3.86792">
        <ele>102.52</ele>
        <time>2014-05-08T15:01:30Z</time>
      </trkpt>
      <trkpt lat="43.76821" lon="3.86755">
        <ele>103</ele>
        <time>2014-05-08T15:01:41Z</time>
      </trkpt>
      <trkpt lat="43.76725" lon="3.86718">
        <ele>104.92</ele>
        <time>2014-05-08T15:01:50Z</time>
      </trkpt>
      <trkpt lat="43.76629" lon="3.86666">
        <ele>104.44</ele>
        <time>2014-05-08T15:01:59Z</time>
      </trkpt>
      <trkpt lat="43.76587" lon="3.86632">
        <ele>103.48</ele>
        <time>2014-05-08T15:02:05Z</time>
      </trkpt>
      <trkpt lat="43.76579" lon="3.86628">
        <ele>103</ele>
        <time>2014-05-08T15:02:06Z</time>
      </trkpt>
      <trkpt lat="43.76569" lon="3.86624">
        <ele>103</ele>
        <time>2014-05-08T15:02:07Z</time>
      </trkpt>
      <trkpt lat="43.7656" lon="3.86619">
        <ele>102.52</ele>
        <time>2014-05-08T15:02:08Z</time>
      </trkpt>
      <trkpt lat="43.7655" lon="3.86613">
        <ele>102.52</ele>
        <time>2014-05-08T15:02:09Z</time>
      </trkpt>
      <trkpt lat="43.76441" lon="3.8654">
        <ele>100.11</ele>
        <time>2014-05-08T15:02:19Z</time>
      </trkpt>
      <trkpt lat="43.7628" lon="3.86434">
        <ele>97.71</ele>
        <time>2014-05-08T15:02:32Z</time>
      </trkpt>
      <trkpt lat="43.76167" lon="3.86357">
        <ele>97.23</ele>
        <time>2014-05-08T15:02:41Z</time>
      </trkpt>
      <trkpt lat="43.76158" lon="3.86346">
        <ele>97.23</ele>
        <time>2014-05-08T15:02:42Z</time>
      </trkpt>
      <trkpt lat="43.76152" lon="3.86334">
        <ele>97.23</ele>
        <time>2014-05-08T15:02:43Z</time>
      </trkpt>
      <trkpt lat="43.76146" lon="3.86323">
        <ele>96.75</ele>
        <time>2014-05-08T15:02:44Z</time>
      </trkpt>
      <trkpt lat="43.76137" lon="3.86313">
        <ele>96.27</ele>
        <time>2014-05-08T15:02:45Z</time>
      </trkpt>
      <trkpt lat="43.76127" lon="3.8631">
        <ele>96.27</ele>
        <time>2014-05-08T15:02:46Z</time>
      </trkpt>
      <trkpt lat="43.76114" lon="3.86311">
        <ele>95.79</ele>
        <time>2014-05-08T15:02:47Z</time>
      </trkpt>
      <trkpt lat="43.76101" lon="3.86311">
        <ele>95.31</ele>
        <time>2014-05-08T15:02:48Z</time>
      </trkpt>
      <trkpt lat="43.7609" lon="3.86307">
        <ele>94.83</ele>
        <time>2014-05-08T15:02:49Z</time>
      </trkpt>
      <trkpt lat="43.76079" lon="3.86302">
        <ele>94.83</ele>
        <time>2014-05-08T15:02:50Z</time>
      </trkpt>
      <trkpt lat="43.76069" lon="3.86295">
        <ele>94.83</ele>
        <time>2014-05-08T15:02:51Z</time>
      </trkpt>
      <trkpt lat="43.75954" lon="3.86219">
        <ele>92.9</ele>
        <time>2014-05-08T15:03:00Z</time>
      </trkpt>
      <trkpt lat="43.75763" lon="3.86088">
        <ele>90.98</ele>
        <time>2014-05-08T15:03:11Z</time>
      </trkpt>
      <trkpt lat="43.75583" lon="3.85995">
        <ele>91.46</ele>
        <time>2014-05-08T15:03:20Z</time>
      </trkpt>
      <trkpt lat="43.75408" lon="3.85961">
        <ele>91.46</ele>
        <time>2014-05-08T15:03:27Z</time>
      </trkpt>
      <trkpt lat="43.751" lon="3.85902">
        <ele>88.1</ele>
        <time>2014-05-08T15:03:37Z</time>
      </trkpt>
      <trkpt lat="43.74882" lon="3.85862">
        <ele>86.66</ele>
        <time>2014-05-08T15:03:45Z</time>
      </trkpt>
      <trkpt lat="43.74856" lon="3.85862">
        <ele>86.66</ele>
        <time>2014-05-08T15:03:46Z</time>
      </trkpt>
      <trkpt lat="43.74829" lon="3.85865">
        <ele>86.18</ele>
        <time>2014-05-08T15:03:47Z</time>
      </trkpt>
      <trkpt lat="43.74803" lon="3.85873">
        <ele>86.18</ele>
        <time>2014-05-08T15:03:48Z</time>
      </trkpt>
      <trkpt lat="43.74777" lon="3.85884">
        <ele>85.69</ele>
        <time>2014-05-08T15:03:49Z</time>
      </trkpt>
      <trkpt lat="43.74752" lon="3.85899">
        <ele>85.69</ele>
        <time>2014-05-08T15:03:50Z</time>
      </trkpt>
      <trkpt lat="43.7473" lon="3.85916">
        <ele>86.18</ele>
        <time>2014-05-08T15:03:51Z</time>
      </trkpt>
      <trkpt lat="43.74709" lon="3.85935">
        <ele>85.69</ele>
        <time>2014-05-08T15:03:52Z</time>
      </trkpt>
      <trkpt lat="43.74691" lon="3.85954">
        <ele>85.69</ele>
        <time>2014-05-08T15:03:53Z</time>
      </trkpt>
      <trkpt lat="43.74538" lon="3.86107">
        <ele>84.25</ele>
        <time>2014-05-08T15:04:01Z</time>
      </trkpt>
      <trkpt lat="43.74376" lon="3.86265">
        <ele>84.73</ele>
        <time>2014-05-08T15:04:09Z</time>
      </trkpt>
      <trkpt lat="43.74217" lon="3.86419">
        <ele>85.21</ele>
        <time>2014-05-08T15:04:20Z</time>
      </trkpt>
      <trkpt lat="43.74088" lon="3.8653">
        <ele>84.73</ele>
        <time>2014-05-08T15:04:28Z</time>
      </trkpt>
      <trkpt lat="43.73949" lon="3.86619">
        <ele>80.89</ele>
        <time>2014-05-08T15:04:33Z</time>
      </trkpt>
      <trkpt lat="43.73736" lon="3.86731">
        <ele>78</ele>
        <time>2014-05-08T15:04:40Z</time>
      </trkpt>
      <trkpt lat="43.73533" lon="3.86745">
        <ele>77.52</ele>
        <time>2014-05-08T15:04:46Z</time>
      </trkpt>
      <trkpt lat="43.73348" lon="3.86762">
        <ele>77.52</ele>
        <time>2014-05-08T15:04:52Z</time>
      </trkpt>
      <trkpt lat="43.73207" lon="3.86843">
        <ele>78.97</ele>
        <time>2014-05-08T15:04:57Z</time>
      </trkpt>
      <trkpt lat="43.73081" lon="3.86926">
        <ele>83.29</ele>
        <time>2014-05-08T15:05:03Z</time>
      </trkpt>
      <trkpt lat="43.73054" lon="3.86936">
        <ele>84.73</ele>
        <time>2014-05-08T15:05:05Z</time>
      </trkpt>
      <trkpt lat="43.73041" lon="3.86938">
        <ele>85.21</ele>
        <time>2014-05-08T15:05:06Z</time>
      </trkpt>
      <trkpt lat="43.73028" lon="3.8694">
        <ele>85.69</ele>
        <time>2014-05-08T15:05:07Z</time>
      </trkpt>
      <trkpt lat="43.73016" lon="3.86946">
        <ele>86.18</ele>
        <time>2014-05-08T15:05:08Z</time>
      </trkpt>
      <trkpt lat="43.73003" lon="3.86956">
        <ele>86.66</ele>
        <time>2014-05-08T15:05:09Z</time>
      </trkpt>
      <trkpt lat="43.72986" lon="3.86964">
        <ele>87.14</ele>
        <time>2014-05-08T15:05:10Z</time>
      </trkpt>
      <trkpt lat="43.72967" lon="3.8697">
        <ele>88.1</ele>
        <time>2014-05-08T15:05:11Z</time>
      </trkpt>
      <trkpt lat="43.72946" lon="3.86975">
        <ele>88.1</ele>
        <time>2014-05-08T15:05:12Z</time>
      </trkpt>
      <trkpt lat="43.72926" lon="3.86979">
        <ele>88.1</ele>
        <time>2014-05-08T15:05:13Z</time>
      </trkpt>
      <trkpt lat="43.72861" lon="3.86987">
        <ele>87.62</ele>
        <time>2014-05-08T15:05:17Z</time>
      </trkpt>
      <trkpt lat="43.72848" lon="3.86985">
        <ele>87.62</ele>
        <time>2014-05-08T15:05:18Z</time>
      </trkpt>
      <trkpt lat="43.72836" lon="3.86983">
        <ele>87.14</ele>
        <time>2014-05-08T15:05:19Z</time>
      </trkpt>
      <trkpt lat="43.72824" lon="3.86985">
        <ele>86.66</ele>
        <time>2014-05-08T15:05:20Z</time>
      </trkpt>
      <trkpt lat="43.72811" lon="3.86993">
        <ele>86.18</ele>
        <time>2014-05-08T15:05:21Z</time>
      </trkpt>
      <trkpt lat="43.72795" lon="3.87002">
        <ele>85.69</ele>
        <time>2014-05-08T15:05:22Z</time>
      </trkpt>
      <trkpt lat="43.72775" lon="3.87006">
        <ele>85.21</ele>
        <time>2014-05-08T15:05:23Z</time>
      </trkpt>
      <trkpt lat="43.72753" lon="3.87006">
        <ele>84.73</ele>
        <time>2014-05-08T15:05:24Z</time>
      </trkpt>
      <trkpt lat="43.7273" lon="3.87004">
        <ele>84.25</ele>
        <time>2014-05-08T15:05:25Z</time>
      </trkpt>
      <trkpt lat="43.72707" lon="3.86998">
        <ele>84.25</ele>
        <time>2014-05-08T15:05:26Z</time>
      </trkpt>
      <trkpt lat="43.72685" lon="3.86989">
        <ele>83.77</ele>
        <time>2014-05-08T15:05:27Z</time>
      </trkpt>
      <trkpt lat="43.72664" lon="3.86979">
        <ele>83.29</ele>
        <time>2014-05-08T15:05:28Z</time>
      </trkpt>
      <trkpt lat="43.72644" lon="3.86966">
        <ele>82.33</ele>
        <time>2014-05-08T15:05:29Z</time>
      </trkpt>
      <trkpt lat="43.72625" lon="3.86953">
        <ele>82.33</ele>
        <time>2014-05-08T15:05:30Z</time>
      </trkpt>
      <trkpt lat="43.72502" lon="3.86898">
        <ele>79.45</ele>
        <time>2014-05-08T15:05:37Z</time>
      </trkpt>
      <trkpt lat="43.72258" lon="3.86852">
        <ele>75.6</ele>
        <time>2014-05-08T15:05:50Z</time>
      </trkpt>
      <trkpt lat="43.72199" lon="3.86853">
        <ele>76.56</ele>
        <time>2014-05-08T15:05:53Z</time>
      </trkpt>
      <trkpt lat="43.7218" lon="3.86858">
        <ele>76.56</ele>
        <time>2014-05-08T15:05:54Z</time>
      </trkpt>
      <trkpt lat="43.72162" lon="3.86867">
        <ele>76.56</ele>
        <time>2014-05-08T15:05:55Z</time>
      </trkpt>
      <trkpt lat="43.72087" lon="3.86901">
        <ele>75.6</ele>
        <time>2014-05-08T15:05:59Z</time>
      </trkpt>
      <trkpt lat="43.72063" lon="3.86903">
        <ele>75.12</ele>
        <time>2014-05-08T15:06:00Z</time>
      </trkpt>
      <trkpt lat="43.72037" lon="3.86901">
        <ele>74.64</ele>
        <time>2014-05-08T15:06:01Z</time>
      </trkpt>
      <trkpt lat="43.7201" lon="3.86894">
        <ele>74.16</ele>
        <time>2014-05-08T15:06:02Z</time>
      </trkpt>
      <trkpt lat="43.71981" lon="3.86883">
        <ele>73.68</ele>
        <time>2014-05-08T15:06:03Z</time>
      </trkpt>
      <trkpt lat="43.71951" lon="3.8687">
        <ele>73.2</ele>
        <time>2014-05-08T15:06:04Z</time>
      </trkpt>
      <trkpt lat="43.71921" lon="3.86856">
        <ele>73.68</ele>
        <time>2014-05-08T15:06:05Z</time>
      </trkpt>
      <trkpt lat="43.71711" lon="3.86749">
        <ele>72.24</ele>
        <time>2014-05-08T15:06:12Z</time>
      </trkpt>
      <trkpt lat="43.71517" lon="3.86668">
        <ele>70.31</ele>
        <time>2014-05-08T15:06:19Z</time>
      </trkpt>
      <trkpt lat="43.71402" lon="3.86659">
        <ele>70.31</ele>
        <time>2014-05-08T15:06:24Z</time>
      </trkpt>
      <trkpt lat="43.71264" lon="3.86682">
        <ele>70.79</ele>
        <time>2014-05-08T15:06:31Z</time>
      </trkpt>
      <trkpt lat="43.71033" lon="3.86741">
        <ele>69.35</ele>
        <time>2014-05-08T15:06:40Z</time>
      </trkpt>
      <trkpt lat="43.70715" lon="3.86784">
        <ele>67.91</ele>
        <time>2014-05-08T15:06:52Z</time>
      </trkpt>
      <trkpt lat="43.70502" lon="3.86802">
        <ele>66.47</ele>
        <time>2014-05-08T15:07:00Z</time>
      </trkpt>
      <trkpt lat="43.70457" lon="3.868">
        <ele>66.47</ele>
        <time>2014-05-08T15:07:02Z</time>
      </trkpt>
      <trkpt lat="43.70437" lon="3.86795">
        <ele>65.99</ele>
        <time>2014-05-08T15:07:03Z</time>
      </trkpt>
      <trkpt lat="43.70418" lon="3.86787">
        <ele>67.43</ele>
        <time>2014-05-08T15:07:04Z</time>
      </trkpt>
      <trkpt lat="43.704" lon="3.86776">
        <ele>69.83</ele>
        <time>2014-05-08T15:07:05Z</time>
      </trkpt>
      <trkpt lat="43.70383" lon="3.86763">
        <ele>70.79</ele>
        <time>2014-05-08T15:07:06Z</time>
      </trkpt>
      <trkpt lat="43.70369" lon="3.86749">
        <ele>71.27</ele>
        <time>2014-05-08T15:07:07Z</time>
      </trkpt>
      <trkpt lat="43.70355" lon="3.86734">
        <ele>71.27</ele>
        <time>2014-05-08T15:07:08Z</time>
      </trkpt>
      <trkpt lat="43.70343" lon="3.86716">
        <ele>71.76</ele>
        <time>2014-05-08T15:07:09Z</time>
      </trkpt>
      <trkpt lat="43.70333" lon="3.86698">
        <ele>71.76</ele>
        <time>2014-05-08T15:07:10Z</time>
      </trkpt>
      <trkpt lat="43.70324" lon="3.86679">
        <ele>71.27</ele>
        <time>2014-05-08T15:07:11Z</time>
      </trkpt>
      <trkpt lat="43.70315" lon="3.86659">
        <ele>70.79</ele>
        <time>2014-05-08T15:07:12Z</time>
      </trkpt>
      <trkpt lat="43.70308" lon="3.86639">
        <ele>70.79</ele>
        <time>2014-05-08T15:07:13Z</time>
      </trkpt>
      <trkpt lat="43.70251" lon="3.86484">
        <ele>69.35</ele>
        <time>2014-05-08T15:07:22Z</time>
      </trkpt>
      <trkpt lat="43.70213" lon="3.86372">
        <ele>65.99</ele>
        <time>2014-05-08T15:07:30Z</time>
      </trkpt>
      <trkpt lat="43.70207" lon="3.86359">
        <ele>65.99</ele>
        <time>2014-05-08T15:07:31Z</time>
      </trkpt>
      <trkpt lat="43.702" lon="3.86347">
        <ele>65.51</ele>
        <time>2014-05-08T15:07:32Z</time>
      </trkpt>
      <trkpt lat="43.70193" lon="3.86337">
        <ele>65.51</ele>
        <time>2014-05-08T15:07:33Z</time>
      </trkpt>
      <trkpt lat="43.70186" lon="3.86327">
        <ele>65.51</ele>
        <time>2014-05-08T15:07:34Z</time>
      </trkpt>
      <trkpt lat="43.70135" lon="3.86281">
        <ele>65.03</ele>
        <time>2014-05-08T15:07:40Z</time>
      </trkpt>
      <trkpt lat="43.70124" lon="3.86277">
        <ele>65.03</ele>
        <time>2014-05-08T15:07:41Z</time>
      </trkpt>
      <trkpt lat="43.70079" lon="3.86253">
        <ele>65.51</ele>
        <time>2014-05-08T15:07:46Z</time>
      </trkpt>
      <trkpt lat="43.70074" lon="3.86247">
        <ele>65.51</ele>
        <time>2014-05-08T15:07:47Z</time>
      </trkpt>
      <trkpt lat="43.7007" lon="3.86241">
        <ele>65.03</ele>
        <time>2014-05-08T15:07:48Z</time>
      </trkpt>
      <trkpt lat="43.70067" lon="3.86232">
        <ele>64.55</ele>
        <time>2014-05-08T15:07:49Z</time>
      </trkpt>
      <trkpt lat="43.70066" lon="3.8622">
        <ele>64.55</ele>
        <time>2014-05-08T15:07:50Z</time>
      </trkpt>
      <trkpt lat="43.70067" lon="3.86206">
        <ele>65.03</ele>
        <time>2014-05-08T15:07:51Z</time>
      </trkpt>
      <trkpt lat="43.70069" lon="3.8619">
        <ele>64.55</ele>
        <time>2014-05-08T15:07:52Z</time>
      </trkpt>
      <trkpt lat="43.70073" lon="3.86173">
        <ele>64.55</ele>
        <time>2014-05-08T15:07:53Z</time>
      </trkpt>
      <trkpt lat="43.70108" lon="3.85973">
        <ele>61.66</ele>
        <time>2014-05-08T15:08:03Z</time>
      </trkpt>
      <trkpt lat="43.70147" lon="3.85742">
        <ele>59.26</ele>
        <time>2014-05-08T15:08:15Z</time>
      </trkpt>
      <trkpt lat="43.70171" lon="3.85606">
        <ele>60.22</ele>
        <time>2014-05-08T15:08:24Z</time>
      </trkpt>
      <trkpt lat="43.70191" lon="3.85472">
        <ele>62.62</ele>
        <time>2014-05-08T15:08:31Z</time>
      </trkpt>
      <trkpt lat="43.70196" lon="3.85425">
        <ele>63.58</ele>
        <time>2014-05-08T15:08:34Z</time>
      </trkpt>
      <trkpt lat="43.70196" lon="3.85414">
        <ele>64.07</ele>
        <time>2014-05-08T15:08:35Z</time>
      </trkpt>
      <trkpt lat="43.70198" lon="3.85404">
        <ele>64.07</ele>
        <time>2014-05-08T15:08:36Z</time>
      </trkpt>
      <trkpt lat="43.70201" lon="3.85393">
        <ele>64.55</ele>
        <time>2014-05-08T15:08:37Z</time>
      </trkpt>
      <trkpt lat="43.70203" lon="3.85383">
        <ele>64.07</ele>
        <time>2014-05-08T15:08:38Z</time>
      </trkpt>
      <trkpt lat="43.70202" lon="3.85374">
        <ele>64.55</ele>
        <time>2014-05-08T15:08:39Z</time>
      </trkpt>
      <trkpt lat="43.70195" lon="3.85368">
        <ele>64.07</ele>
        <time>2014-05-08T15:08:40Z</time>
      </trkpt>
      <trkpt lat="43.70185" lon="3.85367">
        <ele>64.07</ele>
        <time>2014-05-08T15:08:41Z</time>
      </trkpt>
      <trkpt lat="43.70174" lon="3.85367">
        <ele>64.55</ele>
        <time>2014-05-08T15:08:42Z</time>
      </trkpt>
      <trkpt lat="43.70161" lon="3.85366">
        <ele>65.03</ele>
        <time>2014-05-08T15:08:43Z</time>
      </trkpt>
      <trkpt lat="43.70147" lon="3.85363">
        <ele>65.51</ele>
        <time>2014-05-08T15:08:44Z</time>
      </trkpt>
      <trkpt lat="43.70053" lon="3.85348">
        <ele>67.43</ele>
        <time>2014-05-08T15:08:49Z</time>
      </trkpt>
      <trkpt lat="43.70029" lon="3.85349">
        <ele>67.43</ele>
        <time>2014-05-08T15:08:50Z</time>
      </trkpt>
      <trkpt lat="43.70005" lon="3.85357">
        <ele>67.43</ele>
        <time>2014-05-08T15:08:51Z</time>
      </trkpt>
      <trkpt lat="43.69981" lon="3.85367">
        <ele>67.43</ele>
        <time>2014-05-08T15:08:52Z</time>
      </trkpt>
      <trkpt lat="43.69889" lon="3.85387">
        <ele>66.95</ele>
        <time>2014-05-08T15:08:56Z</time>
      </trkpt>
      <trkpt lat="43.69863" lon="3.85383">
        <ele>65.99</ele>
        <time>2014-05-08T15:08:57Z</time>
      </trkpt>
      <trkpt lat="43.69596" lon="3.85369">
        <ele>63.1</ele>
        <time>2014-05-08T15:09:07Z</time>
      </trkpt>
      <trkpt lat="43.69462" lon="3.85369">
        <ele>63.1</ele>
        <time>2014-05-08T15:09:12Z</time>
      </trkpt>
      <trkpt lat="43.69322" lon="3.85336">
        <ele>64.55</ele>
        <time>2014-05-08T15:09:18Z</time>
      </trkpt>
      <trkpt lat="43.69218" lon="3.85308">
        <ele>66.47</ele>
        <time>2014-05-08T15:09:25Z</time>
      </trkpt>
      <trkpt lat="43.69152" lon="3.85275">
        <ele>66.47</ele>
        <time>2014-05-08T15:09:31Z</time>
      </trkpt>
      <trkpt lat="43.69141" lon="3.85272">
        <ele>66.47</ele>
        <time>2014-05-08T15:09:32Z</time>
      </trkpt>
      <trkpt lat="43.69129" lon="3.85272">
        <ele>65.99</ele>
        <time>2014-05-08T15:09:33Z</time>
      </trkpt>
      <trkpt lat="43.69116" lon="3.85273">
        <ele>65.99</ele>
        <time>2014-05-08T15:09:34Z</time>
      </trkpt>
      <trkpt lat="43.69104" lon="3.85277">
        <ele>65.51</ele>
        <time>2014-05-08T15:09:35Z</time>
      </trkpt>
      <trkpt lat="43.69091" lon="3.85283">
        <ele>65.51</ele>
        <time>2014-05-08T15:09:36Z</time>
      </trkpt>
      <trkpt lat="43.69078" lon="3.85292">
        <ele>65.51</ele>
        <time>2014-05-08T15:09:37Z</time>
      </trkpt>
      <trkpt lat="43.69066" lon="3.85301">
        <ele>65.51</ele>
        <time>2014-05-08T15:09:38Z</time>
      </trkpt>
      <trkpt lat="43.69054" lon="3.85311">
        <ele>65.51</ele>
        <time>2014-05-08T15:09:39Z</time>
      </trkpt>
      <trkpt lat="43.68949" lon="3.85419">
        <ele>65.99</ele>
        <time>2014-05-08T15:09:49Z</time>
      </trkpt>
      <trkpt lat="43.68819" lon="3.8555">
        <ele>64.55</ele>
        <time>2014-05-08T15:09:59Z</time>
      </trkpt>
      <trkpt lat="43.68711" lon="3.85615">
        <ele>62.14</ele>
        <time>2014-05-08T15:10:04Z</time>
      </trkpt>
      <trkpt lat="43.68688" lon="3.85623">
        <ele>62.14</ele>
        <time>2014-05-08T15:10:05Z</time>
      </trkpt>
      <trkpt lat="43.68531" lon="3.85656">
        <ele>59.74</ele>
        <time>2014-05-08T15:10:12Z</time>
      </trkpt>
      <trkpt lat="43.6851" lon="3.85651">
        <ele>59.26</ele>
        <time>2014-05-08T15:10:13Z</time>
      </trkpt>
      <trkpt lat="43.68465" lon="3.85641">
        <ele>59.74</ele>
        <time>2014-05-08T15:10:15Z</time>
      </trkpt>
      <trkpt lat="43.68441" lon="3.85641">
        <ele>59.74</ele>
        <time>2014-05-08T15:10:16Z</time>
      </trkpt>
      <trkpt lat="43.68416" lon="3.85643">
        <ele>59.74</ele>
        <time>2014-05-08T15:10:17Z</time>
      </trkpt>
      <trkpt lat="43.6815" lon="3.8569">
        <ele>64.07</ele>
        <time>2014-05-08T15:10:28Z</time>
      </trkpt>
      <trkpt lat="43.6808" lon="3.85699">
        <ele>64.07</ele>
        <time>2014-05-08T15:10:31Z</time>
      </trkpt>
      <trkpt lat="43.68055" lon="3.85693">
        <ele>64.07</ele>
        <time>2014-05-08T15:10:32Z</time>
      </trkpt>
      <trkpt lat="43.67833" lon="3.8563">
        <ele>66.95</ele>
        <time>2014-05-08T15:10:41Z</time>
      </trkpt>
      <trkpt lat="43.67744" lon="3.85595">
        <ele>67.91</ele>
        <time>2014-05-08T15:10:46Z</time>
      </trkpt>
      <trkpt lat="43.67725" lon="3.8559">
        <ele>67.43</ele>
        <time>2014-05-08T15:10:48Z</time>
      </trkpt>
      <trkpt lat="43.67718" lon="3.85596">
        <ele>67.43</ele>
        <time>2014-05-08T15:10:49Z</time>
      </trkpt>
      <trkpt lat="43.67708" lon="3.85605">
        <ele>67.43</ele>
        <time>2014-05-08T15:10:50Z</time>
      </trkpt>
      <trkpt lat="43.6763" lon="3.85684">
        <ele>65.99</ele>
        <time>2014-05-08T15:10:55Z</time>
      </trkpt>
      <trkpt lat="43.67484" lon="3.85836">
        <ele>64.55</ele>
        <time>2014-05-08T15:11:04Z</time>
      </trkpt>
      <trkpt lat="43.67353" lon="3.85956">
        <ele>64.55</ele>
        <time>2014-05-08T15:11:15Z</time>
      </trkpt>
      <trkpt lat="43.67227" lon="3.86044">
        <ele>62.14</ele>
        <time>2014-05-08T15:11:25Z</time>
      </trkpt>
      <trkpt lat="43.67115" lon="3.86113">
        <ele>60.22</ele>
        <time>2014-05-08T15:11:35Z</time>
      </trkpt>
      <trkpt lat="43.67098" lon="3.86124">
        <ele>59.74</ele>
        <time>2014-05-08T15:11:37Z</time>
      </trkpt>
      <trkpt lat="43.67092" lon="3.86131">
        <ele>59.74</ele>
        <time>2014-05-08T15:11:38Z</time>
      </trkpt>
      <trkpt lat="43.67087" lon="3.86138">
        <ele>59.74</ele>
        <time>2014-05-08T15:11:39Z</time>
      </trkpt>
      <trkpt lat="43.67066" lon="3.86163">
        <ele>58.78</ele>
        <time>2014-05-08T15:11:44Z</time>
      </trkpt>
      <trkpt lat="43.6706" lon="3.86166">
        <ele>58.78</ele>
        <time>2014-05-08T15:11:45Z</time>
      </trkpt>
      <trkpt lat="43.67052" lon="3.86169">
        <ele>58.78</ele>
        <time>2014-05-08T15:11:46Z</time>
      </trkpt>
      <trkpt lat="43.67043" lon="3.86171">
        <ele>58.78</ele>
        <time>2014-05-08T15:11:47Z</time>
      </trkpt>
      <trkpt lat="43.67034" lon="3.86171">
        <ele>58.78</ele>
        <time>2014-05-08T15:11:48Z</time>
      </trkpt>
      <trkpt lat="43.67025" lon="3.86169">
        <ele>58.78</ele>
        <time>2014-05-08T15:11:49Z</time>
      </trkpt>
      <trkpt lat="43.67002" lon="3.86168">
        <ele>59.26</ele>
        <time>2014-05-08T15:11:52Z</time>
      </trkpt>
      <trkpt lat="43.66996" lon="3.86169">
        <ele>59.26</ele>
        <time>2014-05-08T15:11:53Z</time>
      </trkpt>
      <trkpt lat="43.6699" lon="3.86171">
        <ele>59.74</ele>
        <time>2014-05-08T15:11:54Z</time>
      </trkpt>
      <trkpt lat="43.66976" lon="3.86177">
        <ele>59.26</ele>
        <time>2014-05-08T15:11:56Z</time>
      </trkpt>
      <trkpt lat="43.66969" lon="3.86182">
        <ele>58.78</ele>
        <time>2014-05-08T15:11:57Z</time>
      </trkpt>
      <trkpt lat="43.66962" lon="3.86188">
        <ele>58.78</ele>
        <time>2014-05-08T15:11:58Z</time>
      </trkpt>
      <trkpt lat="43.66929" lon="3.86223">
        <ele>58.3</ele>
        <time>2014-05-08T15:12:07Z</time>
      </trkpt>
      <trkpt lat="43.66927" lon="3.86224">
        <ele>59.26</ele>
        <time>2014-05-08T15:12:17Z</time>
      </trkpt>
      <trkpt lat="43.66913" lon="3.86238">
        <ele>59.26</ele>
        <time>2014-05-08T15:12:20Z</time>
      </trkpt>
      <trkpt lat="43.66905" lon="3.86245">
        <ele>58.78</ele>
        <time>2014-05-08T15:12:21Z</time>
      </trkpt>
      <trkpt lat="43.66838" lon="3.86316">
        <ele>56.86</ele>
        <time>2014-05-08T15:12:27Z</time>
      </trkpt>
      <trkpt lat="43.66805" lon="3.86339">
        <ele>55.41</ele>
        <time>2014-05-08T15:12:29Z</time>
      </trkpt>
      <trkpt lat="43.66786" lon="3.86344">
        <ele>54.93</ele>
        <time>2014-05-08T15:12:30Z</time>
      </trkpt>
      <trkpt lat="43.66767" lon="3.86347">
        <ele>54.45</ele>
        <time>2014-05-08T15:12:31Z</time>
      </trkpt>
      <trkpt lat="43.66749" lon="3.86349">
        <ele>54.45</ele>
        <time>2014-05-08T15:12:32Z</time>
      </trkpt>
      <trkpt lat="43.66729" lon="3.86351">
        <ele>53.97</ele>
        <time>2014-05-08T15:12:33Z</time>
      </trkpt>
      <trkpt lat="43.66675" lon="3.8634">
        <ele>51.57</ele>
        <time>2014-05-08T15:12:36Z</time>
      </trkpt>
      <trkpt lat="43.66658" lon="3.86331">
        <ele>51.57</ele>
        <time>2014-05-08T15:12:37Z</time>
      </trkpt>
      <trkpt lat="43.66641" lon="3.86324">
        <ele>52.05</ele>
        <time>2014-05-08T15:12:38Z</time>
      </trkpt>
      <trkpt lat="43.66623" lon="3.86318">
        <ele>51.57</ele>
        <time>2014-05-08T15:12:39Z</time>
      </trkpt>
      <trkpt lat="43.66604" lon="3.86314">
        <ele>52.05</ele>
        <time>2014-05-08T15:12:40Z</time>
      </trkpt>
      <trkpt lat="43.66586" lon="3.86313">
        <ele>52.53</ele>
        <time>2014-05-08T15:12:41Z</time>
      </trkpt>
      <trkpt lat="43.66567" lon="3.86314">
        <ele>52.53</ele>
        <time>2014-05-08T15:12:42Z</time>
      </trkpt>
      <trkpt lat="43.66451" lon="3.86342">
        <ele>54.45</ele>
        <time>2014-05-08T15:12:49Z</time>
      </trkpt>
      <trkpt lat="43.66405" lon="3.86356">
        <ele>52.05</ele>
        <time>2014-05-08T15:12:53Z</time>
      </trkpt>
      <trkpt lat="43.6639" lon="3.86355">
        <ele>51.57</ele>
        <time>2014-05-08T15:12:54Z</time>
      </trkpt>
      <trkpt lat="43.66374" lon="3.86347">
        <ele>51.09</ele>
        <time>2014-05-08T15:12:55Z</time>
      </trkpt>
      <trkpt lat="43.66357" lon="3.86338">
        <ele>49.65</ele>
        <time>2014-05-08T15:12:56Z</time>
      </trkpt>
      <trkpt lat="43.6634" lon="3.86325">
        <ele>49.65</ele>
        <time>2014-05-08T15:12:57Z</time>
      </trkpt>
      <trkpt lat="43.66322" lon="3.86313">
        <ele>48.68</ele>
        <time>2014-05-08T15:12:58Z</time>
      </trkpt>
      <trkpt lat="43.66265" lon="3.86289">
        <ele>48.2</ele>
        <time>2014-05-08T15:13:01Z</time>
      </trkpt>
      <trkpt lat="43.66245" lon="3.86286">
        <ele>48.68</ele>
        <time>2014-05-08T15:13:02Z</time>
      </trkpt>
      <trkpt lat="43.66225" lon="3.86287">
        <ele>48.68</ele>
        <time>2014-05-08T15:13:03Z</time>
      </trkpt>
      <trkpt lat="43.66195" lon="3.86292">
        <ele>46.76</ele>
        <time>2014-05-08T15:13:05Z</time>
      </trkpt>
      <trkpt lat="43.66148" lon="3.86295">
        <ele>43.4</ele>
        <time>2014-05-08T15:13:10Z</time>
      </trkpt>
      <trkpt lat="43.66095" lon="3.86308">
        <ele>41.47</ele>
        <time>2014-05-08T15:13:13Z</time>
      </trkpt>
      <trkpt lat="43.66057" lon="3.86321">
        <ele>41.95</ele>
        <time>2014-05-08T15:13:15Z</time>
      </trkpt>
      <trkpt lat="43.66038" lon="3.86324">
        <ele>42.44</ele>
        <time>2014-05-08T15:13:16Z</time>
      </trkpt>
      <trkpt lat="43.66002" lon="3.86324">
        <ele>42.44</ele>
        <time>2014-05-08T15:13:18Z</time>
      </trkpt>
      <trkpt lat="43.65983" lon="3.86321">
        <ele>43.88</ele>
        <time>2014-05-08T15:13:19Z</time>
      </trkpt>
      <trkpt lat="43.65965" lon="3.86319">
        <ele>44.36</ele>
        <time>2014-05-08T15:13:20Z</time>
      </trkpt>
      <trkpt lat="43.65945" lon="3.86319">
        <ele>44.36</ele>
        <time>2014-05-08T15:13:21Z</time>
      </trkpt>
      <trkpt lat="43.65924" lon="3.86321">
        <ele>44.84</ele>
        <time>2014-05-08T15:13:22Z</time>
      </trkpt>
      <trkpt lat="43.65903" lon="3.86325">
        <ele>44.84</ele>
        <time>2014-05-08T15:13:23Z</time>
      </trkpt>
      <trkpt lat="43.65742" lon="3.86364">
        <ele>44.36</ele>
        <time>2014-05-08T15:13:32Z</time>
      </trkpt>
      <trkpt lat="43.65644" lon="3.86396">
        <ele>44.36</ele>
        <time>2014-05-08T15:13:38Z</time>
      </trkpt>
      <trkpt lat="43.65475" lon="3.86464">
        <ele>43.4</ele>
        <time>2014-05-08T15:13:47Z</time>
      </trkpt>
      <trkpt lat="43.65354" lon="3.86507">
        <ele>43.88</ele>
        <time>2014-05-08T15:13:55Z</time>
      </trkpt>
      <trkpt lat="43.6525" lon="3.86537">
        <ele>43.4</ele>
        <time>2014-05-08T15:14:00Z</time>
      </trkpt>
      <trkpt lat="43.65165" lon="3.86591">
        <ele>44.36</ele>
        <time>2014-05-08T15:14:05Z</time>
      </trkpt>
      <trkpt lat="43.65151" lon="3.86598">
        <ele>44.36</ele>
        <time>2014-05-08T15:14:06Z</time>
      </trkpt>
      <trkpt lat="43.65134" lon="3.86604">
        <ele>44.84</ele>
        <time>2014-05-08T15:14:08Z</time>
      </trkpt>
      <trkpt lat="43.65128" lon="3.86604">
        <ele>44.84</ele>
        <time>2014-05-08T15:14:09Z</time>
      </trkpt>
      <trkpt lat="43.65123" lon="3.86601">
        <ele>44.84</ele>
        <time>2014-05-08T15:14:10Z</time>
      </trkpt>
      <trkpt lat="43.65116" lon="3.86596">
        <ele>45.32</ele>
        <time>2014-05-08T15:14:11Z</time>
      </trkpt>
      <trkpt lat="43.65109" lon="3.8659">
        <ele>45.32</ele>
        <time>2014-05-08T15:14:12Z</time>
      </trkpt>
      <trkpt lat="43.65103" lon="3.86582">
        <ele>44.84</ele>
        <time>2014-05-08T15:14:13Z</time>
      </trkpt>
      <trkpt lat="43.65097" lon="3.86572">
        <ele>44.84</ele>
        <time>2014-05-08T15:14:14Z</time>
      </trkpt>
      <trkpt lat="43.65093" lon="3.86559">
        <ele>44.36</ele>
        <time>2014-05-08T15:14:15Z</time>
      </trkpt>
      <trkpt lat="43.6508" lon="3.86519">
        <ele>42.44</ele>
        <time>2014-05-08T15:14:18Z</time>
      </trkpt>
      <trkpt lat="43.65077" lon="3.86505">
        <ele>42.44</ele>
        <time>2014-05-08T15:14:19Z</time>
      </trkpt>
      <trkpt lat="43.65076" lon="3.8649">
        <ele>41.95</ele>
        <time>2014-05-08T15:14:20Z</time>
      </trkpt>
      <trkpt lat="43.65062" lon="3.8633">
        <ele>42.92</ele>
        <time>2014-05-08T15:14:28Z</time>
      </trkpt>
      <trkpt lat="43.65042" lon="3.86144">
        <ele>48.2</ele>
        <time>2014-05-08T15:14:35Z</time>
      </trkpt>
      <trkpt lat="43.65012" lon="3.85896">
        <ele>56.37</ele>
        <time>2014-05-08T15:14:42Z</time>
      </trkpt>
      <trkpt lat="43.64931" lon="3.85631">
        <ele>59.26</ele>
        <time>2014-05-08T15:14:50Z</time>
      </trkpt>
      <trkpt lat="43.6483" lon="3.85496">
        <ele>59.74</ele>
        <time>2014-05-08T15:14:55Z</time>
      </trkpt>
      <trkpt lat="43.64705" lon="3.8542">
        <ele>65.51</ele>
        <time>2014-05-08T15:15:00Z</time>
      </trkpt>
      <trkpt lat="43.64583" lon="3.85348">
        <ele>70.79</ele>
        <time>2014-05-08T15:15:06Z</time>
      </trkpt>
      <trkpt lat="43.64539" lon="3.85294">
        <ele>74.16</ele>
        <time>2014-05-08T15:15:10Z</time>
      </trkpt>
      <trkpt lat="43.64532" lon="3.8528">
        <ele>74.64</ele>
        <time>2014-05-08T15:15:11Z</time>
      </trkpt>
      <trkpt lat="43.64528" lon="3.85265">
        <ele>75.12</ele>
        <time>2014-05-08T15:15:12Z</time>
      </trkpt>
      <trkpt lat="43.64526" lon="3.8525">
        <ele>75.12</ele>
        <time>2014-05-08T15:15:13Z</time>
      </trkpt>
      <trkpt lat="43.64522" lon="3.85236">
        <ele>75.12</ele>
        <time>2014-05-08T15:15:14Z</time>
      </trkpt>
      <trkpt lat="43.64517" lon="3.85224">
        <ele>75.12</ele>
        <time>2014-05-08T15:15:15Z</time>
      </trkpt>
      <trkpt lat="43.64508" lon="3.85217">
        <ele>75.12</ele>
        <time>2014-05-08T15:15:16Z</time>
      </trkpt>
      <trkpt lat="43.64497" lon="3.85209">
        <ele>74.64</ele>
        <time>2014-05-08T15:15:17Z</time>
      </trkpt>
      <trkpt lat="43.64485" lon="3.85199">
        <ele>74.64</ele>
        <time>2014-05-08T15:15:18Z</time>
      </trkpt>
      <trkpt lat="43.64473" lon="3.85183">
        <ele>74.64</ele>
        <time>2014-05-08T15:15:19Z</time>
      </trkpt>
      <trkpt lat="43.6446" lon="3.85163">
        <ele>75.12</ele>
        <time>2014-05-08T15:15:20Z</time>
      </trkpt>
      <trkpt lat="43.64446" lon="3.8514">
        <ele>75.12</ele>
        <time>2014-05-08T15:15:21Z</time>
      </trkpt>
      <trkpt lat="43.64432" lon="3.85116">
        <ele>76.08</ele>
        <time>2014-05-08T15:15:22Z</time>
      </trkpt>
      <trkpt lat="43.6434" lon="3.84914">
        <ele>78</ele>
        <time>2014-05-08T15:15:29Z</time>
      </trkpt>
      <trkpt lat="43.64301" lon="3.84836">
        <ele>75.6</ele>
        <time>2014-05-08T15:15:32Z</time>
      </trkpt>
      <trkpt lat="43.64285" lon="3.84813">
        <ele>74.64</ele>
        <time>2014-05-08T15:15:33Z</time>
      </trkpt>
      <trkpt lat="43.64267" lon="3.84794">
        <ele>73.68</ele>
        <time>2014-05-08T15:15:34Z</time>
      </trkpt>
      <trkpt lat="43.64249" lon="3.84777">
        <ele>72.72</ele>
        <time>2014-05-08T15:15:35Z</time>
      </trkpt>
      <trkpt lat="43.6423" lon="3.84762">
        <ele>71.27</ele>
        <time>2014-05-08T15:15:36Z</time>
      </trkpt>
      <trkpt lat="43.64209" lon="3.8475">
        <ele>69.83</ele>
        <time>2014-05-08T15:15:37Z</time>
      </trkpt>
      <trkpt lat="43.64187" lon="3.84739">
        <ele>68.39</ele>
        <time>2014-05-08T15:15:38Z</time>
      </trkpt>
      <trkpt lat="43.63869" lon="3.84646">
        <ele>54.93</ele>
        <time>2014-05-08T15:15:52Z</time>
      </trkpt>
      <trkpt lat="43.63766" lon="3.84576">
        <ele>56.37</ele>
        <time>2014-05-08T15:15:59Z</time>
      </trkpt>
      <trkpt lat="43.63647" lon="3.84464">
        <ele>54.93</ele>
        <time>2014-05-08T15:16:08Z</time>
      </trkpt>
      <trkpt lat="43.63632" lon="3.84454">
        <ele>54.45</ele>
        <time>2014-05-08T15:16:09Z</time>
      </trkpt>
      <trkpt lat="43.63529" lon="3.84396">
        <ele>54.45</ele>
        <time>2014-05-08T15:16:17Z</time>
      </trkpt>
      <trkpt lat="43.63507" lon="3.84381">
        <ele>55.41</ele>
        <time>2014-05-08T15:16:23Z</time>
      </trkpt>
      <trkpt lat="43.63505" lon="3.84379">
        <ele>56.37</ele>
        <time>2014-05-08T15:16:35Z</time>
      </trkpt>
      <trkpt lat="43.63478" lon="3.84363">
        <ele>57.34</ele>
        <time>2014-05-08T15:16:39Z</time>
      </trkpt>
      <trkpt lat="43.63353" lon="3.84311">
        <ele>58.3</ele>
        <time>2014-05-08T15:16:50Z</time>
      </trkpt>
      <trkpt lat="43.63232" lon="3.84273">
        <ele>56.86</ele>
        <time>2014-05-08T15:17:00Z</time>
      </trkpt>
      <trkpt lat="43.63175" lon="3.84232">
        <ele>56.86</ele>
        <time>2014-05-08T15:17:09Z</time>
      </trkpt>
      <trkpt lat="43.6317" lon="3.84226">
        <ele>56.86</ele>
        <time>2014-05-08T15:17:10Z</time>
      </trkpt>
      <trkpt lat="43.63165" lon="3.84216">
        <ele>56.86</ele>
        <time>2014-05-08T15:17:11Z</time>
      </trkpt>
      <trkpt lat="43.63162" lon="3.84203">
        <ele>56.86</ele>
        <time>2014-05-08T15:17:12Z</time>
      </trkpt>
      <trkpt lat="43.63158" lon="3.8419">
        <ele>56.86</ele>
        <time>2014-05-08T15:17:13Z</time>
      </trkpt>
      <trkpt lat="43.63153" lon="3.84178">
        <ele>57.34</ele>
        <time>2014-05-08T15:17:14Z</time>
      </trkpt>
      <trkpt lat="43.63147" lon="3.84168">
        <ele>57.82</ele>
        <time>2014-05-08T15:17:15Z</time>
      </trkpt>
      <trkpt lat="43.63139" lon="3.84161">
        <ele>57.82</ele>
        <time>2014-05-08T15:17:16Z</time>
      </trkpt>
      <trkpt lat="43.63132" lon="3.84156">
        <ele>58.3</ele>
        <time>2014-05-08T15:17:17Z</time>
      </trkpt>
      <trkpt lat="43.63123" lon="3.84153">
        <ele>58.3</ele>
        <time>2014-05-08T15:17:18Z</time>
      </trkpt>
      <trkpt lat="43.63114" lon="3.84153">
        <ele>58.3</ele>
        <time>2014-05-08T15:17:19Z</time>
      </trkpt>
      <trkpt lat="43.63106" lon="3.84155">
        <ele>58.3</ele>
        <time>2014-05-08T15:17:20Z</time>
      </trkpt>
      <trkpt lat="43.63098" lon="3.84159">
        <ele>58.3</ele>
        <time>2014-05-08T15:17:21Z</time>
      </trkpt>
      <trkpt lat="43.63091" lon="3.84165">
        <ele>58.3</ele>
        <time>2014-05-08T15:17:22Z</time>
      </trkpt>
      <trkpt lat="43.63084" lon="3.84171">
        <ele>58.3</ele>
        <time>2014-05-08T15:17:23Z</time>
      </trkpt>
      <trkpt lat="43.63076" lon="3.84177">
        <ele>58.3</ele>
        <time>2014-05-08T15:17:24Z</time>
      </trkpt>
      <trkpt lat="43.63067" lon="3.84181">
        <ele>57.82</ele>
        <time>2014-05-08T15:17:25Z</time>
      </trkpt>
      <trkpt lat="43.63055" lon="3.84183">
        <ele>57.82</ele>
        <time>2014-05-08T15:17:26Z</time>
      </trkpt>
      <trkpt lat="43.63041" lon="3.84183">
        <ele>57.34</ele>
        <time>2014-05-08T15:17:27Z</time>
      </trkpt>
      <trkpt lat="43.63025" lon="3.84179">
        <ele>57.34</ele>
        <time>2014-05-08T15:17:28Z</time>
      </trkpt>
      <trkpt lat="43.63005" lon="3.84174">
        <ele>57.34</ele>
        <time>2014-05-08T15:17:29Z</time>
      </trkpt>
      <trkpt lat="43.62913" lon="3.84141">
        <ele>57.34</ele>
        <time>2014-05-08T15:17:33Z</time>
      </trkpt>
      <trkpt lat="43.6289" lon="3.84127">
        <ele>57.34</ele>
        <time>2014-05-08T15:17:34Z</time>
      </trkpt>
      <trkpt lat="43.62866" lon="3.84108">
        <ele>57.34</ele>
        <time>2014-05-08T15:17:35Z</time>
      </trkpt>
      <trkpt lat="43.62719" lon="3.83944">
        <ele>63.1</ele>
        <time>2014-05-08T15:17:42Z</time>
      </trkpt>
      <trkpt lat="43.62592" lon="3.8374">
        <ele>69.83</ele>
        <time>2014-05-08T15:17:50Z</time>
      </trkpt>
      <trkpt lat="43.62556" lon="3.83682">
        <ele>72.72</ele>
        <time>2014-05-08T15:17:54Z</time>
      </trkpt>
      <trkpt lat="43.62552" lon="3.83671">
        <ele>73.68</ele>
        <time>2014-05-08T15:17:55Z</time>
      </trkpt>
      <trkpt lat="43.6255" lon="3.83658">
        <ele>74.64</ele>
        <time>2014-05-08T15:17:56Z</time>
      </trkpt>
      <trkpt lat="43.62552" lon="3.83643">
        <ele>75.12</ele>
        <time>2014-05-08T15:17:57Z</time>
      </trkpt>
      <trkpt lat="43.62552" lon="3.83627">
        <ele>75.12</ele>
        <time>2014-05-08T15:17:58Z</time>
      </trkpt>
      <trkpt lat="43.62552" lon="3.83611">
        <ele>75.6</ele>
        <time>2014-05-08T15:17:59Z</time>
      </trkpt>
      <trkpt lat="43.62546" lon="3.83596">
        <ele>75.12</ele>
        <time>2014-05-08T15:18:00Z</time>
      </trkpt>
      <trkpt lat="43.62535" lon="3.83585">
        <ele>75.12</ele>
        <time>2014-05-08T15:18:01Z</time>
      </trkpt>
      <trkpt lat="43.62524" lon="3.83577">
        <ele>75.12</ele>
        <time>2014-05-08T15:18:02Z</time>
      </trkpt>
      <trkpt lat="43.62511" lon="3.83577">
        <ele>75.12</ele>
        <time>2014-05-08T15:18:03Z</time>
      </trkpt>
      <trkpt lat="43.62498" lon="3.83583">
        <ele>74.64</ele>
        <time>2014-05-08T15:18:04Z</time>
      </trkpt>
      <trkpt lat="43.62487" lon="3.83594">
        <ele>74.16</ele>
        <time>2014-05-08T15:18:05Z</time>
      </trkpt>
      <trkpt lat="43.62479" lon="3.83607">
        <ele>73.68</ele>
        <time>2014-05-08T15:18:06Z</time>
      </trkpt>
      <trkpt lat="43.62473" lon="3.83621">
        <ele>73.68</ele>
        <time>2014-05-08T15:18:07Z</time>
      </trkpt>
      <trkpt lat="43.62467" lon="3.83634">
        <ele>72.72</ele>
        <time>2014-05-08T15:18:08Z</time>
      </trkpt>
      <trkpt lat="43.62459" lon="3.83644">
        <ele>72.72</ele>
        <time>2014-05-08T15:18:09Z</time>
      </trkpt>
      <trkpt lat="43.6245" lon="3.83646">
        <ele>72.72</ele>
        <time>2014-05-08T15:18:10Z</time>
      </trkpt>
      <trkpt lat="43.62443" lon="3.83649">
        <ele>72.72</ele>
        <time>2014-05-08T15:18:11Z</time>
      </trkpt>
      <trkpt lat="43.62436" lon="3.83649">
        <ele>73.2</ele>
        <time>2014-05-08T15:18:12Z</time>
      </trkpt>
      <trkpt lat="43.6243" lon="3.83649">
        <ele>73.68</ele>
        <time>2014-05-08T15:18:13Z</time>
      </trkpt>
      <trkpt lat="43.62424" lon="3.83649">
        <ele>74.16</ele>
        <time>2014-05-08T15:18:14Z</time>
      </trkpt>
      <trkpt lat="43.62418" lon="3.83651">
        <ele>74.16</ele>
        <time>2014-05-08T15:18:15Z</time>
      </trkpt>
      <trkpt lat="43.62413" lon="3.83655">
        <ele>74.16</ele>
        <time>2014-05-08T15:18:16Z</time>
      </trkpt>
      <trkpt lat="43.62409" lon="3.8366">
        <ele>74.64</ele>
        <time>2014-05-08T15:18:17Z</time>
      </trkpt>
      <trkpt lat="43.62407" lon="3.83666">
        <ele>75.12</ele>
        <time>2014-05-08T15:18:18Z</time>
      </trkpt>
      <trkpt lat="43.62405" lon="3.83673">
        <ele>75.12</ele>
        <time>2014-05-08T15:18:19Z</time>
      </trkpt>
      <trkpt lat="43.62405" lon="3.83679">
        <ele>75.12</ele>
        <time>2014-05-08T15:18:20Z</time>
      </trkpt>
      <trkpt lat="43.62407" lon="3.83685">
        <ele>74.64</ele>
        <time>2014-05-08T15:18:21Z</time>
      </trkpt>
      <trkpt lat="43.62411" lon="3.8369">
        <ele>75.12</ele>
        <time>2014-05-08T15:18:22Z</time>
      </trkpt>
      <trkpt lat="43.62415" lon="3.83694">
        <ele>74.64</ele>
        <time>2014-05-08T15:18:23Z</time>
      </trkpt>
      <trkpt lat="43.62419" lon="3.83698">
        <ele>74.64</ele>
        <time>2014-05-08T15:18:24Z</time>
      </trkpt>
      <trkpt lat="43.62423" lon="3.83704">
        <ele>74.64</ele>
        <time>2014-05-08T15:18:25Z</time>
      </trkpt>
      <trkpt lat="43.62426" lon="3.83713">
        <ele>74.16</ele>
        <time>2014-05-08T15:18:26Z</time>
      </trkpt>
      <trkpt lat="43.62429" lon="3.83723">
        <ele>74.16</ele>
        <time>2014-05-08T15:18:27Z</time>
      </trkpt>
      <trkpt lat="43.62431" lon="3.83734">
        <ele>74.16</ele>
        <time>2014-05-08T15:18:28Z</time>
      </trkpt>
      <trkpt lat="43.62438" lon="3.83763">
        <ele>74.64</ele>
        <time>2014-05-08T15:18:31Z</time>
      </trkpt>
      <trkpt lat="43.62438" lon="3.8377">
        <ele>74.64</ele>
        <time>2014-05-08T15:18:32Z</time>
      </trkpt>
      <trkpt lat="43.62434" lon="3.83781">
        <ele>75.6</ele>
        <time>2014-05-08T15:18:34Z</time>
      </trkpt>
      <trkpt lat="43.62411" lon="3.83797">
        <ele>79.93</ele>
        <time>2014-05-08T15:19:06Z</time>
      </trkpt>
      <trkpt lat="43.62411" lon="3.83804">
        <ele>78.48</ele>
        <time>2014-05-08T15:19:09Z</time>
      </trkpt>
      <trkpt lat="43.62411" lon="3.83827">
        <ele>81.85</ele>
        <time>2014-05-08T15:19:21Z</time>
      </trkpt>
    </trkseg>
  </trk>
</gpx>